<?xml version='1.0' encoding='UTF-8'?><gpx version="1.1" creator="JPX - https://github.com/jenetics/jpx" xmlns="http://www.topografix.com/GPX/1/1"><trk><trkseg><trkpt lat="40.815725034617124" lon="8.465911726176746"><ele>3.9999999999999996</ele><time>2026-03-29T07:20:48.001Z</time></trkpt><trkpt lat="40.815675374472775" lon="8.465979763412376"><ele>4.0</ele><time>2026-03-29T07:20:50.001Z</time></trkpt><trkpt lat="40.815624385481776" lon="8.466047500433692"><ele>4.0</ele><time>2026-03-29T07:20:51.001Z</time></trkpt><trkpt lat="40.81556803691646" lon="8.466139247405598"><ele>4.0</ele><time>2026-03-29T07:20:52.001Z</time></trkpt><trkpt lat="40.81550477232815" lon="8.466229770712106"><ele>3.9999999999999996</ele><time>2026-03-29T07:20:53.001Z</time></trkpt><trkpt lat="40.815438286698885" lon="8.466331890651677"><ele>4.0</ele><time>2026-03-29T07:20:54.001Z</time></trkpt><trkpt lat="40.81536857093915" lon="8.466466470469559"><ele>4.5</ele><time>2026-03-29T07:20:55.001Z</time></trkpt><trkpt lat="40.81533797613172" lon="8.46662849626183"><ele>5.0</ele><time>2026-03-29T07:20:56.001Z</time></trkpt><trkpt lat="40.815292485143296" lon="8.466771368011486"><ele>5.5</ele><time>2026-03-29T07:20:57.001Z</time></trkpt><trkpt lat="40.815245733029585" lon="8.46691423113631"><ele>6.0</ele><time>2026-03-29T07:20:58.001Z</time></trkpt><trkpt lat="40.81519524993541" lon="8.467066799492194"><ele>5.25</ele><time>2026-03-29T07:20:59.001Z</time></trkpt><trkpt lat="40.81513691759441" lon="8.467230218309355"><ele>4.5</ele><time>2026-03-29T07:21:00.001Z</time></trkpt><trkpt lat="40.81507043476014" lon="8.467392892940206"><ele>3.75</ele><time>2026-03-29T07:21:01.001Z</time></trkpt><trkpt lat="40.81500111832149" lon="8.467563369930653"><ele>3.0</ele><time>2026-03-29T07:21:02.001Z</time></trkpt><trkpt lat="40.814934221463766" lon="8.46772957178135"><ele>3.0</ele><time>2026-03-29T07:21:03.001Z</time></trkpt><trkpt lat="40.814826549483726" lon="8.467866387696995"><ele>3.0</ele><time>2026-03-29T07:21:04.001Z</time></trkpt><trkpt lat="40.81475418769866" lon="8.468021872268443"><ele>3.0</ele><time>2026-03-29T07:21:05.001Z</time></trkpt><trkpt lat="40.814679069106035" lon="8.468182557374462"><ele>3.0</ele><time>2026-03-29T07:21:06.001Z</time></trkpt><trkpt lat="40.81460459461304" lon="8.468341864696972"><ele>3.0</ele><time>2026-03-29T07:21:07.001Z</time></trkpt><trkpt lat="40.81454408835351" lon="8.468509639756437"><ele>3.0</ele><time>2026-03-29T07:21:08.001Z</time></trkpt><trkpt lat="40.81446605372673" lon="8.468660447854935"><ele>3.0</ele><time>2026-03-29T07:21:09.001Z</time></trkpt><trkpt lat="40.814388566864906" lon="8.46881232444079"><ele>3.0</ele><time>2026-03-29T07:21:10.001Z</time></trkpt><trkpt lat="40.814319481192314" lon="8.468977734216752"><ele>3.0</ele><time>2026-03-29T07:21:11.001Z</time></trkpt><trkpt lat="40.81425578977561" lon="8.469150745485678"><ele>3.0</ele><time>2026-03-29T07:21:12.001Z</time></trkpt><trkpt lat="40.814206984316314" lon="8.46933242240993"><ele>3.0</ele><time>2026-03-29T07:21:13.001Z</time></trkpt><trkpt lat="40.81415839034928" lon="8.469517779113884"><ele>3.0</ele><time>2026-03-29T07:21:14.001Z</time></trkpt><trkpt lat="40.814109146238" lon="8.469707009113492"><ele>3.333333333333333</ele><time>2026-03-29T07:21:15.001Z</time></trkpt><trkpt lat="40.81406495852943" lon="8.46990085016596"><ele>3.6666666666666665</ele><time>2026-03-29T07:21:16.001Z</time></trkpt><trkpt lat="40.81402631035221" lon="8.470098196313282"><ele>4.0</ele><time>2026-03-29T07:21:17.001Z</time></trkpt><trkpt lat="40.814009108779686" lon="8.470313486090452"><ele>3.6666666666666665</ele><time>2026-03-29T07:21:18.001Z</time></trkpt><trkpt lat="40.813995964068745" lon="8.47052687512808"><ele>3.333333333333333</ele><time>2026-03-29T07:21:19.001Z</time></trkpt><trkpt lat="40.813954922290385" lon="8.470712083816158"><ele>3.0</ele><time>2026-03-29T07:21:20.001Z</time></trkpt><trkpt lat="40.81392711733914" lon="8.470909502290558"><ele>3.0</ele><time>2026-03-29T07:21:21.001Z</time></trkpt><trkpt lat="40.81388847384968" lon="8.471112773124316"><ele>3.0</ele><time>2026-03-29T07:21:22.001Z</time></trkpt><trkpt lat="40.813848529917564" lon="8.471310091515459"><ele>3.0</ele><time>2026-03-29T07:21:23.001Z</time></trkpt><trkpt lat="40.81379664682031" lon="8.471505528398076"><ele>2.3333333333333335</ele><time>2026-03-29T07:21:24.001Z</time></trkpt><trkpt lat="40.81376633131588" lon="8.471722868709135"><ele>1.6666666666666665</ele><time>2026-03-29T07:21:25.001Z</time></trkpt><trkpt lat="40.81374408379282" lon="8.471938996951108"><ele>1.0</ele><time>2026-03-29T07:21:26.001Z</time></trkpt><trkpt lat="40.813710127980066" lon="8.472154613969957"><ele>0.3333333333333333</ele><time>2026-03-29T07:21:27.001Z</time></trkpt><trkpt lat="40.81367831516679" lon="8.472364229567006"><ele>-0.3333333333333333</ele><time>2026-03-29T07:21:28.001Z</time></trkpt><trkpt lat="40.81364270250398" lon="8.472573118092749"><ele>-1.0</ele><time>2026-03-29T07:21:29.001Z</time></trkpt><trkpt lat="40.813588844760055" lon="8.472782444198735"><ele>-1.0</ele><time>2026-03-29T07:21:30.001Z</time></trkpt><trkpt lat="40.81355035257872" lon="8.473000640947372"><ele>-1.0</ele><time>2026-03-29T07:21:31.001Z</time></trkpt><trkpt lat="40.813526115114556" lon="8.473238508420115"><ele>-1.0</ele><time>2026-03-29T07:21:32.001Z</time></trkpt><trkpt lat="40.81348659376135" lon="8.473449685857172"><ele>-0.3333333333333333</ele><time>2026-03-29T07:21:33.001Z</time></trkpt><trkpt lat="40.813430388793925" lon="8.473647620428672"><ele>0.3333333333333333</ele><time>2026-03-29T07:21:34.001Z</time></trkpt><trkpt lat="40.81338487646978" lon="8.47384423446895"><ele>1.0</ele><time>2026-03-29T07:21:35.001Z</time></trkpt><trkpt lat="40.81334353588717" lon="8.474044410516118"><ele>1.0</ele><time>2026-03-29T07:21:36.001Z</time></trkpt><trkpt lat="40.813259494173224" lon="8.474212426456468"><ele>1.0</ele><time>2026-03-29T07:21:37.001Z</time></trkpt><trkpt lat="40.81318068086071" lon="8.474381032122354"><ele>1.0</ele><time>2026-03-29T07:21:38.001Z</time></trkpt><trkpt lat="40.8130809400727" lon="8.474558417061845"><ele>1.3333333333333333</ele><time>2026-03-29T07:21:39.001Z</time></trkpt><trkpt lat="40.81296773456508" lon="8.474740106333941"><ele>1.6666666666666665</ele><time>2026-03-29T07:21:40.001Z</time></trkpt><trkpt lat="40.81284146693003" lon="8.47487450909663"><ele>2.0</ele><time>2026-03-29T07:21:41.001Z</time></trkpt><trkpt lat="40.81272525816622" lon="8.475012591454737"><ele>2.6666666666666665</ele><time>2026-03-29T07:21:42.001Z</time></trkpt><trkpt lat="40.81259323055694" lon="8.475119522889278"><ele>3.333333333333333</ele><time>2026-03-29T07:21:43.001Z</time></trkpt><trkpt lat="40.81244386657688" lon="8.475195827694591"><ele>4.0</ele><time>2026-03-29T07:21:44.001Z</time></trkpt><trkpt lat="40.812283232366404" lon="8.475272291349375"><ele>4.0</ele><time>2026-03-29T07:21:45.001Z</time></trkpt><trkpt lat="40.81212228050862" lon="8.475342796883773"><ele>4.0</ele><time>2026-03-29T07:21:46.001Z</time></trkpt><trkpt lat="40.81195612219964" lon="8.475388672416237"><ele>4.0</ele><time>2026-03-29T07:21:47.001Z</time></trkpt><trkpt lat="40.81179856036611" lon="8.475429940352102"><ele>4.0</ele><time>2026-03-29T07:21:48.001Z</time></trkpt><trkpt lat="40.81163386592004" lon="8.475473731776374"><ele>4.0</ele><time>2026-03-29T07:21:49.001Z</time></trkpt><trkpt lat="40.811477792475145" lon="8.475528273792667"><ele>4.0</ele><time>2026-03-29T07:21:50.001Z</time></trkpt><trkpt lat="40.81130916001145" lon="8.47556774616115"><ele>4.0</ele><time>2026-03-29T07:21:51.001Z</time></trkpt><trkpt lat="40.81117351455612" lon="8.475592495274162"><ele>4.0</ele><time>2026-03-29T07:21:52.001Z</time></trkpt><trkpt lat="40.81102000755371" lon="8.47563183591168"><ele>4.0</ele><time>2026-03-29T07:21:53.001Z</time></trkpt><trkpt lat="40.810858859634536" lon="8.475673134751208"><ele>6.0</ele><time>2026-03-29T07:21:54.001Z</time></trkpt><trkpt lat="40.81069821372741" lon="8.475714304941139"><ele>8.0</ele><time>2026-03-29T07:21:55.001Z</time></trkpt><trkpt lat="40.81053458393626" lon="8.47575623982351"><ele>10.0</ele><time>2026-03-29T07:21:56.001Z</time></trkpt><trkpt lat="40.81037308138385" lon="8.475798194507691"><ele>10.0</ele><time>2026-03-29T07:21:57.001Z</time></trkpt><trkpt lat="40.810218667321614" lon="8.475838283035765"><ele>10.0</ele><time>2026-03-29T07:21:58.001Z</time></trkpt><trkpt lat="40.810041961930665" lon="8.475884158769698"><ele>10.0</ele><time>2026-03-29T07:21:59.001Z</time></trkpt><trkpt lat="40.809880973157675" lon="8.475925629073897"><ele>11.0</ele><time>2026-03-29T07:22:00.001Z</time></trkpt><trkpt lat="40.80970709936701" lon="8.47597036456483"><ele>12.0</ele><time>2026-03-29T07:22:01.001Z</time></trkpt><trkpt lat="40.809558781504144" lon="8.476008524856997"><ele>13.0</ele><time>2026-03-29T07:22:02.001Z</time></trkpt><trkpt lat="40.80937968679869" lon="8.476055071055448"><ele>14.333333333333332</ele><time>2026-03-29T07:22:03.001Z</time></trkpt><trkpt lat="40.809211157327226" lon="8.476099699062685"><ele>15.666666666666668</ele><time>2026-03-29T07:22:04.001Z</time></trkpt><trkpt lat="40.809040809059894" lon="8.476144808704888"><ele>17.0</ele><time>2026-03-29T07:22:05.001Z</time></trkpt><trkpt lat="40.8088802151003" lon="8.476195201301728"><ele>17.0</ele><time>2026-03-29T07:22:06.001Z</time></trkpt><trkpt lat="40.80871330391763" lon="8.476241448309905"><ele>17.0</ele><time>2026-03-29T07:22:07.001Z</time></trkpt><trkpt lat="40.808567538901514" lon="8.476278144030985"><ele>17.0</ele><time>2026-03-29T07:22:08.001Z</time></trkpt><trkpt lat="40.808417018054236" lon="8.47632429655509"><ele>17.666666666666668</ele><time>2026-03-29T07:22:09.001Z</time></trkpt><trkpt lat="40.80825082379516" lon="8.476371659827679"><ele>18.333333333333332</ele><time>2026-03-29T07:22:10.001Z</time></trkpt><trkpt lat="40.80807748325736" lon="8.476398242966825"><ele>19.0</ele><time>2026-03-29T07:22:11.001Z</time></trkpt><trkpt lat="40.80789899462053" lon="8.4764451235672"><ele>19.0</ele><time>2026-03-29T07:22:12.001Z</time></trkpt><trkpt lat="40.807724240477086" lon="8.476506556490502"><ele>19.0</ele><time>2026-03-29T07:22:13.001Z</time></trkpt><trkpt lat="40.80757387293355" lon="8.476534703266777"><ele>19.0</ele><time>2026-03-29T07:22:14.001Z</time></trkpt><trkpt lat="40.80740365336199" lon="8.476575657326197"><ele>19.6</ele><time>2026-03-29T07:22:15.001Z</time></trkpt><trkpt lat="40.807295755521714" lon="8.476606844989059"><ele>20.2</ele><time>2026-03-29T07:22:16.001Z</time></trkpt><trkpt lat="40.807196277294786" lon="8.476642122312997"><ele>20.8</ele><time>2026-03-29T07:22:17.001Z</time></trkpt><trkpt lat="40.807120452543394" lon="8.476668765083655"><ele>21.400000000000002</ele><time>2026-03-29T07:22:18.001Z</time></trkpt><trkpt lat="40.807002267745375" lon="8.47661445272887"><ele>22.0</ele><time>2026-03-29T07:22:20.001Z</time></trkpt><trkpt lat="40.80689957568668" lon="8.476602789493434"><ele>22.0</ele><time>2026-03-29T07:22:22.001Z</time></trkpt><trkpt lat="40.806871606288944" lon="8.476777155486591"><ele>22.0</ele><time>2026-03-29T07:22:24.001Z</time></trkpt><trkpt lat="40.80691961678359" lon="8.47690604277698"><ele>22.0</ele><time>2026-03-29T07:22:25.001Z</time></trkpt><trkpt lat="40.80690588762742" lon="8.477035386638994"><ele>22.0</ele><time>2026-03-29T07:22:26.001Z</time></trkpt><trkpt lat="40.806923932797496" lon="8.477170159463526"><ele>22.0</ele><time>2026-03-29T07:22:27.001Z</time></trkpt><trkpt lat="40.80692569792137" lon="8.477311077997552"><ele>21.400000000000002</ele><time>2026-03-29T07:22:28.001Z</time></trkpt><trkpt lat="40.806908030931" lon="8.47745406902921"><ele>20.8</ele><time>2026-03-29T07:22:29.001Z</time></trkpt><trkpt lat="40.806896654750595" lon="8.477601840745672"><ele>20.2</ele><time>2026-03-29T07:22:30.001Z</time></trkpt><trkpt lat="40.806873708865865" lon="8.477743945766843"><ele>19.6</ele><time>2026-03-29T07:22:31.001Z</time></trkpt><trkpt lat="40.80685615438396" lon="8.477869928790522"><ele>19.0</ele><time>2026-03-29T07:22:32.001Z</time></trkpt><trkpt lat="40.80684021880292" lon="8.477980694049268"><ele>19.0</ele><time>2026-03-29T07:22:33.001Z</time></trkpt><trkpt lat="40.806810835167035" lon="8.47807000383197"><ele>19.0</ele><time>2026-03-29T07:22:34.001Z</time></trkpt><trkpt lat="40.806913070237016" lon="8.478099033605115"><ele>19.0</ele><time>2026-03-29T07:22:35.001Z</time></trkpt><trkpt lat="40.80694929615421" lon="8.478223250204335"><ele>19.0</ele><time>2026-03-29T07:22:36.001Z</time></trkpt><trkpt lat="40.807013257103854" lon="8.478315069290373"><ele>19.0</ele><time>2026-03-29T07:22:37.001Z</time></trkpt><trkpt lat="40.80708862263651" lon="8.47843150915157"><ele>19.0</ele><time>2026-03-29T07:22:38.001Z</time></trkpt><trkpt lat="40.80715056868963" lon="8.47855665835067"><ele>19.0</ele><time>2026-03-29T07:22:39.001Z</time></trkpt><trkpt lat="40.80721456513479" lon="8.478683282600985"><ele>19.0</ele><time>2026-03-29T07:22:40.001Z</time></trkpt><trkpt lat="40.80728041413869" lon="8.478831008503096"><ele>19.0</ele><time>2026-03-29T07:22:41.001Z</time></trkpt><trkpt lat="40.80734989619704" lon="8.478968095701598"><ele>18.75</ele><time>2026-03-29T07:22:42.001Z</time></trkpt><trkpt lat="40.80742980300316" lon="8.479127358197562"><ele>18.5</ele><time>2026-03-29T07:22:43.001Z</time></trkpt><trkpt lat="40.80750026460028" lon="8.47927094725665"><ele>18.25</ele><time>2026-03-29T07:22:44.001Z</time></trkpt><trkpt lat="40.807584005232115" lon="8.479441596617901"><ele>18.0</ele><time>2026-03-29T07:22:45.001Z</time></trkpt><trkpt lat="40.807667984786356" lon="8.479611145140447"><ele>17.25</ele><time>2026-03-29T07:22:46.001Z</time></trkpt><trkpt lat="40.80774764805266" lon="8.479769622883017"><ele>16.5</ele><time>2026-03-29T07:22:47.001Z</time></trkpt><trkpt lat="40.807827916896166" lon="8.47992930510065"><ele>15.75</ele><time>2026-03-29T07:22:48.001Z</time></trkpt><trkpt lat="40.807904202522025" lon="8.480081204492151"><ele>15.0</ele><time>2026-03-29T07:22:49.001Z</time></trkpt><trkpt lat="40.80797539276798" lon="8.480234209008685"><ele>15.0</ele><time>2026-03-29T07:22:50.001Z</time></trkpt><trkpt lat="40.80803353994628" lon="8.480382583512583"><ele>15.0</ele><time>2026-03-29T07:22:51.001Z</time></trkpt><trkpt lat="40.80808383777226" lon="8.480518448005087"><ele>15.0</ele><time>2026-03-29T07:22:52.001Z</time></trkpt><trkpt lat="40.80814588479361" lon="8.480639533494166"><ele>15.0</ele><time>2026-03-29T07:22:53.001Z</time></trkpt><trkpt lat="40.808216147428126" lon="8.480759365435906"><ele>15.0</ele><time>2026-03-29T07:22:54.001Z</time></trkpt><trkpt lat="40.80829059759685" lon="8.480887806905983"><ele>15.0</ele><time>2026-03-29T07:22:55.001Z</time></trkpt><trkpt lat="40.80836315181677" lon="8.481048223956607"><ele>15.0</ele><time>2026-03-29T07:22:56.001Z</time></trkpt><trkpt lat="40.808437292823605" lon="8.481201573944098"><ele>15.0</ele><time>2026-03-29T07:22:57.001Z</time></trkpt><trkpt lat="40.808506481465955" lon="8.481338614195966"><ele>14.666666666666668</ele><time>2026-03-29T07:22:58.001Z</time></trkpt><trkpt lat="40.808575929535216" lon="8.481503330109978"><ele>14.333333333333334</ele><time>2026-03-29T07:22:59.001Z</time></trkpt><trkpt lat="40.80864321395432" lon="8.481669173478233"><ele>14.0</ele><time>2026-03-29T07:23:00.001Z</time></trkpt><trkpt lat="40.808737721771635" lon="8.48188268714493"><ele>14.0</ele><time>2026-03-29T07:23:01.001Z</time></trkpt><trkpt lat="40.80882274774531" lon="8.482073512086563"><ele>14.0</ele><time>2026-03-29T07:23:02.001Z</time></trkpt><trkpt lat="40.80888623739851" lon="8.482211255693"><ele>14.0</ele><time>2026-03-29T07:23:03.001Z</time></trkpt><trkpt lat="40.80896816935336" lon="8.482386602656609"><ele>14.0</ele><time>2026-03-29T07:23:04.001Z</time></trkpt><trkpt lat="40.80903098357573" lon="8.482562692404288"><ele>13.75</ele><time>2026-03-29T07:23:05.001Z</time></trkpt><trkpt lat="40.80908734460565" lon="8.48272654588588"><ele>13.5</ele><time>2026-03-29T07:23:06.001Z</time></trkpt><trkpt lat="40.80914657839644" lon="8.48286787880867"><ele>13.25</ele><time>2026-03-29T07:23:07.001Z</time></trkpt><trkpt lat="40.80921496880191" lon="8.483008802267134"><ele>13.0</ele><time>2026-03-29T07:23:08.001Z</time></trkpt><trkpt lat="40.809288976251864" lon="8.483165697585312"><ele>12.25</ele><time>2026-03-29T07:23:09.001Z</time></trkpt><trkpt lat="40.80935861327983" lon="8.483316530491402"><ele>11.5</ele><time>2026-03-29T07:23:10.001Z</time></trkpt><trkpt lat="40.80943266295566" lon="8.483464225373462"><ele>10.75</ele><time>2026-03-29T07:23:11.001Z</time></trkpt><trkpt lat="40.80951473818901" lon="8.483590895802065"><ele>10.0</ele><time>2026-03-29T07:23:12.001Z</time></trkpt><trkpt lat="40.809596450623644" lon="8.483745384365859"><ele>10.5</ele><time>2026-03-29T07:23:13.001Z</time></trkpt><trkpt lat="40.80967713164001" lon="8.483915012173268"><ele>11.0</ele><time>2026-03-29T07:23:14.001Z</time></trkpt><trkpt lat="40.80976180367981" lon="8.484087684198926"><ele>11.5</ele><time>2026-03-29T07:23:15.001Z</time></trkpt><trkpt lat="40.80984138607998" lon="8.4842393028002"><ele>12.0</ele><time>2026-03-29T07:23:16.001Z</time></trkpt><trkpt lat="40.809881481230605" lon="8.484370947691762"><ele>12.0</ele><time>2026-03-29T07:23:17.001Z</time></trkpt><trkpt lat="40.80992776624543" lon="8.484516917881091"><ele>12.0</ele><time>2026-03-29T07:23:18.001Z</time></trkpt><trkpt lat="40.80999657223444" lon="8.484672352991788"><ele>12.0</ele><time>2026-03-29T07:23:19.002Z</time></trkpt><trkpt lat="40.81006755877778" lon="8.484834632061443"><ele>12.0</ele><time>2026-03-29T07:23:20.002Z</time></trkpt><trkpt lat="40.810139641734644" lon="8.484988876307874"><ele>11.25</ele><time>2026-03-29T07:23:21.002Z</time></trkpt><trkpt lat="40.810202849208636" lon="8.485145630432596"><ele>10.5</ele><time>2026-03-29T07:23:22.002Z</time></trkpt><trkpt lat="40.81028627488216" lon="8.48531465209196"><ele>9.75</ele><time>2026-03-29T07:23:23.002Z</time></trkpt><trkpt lat="40.81036016048681" lon="8.485486943600463"><ele>9.0</ele><time>2026-03-29T07:23:24.002Z</time></trkpt><trkpt lat="40.810423073577404" lon="8.485645757604422"><ele>9.0</ele><time>2026-03-29T07:23:25.002Z</time></trkpt><trkpt lat="40.81047685124405" lon="8.485764772050175"><ele>9.0</ele><time>2026-03-29T07:23:26.002Z</time></trkpt><trkpt lat="40.81052835855154" lon="8.485887853803382"><ele>9.0</ele><time>2026-03-29T07:23:27.002Z</time></trkpt><trkpt lat="40.810568224869485" lon="8.486004073754973"><ele>9.0</ele><time>2026-03-29T07:23:28.002Z</time></trkpt><trkpt lat="40.81061425698046" lon="8.486119201816619"><ele>9.0</ele><time>2026-03-29T07:23:29.002Z</time></trkpt><trkpt lat="40.810668321860206" lon="8.486255169798303"><ele>9.0</ele><time>2026-03-29T07:23:30.002Z</time></trkpt><trkpt lat="40.8107150917753" lon="8.486364824127655"><ele>9.0</ele><time>2026-03-29T07:23:31.002Z</time></trkpt><trkpt lat="40.810755128599006" lon="8.486449125760892"><ele>9.0</ele><time>2026-03-29T07:23:32.002Z</time></trkpt><trkpt lat="40.8107998711436" lon="8.48653999399102"><ele>9.0</ele><time>2026-03-29T07:23:33.002Z</time></trkpt><trkpt lat="40.81077176928464" lon="8.486773381221186"><ele>9.0</ele><time>2026-03-29T07:23:35.002Z</time></trkpt><trkpt lat="40.81075291496986" lon="8.48688302489506"><ele>9.0</ele><time>2026-03-29T07:23:36.002Z</time></trkpt><trkpt lat="40.810737908097174" lon="8.487020209714258"><ele>9.0</ele><time>2026-03-29T07:23:37.002Z</time></trkpt><trkpt lat="40.81070479964649" lon="8.487156381945349"><ele>9.0</ele><time>2026-03-29T07:23:38.002Z</time></trkpt><trkpt lat="40.810675187348785" lon="8.487249819943319"><ele>9.0</ele><time>2026-03-29T07:23:39.002Z</time></trkpt><trkpt lat="40.81061806771074" lon="8.487382615201536"><ele>9.0</ele><time>2026-03-29T07:23:41.002Z</time></trkpt><trkpt lat="40.8105783701148" lon="8.487469678132936"><ele>9.0</ele><time>2026-03-29T07:23:43.002Z</time></trkpt><trkpt lat="40.81051713798315" lon="8.48759014305862"><ele>9.0</ele><time>2026-03-29T07:23:45.002Z</time></trkpt><trkpt lat="40.81047971808544" lon="8.487664301033002"><ele>9.0</ele><time>2026-03-29T07:23:46.002Z</time></trkpt><trkpt lat="40.810415572319314" lon="8.487797759942373"><ele>9.0</ele><time>2026-03-29T07:23:48.002Z</time></trkpt><trkpt lat="40.81037739285901" lon="8.487939912321282"><ele>9.0</ele><time>2026-03-29T07:23:49.002Z</time></trkpt><trkpt lat="40.81034877715823" lon="8.48807126719325"><ele>8.833333333333334</ele><time>2026-03-29T07:23:50.002Z</time></trkpt><trkpt lat="40.81031523614481" lon="8.488191596750145"><ele>8.666666666666666</ele><time>2026-03-29T07:23:51.002Z</time></trkpt><trkpt lat="40.81027203936944" lon="8.48830844942687"><ele>8.5</ele><time>2026-03-29T07:23:52.002Z</time></trkpt><trkpt lat="40.81022206309942" lon="8.488388179373255"><ele>8.333333333333332</ele><time>2026-03-29T07:23:53.002Z</time></trkpt><trkpt lat="40.81016881594533" lon="8.488453802887578"><ele>8.166666666666666</ele><time>2026-03-29T07:23:54.002Z</time></trkpt><trkpt lat="40.81010250579014" lon="8.48852421509777"><ele>8.0</ele><time>2026-03-29T07:23:55.002Z</time></trkpt><trkpt lat="40.81002167202211" lon="8.488599160239902"><ele>7.800000000000001</ele><time>2026-03-29T07:23:56.002Z</time></trkpt><trkpt lat="40.80995310921617" lon="8.488705092195797"><ele>7.6000000000000005</ele><time>2026-03-29T07:23:57.002Z</time></trkpt><trkpt lat="40.80990524468165" lon="8.488831884142094"><ele>7.3999999999999995</ele><time>2026-03-29T07:23:58.002Z</time></trkpt><trkpt lat="40.809831944073764" lon="8.488931803497435"><ele>7.199999999999999</ele><time>2026-03-29T07:23:59.002Z</time></trkpt><trkpt lat="40.80977782179641" lon="8.489030529796123"><ele>7.0</ele><time>2026-03-29T07:24:00.002Z</time></trkpt><trkpt lat="40.809730283102475" lon="8.489143409363049"><ele>7.0</ele><time>2026-03-29T07:24:01.002Z</time></trkpt><trkpt lat="40.80968414850245" lon="8.489241871777002"><ele>6.999999999999999</ele><time>2026-03-29T07:24:02.002Z</time></trkpt><trkpt lat="40.809629523305674" lon="8.489361998347333"><ele>6.999999999999999</ele><time>2026-03-29T07:24:04.002Z</time></trkpt><trkpt lat="40.809580324162184" lon="8.489463838007438"><ele>7.0</ele><time>2026-03-29T07:24:06.002Z</time></trkpt><trkpt lat="40.809587885383756" lon="8.489642195505544"><ele>7.0</ele><time>2026-03-29T07:24:08.002Z</time></trkpt><trkpt lat="40.809629363065554" lon="8.48973924217212"><ele>6.8</ele><time>2026-03-29T07:24:25.002Z</time></trkpt><trkpt lat="40.80969841337166" lon="8.489825316978559"><ele>6.6</ele><time>2026-03-29T07:24:26.002Z</time></trkpt><trkpt lat="40.80975336640999" lon="8.489905068159972"><ele>6.3999999999999995</ele><time>2026-03-29T07:24:27.002Z</time></trkpt><trkpt lat="40.80980477742521" lon="8.48998772354815"><ele>6.199999999999999</ele><time>2026-03-29T07:24:28.002Z</time></trkpt><trkpt lat="40.80985980143998" lon="8.490082473207076"><ele>6.0</ele><time>2026-03-29T07:24:29.002Z</time></trkpt><trkpt lat="40.809922139788185" lon="8.490188712194715"><ele>6.0</ele><time>2026-03-29T07:24:30.002Z</time></trkpt><trkpt lat="40.80998133038208" lon="8.490284449103989"><ele>6.0</ele><time>2026-03-29T07:24:31.002Z</time></trkpt><trkpt lat="40.810040520517944" lon="8.49037238448485"><ele>6.0</ele><time>2026-03-29T07:24:32.002Z</time></trkpt><trkpt lat="40.810095955083334" lon="8.490485494977964"><ele>6.0</ele><time>2026-03-29T07:24:33.002Z</time></trkpt><trkpt lat="40.810164898550326" lon="8.49061642693062"><ele>6.0</ele><time>2026-03-29T07:24:34.002Z</time></trkpt><trkpt lat="40.81024410905571" lon="8.4907421573816"><ele>5.666666666666667</ele><time>2026-03-29T07:24:35.002Z</time></trkpt><trkpt lat="40.81030022491" lon="8.490832863158426"><ele>5.333333333333333</ele><time>2026-03-29T07:24:36.002Z</time></trkpt><trkpt lat="40.81035475732004" lon="8.490937504929336"><ele>5.0</ele><time>2026-03-29T07:24:37.002Z</time></trkpt><trkpt lat="40.81040205386868" lon="8.49102697844837"><ele>4.666666666666666</ele><time>2026-03-29T07:24:38.002Z</time></trkpt><trkpt lat="40.81044927861365" lon="8.491113475987154"><ele>4.333333333333333</ele><time>2026-03-29T07:24:39.002Z</time></trkpt><trkpt lat="40.81050286724496" lon="8.491200209114432"><ele>4.0</ele><time>2026-03-29T07:24:40.002Z</time></trkpt><trkpt lat="40.81054581312338" lon="8.491281995081076"><ele>3.9999999999999996</ele><time>2026-03-29T07:24:41.002Z</time></trkpt><trkpt lat="40.81059828821149" lon="8.49138170131449"><ele>4.0</ele><time>2026-03-29T07:24:42.002Z</time></trkpt><trkpt lat="40.81064275109041" lon="8.49146174584204"><ele>4.0</ele><time>2026-03-29T07:24:43.002Z</time></trkpt><trkpt lat="40.810676034134865" lon="8.491541006994774"><ele>4.0</ele><time>2026-03-29T07:24:44.002Z</time></trkpt><trkpt lat="40.81072109224656" lon="8.491620877913112"><ele>3.9999999999999996</ele><time>2026-03-29T07:24:45.002Z</time></trkpt><trkpt lat="40.810758338124316" lon="8.491729721172128"><ele>4.0</ele><time>2026-03-29T07:24:46.002Z</time></trkpt><trkpt lat="40.81079959709327" lon="8.491831523534183"><ele>3.9999999999999996</ele><time>2026-03-29T07:24:47.002Z</time></trkpt><trkpt lat="40.810830645076166" lon="8.491939616287912"><ele>4.0</ele><time>2026-03-29T07:24:48.002Z</time></trkpt><trkpt lat="40.810875200211015" lon="8.492025873851269"><ele>4.0</ele><time>2026-03-29T07:24:49.002Z</time></trkpt><trkpt lat="40.81092613239144" lon="8.492099994011923"><ele>4.0</ele><time>2026-03-29T07:24:50.002Z</time></trkpt><trkpt lat="40.81097408445458" lon="8.492183539117852"><ele>3.9999999999999996</ele><time>2026-03-29T07:24:51.002Z</time></trkpt><trkpt lat="40.81102491182716" lon="8.492254747746273"><ele>4.0</ele><time>2026-03-29T07:24:52.002Z</time></trkpt><trkpt lat="40.811072904571276" lon="8.492332499818739"><ele>4.5</ele><time>2026-03-29T07:24:53.002Z</time></trkpt><trkpt lat="40.8111255753659" lon="8.492421111457082"><ele>5.0</ele><time>2026-03-29T07:24:54.002Z</time></trkpt><trkpt lat="40.81117931488442" lon="8.492518004692851"><ele>5.5</ele><time>2026-03-29T07:24:55.002Z</time></trkpt><trkpt lat="40.81121215142601" lon="8.492589812254636"><ele>6.0</ele><time>2026-03-29T07:24:56.002Z</time></trkpt><trkpt lat="40.81125045465486" lon="8.492682045169369"><ele>6.500000000000001</ele><time>2026-03-29T07:24:57.002Z</time></trkpt><trkpt lat="40.81128515470767" lon="8.492780086751454"><ele>7.0</ele><time>2026-03-29T07:24:58.002Z</time></trkpt><trkpt lat="40.81131656634407" lon="8.492868837530583"><ele>6.8</ele><time>2026-03-29T07:24:59.002Z</time></trkpt><trkpt lat="40.81135398872161" lon="8.492963786746188"><ele>6.6</ele><time>2026-03-29T07:25:00.002Z</time></trkpt><trkpt lat="40.81140348439491" lon="8.493071156521093"><ele>6.3999999999999995</ele><time>2026-03-29T07:25:01.002Z</time></trkpt><trkpt lat="40.81145421123307" lon="8.493173047666376"><ele>6.199999999999999</ele><time>2026-03-29T07:25:02.002Z</time></trkpt><trkpt lat="40.81150281904735" lon="8.493307359551283"><ele>6.0</ele><time>2026-03-29T07:25:03.002Z</time></trkpt><trkpt lat="40.81154135628795" lon="8.49343170283875"><ele>6.0</ele><time>2026-03-29T07:25:04.002Z</time></trkpt><trkpt lat="40.811580899460424" lon="8.493564767245417"><ele>6.0</ele><time>2026-03-29T07:25:05.002Z</time></trkpt><trkpt lat="40.81164011683054" lon="8.493695899637899"><ele>6.0</ele><time>2026-03-29T07:25:06.002Z</time></trkpt><trkpt lat="40.81167062877474" lon="8.493826158405676"><ele>6.0</ele><time>2026-03-29T07:25:07.002Z</time></trkpt><trkpt lat="40.81173205371318" lon="8.493946404387275"><ele>6.0</ele><time>2026-03-29T07:25:08.002Z</time></trkpt><trkpt lat="40.81175223734698" lon="8.494073677681945"><ele>6.0</ele><time>2026-03-29T07:25:09.002Z</time></trkpt><trkpt lat="40.81178450750284" lon="8.494174178831281"><ele>6.0</ele><time>2026-03-29T07:25:10.002Z</time></trkpt><trkpt lat="40.81182232252758" lon="8.494270540860917"><ele>6.0</ele><time>2026-03-29T07:25:11.002Z</time></trkpt><trkpt lat="40.81186836550128" lon="8.494364078415776"><ele>6.0</ele><time>2026-03-29T07:25:12.002Z</time></trkpt><trkpt lat="40.8118962143676" lon="8.494477987511285"><ele>6.0</ele><time>2026-03-29T07:25:13.002Z</time></trkpt><trkpt lat="40.81192665496135" lon="8.494590084604178"><ele>6.0</ele><time>2026-03-29T07:25:14.002Z</time></trkpt><trkpt lat="40.81197951044276" lon="8.4946879560829"><ele>5.6</ele><time>2026-03-29T07:25:15.002Z</time></trkpt><trkpt lat="40.81203375991662" lon="8.494786749955505"><ele>5.199999999999999</ele><time>2026-03-29T07:25:16.002Z</time></trkpt><trkpt lat="40.81208764824177" lon="8.494881120018462"><ele>4.800000000000001</ele><time>2026-03-29T07:25:17.002Z</time></trkpt><trkpt lat="40.8121297579859" lon="8.494989321773295"><ele>4.4</ele><time>2026-03-29T07:25:18.002Z</time></trkpt><trkpt lat="40.81215166529803" lon="8.495112497479793"><ele>4.0</ele><time>2026-03-29T07:25:19.002Z</time></trkpt><trkpt lat="40.81217240557361" lon="8.495231844228899"><ele>3.9999999999999996</ele><time>2026-03-29T07:25:20.002Z</time></trkpt><trkpt lat="40.81222323391107" lon="8.495342549947663"><ele>4.0</ele><time>2026-03-29T07:25:21.002Z</time></trkpt><trkpt lat="40.81223591427327" lon="8.495460545776224"><ele>4.0</ele><time>2026-03-29T07:25:22.002Z</time></trkpt><trkpt lat="40.81225286589534" lon="8.495567308541785"><ele>4.0</ele><time>2026-03-29T07:25:23.002Z</time></trkpt><trkpt lat="40.81226816333042" lon="8.495674715816381"><ele>3.9999999999999996</ele><time>2026-03-29T07:25:24.002Z</time></trkpt><trkpt lat="40.812269297212524" lon="8.495792815376472"><ele>4.0</ele><time>2026-03-29T07:25:25.002Z</time></trkpt><trkpt lat="40.8122667753461" lon="8.495917751055346"><ele>3.6666666666666665</ele><time>2026-03-29T07:25:26.002Z</time></trkpt><trkpt lat="40.812264277933785" lon="8.496035993628924"><ele>3.333333333333333</ele><time>2026-03-29T07:25:27.002Z</time></trkpt><trkpt lat="40.81228255822897" lon="8.49613704566499"><ele>3.0</ele><time>2026-03-29T07:25:28.002Z</time></trkpt><trkpt lat="40.81228149849049" lon="8.496223961770797"><ele>2.6666666666666665</ele><time>2026-03-29T07:25:29.002Z</time></trkpt><trkpt lat="40.81227307789583" lon="8.496392629542875"><ele>2.333333333333333</ele><time>2026-03-29T07:25:31.002Z</time></trkpt><trkpt lat="40.81230640552514" lon="8.496490670941345"><ele>2.0</ele><time>2026-03-29T07:25:32.002Z</time></trkpt><trkpt lat="40.812357535810165" lon="8.496562694780012"><ele>1.8333333333333333</ele><time>2026-03-29T07:25:33.002Z</time></trkpt><trkpt lat="40.812411851752955" lon="8.496633671508336"><ele>1.6666666666666665</ele><time>2026-03-29T07:25:34.002Z</time></trkpt><trkpt lat="40.81246141698533" lon="8.496701647980194"><ele>1.5</ele><time>2026-03-29T07:25:35.002Z</time></trkpt><trkpt lat="40.81251369460905" lon="8.496789811615708"><ele>1.3333333333333333</ele><time>2026-03-29T07:25:36.002Z</time></trkpt><trkpt lat="40.81256501114451" lon="8.49688561455743"><ele>1.1666666666666665</ele><time>2026-03-29T07:25:37.002Z</time></trkpt><trkpt lat="40.81261167309693" lon="8.496985864168282"><ele>1.0</ele><time>2026-03-29T07:25:38.002Z</time></trkpt><trkpt lat="40.81265529970968" lon="8.497086149491187"><ele>1.2000000000000002</ele><time>2026-03-29T07:25:39.002Z</time></trkpt><trkpt lat="40.81269507817857" lon="8.49718140486204"><ele>1.4000000000000001</ele><time>2026-03-29T07:25:40.002Z</time></trkpt><trkpt lat="40.812718344831836" lon="8.497284186649487"><ele>1.6</ele><time>2026-03-29T07:25:41.002Z</time></trkpt><trkpt lat="40.8127392647533" lon="8.497402583023765"><ele>1.8</ele><time>2026-03-29T07:25:42.002Z</time></trkpt><trkpt lat="40.81272235672784" lon="8.497538020679425"><ele>2.0</ele><time>2026-03-29T07:25:43.002Z</time></trkpt><trkpt lat="40.81269799793341" lon="8.497680047961971"><ele>2.0</ele><time>2026-03-29T07:25:44.002Z</time></trkpt><trkpt lat="40.81268968494461" lon="8.497836257997141"><ele>2.0</ele><time>2026-03-29T07:25:45.002Z</time></trkpt><trkpt lat="40.812648787356835" lon="8.49798398938377"><ele>2.0</ele><time>2026-03-29T07:25:46.002Z</time></trkpt><trkpt lat="40.81263409423958" lon="8.498135445226028"><ele>2.0</ele><time>2026-03-29T07:25:47.002Z</time></trkpt><trkpt lat="40.812604290483236" lon="8.498277595457157"><ele>1.75</ele><time>2026-03-29T07:25:48.002Z</time></trkpt><trkpt lat="40.81255882371888" lon="8.498426388911128"><ele>1.5</ele><time>2026-03-29T07:25:49.002Z</time></trkpt><trkpt lat="40.8125627045261" lon="8.498576613704566"><ele>1.25</ele><time>2026-03-29T07:25:50.002Z</time></trkpt><trkpt lat="40.81255795126871" lon="8.498723363673639"><ele>1.0</ele><time>2026-03-29T07:25:51.002Z</time></trkpt><trkpt lat="40.8125650854796" lon="8.498876345256722"><ele>1.75</ele><time>2026-03-29T07:25:52.002Z</time></trkpt><trkpt lat="40.81258547105834" lon="8.49903158282181"><ele>2.5</ele><time>2026-03-29T07:25:53.002Z</time></trkpt><trkpt lat="40.81257942927313" lon="8.499193343356056"><ele>3.25</ele><time>2026-03-29T07:25:54.002Z</time></trkpt><trkpt lat="40.81258902876317" lon="8.499353148811908"><ele>4.0</ele><time>2026-03-29T07:25:55.002Z</time></trkpt><trkpt lat="40.81260664287049" lon="8.499517838848776"><ele>4.0</ele><time>2026-03-29T07:25:56.002Z</time></trkpt><trkpt lat="40.812608209197215" lon="8.49969108358235"><ele>4.0</ele><time>2026-03-29T07:25:57.002Z</time></trkpt><trkpt lat="40.81262592638029" lon="8.499869377115099"><ele>4.0</ele><time>2026-03-29T07:25:58.002Z</time></trkpt><trkpt lat="40.81264472618511" lon="8.500050442842099"><ele>4.0</ele><time>2026-03-29T07:25:59.002Z</time></trkpt><trkpt lat="40.81267550175429" lon="8.500228654834133"><ele>3.75</ele><time>2026-03-29T07:26:00.002Z</time></trkpt><trkpt lat="40.81269233595871" lon="8.500409592725594"><ele>3.5</ele><time>2026-03-29T07:26:01.002Z</time></trkpt><trkpt lat="40.81269654552168" lon="8.500595151442896"><ele>3.25</ele><time>2026-03-29T07:26:02.002Z</time></trkpt><trkpt lat="40.81271846357414" lon="8.500777474390485"><ele>3.0</ele><time>2026-03-29T07:26:03.002Z</time></trkpt><trkpt lat="40.81272119354236" lon="8.500963523698083"><ele>3.5</ele><time>2026-03-29T07:26:04.002Z</time></trkpt><trkpt lat="40.81270612780765" lon="8.501148515542623"><ele>4.0</ele><time>2026-03-29T07:26:05.002Z</time></trkpt><trkpt lat="40.81268013932668" lon="8.501335522143048"><ele>4.5</ele><time>2026-03-29T07:26:06.002Z</time></trkpt><trkpt lat="40.81267148846254" lon="8.501525274451714"><ele>5.0</ele><time>2026-03-29T07:26:07.002Z</time></trkpt><trkpt lat="40.812672610075694" lon="8.501713425071648"><ele>5.333333333333334</ele><time>2026-03-29T07:26:08.002Z</time></trkpt><trkpt lat="40.812671945304594" lon="8.501917224523009"><ele>5.666666666666667</ele><time>2026-03-29T07:26:09.002Z</time></trkpt><trkpt lat="40.812671294152516" lon="8.502125937175354"><ele>6.0</ele><time>2026-03-29T07:26:10.002Z</time></trkpt><trkpt lat="40.812671870807094" lon="8.502338709499801"><ele>6.0</ele><time>2026-03-29T07:26:11.002Z</time></trkpt><trkpt lat="40.812672787492176" lon="8.502550839895104"><ele>6.0</ele><time>2026-03-29T07:26:12.002Z</time></trkpt><trkpt lat="40.812666445317994" lon="8.502778553344049"><ele>6.0</ele><time>2026-03-29T07:26:13.002Z</time></trkpt><trkpt lat="40.81265727262416" lon="8.502995538019755"><ele>5.75</ele><time>2026-03-29T07:26:14.002Z</time></trkpt><trkpt lat="40.81264685973927" lon="8.503191592065042"><ele>5.5</ele><time>2026-03-29T07:26:15.002Z</time></trkpt><trkpt lat="40.81263698871225" lon="8.503360986309806"><ele>5.25</ele><time>2026-03-29T07:26:16.002Z</time></trkpt><trkpt lat="40.812624718195046" lon="8.503521291194673"><ele>5.0</ele><time>2026-03-29T07:26:17.002Z</time></trkpt><trkpt lat="40.81261723192141" lon="8.503662242859567"><ele>5.0</ele><time>2026-03-29T07:26:18.002Z</time></trkpt><trkpt lat="40.81261877319426" lon="8.5037936304067"><ele>5.0</ele><time>2026-03-29T07:26:19.002Z</time></trkpt><trkpt lat="40.81263821514137" lon="8.503901645297374"><ele>5.0</ele><time>2026-03-29T07:26:20.002Z</time></trkpt><trkpt lat="40.81267634667832" lon="8.5039961993741"><ele>5.0</ele><time>2026-03-29T07:26:21.002Z</time></trkpt><trkpt lat="40.8127165682639" lon="8.50406245077265"><ele>5.0</ele><time>2026-03-29T07:26:22.002Z</time></trkpt><trkpt lat="40.8128003564399" lon="8.504107604892614"><ele>5.0</ele><time>2026-03-29T07:26:23.002Z</time></trkpt><trkpt lat="40.81289771791778" lon="8.504178257784535"><ele>5.166666666666667</ele><time>2026-03-29T07:26:24.002Z</time></trkpt><trkpt lat="40.81299861643048" lon="8.504220729975117"><ele>5.333333333333334</ele><time>2026-03-29T07:26:25.002Z</time></trkpt><trkpt lat="40.81308219184115" lon="8.504276271897352"><ele>5.5</ele><time>2026-03-29T07:26:26.002Z</time></trkpt><trkpt lat="40.813164884587444" lon="8.504311230169913"><ele>5.666666666666667</ele><time>2026-03-29T07:26:27.002Z</time></trkpt><trkpt lat="40.81324242594471" lon="8.504360194557373"><ele>5.833333333333333</ele><time>2026-03-29T07:26:28.002Z</time></trkpt><trkpt lat="40.81328288038543" lon="8.504444700938356"><ele>6.0</ele><time>2026-03-29T07:26:29.002Z</time></trkpt><trkpt lat="40.81330686877527" lon="8.504548336882388"><ele>6.0</ele><time>2026-03-29T07:26:30.002Z</time></trkpt><trkpt lat="40.813320726981935" lon="8.504693701335961"><ele>6.0</ele><time>2026-03-29T07:26:31.002Z</time></trkpt><trkpt lat="40.81334851394306" lon="8.504846406427012"><ele>6.0</ele><time>2026-03-29T07:26:32.002Z</time></trkpt><trkpt lat="40.8133642122194" lon="8.505013008639812"><ele>6.0</ele><time>2026-03-29T07:26:33.002Z</time></trkpt><trkpt lat="40.813393603254134" lon="8.505182028257586"><ele>6.0</ele><time>2026-03-29T07:26:34.002Z</time></trkpt><trkpt lat="40.81342324179129" lon="8.505373441356411"><ele>6.0</ele><time>2026-03-29T07:26:35.002Z</time></trkpt><trkpt lat="40.81344963774455" lon="8.505553920167737"><ele>6.0</ele><time>2026-03-29T07:26:36.002Z</time></trkpt><trkpt lat="40.8134670124415" lon="8.505725959150382"><ele>6.0</ele><time>2026-03-29T07:26:37.002Z</time></trkpt><trkpt lat="40.81349678780418" lon="8.505904551738274"><ele>5.5</ele><time>2026-03-29T07:26:38.002Z</time></trkpt><trkpt lat="40.813530642295206" lon="8.506099665877988"><ele>5.0</ele><time>2026-03-29T07:26:39.002Z</time></trkpt><trkpt lat="40.81356566385111" lon="8.506269192023566"><ele>4.5</ele><time>2026-03-29T07:26:40.002Z</time></trkpt><trkpt lat="40.81357088988166" lon="8.50642085019886"><ele>4.0</ele><time>2026-03-29T07:26:41.002Z</time></trkpt><trkpt lat="40.813593278741884" lon="8.506581703713097"><ele>4.0</ele><time>2026-03-29T07:26:42.002Z</time></trkpt><trkpt lat="40.81360491934241" lon="8.506733595936996"><ele>4.0</ele><time>2026-03-29T07:26:43.002Z</time></trkpt><trkpt lat="40.81361457203745" lon="8.506886642390365"><ele>4.0</ele><time>2026-03-29T07:26:44.002Z</time></trkpt><trkpt lat="40.81361521136312" lon="8.507042539965097"><ele>4.0</ele><time>2026-03-29T07:26:45.002Z</time></trkpt><trkpt lat="40.81365771465127" lon="8.507145161263578"><ele>4.0</ele><time>2026-03-29T07:26:46.002Z</time></trkpt><trkpt lat="40.813673400432826" lon="8.507234276388683"><ele>3.8000000000000003</ele><time>2026-03-29T07:26:47.002Z</time></trkpt><trkpt lat="40.81370014514391" lon="8.507339713225962"><ele>3.6000000000000005</ele><time>2026-03-29T07:26:49.002Z</time></trkpt><trkpt lat="40.81371760276686" lon="8.507478297136318"><ele>3.4</ele><time>2026-03-29T07:27:35Z</time></trkpt><trkpt lat="40.813728476032836" lon="8.507592344553442"><ele>3.2</ele><time>2026-03-29T07:27:40Z</time></trkpt><trkpt lat="40.813747434127656" lon="8.507745937456571"><ele>3.0</ele><time>2026-03-29T07:27:42Z</time></trkpt><trkpt lat="40.813762977661334" lon="8.507881279270157"><ele>3.2</ele><time>2026-03-29T07:27:43Z</time></trkpt><trkpt lat="40.81378415794946" lon="8.508011130147235"><ele>3.4</ele><time>2026-03-29T07:27:44Z</time></trkpt><trkpt lat="40.81382169668386" lon="8.50814631616924"><ele>3.6000000000000005</ele><time>2026-03-29T07:27:45Z</time></trkpt><trkpt lat="40.81384083543412" lon="8.508286849063731"><ele>3.8000000000000003</ele><time>2026-03-29T07:27:46Z</time></trkpt><trkpt lat="40.813854482299526" lon="8.508441255774382"><ele>4.0</ele><time>2026-03-29T07:27:47Z</time></trkpt><trkpt lat="40.813868500448216" lon="8.508589788507008"><ele>4.0</ele><time>2026-03-29T07:27:48Z</time></trkpt><trkpt lat="40.81388997438863" lon="8.508717893864924"><ele>4.0</ele><time>2026-03-29T07:27:49Z</time></trkpt><trkpt lat="40.81390043211333" lon="8.508863398078066"><ele>4.0</ele><time>2026-03-29T07:27:50Z</time></trkpt><trkpt lat="40.813914438733676" lon="8.509021092685849"><ele>4.0</ele><time>2026-03-29T07:27:51Z</time></trkpt><trkpt lat="40.81392520570258" lon="8.509173627955068"><ele>4.0</ele><time>2026-03-29T07:27:52Z</time></trkpt><trkpt lat="40.81394232620673" lon="8.509364844058274"><ele>4.25</ele><time>2026-03-29T07:27:53Z</time></trkpt><trkpt lat="40.8139681493321" lon="8.509556486867277"><ele>4.5</ele><time>2026-03-29T07:27:54Z</time></trkpt><trkpt lat="40.81399882875477" lon="8.50974270790782"><ele>4.75</ele><time>2026-03-29T07:27:55Z</time></trkpt><trkpt lat="40.81403018849684" lon="8.509919100548734"><ele>5.0</ele><time>2026-03-29T07:27:56Z</time></trkpt><trkpt lat="40.81406479667646" lon="8.510100783365058"><ele>5.25</ele><time>2026-03-29T07:27:57Z</time></trkpt><trkpt lat="40.81409753997374" lon="8.510272676094953"><ele>5.5</ele><time>2026-03-29T07:27:58Z</time></trkpt><trkpt lat="40.814132223081366" lon="8.510454752261701"><ele>5.75</ele><time>2026-03-29T07:27:59Z</time></trkpt><trkpt lat="40.814161143422844" lon="8.51060657559195"><ele>6.0</ele><time>2026-03-29T07:28:00Z</time></trkpt><trkpt lat="40.814190564934385" lon="8.510765834419894"><ele>6.0</ele><time>2026-03-29T07:28:01Z</time></trkpt><trkpt lat="40.8142241919615" lon="8.510960660569307"><ele>6.0</ele><time>2026-03-29T07:28:02Z</time></trkpt><trkpt lat="40.8142519443193" lon="8.511138812466207"><ele>6.0</ele><time>2026-03-29T07:28:03Z</time></trkpt><trkpt lat="40.814278482856345" lon="8.511310115198892"><ele>6.0</ele><time>2026-03-29T07:28:04Z</time></trkpt><trkpt lat="40.8143060145935" lon="8.5114793047021"><ele>6.0</ele><time>2026-03-29T07:28:05Z</time></trkpt><trkpt lat="40.814329936182666" lon="8.511622197062998"><ele>6.0</ele><time>2026-03-29T07:28:06Z</time></trkpt><trkpt lat="40.81435908454662" lon="8.51180610737501"><ele>6.0</ele><time>2026-03-29T07:28:07Z</time></trkpt><trkpt lat="40.8143691823188" lon="8.511989617684893"><ele>6.0</ele><time>2026-03-29T07:28:08Z</time></trkpt><trkpt lat="40.814395870508775" lon="8.512149754403818"><ele>5.75</ele><time>2026-03-29T07:28:09Z</time></trkpt><trkpt lat="40.81441674818998" lon="8.512310010625466"><ele>5.5</ele><time>2026-03-29T07:28:10Z</time></trkpt><trkpt lat="40.8144305572913" lon="8.512469057243683"><ele>5.25</ele><time>2026-03-29T07:28:11Z</time></trkpt><trkpt lat="40.81444504063002" lon="8.512622434300388"><ele>5.0</ele><time>2026-03-29T07:28:12Z</time></trkpt><trkpt lat="40.814463657958775" lon="8.51278175980336"><ele>5.25</ele><time>2026-03-29T07:28:13Z</time></trkpt><trkpt lat="40.814482193536115" lon="8.512940385688927"><ele>5.5</ele><time>2026-03-29T07:28:14Z</time></trkpt><trkpt lat="40.81449938574644" lon="8.513087515159086"><ele>5.75</ele><time>2026-03-29T07:28:15Z</time></trkpt><trkpt lat="40.814515232813896" lon="8.513242630997294"><ele>6.0</ele><time>2026-03-29T07:28:16Z</time></trkpt><trkpt lat="40.8145296741937" lon="8.51339468617793"><ele>6.0</ele><time>2026-03-29T07:28:17Z</time></trkpt><trkpt lat="40.81454540405996" lon="8.513544242234271"><ele>6.0</ele><time>2026-03-29T07:28:18Z</time></trkpt><trkpt lat="40.81456780149335" lon="8.513690043472112"><ele>6.0</ele><time>2026-03-29T07:28:19Z</time></trkpt><trkpt lat="40.81459130852789" lon="8.513810255368043"><ele>6.0</ele><time>2026-03-29T07:28:20Z</time></trkpt><trkpt lat="40.814620457330044" lon="8.513936209390907"><ele>6.0</ele><time>2026-03-29T07:28:21Z</time></trkpt><trkpt lat="40.81465444647888" lon="8.514058506998843"><ele>6.199999999999999</ele><time>2026-03-29T07:28:22Z</time></trkpt><trkpt lat="40.81471567837318" lon="8.514195727713206"><ele>6.3999999999999995</ele><time>2026-03-29T07:28:23Z</time></trkpt><trkpt lat="40.814797043274815" lon="8.51430259958022"><ele>6.6</ele><time>2026-03-29T07:28:24Z</time></trkpt><trkpt lat="40.81487985904108" lon="8.514379594370286"><ele>6.8</ele><time>2026-03-29T07:28:25Z</time></trkpt><trkpt lat="40.81496612822061" lon="8.51445497225077"><ele>7.0</ele><time>2026-03-29T07:28:26Z</time></trkpt><trkpt lat="40.815055030666784" lon="8.514527761312646"><ele>7.000000000000001</ele><time>2026-03-29T07:28:27Z</time></trkpt><trkpt lat="40.81514008890131" lon="8.514595679508433"><ele>7.0</ele><time>2026-03-29T07:28:28Z</time></trkpt><trkpt lat="40.81521483156551" lon="8.514656811126523"><ele>7.0</ele><time>2026-03-29T07:28:29Z</time></trkpt><trkpt lat="40.815282434198664" lon="8.514712516514232"><ele>7.0</ele><time>2026-03-29T07:28:30Z</time></trkpt><trkpt lat="40.81533891291371" lon="8.514765086842669"><ele>7.000000000000001</ele><time>2026-03-29T07:28:31Z</time></trkpt><trkpt lat="40.815383749929886" lon="8.514824925829464"><ele>7.0</ele><time>2026-03-29T07:28:32Z</time></trkpt><trkpt lat="40.815392052734595" lon="8.514932301130152"><ele>7.75</ele><time>2026-03-29T07:28:34Z</time></trkpt><trkpt lat="40.81534253077068" lon="8.515120671009727"><ele>8.5</ele><time>2026-03-29T07:28:36Z</time></trkpt><trkpt lat="40.81530330132519" lon="8.51524377810107"><ele>9.25</ele><time>2026-03-29T07:28:37Z</time></trkpt><trkpt lat="40.8152620739856" lon="8.515375016909278"><ele>10.0</ele><time>2026-03-29T07:28:38Z</time></trkpt><trkpt lat="40.81522073157859" lon="8.515511295440856"><ele>10.5</ele><time>2026-03-29T07:28:39Z</time></trkpt><trkpt lat="40.815178355274995" lon="8.515650982043962"><ele>11.0</ele><time>2026-03-29T07:28:40Z</time></trkpt><trkpt lat="40.815134947604264" lon="8.515794068382247"><ele>11.5</ele><time>2026-03-29T07:28:41Z</time></trkpt><trkpt lat="40.815090491713356" lon="8.515940610009428"><ele>12.0</ele><time>2026-03-29T07:28:42Z</time></trkpt><trkpt lat="40.81504437518591" lon="8.516088404308567"><ele>11.0</ele><time>2026-03-29T07:28:43Z</time></trkpt><trkpt lat="40.81499544716474" lon="8.516239431504049"><ele>10.0</ele><time>2026-03-29T07:28:44Z</time></trkpt><trkpt lat="40.81494454761871" lon="8.516397101029296"><ele>9.0</ele><time>2026-03-29T07:28:45Z</time></trkpt><trkpt lat="40.814893074314405" lon="8.516555289339193"><ele>8.0</ele><time>2026-03-29T07:28:46Z</time></trkpt><trkpt lat="40.81483819536948" lon="8.516715578869503"><ele>8.0</ele><time>2026-03-29T07:28:47Z</time></trkpt><trkpt lat="40.814783450729514" lon="8.516871929819413"><ele>8.0</ele><time>2026-03-29T07:28:48Z</time></trkpt><trkpt lat="40.814726298927326" lon="8.517028584503771"><ele>8.0</ele><time>2026-03-29T07:28:49Z</time></trkpt><trkpt lat="40.8146668325631" lon="8.51718631285158"><ele>8.0</ele><time>2026-03-29T07:28:50Z</time></trkpt><trkpt lat="40.814607666598576" lon="8.517343244421117"><ele>8.0</ele><time>2026-03-29T07:28:51Z</time></trkpt><trkpt lat="40.8145473604474" lon="8.517499122554895"><ele>8.0</ele><time>2026-03-29T07:28:52Z</time></trkpt><trkpt lat="40.81448726060716" lon="8.517653722570667"><ele>8.0</ele><time>2026-03-29T07:28:53Z</time></trkpt><trkpt lat="40.81442842537578" lon="8.517805069522678"><ele>8.0</ele><time>2026-03-29T07:28:54Z</time></trkpt><trkpt lat="40.814370455545465" lon="8.517958569042538"><ele>8.0</ele><time>2026-03-29T07:28:55Z</time></trkpt><trkpt lat="40.8143171341847" lon="8.518111465649051"><ele>8.0</ele><time>2026-03-29T07:28:56Z</time></trkpt><trkpt lat="40.814265912980865" lon="8.518263065347602"><ele>8.0</ele><time>2026-03-29T07:28:57Z</time></trkpt><trkpt lat="40.81421522586449" lon="8.518413084307058"><ele>8.0</ele><time>2026-03-29T07:28:58Z</time></trkpt><trkpt lat="40.81416753845768" lon="8.518568056772853"><ele>8.0</ele><time>2026-03-29T07:28:59Z</time></trkpt><trkpt lat="40.81412710548388" lon="8.51872458675908"><ele>8.0</ele><time>2026-03-29T07:29:00Z</time></trkpt><trkpt lat="40.81409723541648" lon="8.51888485485456"><ele>8.0</ele><time>2026-03-29T07:29:01Z</time></trkpt><trkpt lat="40.81408883848017" lon="8.519052607738304"><ele>8.0</ele><time>2026-03-29T07:29:02Z</time></trkpt><trkpt lat="40.81405954043461" lon="8.519220873959714"><ele>8.0</ele><time>2026-03-29T07:29:03Z</time></trkpt><trkpt lat="40.81403276460576" lon="8.519386878216414"><ele>8.0</ele><time>2026-03-29T07:29:04Z</time></trkpt><trkpt lat="40.814005513293424" lon="8.519551988062156"><ele>8.0</ele><time>2026-03-29T07:29:05Z</time></trkpt><trkpt lat="40.81395525501509" lon="8.519709060769927"><ele>8.0</ele><time>2026-03-29T07:29:06Z</time></trkpt><trkpt lat="40.81391849700261" lon="8.51987220127765"><ele>8.25</ele><time>2026-03-29T07:29:07Z</time></trkpt><trkpt lat="40.813864192407905" lon="8.520027404872982"><ele>8.5</ele><time>2026-03-29T07:29:08Z</time></trkpt><trkpt lat="40.813807793912424" lon="8.520180874718646"><ele>8.75</ele><time>2026-03-29T07:29:09Z</time></trkpt><trkpt lat="40.81375013892942" lon="8.520319947359086"><ele>9.0</ele><time>2026-03-29T07:29:10Z</time></trkpt><trkpt lat="40.81369455894613" lon="8.520459870223558"><ele>9.0</ele><time>2026-03-29T07:29:11Z</time></trkpt><trkpt lat="40.81365175650233" lon="8.52059409991758"><ele>9.0</ele><time>2026-03-29T07:29:11.999Z</time></trkpt><trkpt lat="40.81360877852446" lon="8.520729839896099"><ele>9.0</ele><time>2026-03-29T07:29:12.999Z</time></trkpt><trkpt lat="40.81356389452143" lon="8.520871599788203"><ele>9.0</ele><time>2026-03-29T07:29:13.999Z</time></trkpt><trkpt lat="40.81351736307166" lon="8.521018562913781"><ele>9.0</ele><time>2026-03-29T07:29:14.999Z</time></trkpt><trkpt lat="40.81347059521059" lon="8.521168195268588"><ele>9.0</ele><time>2026-03-29T07:29:15.999Z</time></trkpt><trkpt lat="40.813424129542106" lon="8.521317843525399"><ele>9.0</ele><time>2026-03-29T07:29:16.999Z</time></trkpt><trkpt lat="40.81337800517618" lon="8.521466392581642"><ele>9.0</ele><time>2026-03-29T07:29:17.999Z</time></trkpt><trkpt lat="40.813331955583635" lon="8.521617292471586"><ele>9.25</ele><time>2026-03-29T07:29:18.999Z</time></trkpt><trkpt lat="40.813285901410566" lon="8.521770545217983"><ele>9.5</ele><time>2026-03-29T07:29:19.999Z</time></trkpt><trkpt lat="40.813253652583754" lon="8.521932935150806"><ele>9.75</ele><time>2026-03-29T07:29:20.999Z</time></trkpt><trkpt lat="40.813187875453885" lon="8.522075606598893"><ele>10.0</ele><time>2026-03-29T07:29:21.999Z</time></trkpt><trkpt lat="40.81313138813881" lon="8.52221795718392"><ele>10.0</ele><time>2026-03-29T07:29:22.999Z</time></trkpt><trkpt lat="40.81307242092555" lon="8.522360550359394"><ele>10.0</ele><time>2026-03-29T07:29:23.999Z</time></trkpt><trkpt lat="40.81301125457846" lon="8.522503324517375"><ele>10.0</ele><time>2026-03-29T07:29:24.999Z</time></trkpt><trkpt lat="40.812941818994354" lon="8.522642176113612"><ele>10.0</ele><time>2026-03-29T07:29:25.999Z</time></trkpt><trkpt lat="40.81285902904256" lon="8.52277222020724"><ele>10.0</ele><time>2026-03-29T07:29:26.999Z</time></trkpt><trkpt lat="40.812773775927425" lon="8.522902280852337"><ele>10.0</ele><time>2026-03-29T07:29:27.999Z</time></trkpt><trkpt lat="40.81268922458775" lon="8.523026349713627"><ele>10.0</ele><time>2026-03-29T07:29:28.999Z</time></trkpt><trkpt lat="40.81260881591488" lon="8.523152933665575"><ele>10.0</ele><time>2026-03-29T07:29:29.999Z</time></trkpt><trkpt lat="40.81253406922802" lon="8.523282650117869"><ele>10.25</ele><time>2026-03-29T07:29:30.999Z</time></trkpt><trkpt lat="40.8124606289627" lon="8.523413866137727"><ele>10.5</ele><time>2026-03-29T07:29:31.999Z</time></trkpt><trkpt lat="40.8123882446731" lon="8.52354205058308"><ele>10.75</ele><time>2026-03-29T07:29:32.999Z</time></trkpt><trkpt lat="40.81230929615685" lon="8.52365924722505"><ele>11.0</ele><time>2026-03-29T07:29:33.999Z</time></trkpt><trkpt lat="40.812220202703855" lon="8.523770632844146"><ele>11.0</ele><time>2026-03-29T07:29:34.999Z</time></trkpt><trkpt lat="40.81212359275162" lon="8.523886187221919"><ele>11.0</ele><time>2026-03-29T07:29:35.999Z</time></trkpt><trkpt lat="40.812018751476764" lon="8.5240097340111"><ele>11.0</ele><time>2026-03-29T07:29:36.999Z</time></trkpt><trkpt lat="40.81191030586301" lon="8.524137528223127"><ele>11.0</ele><time>2026-03-29T07:29:37.999Z</time></trkpt><trkpt lat="40.811805815299905" lon="8.52427886680839"><ele>11.0</ele><time>2026-03-29T07:29:38.999Z</time></trkpt><trkpt lat="40.81170422662428" lon="8.52441886732092"><ele>11.0</ele><time>2026-03-29T07:29:39.999Z</time></trkpt><trkpt lat="40.811609303516384" lon="8.524561448917252"><ele>11.0</ele><time>2026-03-29T07:29:40.999Z</time></trkpt><trkpt lat="40.81151835741632" lon="8.524701836486672"><ele>11.0</ele><time>2026-03-29T07:29:41.999Z</time></trkpt><trkpt lat="40.811433606143396" lon="8.524834104544075"><ele>11.0</ele><time>2026-03-29T07:29:42.999Z</time></trkpt><trkpt lat="40.81135178932512" lon="8.524959676714385"><ele>11.0</ele><time>2026-03-29T07:29:43.999Z</time></trkpt><trkpt lat="40.81126648138831" lon="8.525078315737588"><ele>11.0</ele><time>2026-03-29T07:29:44.999Z</time></trkpt><trkpt lat="40.81117419983053" lon="8.52519091963493"><ele>11.0</ele><time>2026-03-29T07:29:45.999Z</time></trkpt><trkpt lat="40.811074525352964" lon="8.525299639112628"><ele>11.25</ele><time>2026-03-29T07:29:46.999Z</time></trkpt><trkpt lat="40.8109712031857" lon="8.525412092675944"><ele>11.5</ele><time>2026-03-29T07:29:47.999Z</time></trkpt><trkpt lat="40.810872972737386" lon="8.525524422283302"><ele>11.75</ele><time>2026-03-29T07:29:48.999Z</time></trkpt><trkpt lat="40.81078177377928" lon="8.52563238470764"><ele>12.0</ele><time>2026-03-29T07:29:49.999Z</time></trkpt><trkpt lat="40.81069832272513" lon="8.525734893103147"><ele>12.0</ele><time>2026-03-29T07:29:50.999Z</time></trkpt><trkpt lat="40.81062604121112" lon="8.525837422060723"><ele>12.0</ele><time>2026-03-29T07:29:51.999Z</time></trkpt><trkpt lat="40.81056893255264" lon="8.52593685201579"><ele>12.0</ele><time>2026-03-29T07:29:52.999Z</time></trkpt><trkpt lat="40.810525502775356" lon="8.526036141079354"><ele>12.0</ele><time>2026-03-29T07:29:53.999Z</time></trkpt><trkpt lat="40.81051715321955" lon="8.526146182839826"><ele>12.0</ele><time>2026-03-29T07:29:54.999Z</time></trkpt><trkpt lat="40.810503347470956" lon="8.52625971129677"><ele>12.166666666666666</ele><time>2026-03-29T07:29:55.999Z</time></trkpt><trkpt lat="40.81050537488663" lon="8.526385112081234"><ele>12.333333333333332</ele><time>2026-03-29T07:29:56.999Z</time></trkpt><trkpt lat="40.81051098047306" lon="8.526509098841082"><ele>12.5</ele><time>2026-03-29T07:29:57.999Z</time></trkpt><trkpt lat="40.81052408717987" lon="8.52662049965109"><ele>12.666666666666666</ele><time>2026-03-29T07:29:58.999Z</time></trkpt><trkpt lat="40.810548317068125" lon="8.526720345022724"><ele>12.833333333333332</ele><time>2026-03-29T07:29:59.999Z</time></trkpt><trkpt lat="40.81058105233659" lon="8.526813872939352"><ele>13.0</ele><time>2026-03-29T07:30:00.999Z</time></trkpt><trkpt lat="40.810633136524466" lon="8.52690712788403"><ele>13.0</ele><time>2026-03-29T07:30:01.999Z</time></trkpt><trkpt lat="40.810693869052756" lon="8.52701310464146"><ele>13.0</ele><time>2026-03-29T07:30:02.999Z</time></trkpt><trkpt lat="40.81078512323399" lon="8.527100863842227"><ele>13.0</ele><time>2026-03-29T07:30:03.999Z</time></trkpt><trkpt lat="40.81087993544826" lon="8.52718178731164"><ele>13.0</ele><time>2026-03-29T07:30:04.999Z</time></trkpt><trkpt lat="40.81097244887949" lon="8.52726786899811"><ele>13.0</ele><time>2026-03-29T07:30:05.999Z</time></trkpt><trkpt lat="40.81106388278196" lon="8.527355624319545"><ele>12.4</ele><time>2026-03-29T07:30:06.999Z</time></trkpt><trkpt lat="40.81115258340733" lon="8.527445111365958"><ele>11.8</ele><time>2026-03-29T07:30:07.999Z</time></trkpt><trkpt lat="40.81124049820361" lon="8.527532450529147"><ele>11.2</ele><time>2026-03-29T07:30:08.999Z</time></trkpt><trkpt lat="40.81132041265518" lon="8.527623368624978"><ele>10.6</ele><time>2026-03-29T07:30:09.999Z</time></trkpt><trkpt lat="40.811395682214275" lon="8.527708703205382"><ele>10.0</ele><time>2026-03-29T07:30:10.999Z</time></trkpt><trkpt lat="40.811457571052635" lon="8.527781034223322"><ele>10.0</ele><time>2026-03-29T07:30:11.999Z</time></trkpt><trkpt lat="40.81149012301637" lon="8.527857573729182"><ele>10.0</ele><time>2026-03-29T07:30:12.999Z</time></trkpt><trkpt lat="40.811537249837876" lon="8.527993986405052"><ele>10.0</ele><time>2026-03-29T07:30:14.999Z</time></trkpt><trkpt lat="40.81152739573141" lon="8.528078114611683"><ele>10.0</ele><time>2026-03-29T07:30:15.999Z</time></trkpt><trkpt lat="40.81149710262344" lon="8.52818808460431"><ele>10.0</ele><time>2026-03-29T07:30:16.999Z</time></trkpt><trkpt lat="40.81145942861571" lon="8.528320360506529"><ele>10.0</ele><time>2026-03-29T07:30:17.999Z</time></trkpt><trkpt lat="40.81141933783484" lon="8.528461612641092"><ele>10.5</ele><time>2026-03-29T07:30:18.999Z</time></trkpt><trkpt lat="40.81137833820776" lon="8.528606066920998"><ele>11.0</ele><time>2026-03-29T07:30:19.999Z</time></trkpt><trkpt lat="40.81133743742998" lon="8.528751336574945"><ele>11.5</ele><time>2026-03-29T07:30:20.999Z</time></trkpt><trkpt lat="40.81129931819911" lon="8.528892356270955"><ele>12.0</ele><time>2026-03-29T07:30:21.999Z</time></trkpt><trkpt lat="40.81126104149692" lon="8.529034835228119"><ele>12.0</ele><time>2026-03-29T07:30:22.999Z</time></trkpt><trkpt lat="40.81123503552386" lon="8.529188891227847"><ele>12.0</ele><time>2026-03-29T07:30:23.999Z</time></trkpt><trkpt lat="40.8112241446259" lon="8.52934975087494"><ele>12.0</ele><time>2026-03-29T07:30:24.999Z</time></trkpt><trkpt lat="40.81121573478602" lon="8.529511496306068"><ele>12.0</ele><time>2026-03-29T07:30:25.999Z</time></trkpt><trkpt lat="40.81121024816478" lon="8.529671887047535"><ele>12.0</ele><time>2026-03-29T07:30:26.999Z</time></trkpt><trkpt lat="40.8112090354349" lon="8.529828468263046"><ele>12.0</ele><time>2026-03-29T07:30:27.999Z</time></trkpt><trkpt lat="40.81121164414489" lon="8.52998139910145"><ele>12.0</ele><time>2026-03-29T07:30:28.999Z</time></trkpt><trkpt lat="40.81122400228691" lon="8.530143444254945"><ele>12.0</ele><time>2026-03-29T07:30:29.999Z</time></trkpt><trkpt lat="40.81126577342814" lon="8.530306452753981"><ele>12.0</ele><time>2026-03-29T07:30:30.999Z</time></trkpt><trkpt lat="40.81133714606968" lon="8.530462473465889"><ele>12.0</ele><time>2026-03-29T07:30:31.999Z</time></trkpt><trkpt lat="40.8114381685264" lon="8.530598341172626"><ele>12.0</ele><time>2026-03-29T07:30:32.999Z</time></trkpt><trkpt lat="40.81152528089761" lon="8.530754995133679"><ele>12.0</ele><time>2026-03-29T07:30:33.999Z</time></trkpt><trkpt lat="40.81161826354713" lon="8.530903975272018"><ele>12.0</ele><time>2026-03-29T07:30:34.999Z</time></trkpt><trkpt lat="40.811707241300525" lon="8.531050570121678"><ele>12.0</ele><time>2026-03-29T07:30:35.999Z</time></trkpt><trkpt lat="40.81178925599573" lon="8.53118838102906"><ele>12.0</ele><time>2026-03-29T07:30:36.999Z</time></trkpt><trkpt lat="40.81186649158136" lon="8.531315622297196"><ele>12.0</ele><time>2026-03-29T07:30:37.999Z</time></trkpt><trkpt lat="40.811922208358865" lon="8.531424650437087"><ele>11.8</ele><time>2026-03-29T07:30:38.999Z</time></trkpt><trkpt lat="40.81196393954284" lon="8.531503417866949"><ele>11.6</ele><time>2026-03-29T07:30:39.999Z</time></trkpt><trkpt lat="40.81196197384442" lon="8.53164290123812"><ele>11.4</ele><time>2026-03-29T07:30:41.999Z</time></trkpt><trkpt lat="40.811856570478" lon="8.531736907914999"><ele>11.200000000000001</ele><time>2026-03-29T07:30:43.999Z</time></trkpt><trkpt lat="40.81176820287879" lon="8.531793905210774"><ele>11.0</ele><time>2026-03-29T07:30:44.999Z</time></trkpt><trkpt lat="40.81166784900853" lon="8.5318571056498"><ele>11.25</ele><time>2026-03-29T07:30:45.999Z</time></trkpt><trkpt lat="40.811569091529094" lon="8.531943614125021"><ele>11.5</ele><time>2026-03-29T07:30:46.999Z</time></trkpt><trkpt lat="40.81147441039276" lon="8.532032868469335"><ele>11.75</ele><time>2026-03-29T07:30:47.999Z</time></trkpt><trkpt lat="40.81138158154723" lon="8.532122908633124"><ele>12.0</ele><time>2026-03-29T07:30:48.999Z</time></trkpt><trkpt lat="40.811295765878825" lon="8.532209339995083"><ele>12.0</ele><time>2026-03-29T07:30:49.999Z</time></trkpt><trkpt lat="40.81122232639546" lon="8.532288142484223"><ele>12.0</ele><time>2026-03-29T07:30:50.999Z</time></trkpt><trkpt lat="40.81116529160887" lon="8.532351239656"><ele>12.0</ele><time>2026-03-29T07:30:51.999Z</time></trkpt><trkpt lat="40.8111207591332" lon="8.532421548697728"><ele>12.0</ele><time>2026-03-29T07:30:52.999Z</time></trkpt><trkpt lat="40.811138788689576" lon="8.532573359479517"><ele>12.0</ele><time>2026-03-29T07:30:54.999Z</time></trkpt><trkpt lat="40.8111833613209" lon="8.532659425052968"><ele>12.0</ele><time>2026-03-29T07:30:55.999Z</time></trkpt><trkpt lat="40.811240775501254" lon="8.532759095615537"><ele>12.0</ele><time>2026-03-29T07:30:56.999Z</time></trkpt><trkpt lat="40.81129826946033" lon="8.532868147764606"><ele>12.0</ele><time>2026-03-29T07:30:58Z</time></trkpt><trkpt lat="40.81135809895279" lon="8.532982242579017"><ele>12.0</ele><time>2026-03-29T07:30:59Z</time></trkpt><trkpt lat="40.81142849121881" lon="8.533094906811957"><ele>12.0</ele><time>2026-03-29T07:31:00Z</time></trkpt><trkpt lat="40.811503458259686" lon="8.533215675810254"><ele>12.0</ele><time>2026-03-29T07:31:01Z</time></trkpt><trkpt lat="40.81158157963627" lon="8.533342536263106"><ele>12.25</ele><time>2026-03-29T07:31:02Z</time></trkpt><trkpt lat="40.81166233290899" lon="8.533470752269928"><ele>12.5</ele><time>2026-03-29T07:31:03Z</time></trkpt><trkpt lat="40.811745213982526" lon="8.533602435383447"><ele>12.75</ele><time>2026-03-29T07:31:04Z</time></trkpt><trkpt lat="40.8118345947465" lon="8.533732425298947"><ele>13.0</ele><time>2026-03-29T07:31:05Z</time></trkpt><trkpt lat="40.81191768584262" lon="8.533865931115434"><ele>13.5</ele><time>2026-03-29T07:31:06Z</time></trkpt><trkpt lat="40.81200322721247" lon="8.533991904052689"><ele>14.0</ele><time>2026-03-29T07:31:07Z</time></trkpt><trkpt lat="40.8120814076986" lon="8.534117684466748"><ele>14.5</ele><time>2026-03-29T07:31:08Z</time></trkpt><trkpt lat="40.81215241297979" lon="8.53422815655843"><ele>15.0</ele><time>2026-03-29T07:31:09Z</time></trkpt><trkpt lat="40.8122100717268" lon="8.534319929045576"><ele>15.0</ele><time>2026-03-29T07:31:10Z</time></trkpt><trkpt lat="40.812239185652366" lon="8.534410107935653"><ele>15.0</ele><time>2026-03-29T07:31:11Z</time></trkpt><trkpt lat="40.8122748443641" lon="8.53451714646725"><ele>15.0</ele><time>2026-03-29T07:31:13Z</time></trkpt><trkpt lat="40.81223357847442" lon="8.534596148727102"><ele>15.0</ele><time>2026-03-29T07:31:15Z</time></trkpt><trkpt lat="40.812158731017384" lon="8.534632944049319"><ele>15.0</ele><time>2026-03-29T07:31:16Z</time></trkpt><trkpt lat="40.81206208469209" lon="8.53463149161121"><ele>15.0</ele><time>2026-03-29T07:31:17Z</time></trkpt><trkpt lat="40.81196782459696" lon="8.534691293551637"><ele>15.0</ele><time>2026-03-29T07:31:18Z</time></trkpt><trkpt lat="40.811856272710784" lon="8.534725312936146"><ele>15.0</ele><time>2026-03-29T07:31:19Z</time></trkpt><trkpt lat="40.8117484594833" lon="8.534788224540756"><ele>15.0</ele><time>2026-03-29T07:31:20Z</time></trkpt><trkpt lat="40.81164279541064" lon="8.53485665970794"><ele>15.0</ele><time>2026-03-29T07:31:21Z</time></trkpt><trkpt lat="40.811545770966646" lon="8.53493712138049"><ele>15.0</ele><time>2026-03-29T07:31:22Z</time></trkpt><trkpt lat="40.81145350993258" lon="8.53500744778359"><ele>15.0</ele><time>2026-03-29T07:31:23Z</time></trkpt><trkpt lat="40.81137451208072" lon="8.535069243742777"><ele>15.0</ele><time>2026-03-29T07:31:24Z</time></trkpt><trkpt lat="40.81130649782282" lon="8.535126027987165"><ele>15.0</ele><time>2026-03-29T07:31:25Z</time></trkpt><trkpt lat="40.81124659110152" lon="8.535182218363271"><ele>15.0</ele><time>2026-03-29T07:31:26Z</time></trkpt><trkpt lat="40.8111987423327" lon="8.535261400135177"><ele>15.0</ele><time>2026-03-29T07:31:27Z</time></trkpt><trkpt lat="40.81117032450561" lon="8.535388746812634"><ele>15.4</ele><time>2026-03-29T07:31:28Z</time></trkpt><trkpt lat="40.81115844181631" lon="8.53551749452093"><ele>15.8</ele><time>2026-03-29T07:31:29Z</time></trkpt><trkpt lat="40.81114971007385" lon="8.535660510245197"><ele>16.2</ele><time>2026-03-29T07:31:30Z</time></trkpt><trkpt lat="40.81114080321235" lon="8.53581487623181"><ele>16.6</ele><time>2026-03-29T07:31:31Z</time></trkpt><trkpt lat="40.81113260679071" lon="8.535979691532596"><ele>17.0</ele><time>2026-03-29T07:31:32Z</time></trkpt><trkpt lat="40.811124477999954" lon="8.536149385020261"><ele>17.0</ele><time>2026-03-29T07:31:33Z</time></trkpt><trkpt lat="40.81111633971312" lon="8.53631927674748"><ele>17.0</ele><time>2026-03-29T07:31:34Z</time></trkpt><trkpt lat="40.81110756001699" lon="8.536490032407805"><ele>17.0</ele><time>2026-03-29T07:31:35Z</time></trkpt><trkpt lat="40.81109844666739" lon="8.5366615241817"><ele>17.0</ele><time>2026-03-29T07:31:36Z</time></trkpt><trkpt lat="40.811089658791225" lon="8.536826891300862"><ele>17.0</ele><time>2026-03-29T07:31:37Z</time></trkpt><trkpt lat="40.81108106689086" lon="8.536988570616447"><ele>17.0</ele><time>2026-03-29T07:31:38Z</time></trkpt><trkpt lat="40.81107075924745" lon="8.537147780430578"><ele>17.0</ele><time>2026-03-29T07:31:39Z</time></trkpt><trkpt lat="40.811060304013346" lon="8.537305869591547"><ele>17.0</ele><time>2026-03-29T07:31:40Z</time></trkpt><trkpt lat="40.811050673928705" lon="8.537461355783678"><ele>17.25</ele><time>2026-03-29T07:31:41Z</time></trkpt><trkpt lat="40.811042025367456" lon="8.537614300063916"><ele>17.5</ele><time>2026-03-29T07:31:42Z</time></trkpt><trkpt lat="40.81103779271582" lon="8.537771942916812"><ele>17.75</ele><time>2026-03-29T07:31:43Z</time></trkpt><trkpt lat="40.81104442741674" lon="8.537924165715806"><ele>18.0</ele><time>2026-03-29T07:31:44Z</time></trkpt><trkpt lat="40.811058108880744" lon="8.53806903959281"><ele>18.166666666666668</ele><time>2026-03-29T07:31:45Z</time></trkpt><trkpt lat="40.81108005940131" lon="8.538207551530963"><ele>18.333333333333332</ele><time>2026-03-29T07:31:46Z</time></trkpt><trkpt lat="40.81111167860307" lon="8.538330127763382"><ele>18.5</ele><time>2026-03-29T07:31:47Z</time></trkpt><trkpt lat="40.81111929044501" lon="8.538448608823382"><ele>18.666666666666664</ele><time>2026-03-29T07:31:48Z</time></trkpt><trkpt lat="40.81109891912668" lon="8.538550211954973"><ele>18.833333333333332</ele><time>2026-03-29T07:31:49Z</time></trkpt><trkpt lat="40.81107281633031" lon="8.538640886272868"><ele>19.0</ele><time>2026-03-29T07:31:50Z</time></trkpt><trkpt lat="40.81103412815137" lon="8.538747621307076"><ele>19.2</ele><time>2026-03-29T07:31:51Z</time></trkpt><trkpt lat="40.81098865676788" lon="8.538862223007394"><ele>19.4</ele><time>2026-03-29T07:31:52Z</time></trkpt><trkpt lat="40.81093468708566" lon="8.538975146812257"><ele>19.6</ele><time>2026-03-29T07:31:53Z</time></trkpt><trkpt lat="40.81088459409789" lon="8.539079959191296"><ele>19.8</ele><time>2026-03-29T07:31:54Z</time></trkpt><trkpt lat="40.81084304304437" lon="8.539166898802257"><ele>20.0</ele><time>2026-03-29T07:31:55Z</time></trkpt><trkpt lat="40.81078842362598" lon="8.539281182087402"><ele>20.0</ele><time>2026-03-29T07:31:57Z</time></trkpt><trkpt lat="40.810753035102" lon="8.53935522748934"><ele>20.0</ele><time>2026-03-29T07:31:59Z</time></trkpt><trkpt lat="40.81075677106941" lon="8.539477514994765"><ele>20.0</ele><time>2026-03-29T07:32:03Z</time></trkpt><trkpt lat="40.81085707779256" lon="8.539614462979523"><ele>20.0</ele><time>2026-03-29T07:32:05Z</time></trkpt><trkpt lat="40.81092552977822" lon="8.53971245185298"><ele>20.0</ele><time>2026-03-29T07:32:06Z</time></trkpt><trkpt lat="40.810997891658786" lon="8.539819184221876"><ele>20.25</ele><time>2026-03-29T07:32:07Z</time></trkpt><trkpt lat="40.81107809730255" lon="8.539933960370652"><ele>20.5</ele><time>2026-03-29T07:32:08Z</time></trkpt><trkpt lat="40.81117337374859" lon="8.540039168020185"><ele>20.75</ele><time>2026-03-29T07:32:09Z</time></trkpt><trkpt lat="40.81126808901319" lon="8.540137432757957"><ele>21.0</ele><time>2026-03-29T07:32:10Z</time></trkpt><trkpt lat="40.81135125008408" lon="8.540231290385622"><ele>21.0</ele><time>2026-03-29T07:32:11Z</time></trkpt><trkpt lat="40.81141965071808" lon="8.540318241429867"><ele>21.0</ele><time>2026-03-29T07:32:12Z</time></trkpt><trkpt lat="40.81147790847222" lon="8.540386933409074"><ele>21.0</ele><time>2026-03-29T07:32:13Z</time></trkpt><trkpt lat="40.81153203870986" lon="8.5404397517972"><ele>21.0</ele><time>2026-03-29T07:32:14Z</time></trkpt><trkpt lat="40.81158181010984" lon="8.540583903779137"><ele>21.0</ele><time>2026-03-29T07:32:16Z</time></trkpt><trkpt lat="40.8115021814067" lon="8.540668589905504"><ele>21.166666666666668</ele><time>2026-03-29T07:32:18Z</time></trkpt><trkpt lat="40.81145786243428" lon="8.54073587535485"><ele>21.333333333333332</ele><time>2026-03-29T07:32:19Z</time></trkpt><trkpt lat="40.81140999146838" lon="8.540813238366063"><ele>21.5</ele><time>2026-03-29T07:32:20Z</time></trkpt><trkpt lat="40.81135399043878" lon="8.540884465253649"><ele>21.666666666666664</ele><time>2026-03-29T07:32:21Z</time></trkpt><trkpt lat="40.811295119416954" lon="8.540961807930236"><ele>21.833333333333332</ele><time>2026-03-29T07:32:22Z</time></trkpt><trkpt lat="40.81122424564354" lon="8.541037904294267"><ele>22.0</ele><time>2026-03-29T07:32:23Z</time></trkpt><trkpt lat="40.811151142735945" lon="8.541124749477584"><ele>22.0</ele><time>2026-03-29T07:32:24Z</time></trkpt><trkpt lat="40.81107491323834" lon="8.54122495198712"><ele>22.0</ele><time>2026-03-29T07:32:25Z</time></trkpt><trkpt lat="40.81099916318539" lon="8.541332808666436"><ele>22.0</ele><time>2026-03-29T07:32:26Z</time></trkpt><trkpt lat="40.810920569522665" lon="8.541445926933362"><ele>22.0</ele><time>2026-03-29T07:32:27Z</time></trkpt><trkpt lat="40.81084265342088" lon="8.541561841312019"><ele>22.5</ele><time>2026-03-29T07:32:28Z</time></trkpt><trkpt lat="40.81076249942068" lon="8.541682870530565"><ele>23.0</ele><time>2026-03-29T07:32:29Z</time></trkpt><trkpt lat="40.810681079278815" lon="8.541796780165095"><ele>23.5</ele><time>2026-03-29T07:32:30Z</time></trkpt><trkpt lat="40.81058937440853" lon="8.541899284776783"><ele>24.0</ele><time>2026-03-29T07:32:31Z</time></trkpt><trkpt lat="40.81051791308121" lon="8.542022288397941"><ele>24.0</ele><time>2026-03-29T07:32:32Z</time></trkpt><trkpt lat="40.81044364858878" lon="8.542135241543017"><ele>24.0</ele><time>2026-03-29T07:32:33Z</time></trkpt><trkpt lat="40.81035508173592" lon="8.542229881869407"><ele>24.0</ele><time>2026-03-29T07:32:34Z</time></trkpt><trkpt lat="40.81028037860642" lon="8.542336076892857"><ele>24.0</ele><time>2026-03-29T07:32:35Z</time></trkpt><trkpt lat="40.81020272284289" lon="8.542453205939253"><ele>24.75</ele><time>2026-03-29T07:32:36Z</time></trkpt><trkpt lat="40.810127441317164" lon="8.542572561251719"><ele>25.5</ele><time>2026-03-29T07:32:37Z</time></trkpt><trkpt lat="40.81005442224704" lon="8.542700970348656"><ele>26.25</ele><time>2026-03-29T07:32:38Z</time></trkpt><trkpt lat="40.80998452026924" lon="8.542823025022026"><ele>27.0</ele><time>2026-03-29T07:32:39Z</time></trkpt><trkpt lat="40.80992402401904" lon="8.542931879686709"><ele>27.200000000000003</ele><time>2026-03-29T07:32:40Z</time></trkpt><trkpt lat="40.80986592388371" lon="8.543036422874058"><ele>27.400000000000002</ele><time>2026-03-29T07:32:41Z</time></trkpt><trkpt lat="40.80980698824499" lon="8.543142469434798"><ele>27.599999999999998</ele><time>2026-03-29T07:32:42Z</time></trkpt><trkpt lat="40.809747824155764" lon="8.543248927067037"><ele>27.799999999999997</ele><time>2026-03-29T07:32:43Z</time></trkpt><trkpt lat="40.80968865241107" lon="8.543359103227493"><ele>28.0</ele><time>2026-03-29T07:32:44Z</time></trkpt><trkpt lat="40.809632048374006" lon="8.543463391218717"><ele>28.000000000000004</ele><time>2026-03-29T07:32:45Z</time></trkpt><trkpt lat="40.80958322706397" lon="8.543553340217125"><ele>28.0</ele><time>2026-03-29T07:32:46Z</time></trkpt><trkpt lat="40.809538165575745" lon="8.54363845491188"><ele>28.0</ele><time>2026-03-29T07:32:47Z</time></trkpt><trkpt lat="40.80949843112586" lon="8.543720373808128"><ele>28.0</ele><time>2026-03-29T07:32:48Z</time></trkpt><trkpt lat="40.80946629705922" lon="8.543797422186506"><ele>28.000000000000004</ele><time>2026-03-29T07:32:49Z</time></trkpt><trkpt lat="40.80942483251675" lon="8.543935911043588"><ele>28.0</ele><time>2026-03-29T07:32:51Z</time></trkpt><trkpt lat="40.80936858573992" lon="8.54398942851853"><ele>28.666666666666668</ele><time>2026-03-29T07:32:54Z</time></trkpt><trkpt lat="40.809244940588776" lon="8.543937565780501"><ele>29.333333333333336</ele><time>2026-03-29T07:32:56Z</time></trkpt><trkpt lat="40.809176260471936" lon="8.543888119421645"><ele>30.0</ele><time>2026-03-29T07:32:57Z</time></trkpt><trkpt lat="40.80910765999979" lon="8.543847600591628"><ele>30.666666666666664</ele><time>2026-03-29T07:32:58Z</time></trkpt><trkpt lat="40.80904021118952" lon="8.543814809207031"><ele>31.333333333333332</ele><time>2026-03-29T07:32:59Z</time></trkpt><trkpt lat="40.808974826273904" lon="8.543782411062285"><ele>32.0</ele><time>2026-03-29T07:33:00Z</time></trkpt><trkpt lat="40.808905489091536" lon="8.543743530291394"><ele>31.999999999999996</ele><time>2026-03-29T07:33:01Z</time></trkpt><trkpt lat="40.80882762819451" lon="8.543708531763606"><ele>32.0</ele><time>2026-03-29T07:33:02Z</time></trkpt><trkpt lat="40.80875002871508" lon="8.543658850045833"><ele>32.0</ele><time>2026-03-29T07:33:03Z</time></trkpt><trkpt lat="40.80867291763654" lon="8.54359032900028"><ele>32.0</ele><time>2026-03-29T07:33:04Z</time></trkpt><trkpt lat="40.80859322476644" lon="8.543532974206448"><ele>31.999999999999996</ele><time>2026-03-29T07:33:05Z</time></trkpt><trkpt lat="40.8085167603994" lon="8.543477390929814"><ele>32.0</ele><time>2026-03-29T07:33:06Z</time></trkpt><trkpt lat="40.808441942057456" lon="8.543409051839122"><ele>32.0</ele><time>2026-03-29T07:33:07Z</time></trkpt><trkpt lat="40.80835805110524" lon="8.543335714016955"><ele>32.0</ele><time>2026-03-29T07:33:08Z</time></trkpt><trkpt lat="40.808282958217276" lon="8.543246114464926"><ele>32.0</ele><time>2026-03-29T07:33:09Z</time></trkpt><trkpt lat="40.80819878341416" lon="8.543180597664488"><ele>32.0</ele><time>2026-03-29T07:33:10Z</time></trkpt><trkpt lat="40.80812990743535" lon="8.543109491537729"><ele>32.0</ele><time>2026-03-29T07:33:11Z</time></trkpt><trkpt lat="40.80806415823109" lon="8.543040739891673"><ele>31.999999999999996</ele><time>2026-03-29T07:33:12Z</time></trkpt><trkpt lat="40.807998396790765" lon="8.542971975450358"><ele>32.0</ele><time>2026-03-29T07:33:13Z</time></trkpt><trkpt lat="40.80794120790806" lon="8.542886625612532"><ele>32.0</ele><time>2026-03-29T07:33:14Z</time></trkpt><trkpt lat="40.807874004794485" lon="8.542824437550571"><ele>32.0</ele><time>2026-03-29T07:33:15Z</time></trkpt><trkpt lat="40.8078032786823" lon="8.542769206407657"><ele>31.999999999999996</ele><time>2026-03-29T07:33:16Z</time></trkpt><trkpt lat="40.80773326003225" lon="8.542709723363087"><ele>32.0</ele><time>2026-03-29T07:33:17Z</time></trkpt><trkpt lat="40.80766408462392" lon="8.542651742332216"><ele>32.2</ele><time>2026-03-29T07:33:18Z</time></trkpt><trkpt lat="40.807591789869434" lon="8.542586291507664"><ele>32.400000000000006</ele><time>2026-03-29T07:33:19Z</time></trkpt><trkpt lat="40.807514813593954" lon="8.542512600085843"><ele>32.599999999999994</ele><time>2026-03-29T07:33:20Z</time></trkpt><trkpt lat="40.80743470202382" lon="8.542439602046393"><ele>32.8</ele><time>2026-03-29T07:33:21Z</time></trkpt><trkpt lat="40.80735661248092" lon="8.542364921120207"><ele>33.0</ele><time>2026-03-29T07:33:22Z</time></trkpt><trkpt lat="40.80727967908869" lon="8.542293585299547"><ele>33.0</ele><time>2026-03-29T07:33:23Z</time></trkpt><trkpt lat="40.80720212953213" lon="8.54221962507321"><ele>33.0</ele><time>2026-03-29T07:33:24Z</time></trkpt><trkpt lat="40.807126989273655" lon="8.542139764665196"><ele>33.0</ele><time>2026-03-29T07:33:25Z</time></trkpt><trkpt lat="40.80705214052069" lon="8.542058597739965"><ele>33.0</ele><time>2026-03-29T07:33:26Z</time></trkpt><trkpt lat="40.806972576173585" lon="8.541983190774065"><ele>33.0</ele><time>2026-03-29T07:33:27Z</time></trkpt><trkpt lat="40.806899170231546" lon="8.541908073954277"><ele>33.0</ele><time>2026-03-29T07:33:28Z</time></trkpt><trkpt lat="40.80682170578997" lon="8.541836519690182"><ele>33.0</ele><time>2026-03-29T07:33:29Z</time></trkpt><trkpt lat="40.80674255980378" lon="8.541756496094935"><ele>33.0</ele><time>2026-03-29T07:33:30Z</time></trkpt><trkpt lat="40.80665720245995" lon="8.54167284927204"><ele>33.0</ele><time>2026-03-29T07:33:31Z</time></trkpt><trkpt lat="40.80657189195509" lon="8.541581516491462"><ele>33.0</ele><time>2026-03-29T07:33:32Z</time></trkpt><trkpt lat="40.806484068519175" lon="8.541490622673534"><ele>33.0</ele><time>2026-03-29T07:33:33Z</time></trkpt><trkpt lat="40.80639900222897" lon="8.541387023389827"><ele>33.0</ele><time>2026-03-29T07:33:34Z</time></trkpt><trkpt lat="40.80631335133126" lon="8.541288646661537"><ele>33.0</ele><time>2026-03-29T07:33:35Z</time></trkpt><trkpt lat="40.806229337976724" lon="8.541190212906146"><ele>33.0</ele><time>2026-03-29T07:33:36Z</time></trkpt><trkpt lat="40.80614858841371" lon="8.541083125519576"><ele>32.6</ele><time>2026-03-29T07:33:37Z</time></trkpt><trkpt lat="40.80606995669507" lon="8.540978120432014"><ele>32.199999999999996</ele><time>2026-03-29T07:33:38Z</time></trkpt><trkpt lat="40.8059895222085" lon="8.540879038922425"><ele>31.8</ele><time>2026-03-29T07:33:39Z</time></trkpt><trkpt lat="40.80591097429073" lon="8.5407853244904"><ele>31.4</ele><time>2026-03-29T07:33:40Z</time></trkpt><trkpt lat="40.80583268463825" lon="8.54069507221404"><ele>31.0</ele><time>2026-03-29T07:33:41Z</time></trkpt><trkpt lat="40.805750131409795" lon="8.540612684300667"><ele>31.0</ele><time>2026-03-29T07:33:42Z</time></trkpt><trkpt lat="40.805669156664266" lon="8.540527235273014"><ele>31.0</ele><time>2026-03-29T07:33:43Z</time></trkpt><trkpt lat="40.805575899799955" lon="8.540456290818163"><ele>31.0</ele><time>2026-03-29T07:33:44Z</time></trkpt><trkpt lat="40.805488443906526" lon="8.540375959203528"><ele>31.0</ele><time>2026-03-29T07:33:45Z</time></trkpt><trkpt lat="40.80540833161995" lon="8.54030113806683"><ele>31.0</ele><time>2026-03-29T07:33:46Z</time></trkpt><trkpt lat="40.80534045070445" lon="8.540235638045583"><ele>31.0</ele><time>2026-03-29T07:33:47Z</time></trkpt><trkpt lat="40.80529243137359" lon="8.540177332835274"><ele>31.0</ele><time>2026-03-29T07:33:48Z</time></trkpt><trkpt lat="40.805214154312274" lon="8.540092705432127"><ele>31.0</ele><time>2026-03-29T07:33:50Z</time></trkpt><trkpt lat="40.80513951066192" lon="8.540010182336172"><ele>31.0</ele><time>2026-03-29T07:33:52Z</time></trkpt><trkpt lat="40.805043704644675" lon="8.539894858257377"><ele>31.0</ele><time>2026-03-29T07:33:54Z</time></trkpt><trkpt lat="40.80497899580743" lon="8.539831237529366"><ele>31.166666666666668</ele><time>2026-03-29T07:33:55Z</time></trkpt><trkpt lat="40.80490942430425" lon="8.53975690670388"><ele>31.333333333333336</ele><time>2026-03-29T07:33:56Z</time></trkpt><trkpt lat="40.8048362948914" lon="8.539688943272546"><ele>31.5</ele><time>2026-03-29T07:33:57Z</time></trkpt><trkpt lat="40.80476823998223" lon="8.539626575214317"><ele>31.666666666666664</ele><time>2026-03-29T07:33:58Z</time></trkpt><trkpt lat="40.804690232127605" lon="8.53958693097107"><ele>31.833333333333332</ele><time>2026-03-29T07:33:59Z</time></trkpt><trkpt lat="40.80460169419621" lon="8.539552945487486"><ele>32.0</ele><time>2026-03-29T07:34:00Z</time></trkpt><trkpt lat="40.80450614618248" lon="8.539531056478854"><ele>31.999999999999996</ele><time>2026-03-29T07:34:01Z</time></trkpt><trkpt lat="40.80441439548374" lon="8.539499663737676"><ele>32.0</ele><time>2026-03-29T07:34:02Z</time></trkpt><trkpt lat="40.804325620546216" lon="8.53947407788573"><ele>32.0</ele><time>2026-03-29T07:34:03Z</time></trkpt><trkpt lat="40.80424228640979" lon="8.539444444989115"><ele>32.0</ele><time>2026-03-29T07:34:04Z</time></trkpt><trkpt lat="40.804166461507016" lon="8.539408104224973"><ele>31.999999999999996</ele><time>2026-03-29T07:34:05Z</time></trkpt><trkpt lat="40.80410037072442" lon="8.539370126079945"><ele>32.0</ele><time>2026-03-29T07:34:06Z</time></trkpt><trkpt lat="40.804043681498264" lon="8.539333463734195"><ele>32.166666666666664</ele><time>2026-03-29T07:34:07Z</time></trkpt><trkpt lat="40.803990093932164" lon="8.53928934733033"><ele>32.33333333333333</ele><time>2026-03-29T07:34:08Z</time></trkpt><trkpt lat="40.803935957378485" lon="8.539238417360167"><ele>32.5</ele><time>2026-03-29T07:34:09Z</time></trkpt><trkpt lat="40.803840196812644" lon="8.53915480402847"><ele>32.666666666666664</ele><time>2026-03-29T07:34:11Z</time></trkpt><trkpt lat="40.80378105292801" lon="8.539123779453929"><ele>32.833333333333336</ele><time>2026-03-29T07:34:12Z</time></trkpt><trkpt lat="40.80371085329754" lon="8.539153215534208"><ele>33.0</ele><time>2026-03-29T07:34:13Z</time></trkpt><trkpt lat="40.80364030576453" lon="8.53920028184572"><ele>33.0</ele><time>2026-03-29T07:34:14Z</time></trkpt><trkpt lat="40.803572163851406" lon="8.53924674440921"><ele>33.0</ele><time>2026-03-29T07:34:15Z</time></trkpt><trkpt lat="40.80349880987732" lon="8.539288483889875"><ele>33.0</ele><time>2026-03-29T07:34:16Z</time></trkpt><trkpt lat="40.80341414665335" lon="8.539351748562154"><ele>33.0</ele><time>2026-03-29T07:34:17Z</time></trkpt><trkpt lat="40.80334294471174" lon="8.539439373709493"><ele>33.0</ele><time>2026-03-29T07:34:18Z</time></trkpt><trkpt lat="40.80327894238393" lon="8.53953475782885"><ele>33.0</ele><time>2026-03-29T07:34:19Z</time></trkpt><trkpt lat="40.803215016045186" lon="8.539632791165877"><ele>33.6</ele><time>2026-03-29T07:34:20Z</time></trkpt><trkpt lat="40.803147667143605" lon="8.539733369383958"><ele>34.199999999999996</ele><time>2026-03-29T07:34:21Z</time></trkpt><trkpt lat="40.803081128137975" lon="8.539837121449214"><ele>34.8</ele><time>2026-03-29T07:34:22Z</time></trkpt><trkpt lat="40.80301755817901" lon="8.539940716188205"><ele>35.4</ele><time>2026-03-29T07:34:23Z</time></trkpt><trkpt lat="40.80295541719721" lon="8.540044256432667"><ele>36.0</ele><time>2026-03-29T07:34:24Z</time></trkpt><trkpt lat="40.80289135380634" lon="8.540147826961798"><ele>36.0</ele><time>2026-03-29T07:34:25Z</time></trkpt><trkpt lat="40.80282738018108" lon="8.540250544564925"><ele>36.0</ele><time>2026-03-29T07:34:26Z</time></trkpt><trkpt lat="40.80276713221989" lon="8.54034841929492"><ele>36.0</ele><time>2026-03-29T07:34:27Z</time></trkpt><trkpt lat="40.802704223906616" lon="8.5404453783721"><ele>36.0</ele><time>2026-03-29T07:34:28Z</time></trkpt><trkpt lat="40.80263995617722" lon="8.540545719940356"><ele>36.0</ele><time>2026-03-29T07:34:29Z</time></trkpt><trkpt lat="40.80257644535882" lon="8.540662667302943"><ele>36.2</ele><time>2026-03-29T07:34:30Z</time></trkpt><trkpt lat="40.802521672414265" lon="8.540783347723313"><ele>36.400000000000006</ele><time>2026-03-29T07:34:31Z</time></trkpt><trkpt lat="40.802470695809895" lon="8.540908618920804"><ele>36.6</ele><time>2026-03-29T07:34:32Z</time></trkpt><trkpt lat="40.80241958937247" lon="8.541024970847618"><ele>36.800000000000004</ele><time>2026-03-29T07:34:33Z</time></trkpt><trkpt lat="40.802363584569" lon="8.54113685775412"><ele>37.0</ele><time>2026-03-29T07:34:34Z</time></trkpt><trkpt lat="40.8023075609595" lon="8.541247257610936"><ele>37.4</ele><time>2026-03-29T07:34:35Z</time></trkpt><trkpt lat="40.80225724633219" lon="8.541358930309269"><ele>37.800000000000004</ele><time>2026-03-29T07:34:36Z</time></trkpt><trkpt lat="40.80221173186672" lon="8.541466222792225"><ele>38.2</ele><time>2026-03-29T07:34:37Z</time></trkpt><trkpt lat="40.802164320594116" lon="8.541571329526873"><ele>38.6</ele><time>2026-03-29T07:34:38Z</time></trkpt><trkpt lat="40.80211640994621" lon="8.541679923555286"><ele>39.0</ele><time>2026-03-29T07:34:39Z</time></trkpt><trkpt lat="40.80207311914851" lon="8.541801208380313"><ele>39.0</ele><time>2026-03-29T07:34:40Z</time></trkpt><trkpt lat="40.802031633028214" lon="8.541925283561717"><ele>39.0</ele><time>2026-03-29T07:34:41Z</time></trkpt><trkpt lat="40.80199252118211" lon="8.542046984553046"><ele>39.0</ele><time>2026-03-29T07:34:42Z</time></trkpt><trkpt lat="40.80195616975633" lon="8.542164373235918"><ele>39.0</ele><time>2026-03-29T07:34:43Z</time></trkpt><trkpt lat="40.80191626134443" lon="8.542274126342273"><ele>39.0</ele><time>2026-03-29T07:34:44Z</time></trkpt><trkpt lat="40.801871529714354" lon="8.542375983826954"><ele>39.8</ele><time>2026-03-29T07:34:45Z</time></trkpt><trkpt lat="40.80182830759114" lon="8.54245748555898"><ele>40.599999999999994</ele><time>2026-03-29T07:34:46Z</time></trkpt><trkpt lat="40.80176064674293" lon="8.542570147167721"><ele>41.4</ele><time>2026-03-29T07:34:48Z</time></trkpt><trkpt lat="40.801688137049965" lon="8.54263197618618"><ele>42.199999999999996</ele><time>2026-03-29T07:34:50Z</time></trkpt><trkpt lat="40.80156730409281" lon="8.542605340348834"><ele>43.0</ele><time>2026-03-29T07:34:52Z</time></trkpt><trkpt lat="40.80148945016001" lon="8.542606539911574"><ele>43.0</ele><time>2026-03-29T07:34:53Z</time></trkpt><trkpt lat="40.80142189331112" lon="8.542659010754182"><ele>43.0</ele><time>2026-03-29T07:34:54Z</time></trkpt><trkpt lat="40.80137024363164" lon="8.542732298732522"><ele>43.0</ele><time>2026-03-29T07:34:55Z</time></trkpt><trkpt lat="40.80131711620371" lon="8.542807867152092"><ele>43.0</ele><time>2026-03-29T07:34:56Z</time></trkpt><trkpt lat="40.801255662291894" lon="8.542893560715644"><ele>43.0</ele><time>2026-03-29T07:34:57Z</time></trkpt><trkpt lat="40.80119224864196" lon="8.542981987557463"><ele>43.0</ele><time>2026-03-29T07:34:58Z</time></trkpt><trkpt lat="40.80112230344038" lon="8.543078435327189"><ele>43.4</ele><time>2026-03-29T07:34:59Z</time></trkpt><trkpt lat="40.80105867397305" lon="8.543179749038924"><ele>43.8</ele><time>2026-03-29T07:35:00Z</time></trkpt><trkpt lat="40.8009921319631" lon="8.543273448531053"><ele>44.2</ele><time>2026-03-29T07:35:01Z</time></trkpt><trkpt lat="40.800925886043856" lon="8.543363561465409"><ele>44.6</ele><time>2026-03-29T07:35:02Z</time></trkpt><trkpt lat="40.80086515602512" lon="8.543443887708104"><ele>45.0</ele><time>2026-03-29T07:35:03Z</time></trkpt><trkpt lat="40.800802631326434" lon="8.543522570143741"><ele>45.6</ele><time>2026-03-29T07:35:04Z</time></trkpt><trkpt lat="40.800740071910745" lon="8.543619182414073"><ele>46.2</ele><time>2026-03-29T07:35:05Z</time></trkpt><trkpt lat="40.80068620291609" lon="8.543724544981744"><ele>46.8</ele><time>2026-03-29T07:35:06Z</time></trkpt><trkpt lat="40.8006385081826" lon="8.543825798383374"><ele>47.4</ele><time>2026-03-29T07:35:07Z</time></trkpt><trkpt lat="40.80059986737555" lon="8.543909327179287"><ele>48.0</ele><time>2026-03-29T07:35:08Z</time></trkpt><trkpt lat="40.80053817112413" lon="8.544026353168347"><ele>48.0</ele><time>2026-03-29T07:35:10Z</time></trkpt><trkpt lat="40.80048147121611" lon="8.54415125713308"><ele>48.0</ele><time>2026-03-29T07:35:12Z</time></trkpt><trkpt lat="40.80037135091438" lon="8.544239371630987"><ele>48.0</ele><time>2026-03-29T07:35:14Z</time></trkpt><trkpt lat="40.800313027966" lon="8.544336135345432"><ele>48.0</ele><time>2026-03-29T07:35:15Z</time></trkpt><trkpt lat="40.800269456529605" lon="8.544419127257683"><ele>48.0</ele><time>2026-03-29T07:35:16Z</time></trkpt><trkpt lat="40.8002276371267" lon="8.544493615525603"><ele>48.8</ele><time>2026-03-29T07:35:17Z</time></trkpt><trkpt lat="40.80015492774765" lon="8.544612814136771"><ele>49.599999999999994</ele><time>2026-03-29T07:35:19Z</time></trkpt><trkpt lat="40.800089421012" lon="8.544708182085314"><ele>50.400000000000006</ele><time>2026-03-29T07:35:21Z</time></trkpt><trkpt lat="40.79999856086786" lon="8.544679138422854"><ele>51.2</ele><time>2026-03-29T07:35:23Z</time></trkpt><trkpt lat="40.79991828332363" lon="8.54455552140173"><ele>52.0</ele><time>2026-03-29T07:35:25Z</time></trkpt><trkpt lat="40.79988643626852" lon="8.544476187298779"><ele>51.99999999999999</ele><time>2026-03-29T07:35:26Z</time></trkpt><trkpt lat="40.79986161156659" lon="8.544395158290099"><ele>52.0</ele><time>2026-03-29T07:35:27Z</time></trkpt><trkpt lat="40.79980548724917" lon="8.544263631384803"><ele>52.0</ele><time>2026-03-29T07:35:29Z</time></trkpt><trkpt lat="40.79975633704343" lon="8.544154338939935"><ele>52.0</ele><time>2026-03-29T07:35:31Z</time></trkpt><trkpt lat="40.79972419301021" lon="8.544081324447715"><ele>51.99999999999999</ele><time>2026-03-29T07:35:37Z</time></trkpt><trkpt lat="40.79965590407755" lon="8.544062940690049"><ele>52.0</ele><time>2026-03-29T07:36:10Z</time></trkpt><trkpt lat="40.7996088981962" lon="8.54400698482883"><ele>52.0</ele><time>2026-03-29T07:36:56Z</time></trkpt><trkpt lat="40.79953985969098" lon="8.543872917726604"><ele>52.0</ele><time>2026-03-29T07:37:00Z</time></trkpt><trkpt lat="40.799503327472564" lon="8.543779174662534"><ele>52.0</ele><time>2026-03-29T07:37:01Z</time></trkpt><trkpt lat="40.7994752720892" lon="8.543670241884076"><ele>52.0</ele><time>2026-03-29T07:37:02Z</time></trkpt><trkpt lat="40.79942453953348" lon="8.543580088039533"><ele>52.0</ele><time>2026-03-29T07:37:03Z</time></trkpt><trkpt lat="40.79937321278677" lon="8.543487506739757"><ele>52.2</ele><time>2026-03-29T07:37:04Z</time></trkpt><trkpt lat="40.799319442134305" lon="8.543395702809041"><ele>52.400000000000006</ele><time>2026-03-29T07:37:05Z</time></trkpt><trkpt lat="40.799256052147285" lon="8.543304108041566"><ele>52.599999999999994</ele><time>2026-03-29T07:37:06Z</time></trkpt><trkpt lat="40.79918980591597" lon="8.543225134152385"><ele>52.8</ele><time>2026-03-29T07:37:07Z</time></trkpt><trkpt lat="40.799123951807815" lon="8.543143949347321"><ele>53.0</ele><time>2026-03-29T07:37:08Z</time></trkpt><trkpt lat="40.79905256607935" lon="8.543056252069835"><ele>53.0</ele><time>2026-03-29T07:37:09Z</time></trkpt><trkpt lat="40.79898079647414" lon="8.542969661497285"><ele>53.0</ele><time>2026-03-29T07:37:10Z</time></trkpt><trkpt lat="40.79891051165098" lon="8.542884162658277"><ele>53.0</ele><time>2026-03-29T07:37:11Z</time></trkpt><trkpt lat="40.798834014738986" lon="8.542816985596131"><ele>53.0</ele><time>2026-03-29T07:37:12Z</time></trkpt><trkpt lat="40.79877813528977" lon="8.542712938525856"><ele>53.0</ele><time>2026-03-29T07:37:13Z</time></trkpt><trkpt lat="40.7987158756328" lon="8.542608896996734"><ele>52.8</ele><time>2026-03-29T07:37:14Z</time></trkpt><trkpt lat="40.79865098419238" lon="8.542501523341734"><ele>52.599999999999994</ele><time>2026-03-29T07:37:15Z</time></trkpt><trkpt lat="40.79858471165653" lon="8.542404609765903"><ele>52.400000000000006</ele><time>2026-03-29T07:37:16Z</time></trkpt><trkpt lat="40.79852809837422" lon="8.54230923757676"><ele>52.2</ele><time>2026-03-29T07:37:17Z</time></trkpt><trkpt lat="40.798477258218846" lon="8.542223387736911"><ele>52.0</ele><time>2026-03-29T07:37:18Z</time></trkpt><trkpt lat="40.798429068320786" lon="8.542140631786712"><ele>52.166666666666664</ele><time>2026-03-29T07:37:19Z</time></trkpt><trkpt lat="40.798381695876515" lon="8.542055181407326"><ele>52.33333333333333</ele><time>2026-03-29T07:37:20Z</time></trkpt><trkpt lat="40.79833572671217" lon="8.541971394333247"><ele>52.5</ele><time>2026-03-29T07:37:21Z</time></trkpt><trkpt lat="40.798292536705645" lon="8.541888478558377"><ele>52.66666666666667</ele><time>2026-03-29T07:37:22Z</time></trkpt><trkpt lat="40.79824704343965" lon="8.541816183957854"><ele>52.833333333333336</ele><time>2026-03-29T07:37:23Z</time></trkpt><trkpt lat="40.79819209616454" lon="8.541752638256394"><ele>53.0</ele><time>2026-03-29T07:37:24Z</time></trkpt><trkpt lat="40.79813280224452" lon="8.541698144771557"><ele>53.00000000000001</ele><time>2026-03-29T07:37:25Z</time></trkpt><trkpt lat="40.79807178834347" lon="8.54164495400733"><ele>53.0</ele><time>2026-03-29T07:37:26Z</time></trkpt><trkpt lat="40.79801733259316" lon="8.541578535297734"><ele>53.0</ele><time>2026-03-29T07:37:27Z</time></trkpt><trkpt lat="40.79796533461847" lon="8.54149767534236"><ele>53.0</ele><time>2026-03-29T07:37:28Z</time></trkpt><trkpt lat="40.79790744215009" lon="8.541415540289044"><ele>53.00000000000001</ele><time>2026-03-29T07:37:29Z</time></trkpt><trkpt lat="40.797843677620776" lon="8.541333874065634"><ele>53.0</ele><time>2026-03-29T07:37:30Z</time></trkpt><trkpt lat="40.79777695288384" lon="8.541253543783052"><ele>53.16666666666667</ele><time>2026-03-29T07:37:31Z</time></trkpt><trkpt lat="40.79771641272369" lon="8.541168760043291"><ele>53.333333333333336</ele><time>2026-03-29T07:37:32Z</time></trkpt><trkpt lat="40.797657146309106" lon="8.541094151634903"><ele>53.5</ele><time>2026-03-29T07:37:33Z</time></trkpt><trkpt lat="40.79760398583561" lon="8.541030318858324"><ele>53.66666666666667</ele><time>2026-03-29T07:37:34Z</time></trkpt><trkpt lat="40.797559173839076" lon="8.5409690330204"><ele>53.833333333333336</ele><time>2026-03-29T07:37:35Z</time></trkpt><trkpt lat="40.797486563459856" lon="8.540873845620386"><ele>54.0</ele><time>2026-03-29T07:37:37Z</time></trkpt><trkpt lat="40.79744008704231" lon="8.540791963127255"><ele>54.0</ele><time>2026-03-29T07:37:39Z</time></trkpt><trkpt lat="40.79737114433919" lon="8.540728204632611"><ele>54.00000000000001</ele><time>2026-03-29T07:38:11Z</time></trkpt><trkpt lat="40.79734026460419" lon="8.540601012846187"><ele>54.00000000000001</ele><time>2026-03-29T07:38:15Z</time></trkpt><trkpt lat="40.79730222460787" lon="8.540416517647715"><ele>54.0</ele><time>2026-03-29T07:38:17Z</time></trkpt><trkpt lat="40.79728234645371" lon="8.540298740493922"><ele>54.0</ele><time>2026-03-29T07:38:18Z</time></trkpt><trkpt lat="40.797235987734574" lon="8.540178591447583"><ele>53.75</ele><time>2026-03-29T07:38:19Z</time></trkpt><trkpt lat="40.79719716246382" lon="8.54004501658176"><ele>53.5</ele><time>2026-03-29T07:38:20Z</time></trkpt><trkpt lat="40.797165214595076" lon="8.539902706523764"><ele>53.25</ele><time>2026-03-29T07:38:21Z</time></trkpt><trkpt lat="40.79713590862434" lon="8.53974701518905"><ele>53.0</ele><time>2026-03-29T07:38:22Z</time></trkpt><trkpt lat="40.79710082881835" lon="8.539585113996223"><ele>52.75</ele><time>2026-03-29T07:38:23Z</time></trkpt><trkpt lat="40.79705082939031" lon="8.5394186176641"><ele>52.5</ele><time>2026-03-29T07:38:24Z</time></trkpt><trkpt lat="40.797010956725074" lon="8.53923791380283"><ele>52.25</ele><time>2026-03-29T07:38:25Z</time></trkpt><trkpt lat="40.796972429437176" lon="8.539052939866545"><ele>52.0</ele><time>2026-03-29T07:38:26Z</time></trkpt><trkpt lat="40.79693406640494" lon="8.538863769649286"><ele>52.33333333333333</ele><time>2026-03-29T07:38:27Z</time></trkpt><trkpt lat="40.79689720033894" lon="8.538669087341741"><ele>52.66666666666667</ele><time>2026-03-29T07:38:28Z</time></trkpt><trkpt lat="40.79686019398744" lon="8.538471175817154"><ele>53.0</ele><time>2026-03-29T07:38:29Z</time></trkpt><trkpt lat="40.796823157412064" lon="8.538272601567359"><ele>53.0</ele><time>2026-03-29T07:38:30Z</time></trkpt><trkpt lat="40.796786594595225" lon="8.538077532849844"><ele>53.0</ele><time>2026-03-29T07:38:31Z</time></trkpt><trkpt lat="40.79674975214135" lon="8.537886997641039"><ele>53.0</ele><time>2026-03-29T07:38:32Z</time></trkpt><trkpt lat="40.79671539854724" lon="8.537702404425927"><ele>53.0</ele><time>2026-03-29T07:38:33Z</time></trkpt><trkpt lat="40.79667935774533" lon="8.537524620088499"><ele>52.25</ele><time>2026-03-29T07:38:34Z</time></trkpt><trkpt lat="40.79664725720065" lon="8.537353568153499"><ele>51.5</ele><time>2026-03-29T07:38:35Z</time></trkpt><trkpt lat="40.79662015224239" lon="8.537190776519635"><ele>50.75</ele><time>2026-03-29T07:38:36Z</time></trkpt><trkpt lat="40.79659848272919" lon="8.537045726043718"><ele>50.0</ele><time>2026-03-29T07:38:37Z</time></trkpt><trkpt lat="40.79658752836373" lon="8.536914772985249"><ele>50.0</ele><time>2026-03-29T07:38:38Z</time></trkpt><trkpt lat="40.79659501906332" lon="8.536799410747255"><ele>50.0</ele><time>2026-03-29T07:38:39Z</time></trkpt><trkpt lat="40.796607382274445" lon="8.536701158608409"><ele>50.0</ele><time>2026-03-29T07:38:40Z</time></trkpt><trkpt lat="40.796629104242385" lon="8.536621153607081"><ele>50.0</ele><time>2026-03-29T07:38:41Z</time></trkpt><trkpt lat="40.796704455945154" lon="8.536459674631901"><ele>50.0</ele><time>2026-03-29T07:38:43Z</time></trkpt><trkpt lat="40.796678681163435" lon="8.536309157890688"><ele>50.00000000000001</ele><time>2026-03-29T07:38:45Z</time></trkpt><trkpt lat="40.796664360664906" lon="8.536221957207125"><ele>50.0</ele><time>2026-03-29T07:38:46Z</time></trkpt><trkpt lat="40.796649350689755" lon="8.536130558140314"><ele>50.0</ele><time>2026-03-29T07:38:47Z</time></trkpt><trkpt lat="40.79663215071353" lon="8.536025823655889"><ele>50.0</ele><time>2026-03-29T07:38:48Z</time></trkpt><trkpt lat="40.79661404795824" lon="8.535915591951643"><ele>50.00000000000001</ele><time>2026-03-29T07:38:49Z</time></trkpt><trkpt lat="40.796595991905455" lon="8.535800577494173"><ele>50.0</ele><time>2026-03-29T07:38:50Z</time></trkpt><trkpt lat="40.796578300067274" lon="8.535683727615202"><ele>50.16666666666667</ele><time>2026-03-29T07:38:51Z</time></trkpt><trkpt lat="40.796560068757564" lon="8.5355662663051"><ele>50.333333333333336</ele><time>2026-03-29T07:38:52Z</time></trkpt><trkpt lat="40.79653838434657" lon="8.53544761401885"><ele>50.5</ele><time>2026-03-29T07:38:53Z</time></trkpt><trkpt lat="40.796515033661905" lon="8.5353388452238"><ele>50.66666666666667</ele><time>2026-03-29T07:38:54Z</time></trkpt><trkpt lat="40.79648576106876" lon="8.535237041104663"><ele>50.833333333333336</ele><time>2026-03-29T07:38:55Z</time></trkpt><trkpt lat="40.796440575867216" lon="8.535143187448206"><ele>51.0</ele><time>2026-03-29T07:38:56Z</time></trkpt><trkpt lat="40.79641339283163" lon="8.53504083180316"><ele>51.199999999999996</ele><time>2026-03-29T07:38:57Z</time></trkpt><trkpt lat="40.796391250477726" lon="8.534933826641005"><ele>51.4</ele><time>2026-03-29T07:38:58Z</time></trkpt><trkpt lat="40.796390704529784" lon="8.53482169169866"><ele>51.6</ele><time>2026-03-29T07:38:59Z</time></trkpt><trkpt lat="40.79638960967985" lon="8.534699321839367"><ele>51.8</ele><time>2026-03-29T07:39:00Z</time></trkpt><trkpt lat="40.79638140598325" lon="8.534574243436374"><ele>52.0</ele><time>2026-03-29T07:39:01Z</time></trkpt><trkpt lat="40.79635590647509" lon="8.53444998299725"><ele>52.0</ele><time>2026-03-29T07:39:02Z</time></trkpt><trkpt lat="40.79634339361626" lon="8.534322161652195"><ele>52.0</ele><time>2026-03-29T07:39:03Z</time></trkpt><trkpt lat="40.79632904592364" lon="8.534193925972371"><ele>52.0</ele><time>2026-03-29T07:39:04Z</time></trkpt><trkpt lat="40.796310059043854" lon="8.534067860903425"><ele>52.0</ele><time>2026-03-29T07:39:05Z</time></trkpt><trkpt lat="40.79629336292672" lon="8.53394500397581"><ele>52.0</ele><time>2026-03-29T07:39:06Z</time></trkpt><trkpt lat="40.796278521297374" lon="8.533826309708829"><ele>52.33333333333333</ele><time>2026-03-29T07:39:07Z</time></trkpt><trkpt lat="40.79626230597569" lon="8.533717676839661"><ele>52.666666666666664</ele><time>2026-03-29T07:39:08Z</time></trkpt><trkpt lat="40.79624663874117" lon="8.533618181979378"><ele>53.0</ele><time>2026-03-29T07:39:09Z</time></trkpt><trkpt lat="40.79623475761597" lon="8.53352641194909"><ele>53.33333333333333</ele><time>2026-03-29T07:39:10Z</time></trkpt><trkpt lat="40.79622064330294" lon="8.533383581929597"><ele>53.666666666666664</ele><time>2026-03-29T07:39:12Z</time></trkpt><trkpt lat="40.79621763122042" lon="8.533292384685325"><ele>54.0</ele><time>2026-03-29T07:39:14Z</time></trkpt><trkpt lat="40.7960829493832" lon="8.533303659169759"><ele>55.0</ele><time>2026-03-29T07:39:17Z</time></trkpt><trkpt lat="40.79599434791238" lon="8.533408175855344"><ele>56.00000000000001</ele><time>2026-03-29T07:39:19Z</time></trkpt><trkpt lat="40.7959205304041" lon="8.53349854402171"><ele>57.00000000000001</ele><time>2026-03-29T07:39:21Z</time></trkpt><trkpt lat="40.79583054998924" lon="8.533573852574667"><ele>58.0</ele><time>2026-03-29T07:39:23Z</time></trkpt><trkpt lat="40.79572378478286" lon="8.533645854333312"><ele>59.0</ele><time>2026-03-29T07:39:25Z</time></trkpt><trkpt lat="40.7956652323015" lon="8.533681170339761"><ele>59.0</ele><time>2026-03-29T07:39:26Z</time></trkpt><trkpt lat="40.79560182766868" lon="8.533714978829044"><ele>59.0</ele><time>2026-03-29T07:39:27Z</time></trkpt><trkpt lat="40.79553618379527" lon="8.533752293936322"><ele>59.0</ele><time>2026-03-29T07:39:28Z</time></trkpt><trkpt lat="40.795471542431216" lon="8.533797680105625"><ele>59.0</ele><time>2026-03-29T07:39:29Z</time></trkpt><trkpt lat="40.79540736517485" lon="8.533846122577735"><ele>59.0</ele><time>2026-03-29T07:39:30Z</time></trkpt><trkpt lat="40.79534457927248" lon="8.53389450156046"><ele>59.0</ele><time>2026-03-29T07:39:31Z</time></trkpt><trkpt lat="40.79528161993073" lon="8.53394287714429"><ele>59.0</ele><time>2026-03-29T07:39:32Z</time></trkpt><trkpt lat="40.79521311035483" lon="8.533984825976264"><ele>59.285714285714285</ele><time>2026-03-29T07:39:33Z</time></trkpt><trkpt lat="40.795144962660515" lon="8.534024011411923"><ele>59.57142857142857</ele><time>2026-03-29T07:39:34Z</time></trkpt><trkpt lat="40.79507907043267" lon="8.534063910535501"><ele>59.857142857142854</ele><time>2026-03-29T07:39:35Z</time></trkpt><trkpt lat="40.795017149647784" lon="8.534104807701148"><ele>60.14285714285714</ele><time>2026-03-29T07:39:36Z</time></trkpt><trkpt lat="40.794965128703005" lon="8.534169016530031"><ele>60.42857142857143</ele><time>2026-03-29T07:39:37Z</time></trkpt><trkpt lat="40.79489470250948" lon="8.534189208249618"><ele>60.71428571428571</ele><time>2026-03-29T07:39:38Z</time></trkpt><trkpt lat="40.794819141743076" lon="8.534211981131897"><ele>60.99999999999999</ele><time>2026-03-29T07:39:39Z</time></trkpt><trkpt lat="40.794739852053816" lon="8.534219274113738"><ele>60.99999999999999</ele><time>2026-03-29T07:39:40Z</time></trkpt><trkpt lat="40.79465859632491" lon="8.534212623351317"><ele>61.0</ele><time>2026-03-29T07:39:41Z</time></trkpt><trkpt lat="40.79457547518704" lon="8.53420414253477"><ele>61.0</ele><time>2026-03-29T07:39:42Z</time></trkpt><trkpt lat="40.79449392878456" lon="8.534188709738425"><ele>61.0</ele><time>2026-03-29T07:39:43Z</time></trkpt><trkpt lat="40.79441358412803" lon="8.534175747252487"><ele>60.99999999999999</ele><time>2026-03-29T07:39:44Z</time></trkpt><trkpt lat="40.7943375882312" lon="8.534137945279276"><ele>61.0</ele><time>2026-03-29T07:39:45Z</time></trkpt><trkpt lat="40.79426140709435" lon="8.534120665664963"><ele>61.49999999999999</ele><time>2026-03-29T07:39:46Z</time></trkpt><trkpt lat="40.79419228398817" lon="8.534101854843774"><ele>62.0</ele><time>2026-03-29T07:39:47Z</time></trkpt><trkpt lat="40.794125799174004" lon="8.534103945682581"><ele>62.5</ele><time>2026-03-29T07:39:48Z</time></trkpt><trkpt lat="40.794019447640856" lon="8.53405261015209"><ele>63.0</ele><time>2026-03-29T07:39:50Z</time></trkpt><trkpt lat="40.7939378423301" lon="8.534002754187563"><ele>63.49999999999999</ele><time>2026-03-29T07:39:52Z</time></trkpt><trkpt lat="40.79387200888074" lon="8.533964922290851"><ele>64.0</ele><time>2026-03-29T07:39:54Z</time></trkpt><trkpt lat="40.79378861413606" lon="8.533970516476648"><ele>63.99999999999999</ele><time>2026-03-29T07:39:56Z</time></trkpt><trkpt lat="40.79371497866638" lon="8.534062327881378"><ele>64.0</ele><time>2026-03-29T07:39:58Z</time></trkpt><trkpt lat="40.79361090197911" lon="8.534133612982826"><ele>64.0</ele><time>2026-03-29T07:40:00Z</time></trkpt><trkpt lat="40.79354630933786" lon="8.534144792611757"><ele>64.0</ele><time>2026-03-29T07:40:01Z</time></trkpt><trkpt lat="40.793476440696224" lon="8.534147069635303"><ele>63.99999999999999</ele><time>2026-03-29T07:40:02Z</time></trkpt><trkpt lat="40.79340757905162" lon="8.534139801989332"><ele>64.0</ele><time>2026-03-29T07:40:03Z</time></trkpt><trkpt lat="40.793338837927315" lon="8.534135509183757"><ele>64.42857142857143</ele><time>2026-03-29T07:40:04Z</time></trkpt><trkpt lat="40.793267098982604" lon="8.534128580531947"><ele>64.85714285714285</ele><time>2026-03-29T07:40:05Z</time></trkpt><trkpt lat="40.79319453369484" lon="8.534119076897131"><ele>65.28571428571428</ele><time>2026-03-29T07:40:06Z</time></trkpt><trkpt lat="40.79312112085221" lon="8.534098583964386"><ele>65.71428571428571</ele><time>2026-03-29T07:40:07Z</time></trkpt><trkpt lat="40.793048481720604" lon="8.534115456224816"><ele>66.14285714285714</ele><time>2026-03-29T07:40:08Z</time></trkpt><trkpt lat="40.792976623790395" lon="8.534108154497027"><ele>66.57142857142857</ele><time>2026-03-29T07:40:09Z</time></trkpt><trkpt lat="40.792906201994434" lon="8.534085664346275"><ele>67.0</ele><time>2026-03-29T07:40:10Z</time></trkpt><trkpt lat="40.792839673342975" lon="8.53405208901876"><ele>67.0</ele><time>2026-03-29T07:40:11Z</time></trkpt><trkpt lat="40.79277770612825" lon="8.534010101107242"><ele>67.0</ele><time>2026-03-29T07:40:12Z</time></trkpt><trkpt lat="40.79271981247847" lon="8.533972901044601"><ele>67.0</ele><time>2026-03-29T07:40:13Z</time></trkpt><trkpt lat="40.79260305266653" lon="8.533950954305528"><ele>67.0</ele><time>2026-03-29T07:40:15Z</time></trkpt><trkpt lat="40.7925405646874" lon="8.533963013926623"><ele>67.0</ele><time>2026-03-29T07:40:16Z</time></trkpt><trkpt lat="40.792468713508796" lon="8.533973368572545"><ele>67.0</ele><time>2026-03-29T07:40:17Z</time></trkpt><trkpt lat="40.79240239558129" lon="8.534006947428338"><ele>68.0</ele><time>2026-03-29T07:40:18Z</time></trkpt><trkpt lat="40.79234189848093" lon="8.534038724159606"><ele>69.0</ele><time>2026-03-29T07:40:19Z</time></trkpt><trkpt lat="40.79220520634928" lon="8.534075060198148"><ele>70.0</ele><time>2026-03-29T07:40:21Z</time></trkpt><trkpt lat="40.79213873213808" lon="8.534194225626058"><ele>71.0</ele><time>2026-03-29T07:40:23Z</time></trkpt><trkpt lat="40.79210456519234" lon="8.534331560388479"><ele>72.0</ele><time>2026-03-29T07:40:24Z</time></trkpt><trkpt lat="40.79208729583488" lon="8.534430553712726"><ele>72.0</ele><time>2026-03-29T07:40:25Z</time></trkpt><trkpt lat="40.79207064658336" lon="8.534524438278192"><ele>72.0</ele><time>2026-03-29T07:40:26Z</time></trkpt><trkpt lat="40.79204437129598" lon="8.534670291679848"><ele>72.0</ele><time>2026-03-29T07:40:28Z</time></trkpt><trkpt lat="40.79197693335429" lon="8.534819111956596"><ele>72.0</ele><time>2026-03-29T07:40:30Z</time></trkpt><trkpt lat="40.79193383577536" lon="8.534899801024208"><ele>72.0</ele><time>2026-03-29T07:40:31Z</time></trkpt><trkpt lat="40.79188784581139" lon="8.534982077206369"><ele>71.85714285714286</ele><time>2026-03-29T07:40:32Z</time></trkpt><trkpt lat="40.791844760739906" lon="8.535058159087633"><ele>71.71428571428572</ele><time>2026-03-29T07:40:33Z</time></trkpt><trkpt lat="40.79180011349225" lon="8.535133892174358"><ele>71.57142857142857</ele><time>2026-03-29T07:40:34Z</time></trkpt><trkpt lat="40.79175596690593" lon="8.535208775324042"><ele>71.42857142857143</ele><time>2026-03-29T07:40:35Z</time></trkpt><trkpt lat="40.791711061980585" lon="8.535293865876332"><ele>71.28571428571428</ele><time>2026-03-29T07:40:36Z</time></trkpt><trkpt lat="40.7916655593615" lon="8.535379527939163"><ele>71.14285714285714</ele><time>2026-03-29T07:40:37Z</time></trkpt><trkpt lat="40.79162160780281" lon="8.535440460862752"><ele>71.0</ele><time>2026-03-29T07:40:38Z</time></trkpt><trkpt lat="40.79155000105344" lon="8.53549873804373"><ele>71.0</ele><time>2026-03-29T07:40:39Z</time></trkpt><trkpt lat="40.79147413251447" lon="8.535555435573874"><ele>71.0</ele><time>2026-03-29T07:40:40Z</time></trkpt><trkpt lat="40.79139845545866" lon="8.535603838924963"><ele>71.0</ele><time>2026-03-29T07:40:41Z</time></trkpt><trkpt lat="40.791320718545464" lon="8.535656795088663"><ele>71.0</ele><time>2026-03-29T07:40:42Z</time></trkpt><trkpt lat="40.7912446839281" lon="8.535710389717973"><ele>71.0</ele><time>2026-03-29T07:40:42.999Z</time></trkpt><trkpt lat="40.79117234190133" lon="8.535761381580455"><ele>71.0</ele><time>2026-03-29T07:40:43.999Z</time></trkpt><trkpt lat="40.79110445954906" lon="8.535811249926953"><ele>71.0</ele><time>2026-03-29T07:40:44.999Z</time></trkpt><trkpt lat="40.79104061138082" lon="8.53586167447053"><ele>71.0</ele><time>2026-03-29T07:40:45.999Z</time></trkpt><trkpt lat="40.79097244789489" lon="8.535914786760713"><ele>71.0</ele><time>2026-03-29T07:40:46.999Z</time></trkpt><trkpt lat="40.79090082045271" lon="8.535968848475955"><ele>71.0</ele><time>2026-03-29T07:40:47.999Z</time></trkpt><trkpt lat="40.79081823526879" lon="8.536035777482963"><ele>71.0</ele><time>2026-03-29T07:40:48.999Z</time></trkpt><trkpt lat="40.790746612980165" lon="8.536118423107611"><ele>71.0</ele><time>2026-03-29T07:40:49.999Z</time></trkpt><trkpt lat="40.79068173794517" lon="8.536204515276555"><ele>70.66666666666667</ele><time>2026-03-29T07:40:50.999Z</time></trkpt><trkpt lat="40.790621052604706" lon="8.536283005778404"><ele>70.33333333333334</ele><time>2026-03-29T07:40:51.999Z</time></trkpt><trkpt lat="40.790559908439405" lon="8.536354566177941"><ele>70.0</ele><time>2026-03-29T07:40:52.999Z</time></trkpt><trkpt lat="40.79049246625664" lon="8.536416702666136"><ele>69.66666666666667</ele><time>2026-03-29T07:40:53.999Z</time></trkpt><trkpt lat="40.790420545705935" lon="8.536475234856317"><ele>69.33333333333333</ele><time>2026-03-29T07:40:54.999Z</time></trkpt><trkpt lat="40.790351621619635" lon="8.536529128818621"><ele>69.0</ele><time>2026-03-29T07:40:55.999Z</time></trkpt><trkpt lat="40.79028328385927" lon="8.536577169254558"><ele>69.0</ele><time>2026-03-29T07:40:56.999Z</time></trkpt><trkpt lat="40.790212431290584" lon="8.536625662683894"><ele>69.0</ele><time>2026-03-29T07:40:57.999Z</time></trkpt><trkpt lat="40.790148786182726" lon="8.536679136164176"><ele>69.0</ele><time>2026-03-29T07:40:58.999Z</time></trkpt><trkpt lat="40.790073767504595" lon="8.53670990797795"><ele>69.0</ele><time>2026-03-29T07:40:59.999Z</time></trkpt><trkpt lat="40.78999329320809" lon="8.53674482988861"><ele>69.0</ele><time>2026-03-29T07:41:00.999Z</time></trkpt><trkpt lat="40.78990278898587" lon="8.536754956673501"><ele>69.0</ele><time>2026-03-29T07:41:01.999Z</time></trkpt><trkpt lat="40.789810233775114" lon="8.536749885865678"><ele>69.4</ele><time>2026-03-29T07:41:02.999Z</time></trkpt><trkpt lat="40.7897148725986" lon="8.536740849053981"><ele>69.80000000000001</ele><time>2026-03-29T07:41:03.999Z</time></trkpt><trkpt lat="40.789621452951096" lon="8.53675276027932"><ele>70.19999999999999</ele><time>2026-03-29T07:41:04.999Z</time></trkpt><trkpt lat="40.78953009177488" lon="8.536768984204711"><ele>70.6</ele><time>2026-03-29T07:41:05.999Z</time></trkpt><trkpt lat="40.78944398612338" lon="8.536785052216352"><ele>71.0</ele><time>2026-03-29T07:41:06.999Z</time></trkpt><trkpt lat="40.789364503653466" lon="8.536812112059412"><ele>72.0</ele><time>2026-03-29T07:41:07.999Z</time></trkpt><trkpt lat="40.78928698349727" lon="8.536799274146103"><ele>73.0</ele><time>2026-03-29T07:41:08.999Z</time></trkpt><trkpt lat="40.78921819609096" lon="8.536766432920992"><ele>74.0</ele><time>2026-03-29T07:41:09.999Z</time></trkpt><trkpt lat="40.789154550847876" lon="8.536718816870897"><ele>75.0</ele><time>2026-03-29T07:41:11Z</time></trkpt><trkpt lat="40.78909440744423" lon="8.53667554768995"><ele>76.0</ele><time>2026-03-29T07:41:12Z</time></trkpt><trkpt lat="40.78896947571713" lon="8.536636392032738"><ele>77.0</ele><time>2026-03-29T07:41:14Z</time></trkpt><trkpt lat="40.78891035425089" lon="8.53668782899563"><ele>77.0</ele><time>2026-03-29T07:41:15Z</time></trkpt><trkpt lat="40.78884976397011" lon="8.536764952359322"><ele>77.0</ele><time>2026-03-29T07:41:16Z</time></trkpt><trkpt lat="40.78879654372522" lon="8.536848659905393"><ele>77.0</ele><time>2026-03-29T07:41:17Z</time></trkpt><trkpt lat="40.78873963773638" lon="8.536938164310964"><ele>77.0</ele><time>2026-03-29T07:41:18Z</time></trkpt><trkpt lat="40.78868106005148" lon="8.537027929826714"><ele>77.0</ele><time>2026-03-29T07:41:19Z</time></trkpt><trkpt lat="40.788619148490035" lon="8.537117851082781"><ele>77.0</ele><time>2026-03-29T07:41:20Z</time></trkpt><trkpt lat="40.78855215369326" lon="8.53720467228578"><ele>78.0</ele><time>2026-03-29T07:41:21Z</time></trkpt><trkpt lat="40.78848272165908" lon="8.537292166083096"><ele>79.0</ele><time>2026-03-29T07:41:22Z</time></trkpt><trkpt lat="40.78841526171606" lon="8.537377174774536"><ele>80.0</ele><time>2026-03-29T07:41:23Z</time></trkpt><trkpt lat="40.78834853075107" lon="8.537468278637812"><ele>81.0</ele><time>2026-03-29T07:41:24Z</time></trkpt><trkpt lat="40.78828834842012" lon="8.53755846085928"><ele>82.0</ele><time>2026-03-29T07:41:25Z</time></trkpt><trkpt lat="40.78823546326774" lon="8.537643420220643"><ele>82.0</ele><time>2026-03-29T07:41:26Z</time></trkpt><trkpt lat="40.78818830519003" lon="8.5377215406415"><ele>82.0</ele><time>2026-03-29T07:41:27Z</time></trkpt><trkpt lat="40.788148174784084" lon="8.537796693803775"><ele>82.0</ele><time>2026-03-29T07:41:28Z</time></trkpt><trkpt lat="40.78809772754393" lon="8.537895094891512"><ele>82.0</ele><time>2026-03-29T07:41:30Z</time></trkpt><trkpt lat="40.7880795204858" lon="8.538110293836754"><ele>82.0</ele><time>2026-03-29T07:41:34Z</time></trkpt><trkpt lat="40.78815114377483" lon="8.538213965691273"><ele>82.0</ele><time>2026-03-29T07:41:36Z</time></trkpt><trkpt lat="40.78819614368407" lon="8.538287984112424"><ele>82.0</ele><time>2026-03-29T07:41:37Z</time></trkpt><trkpt lat="40.788245371331996" lon="8.53837421351594"><ele>82.0</ele><time>2026-03-29T07:41:38Z</time></trkpt><trkpt lat="40.7882974895953" lon="8.53846663770994"><ele>82.0</ele><time>2026-03-29T07:41:39Z</time></trkpt><trkpt lat="40.788350382592625" lon="8.538560657569464"><ele>82.0</ele><time>2026-03-29T07:41:40Z</time></trkpt><trkpt lat="40.78842347444639" lon="8.538641368159999"><ele>82.0</ele><time>2026-03-29T07:41:41Z</time></trkpt><trkpt lat="40.78849309851712" lon="8.53872850518051"><ele>81.6</ele><time>2026-03-29T07:41:42Z</time></trkpt><trkpt lat="40.78857294142205" lon="8.538808677906355"><ele>81.19999999999999</ele><time>2026-03-29T07:41:43Z</time></trkpt><trkpt lat="40.7886651716637" lon="8.538874972723923"><ele>80.8</ele><time>2026-03-29T07:41:44Z</time></trkpt><trkpt lat="40.78876150714733" lon="8.538939106565781"><ele>80.4</ele><time>2026-03-29T07:41:45Z</time></trkpt><trkpt lat="40.78885745574257" lon="8.53900715851293"><ele>80.0</ele><time>2026-03-29T07:41:46Z</time></trkpt><trkpt lat="40.788949339381084" lon="8.539083431622357"><ele>80.0</ele><time>2026-03-29T07:41:47Z</time></trkpt><trkpt lat="40.78903949450678" lon="8.539164612186333"><ele>80.0</ele><time>2026-03-29T07:41:48Z</time></trkpt><trkpt lat="40.78912329316577" lon="8.539257332417744"><ele>80.0</ele><time>2026-03-29T07:41:49Z</time></trkpt><trkpt lat="40.78921258984316" lon="8.539350316312566"><ele>80.0</ele><time>2026-03-29T07:41:50Z</time></trkpt><trkpt lat="40.78930395180591" lon="8.539447774078097"><ele>80.0</ele><time>2026-03-29T07:41:51Z</time></trkpt><trkpt lat="40.78939335514351" lon="8.53954409563295"><ele>80.0</ele><time>2026-03-29T07:41:52Z</time></trkpt><trkpt lat="40.78948686696577" lon="8.539630894285052"><ele>80.0</ele><time>2026-03-29T07:41:53Z</time></trkpt><trkpt lat="40.78958562207449" lon="8.539699505529644"><ele>80.0</ele><time>2026-03-29T07:41:54Z</time></trkpt><trkpt lat="40.78968219078264" lon="8.539767248866621"><ele>79.0</ele><time>2026-03-29T07:41:55Z</time></trkpt><trkpt lat="40.78977914623198" lon="8.5398315778174"><ele>78.0</ele><time>2026-03-29T07:41:56Z</time></trkpt><trkpt lat="40.789869827975025" lon="8.539902653952828"><ele>77.0</ele><time>2026-03-29T07:41:57Z</time></trkpt><trkpt lat="40.789960504157584" lon="8.539966665692882"><ele>76.0</ele><time>2026-03-29T07:41:58Z</time></trkpt><trkpt lat="40.7900443639255" lon="8.540028203349044"><ele>75.0</ele><time>2026-03-29T07:41:59Z</time></trkpt><trkpt lat="40.79011668277231" lon="8.540089636298042"><ele>74.66666666666667</ele><time>2026-03-29T07:42:00Z</time></trkpt><trkpt lat="40.79018318173399" lon="8.540146423165867"><ele>74.33333333333333</ele><time>2026-03-29T07:42:01Z</time></trkpt><trkpt lat="40.79023865046995" lon="8.540214871564594"><ele>74.0</ele><time>2026-03-29T07:42:02Z</time></trkpt><trkpt lat="40.790290923066465" lon="8.540295564636718"><ele>73.66666666666666</ele><time>2026-03-29T07:42:03Z</time></trkpt><trkpt lat="40.79032270645807" lon="8.54039759730795"><ele>73.33333333333333</ele><time>2026-03-29T07:42:04Z</time></trkpt><trkpt lat="40.79031852898436" lon="8.540516822695178"><ele>73.0</ele><time>2026-03-29T07:42:05Z</time></trkpt><trkpt lat="40.79033010645728" lon="8.540636652009573"><ele>73.5</ele><time>2026-03-29T07:42:06Z</time></trkpt><trkpt lat="40.790352148235776" lon="8.540752963306621"><ele>74.0</ele><time>2026-03-29T07:42:07Z</time></trkpt><trkpt lat="40.79039527613516" lon="8.540851157307388"><ele>74.5</ele><time>2026-03-29T07:42:08Z</time></trkpt><trkpt lat="40.79042992491104" lon="8.540946638248636"><ele>75.0</ele><time>2026-03-29T07:42:09Z</time></trkpt><trkpt lat="40.79046938621552" lon="8.541028664306996"><ele>75.5</ele><time>2026-03-29T07:42:10Z</time></trkpt><trkpt lat="40.79050178807581" lon="8.541105290345328"><ele>76.0</ele><time>2026-03-29T07:42:11Z</time></trkpt><trkpt lat="40.79056452565234" lon="8.541233550366673"><ele>76.0</ele><time>2026-03-29T07:42:13Z</time></trkpt><trkpt lat="40.79064823971325" lon="8.541289342209058"><ele>76.0</ele><time>2026-03-29T07:42:15Z</time></trkpt><trkpt lat="40.79059365496487" lon="8.541364257782895"><ele>76.0</ele><time>2026-03-29T07:42:18Z</time></trkpt><trkpt lat="40.79072337828329" lon="8.541336607887882"><ele>76.0</ele><time>2026-03-29T07:42:19Z</time></trkpt><trkpt lat="40.79066983764619" lon="8.54139312802764"><ele>76.0</ele><time>2026-03-29T07:42:21Z</time></trkpt><trkpt lat="40.79060675632184" lon="8.541489603868223"><ele>76.0</ele><time>2026-03-29T07:42:23Z</time></trkpt><trkpt lat="40.79052440547369" lon="8.541574102514202"><ele>76.0</ele><time>2026-03-29T07:42:25Z</time></trkpt><trkpt lat="40.790415482364494" lon="8.541655260896144"><ele>76.0</ele><time>2026-03-29T07:42:27Z</time></trkpt><trkpt lat="40.7903518964263" lon="8.541693011481486"><ele>76.0</ele><time>2026-03-29T07:42:28Z</time></trkpt><trkpt lat="40.7902866908755" lon="8.541726943030982"><ele>76.0</ele><time>2026-03-29T07:42:29Z</time></trkpt><trkpt lat="40.79022690779293" lon="8.541762645710476"><ele>76.0</ele><time>2026-03-29T07:42:30Z</time></trkpt><trkpt lat="40.79017313870968" lon="8.541812877524809"><ele>76.5</ele><time>2026-03-29T07:42:31Z</time></trkpt><trkpt lat="40.79012960140593" lon="8.541876269659348"><ele>77.0</ele><time>2026-03-29T07:42:32Z</time></trkpt><trkpt lat="40.7900880837988" lon="8.54196459830564"><ele>77.5</ele><time>2026-03-29T07:42:33Z</time></trkpt><trkpt lat="40.790069967925234" lon="8.542051128501443"><ele>78.0</ele><time>2026-03-29T07:42:34Z</time></trkpt><trkpt lat="40.790058822608444" lon="8.542138825409872"><ele>78.5</ele><time>2026-03-29T07:42:35Z</time></trkpt><trkpt lat="40.790049937434816" lon="8.542228707472898"><ele>79.0</ele><time>2026-03-29T07:42:36Z</time></trkpt><trkpt lat="40.79002227573379" lon="8.542370720663227"><ele>79.0</ele><time>2026-03-29T07:42:38Z</time></trkpt><trkpt lat="40.78996394662303" lon="8.542488443904652"><ele>79.0</ele><time>2026-03-29T07:42:40Z</time></trkpt><trkpt lat="40.78989208948714" lon="8.542598894748318"><ele>79.0</ele><time>2026-03-29T07:42:42Z</time></trkpt><trkpt lat="40.78982779099891" lon="8.54267386616127"><ele>79.0</ele><time>2026-03-29T07:42:44Z</time></trkpt><trkpt lat="40.78976086595293" lon="8.542698036512972"><ele>79.0</ele><time>2026-03-29T07:42:45Z</time></trkpt><trkpt lat="40.78969101586643" lon="8.54271027485665"><ele>79.0</ele><time>2026-03-29T07:42:46Z</time></trkpt><trkpt lat="40.789627791888954" lon="8.542723071193473"><ele>79.0</ele><time>2026-03-29T07:42:47Z</time></trkpt><trkpt lat="40.7895650732145" lon="8.542741910629198"><ele>79.0</ele><time>2026-03-29T07:42:48Z</time></trkpt><trkpt lat="40.78949227725669" lon="8.542872426772618"><ele>79.0</ele><time>2026-03-29T07:42:50Z</time></trkpt><trkpt lat="40.78946102626231" lon="8.542949220261"><ele>79.0</ele><time>2026-03-29T07:42:51Z</time></trkpt><trkpt lat="40.78942511984758" lon="8.543051321297874"><ele>79.0</ele><time>2026-03-29T07:42:53Z</time></trkpt><trkpt lat="40.78942139868928" lon="8.543167403573673"><ele>79.0</ele><time>2026-03-29T07:42:55Z</time></trkpt><trkpt lat="40.7893399577413" lon="8.543129998095973"><ele>80.0</ele><time>2026-03-29T07:42:57Z</time></trkpt><trkpt lat="40.789267472948026" lon="8.54305289863496"><ele>81.0</ele><time>2026-03-29T07:42:59Z</time></trkpt><trkpt lat="40.7891675124038" lon="8.54302523666502"><ele>82.0</ele><time>2026-03-29T07:43:01Z</time></trkpt><trkpt lat="40.789105638354265" lon="8.543064840068139"><ele>83.0</ele><time>2026-03-29T07:43:02Z</time></trkpt><trkpt lat="40.78904896053359" lon="8.543125444781"><ele>84.0</ele><time>2026-03-29T07:43:03Z</time></trkpt><trkpt lat="40.78899797514802" lon="8.543188974365018"><ele>85.0</ele><time>2026-03-29T07:43:04Z</time></trkpt><trkpt lat="40.788946500700895" lon="8.543255794006123"><ele>85.0</ele><time>2026-03-29T07:43:05Z</time></trkpt><trkpt lat="40.78889602745871" lon="8.543322458656963"><ele>85.0</ele><time>2026-03-29T07:43:06Z</time></trkpt><trkpt lat="40.78883577638279" lon="8.543393518155696"><ele>85.0</ele><time>2026-03-29T07:43:07Z</time></trkpt><trkpt lat="40.788771608206964" lon="8.543475622244486"><ele>85.0</ele><time>2026-03-29T07:43:08Z</time></trkpt><trkpt lat="40.78870523759619" lon="8.543563492885918"><ele>85.0</ele><time>2026-03-29T07:43:09Z</time></trkpt><trkpt lat="40.78864254372205" lon="8.54364787056001"><ele>85.0</ele><time>2026-03-29T07:43:10Z</time></trkpt><trkpt lat="40.78858227329452" lon="8.54372826328434"><ele>86.0</ele><time>2026-03-29T07:43:11Z</time></trkpt><trkpt lat="40.788515117693635" lon="8.543808289096328"><ele>87.0</ele><time>2026-03-29T07:43:12Z</time></trkpt><trkpt lat="40.788436888191626" lon="8.543891163812964"><ele>88.0</ele><time>2026-03-29T07:43:13Z</time></trkpt><trkpt lat="40.78836270846535" lon="8.543969477639008"><ele>89.0</ele><time>2026-03-29T07:43:14Z</time></trkpt><trkpt lat="40.78829157443028" lon="8.544044504093442"><ele>90.0</ele><time>2026-03-29T07:43:15Z</time></trkpt><trkpt lat="40.788215445286966" lon="8.544129633721942"><ele>90.0</ele><time>2026-03-29T07:43:16Z</time></trkpt><trkpt lat="40.78813940985021" lon="8.544230032679483"><ele>90.0</ele><time>2026-03-29T07:43:17Z</time></trkpt><trkpt lat="40.788067233429366" lon="8.544345547908026"><ele>90.0</ele><time>2026-03-29T07:43:18Z</time></trkpt><trkpt lat="40.78800492694096" lon="8.54447784568431"><ele>90.0</ele><time>2026-03-29T07:43:19Z</time></trkpt><trkpt lat="40.78795665555408" lon="8.544599888255682"><ele>90.0</ele><time>2026-03-29T07:43:20Z</time></trkpt><trkpt lat="40.787912342478386" lon="8.544715294263643"><ele>89.8</ele><time>2026-03-29T07:43:21Z</time></trkpt><trkpt lat="40.78786551019739" lon="8.54481575563991"><ele>89.6</ele><time>2026-03-29T07:43:22Z</time></trkpt><trkpt lat="40.78780329055966" lon="8.544920135688523"><ele>89.4</ele><time>2026-03-29T07:43:23Z</time></trkpt><trkpt lat="40.78773588289955" lon="8.545031995096569"><ele>89.2</ele><time>2026-03-29T07:43:24Z</time></trkpt><trkpt lat="40.787677318219814" lon="8.545137277230976"><ele>89.0</ele><time>2026-03-29T07:43:25Z</time></trkpt><trkpt lat="40.78762082097506" lon="8.545253016503887"><ele>89.0</ele><time>2026-03-29T07:43:26Z</time></trkpt><trkpt lat="40.787567675049516" lon="8.545377309160676"><ele>89.0</ele><time>2026-03-29T07:43:27Z</time></trkpt><trkpt lat="40.78752137971012" lon="8.545501065768018"><ele>89.0</ele><time>2026-03-29T07:43:28Z</time></trkpt><trkpt lat="40.787479940855576" lon="8.5456301402525"><ele>89.0</ele><time>2026-03-29T07:43:29Z</time></trkpt><trkpt lat="40.7874401603537" lon="8.545750531944876"><ele>89.0</ele><time>2026-03-29T07:43:30Z</time></trkpt><trkpt lat="40.787398790399" lon="8.545878297477172"><ele>90.33333333333334</ele><time>2026-03-29T07:43:31Z</time></trkpt><trkpt lat="40.78736891413832" lon="8.546009972133668"><ele>91.66666666666667</ele><time>2026-03-29T07:43:32Z</time></trkpt><trkpt lat="40.787348388240666" lon="8.546126002882017"><ele>93.0</ele><time>2026-03-29T07:43:33Z</time></trkpt><trkpt lat="40.78732628448874" lon="8.546230542694898"><ele>94.33333333333334</ele><time>2026-03-29T07:43:34Z</time></trkpt><trkpt lat="40.78729776404492" lon="8.546332532915828"><ele>95.66666666666667</ele><time>2026-03-29T07:43:35Z</time></trkpt><trkpt lat="40.78726917507686" lon="8.546437672233754"><ele>97.0</ele><time>2026-03-29T07:43:36Z</time></trkpt><trkpt lat="40.787244680643596" lon="8.546545748467805"><ele>98.6</ele><time>2026-03-29T07:43:37Z</time></trkpt><trkpt lat="40.78724194500557" lon="8.546674740636922"><ele>100.19999999999999</ele><time>2026-03-29T07:43:38Z</time></trkpt><trkpt lat="40.787250227330304" lon="8.54679612550947"><ele>101.8</ele><time>2026-03-29T07:43:39Z</time></trkpt><trkpt lat="40.78726991212063" lon="8.546910030344328"><ele>103.4</ele><time>2026-03-29T07:43:40Z</time></trkpt><trkpt lat="40.787280513588065" lon="8.547029457520928"><ele>105.0</ele><time>2026-03-29T07:43:41Z</time></trkpt><trkpt lat="40.787276878602945" lon="8.54715041088583"><ele>106.0</ele><time>2026-03-29T07:43:42Z</time></trkpt><trkpt lat="40.78726027833588" lon="8.547275456851379"><ele>107.0</ele><time>2026-03-29T07:43:43Z</time></trkpt><trkpt lat="40.787241716861594" lon="8.547403216176097"><ele>108.0</ele><time>2026-03-29T07:43:44Z</time></trkpt><trkpt lat="40.78722595870781" lon="8.547517056188275"><ele>109.0</ele><time>2026-03-29T07:43:45Z</time></trkpt><trkpt lat="40.78720946701743" lon="8.547640318750027"><ele>110.0</ele><time>2026-03-29T07:43:46Z</time></trkpt><trkpt lat="40.78720237870229" lon="8.547768225973469"><ele>110.66666666666666</ele><time>2026-03-29T07:43:47Z</time></trkpt><trkpt lat="40.787218373691786" lon="8.547904805177934"><ele>111.33333333333333</ele><time>2026-03-29T07:43:48Z</time></trkpt><trkpt lat="40.78724476960914" lon="8.54801163125531"><ele>112.0</ele><time>2026-03-29T07:43:49Z</time></trkpt><trkpt lat="40.78727002555115" lon="8.548103429291212"><ele>112.66666666666666</ele><time>2026-03-29T07:43:50Z</time></trkpt><trkpt lat="40.78731410491023" lon="8.548191906752644"><ele>113.33333333333333</ele><time>2026-03-29T07:43:51Z</time></trkpt><trkpt lat="40.78738649960575" lon="8.54824784976997"><ele>114.0</ele><time>2026-03-29T07:43:52Z</time></trkpt><trkpt lat="40.78746578880383" lon="8.548282229251496"><ele>114.0</ele><time>2026-03-29T07:43:53Z</time></trkpt><trkpt lat="40.78755677020252" lon="8.548311474157625"><ele>114.0</ele><time>2026-03-29T07:43:54Z</time></trkpt><trkpt lat="40.78765785014506" lon="8.548314007702038"><ele>114.0</ele><time>2026-03-29T07:43:55Z</time></trkpt><trkpt lat="40.787747588738014" lon="8.548339854870534"><ele>114.0</ele><time>2026-03-29T07:43:56Z</time></trkpt><trkpt lat="40.78782434186404" lon="8.548386999115309"><ele>114.0</ele><time>2026-03-29T07:43:57Z</time></trkpt><trkpt lat="40.78790098538768" lon="8.548429269119412"><ele>114.2</ele><time>2026-03-29T07:43:58Z</time></trkpt><trkpt lat="40.78797780464593" lon="8.54848314328338"><ele>114.4</ele><time>2026-03-29T07:43:59Z</time></trkpt><trkpt lat="40.78804255829192" lon="8.548552531283681"><ele>114.6</ele><time>2026-03-29T07:44:00Z</time></trkpt><trkpt lat="40.788107903756675" lon="8.548634423197903"><ele>114.8</ele><time>2026-03-29T07:44:01Z</time></trkpt><trkpt lat="40.788167995193156" lon="8.548721078877522"><ele>115.0</ele><time>2026-03-29T07:44:02Z</time></trkpt><trkpt lat="40.78822362094893" lon="8.54883614081649"><ele>115.0</ele><time>2026-03-29T07:44:03Z</time></trkpt><trkpt lat="40.78827553182622" lon="8.548963263310478"><ele>115.0</ele><time>2026-03-29T07:44:04Z</time></trkpt><trkpt lat="40.78832208376627" lon="8.549089766410756"><ele>115.0</ele><time>2026-03-29T07:44:05Z</time></trkpt><trkpt lat="40.78836934767432" lon="8.549218644466185"><ele>115.0</ele><time>2026-03-29T07:44:06Z</time></trkpt><trkpt lat="40.788415574534994" lon="8.549348324584697"><ele>115.0</ele><time>2026-03-29T07:44:07Z</time></trkpt><trkpt lat="40.78846353870047" lon="8.549483077773193"><ele>115.2</ele><time>2026-03-29T07:44:08Z</time></trkpt><trkpt lat="40.78850917869619" lon="8.549615793418111"><ele>115.4</ele><time>2026-03-29T07:44:09Z</time></trkpt><trkpt lat="40.78854040604739" lon="8.54974739335566"><ele>115.6</ele><time>2026-03-29T07:44:10Z</time></trkpt><trkpt lat="40.788560952205444" lon="8.549871886369283"><ele>115.8</ele><time>2026-03-29T07:44:11Z</time></trkpt><trkpt lat="40.788571243095106" lon="8.54999193294695"><ele>116.0</ele><time>2026-03-29T07:44:12Z</time></trkpt><trkpt lat="40.78857218651688" lon="8.55009524227324"><ele>116.19999999999999</ele><time>2026-03-29T07:44:13Z</time></trkpt><trkpt lat="40.788566212081676" lon="8.550193855393639"><ele>116.39999999999999</ele><time>2026-03-29T07:44:14Z</time></trkpt><trkpt lat="40.788524786615156" lon="8.550296420817606"><ele>116.6</ele><time>2026-03-29T07:44:15Z</time></trkpt><trkpt lat="40.7884572816521" lon="8.550401133480273"><ele>116.8</ele><time>2026-03-29T07:44:16Z</time></trkpt><trkpt lat="40.78838711830023" lon="8.550516914480884"><ele>117.0</ele><time>2026-03-29T07:44:17Z</time></trkpt><trkpt lat="40.788301444065596" lon="8.550625257760082"><ele>117.0</ele><time>2026-03-29T07:44:18Z</time></trkpt><trkpt lat="40.788210696047706" lon="8.550736667530524"><ele>117.0</ele><time>2026-03-29T07:44:19Z</time></trkpt><trkpt lat="40.78811835848243" lon="8.550857412763996"><ele>117.0</ele><time>2026-03-29T07:44:20Z</time></trkpt><trkpt lat="40.78801092213341" lon="8.550968704119464"><ele>117.0</ele><time>2026-03-29T07:44:21Z</time></trkpt><trkpt lat="40.787909692231324" lon="8.551103569123802"><ele>117.5</ele><time>2026-03-29T07:44:22Z</time></trkpt><trkpt lat="40.78780824082094" lon="8.551251333395102"><ele>118.0</ele><time>2026-03-29T07:44:23Z</time></trkpt><trkpt lat="40.787715688888426" lon="8.551394619028224"><ele>118.5</ele><time>2026-03-29T07:44:24Z</time></trkpt><trkpt lat="40.78762935931781" lon="8.551528262543114"><ele>119.0</ele><time>2026-03-29T07:44:25Z</time></trkpt><trkpt lat="40.787546660819864" lon="8.551655968264631"><ele>119.0</ele><time>2026-03-29T07:44:26Z</time></trkpt><trkpt lat="40.787466664549505" lon="8.551778604930353"><ele>119.0</ele><time>2026-03-29T07:44:27Z</time></trkpt><trkpt lat="40.78738865271547" lon="8.551915878319992"><ele>119.0</ele><time>2026-03-29T07:44:28Z</time></trkpt><trkpt lat="40.787323197566465" lon="8.552077336556946"><ele>119.0</ele><time>2026-03-29T07:44:29Z</time></trkpt><trkpt lat="40.78725522143825" lon="8.552249877376774"><ele>119.0</ele><time>2026-03-29T07:44:30Z</time></trkpt><trkpt lat="40.78718799218906" lon="8.552428717961876"><ele>119.0</ele><time>2026-03-29T07:44:31Z</time></trkpt><trkpt lat="40.78712052135271" lon="8.552610183538583"><ele>119.0</ele><time>2026-03-29T07:44:32Z</time></trkpt><trkpt lat="40.787051649503205" lon="8.552795417131742"><ele>119.66666666666666</ele><time>2026-03-29T07:44:33Z</time></trkpt><trkpt lat="40.78697624734833" lon="8.552995230462162"><ele>120.33333333333334</ele><time>2026-03-29T07:44:34Z</time></trkpt><trkpt lat="40.786893127899525" lon="8.553210134079505"><ele>121.0</ele><time>2026-03-29T07:44:35Z</time></trkpt><trkpt lat="40.78681189636294" lon="8.553426637196631"><ele>122.0</ele><time>2026-03-29T07:44:36Z</time></trkpt><trkpt lat="40.78674222690875" lon="8.553633132323771"><ele>123.0</ele><time>2026-03-29T07:44:36.999Z</time></trkpt><trkpt lat="40.78668414780111" lon="8.55381018804165"><ele>124.0</ele><time>2026-03-29T07:44:37.999Z</time></trkpt><trkpt lat="40.78662476843195" lon="8.553982217670528"><ele>124.5</ele><time>2026-03-29T07:44:38.999Z</time></trkpt><trkpt lat="40.786573463553545" lon="8.55413416198335"><ele>125.0</ele><time>2026-03-29T07:44:39.999Z</time></trkpt><trkpt lat="40.78652924976568" lon="8.554288184437569"><ele>125.5</ele><time>2026-03-29T07:44:40.999Z</time></trkpt><trkpt lat="40.7864939397463" lon="8.554433961484781"><ele>126.0</ele><time>2026-03-29T07:44:41.999Z</time></trkpt><trkpt lat="40.786467405902805" lon="8.554552011198663"><ele>126.5</ele><time>2026-03-29T07:44:42.999Z</time></trkpt><trkpt lat="40.78645313142108" lon="8.554649745252332"><ele>127.0</ele><time>2026-03-29T07:44:43.999Z</time></trkpt><trkpt lat="40.786432041426266" lon="8.554730581309844"><ele>127.5</ele><time>2026-03-29T07:44:44.999Z</time></trkpt><trkpt lat="40.78638833939217" lon="8.554853904400622"><ele>128.0</ele><time>2026-03-29T07:44:46.999Z</time></trkpt><trkpt lat="40.78635685704732" lon="8.554955431866947"><ele>128.5</ele><time>2026-03-29T07:44:47.999Z</time></trkpt><trkpt lat="40.786326584115386" lon="8.55507906403086"><ele>129.0</ele><time>2026-03-29T07:44:48.999Z</time></trkpt><trkpt lat="40.786296322957455" lon="8.555211288624273"><ele>129.0</ele><time>2026-03-29T07:44:49.999Z</time></trkpt><trkpt lat="40.78625997579041" lon="8.555370105603004"><ele>129.0</ele><time>2026-03-29T07:44:50.999Z</time></trkpt><trkpt lat="40.78622076305634" lon="8.55554079836612"><ele>129.0</ele><time>2026-03-29T07:44:51.999Z</time></trkpt><trkpt lat="40.78618247105141" lon="8.555696934207035"><ele>129.0</ele><time>2026-03-29T07:44:52.999Z</time></trkpt><trkpt lat="40.7861380674162" lon="8.5558779902404"><ele>130.0</ele><time>2026-03-29T07:44:53.999Z</time></trkpt><trkpt lat="40.786095573047966" lon="8.556051416800656"><ele>131.0</ele><time>2026-03-29T07:44:54.999Z</time></trkpt><trkpt lat="40.78605499120028" lon="8.556195608630794"><ele>132.0</ele><time>2026-03-29T07:44:55.999Z</time></trkpt><trkpt lat="40.78600695982518" lon="8.556317580262263"><ele>133.0</ele><time>2026-03-29T07:44:56.999Z</time></trkpt><trkpt lat="40.785949271742055" lon="8.556450681748235"><ele>133.75</ele><time>2026-03-29T07:44:57.999Z</time></trkpt><trkpt lat="40.78590437505495" lon="8.556596494454412"><ele>134.5</ele><time>2026-03-29T07:44:58.999Z</time></trkpt><trkpt lat="40.78587385812399" lon="8.556760747361869"><ele>135.25</ele><time>2026-03-29T07:44:59.999Z</time></trkpt><trkpt lat="40.78584269254496" lon="8.556915861452902"><ele>136.0</ele><time>2026-03-29T07:45:00.999Z</time></trkpt><trkpt lat="40.785779457941935" lon="8.557078691054114"><ele>136.4</ele><time>2026-03-29T07:45:01.999Z</time></trkpt><trkpt lat="40.78575279096813" lon="8.557250173313081"><ele>136.8</ele><time>2026-03-29T07:45:02.999Z</time></trkpt><trkpt lat="40.78575337284933" lon="8.557393254254766"><ele>137.20000000000002</ele><time>2026-03-29T07:45:03.999Z</time></trkpt><trkpt lat="40.78575077206248" lon="8.557540977515957"><ele>137.6</ele><time>2026-03-29T07:45:04.999Z</time></trkpt><trkpt lat="40.78577901999601" lon="8.55765556380044"><ele>138.0</ele><time>2026-03-29T07:45:05.999Z</time></trkpt><trkpt lat="40.78581915428208" lon="8.557774929479892"><ele>138.25</ele><time>2026-03-29T07:45:06.999Z</time></trkpt><trkpt lat="40.78588786462247" lon="8.557910009923308"><ele>138.5</ele><time>2026-03-29T07:45:07.999Z</time></trkpt><trkpt lat="40.785995191194104" lon="8.558030644936965"><ele>138.75</ele><time>2026-03-29T07:45:08.999Z</time></trkpt><trkpt lat="40.78611198362809" lon="8.558153039041448"><ele>139.0</ele><time>2026-03-29T07:45:09.999Z</time></trkpt><trkpt lat="40.78623190516072" lon="8.558282171282606"><ele>139.0</ele><time>2026-03-29T07:45:10.999Z</time></trkpt><trkpt lat="40.78633265503659" lon="8.558401992076577"><ele>139.0</ele><time>2026-03-29T07:45:11.999Z</time></trkpt><trkpt lat="40.786462266636555" lon="8.558497506671793"><ele>139.0</ele><time>2026-03-29T07:45:12.999Z</time></trkpt><trkpt lat="40.78656781382353" lon="8.558633741499847"><ele>139.0</ele><time>2026-03-29T07:45:13.999Z</time></trkpt><trkpt lat="40.78666069128118" lon="8.558761604519004"><ele>139.2</ele><time>2026-03-29T07:45:14.999Z</time></trkpt><trkpt lat="40.78672121913839" lon="8.55889469120964"><ele>139.4</ele><time>2026-03-29T07:45:15.999Z</time></trkpt><trkpt lat="40.78676258045008" lon="8.559006418685541"><ele>139.6</ele><time>2026-03-29T07:45:16.999Z</time></trkpt><trkpt lat="40.7867907823269" lon="8.559097286709827"><ele>139.8</ele><time>2026-03-29T07:45:17.999Z</time></trkpt><trkpt lat="40.78680839936373" lon="8.559256118529673"><ele>140.0</ele><time>2026-03-29T07:45:18.999Z</time></trkpt><trkpt lat="40.786800722812764" lon="8.559450653776908"><ele>139.25</ele><time>2026-03-29T07:45:19.999Z</time></trkpt><trkpt lat="40.786787971883946" lon="8.55961205422615"><ele>138.5</ele><time>2026-03-29T07:45:20.999Z</time></trkpt><trkpt lat="40.786782340318" lon="8.559778583501574"><ele>137.75</ele><time>2026-03-29T07:45:21.999Z</time></trkpt><trkpt lat="40.786795886319105" lon="8.559953845963244"><ele>137.0</ele><time>2026-03-29T07:45:22.999Z</time></trkpt><trkpt lat="40.78681253453698" lon="8.560069994901927"><ele>135.6</ele><time>2026-03-29T07:45:23.999Z</time></trkpt><trkpt lat="40.786868943574504" lon="8.560169028967128"><ele>134.2</ele><time>2026-03-29T07:45:24.999Z</time></trkpt><trkpt lat="40.78694965063354" lon="8.560266513618199"><ele>132.8</ele><time>2026-03-29T07:45:25.999Z</time></trkpt><trkpt lat="40.78702964478797" lon="8.560349158051661"><ele>131.4</ele><time>2026-03-29T07:45:26.999Z</time></trkpt><trkpt lat="40.78708892864866" lon="8.560432014490106"><ele>130.0</ele><time>2026-03-29T07:45:27.999Z</time></trkpt><trkpt lat="40.787131876155634" lon="8.560522077405281"><ele>130.0</ele><time>2026-03-29T07:45:28.999Z</time></trkpt><trkpt lat="40.78714192715579" lon="8.56060579577434"><ele>130.0</ele><time>2026-03-29T07:45:29.999Z</time></trkpt><trkpt lat="40.78709910570488" lon="8.560735651755506"><ele>130.0</ele><time>2026-03-29T07:45:32Z</time></trkpt><trkpt lat="40.78706759774998" lon="8.56084112461986"><ele>130.0</ele><time>2026-03-29T07:45:33Z</time></trkpt><trkpt lat="40.78701587350101" lon="8.56096051598453"><ele>130.0</ele><time>2026-03-29T07:45:34Z</time></trkpt><trkpt lat="40.78694790439002" lon="8.56109453361321"><ele>130.75</ele><time>2026-03-29T07:45:35Z</time></trkpt><trkpt lat="40.78687288930868" lon="8.561232954907132"><ele>131.5</ele><time>2026-03-29T07:45:36Z</time></trkpt><trkpt lat="40.78680372740826" lon="8.56135274818492"><ele>132.25</ele><time>2026-03-29T07:45:37Z</time></trkpt><trkpt lat="40.78671623186026" lon="8.561492265003713"><ele>133.0</ele><time>2026-03-29T07:45:38Z</time></trkpt><trkpt lat="40.78664727009863" lon="8.56159977092419"><ele>134.5</ele><time>2026-03-29T07:45:39Z</time></trkpt><trkpt lat="40.78657108916374" lon="8.56171968844814"><ele>136.0</ele><time>2026-03-29T07:45:40Z</time></trkpt><trkpt lat="40.78650572755409" lon="8.561890370220262"><ele>137.5</ele><time>2026-03-29T07:45:41Z</time></trkpt><trkpt lat="40.78645437604726" lon="8.56207067594213"><ele>139.0</ele><time>2026-03-29T07:45:42Z</time></trkpt><trkpt lat="40.78638281581586" lon="8.562340106565129"><ele>139.5</ele><time>2026-03-29T07:45:43Z</time></trkpt><trkpt lat="40.786320555742236" lon="8.562551274244585"><ele>140.0</ele><time>2026-03-29T07:45:44Z</time></trkpt><trkpt lat="40.78626840185819" lon="8.562717958314114"><ele>140.5</ele><time>2026-03-29T07:45:45Z</time></trkpt><trkpt lat="40.78622180472375" lon="8.56285774810001"><ele>141.0</ele><time>2026-03-29T07:45:46Z</time></trkpt><trkpt lat="40.78616528186126" lon="8.563023947054537"><ele>141.25</ele><time>2026-03-29T07:45:47Z</time></trkpt><trkpt lat="40.78608716058584" lon="8.563172608871266"><ele>141.5</ele><time>2026-03-29T07:45:48Z</time></trkpt><trkpt lat="40.78601402362503" lon="8.563308679198995"><ele>141.75</ele><time>2026-03-29T07:45:49Z</time></trkpt><trkpt lat="40.78594352960036" lon="8.563440348275067"><ele>142.0</ele><time>2026-03-29T07:45:50Z</time></trkpt><trkpt lat="40.78589185765043" lon="8.56352394318145"><ele>145.0</ele><time>2026-03-29T07:45:51Z</time></trkpt><trkpt lat="40.78582370029721" lon="8.563632631344316"><ele>148.0</ele><time>2026-03-29T07:45:52Z</time></trkpt><trkpt lat="40.78575550227938" lon="8.563748502233526"><ele>151.0</ele><time>2026-03-29T07:45:53Z</time></trkpt><trkpt lat="40.78566667796237" lon="8.563852087409337"><ele>154.0</ele><time>2026-03-29T07:45:54Z</time></trkpt><trkpt lat="40.78559571502787" lon="8.563972756238025"><ele>154.0</ele><time>2026-03-29T07:45:55Z</time></trkpt><trkpt lat="40.78554714609565" lon="8.56411110364955"><ele>154.0</ele><time>2026-03-29T07:45:56Z</time></trkpt><trkpt lat="40.78549031878999" lon="8.564290829791716"><ele>154.0</ele><time>2026-03-29T07:45:57Z</time></trkpt><trkpt lat="40.785432021039064" lon="8.564435571912059"><ele>154.0</ele><time>2026-03-29T07:45:58Z</time></trkpt><trkpt lat="40.78536338225569" lon="8.564564763181936"><ele>153.0</ele><time>2026-03-29T07:45:59Z</time></trkpt><trkpt lat="40.78529371669874" lon="8.564690204209052"><ele>152.0</ele><time>2026-03-29T07:46:00Z</time></trkpt><trkpt lat="40.78520816175285" lon="8.564786867487612"><ele>151.0</ele><time>2026-03-29T07:46:01Z</time></trkpt><trkpt lat="40.785129742336316" lon="8.564915137854415"><ele>150.0</ele><time>2026-03-29T07:46:02Z</time></trkpt><trkpt lat="40.78505636807964" lon="8.565026251199345"><ele>152.4</ele><time>2026-03-29T07:46:03Z</time></trkpt><trkpt lat="40.78493231024471" lon="8.565067930564298"><ele>154.8</ele><time>2026-03-29T07:46:04Z</time></trkpt><trkpt lat="40.78488617752891" lon="8.565173125861206"><ele>157.2</ele><time>2026-03-29T07:46:05Z</time></trkpt><trkpt lat="40.784902476901244" lon="8.565309567392369"><ele>159.6</ele><time>2026-03-29T07:46:06Z</time></trkpt><trkpt lat="40.7848868649274" lon="8.56544648367348"><ele>162.0</ele><time>2026-03-29T07:46:07Z</time></trkpt><trkpt lat="40.7848732364225" lon="8.565604287112972"><ele>162.0</ele><time>2026-03-29T07:46:08Z</time></trkpt><trkpt lat="40.78482483174734" lon="8.565749392628774"><ele>162.0</ele><time>2026-03-29T07:46:09Z</time></trkpt><trkpt lat="40.784794858811104" lon="8.565918860614916"><ele>162.0</ele><time>2026-03-29T07:46:10Z</time></trkpt><trkpt lat="40.78473748536068" lon="8.566080861318968"><ele>162.0</ele><time>2026-03-29T07:46:11Z</time></trkpt><trkpt lat="40.784675710044446" lon="8.566236844598947"><ele>160.75</ele><time>2026-03-29T07:46:12Z</time></trkpt><trkpt lat="40.78461491031809" lon="8.56638016881703"><ele>159.5</ele><time>2026-03-29T07:46:13Z</time></trkpt><trkpt lat="40.78455991985365" lon="8.566532435143523"><ele>158.25</ele><time>2026-03-29T07:46:14Z</time></trkpt><trkpt lat="40.78450131065297" lon="8.566661988180586"><ele>157.0</ele><time>2026-03-29T07:46:15Z</time></trkpt><trkpt lat="40.78442866333588" lon="8.566784832679632"><ele>157.0</ele><time>2026-03-29T07:46:16Z</time></trkpt><trkpt lat="40.78437569366141" lon="8.566914493134002"><ele>157.0</ele><time>2026-03-29T07:46:17Z</time></trkpt><trkpt lat="40.784323035401286" lon="8.567049728401615"><ele>157.0</ele><time>2026-03-29T07:46:18Z</time></trkpt><trkpt lat="40.78429013309237" lon="8.567179573692549"><ele>157.0</ele><time>2026-03-29T07:46:19Z</time></trkpt><trkpt lat="40.78427522651804" lon="8.567283790911487"><ele>157.0</ele><time>2026-03-29T07:46:20Z</time></trkpt><trkpt lat="40.7842581392789" lon="8.567436444276325"><ele>157.66666666666669</ele><time>2026-03-29T07:46:21Z</time></trkpt><trkpt lat="40.784265548337686" lon="8.567550197113917"><ele>158.33333333333334</ele><time>2026-03-29T07:46:22Z</time></trkpt><trkpt lat="40.78425770474644" lon="8.567671249338073"><ele>159.0</ele><time>2026-03-29T07:46:23Z</time></trkpt><trkpt lat="40.78425609630678" lon="8.567767437346934"><ele>159.66666666666666</ele><time>2026-03-29T07:46:24Z</time></trkpt><trkpt lat="40.784266441431214" lon="8.567881225198331"><ele>160.33333333333331</ele><time>2026-03-29T07:46:26Z</time></trkpt><trkpt lat="40.78418134873028" lon="8.567944920367635"><ele>161.0</ele><time>2026-03-29T07:46:28Z</time></trkpt><trkpt lat="40.7841077119029" lon="8.568035365344983"><ele>161.0</ele><time>2026-03-29T07:46:29Z</time></trkpt><trkpt lat="40.78401181797905" lon="8.568154738894647"><ele>161.0</ele><time>2026-03-29T07:46:30Z</time></trkpt><trkpt lat="40.78391036579472" lon="8.568283572766552"><ele>161.0</ele><time>2026-03-29T07:46:31Z</time></trkpt><trkpt lat="40.78381440694884" lon="8.56840816411966"><ele>161.0</ele><time>2026-03-29T07:46:32Z</time></trkpt><trkpt lat="40.78371510144267" lon="8.568555963432388"><ele>161.0</ele><time>2026-03-29T07:46:33Z</time></trkpt><trkpt lat="40.783631301223394" lon="8.568730753538519"><ele>161.0</ele><time>2026-03-29T07:46:34Z</time></trkpt><trkpt lat="40.78355230507528" lon="8.568896436840909"><ele>161.0</ele><time>2026-03-29T07:46:35Z</time></trkpt><trkpt lat="40.783480661845985" lon="8.569083889493703"><ele>164.66666666666666</ele><time>2026-03-29T07:46:36Z</time></trkpt><trkpt lat="40.78341321950121" lon="8.569279078461896"><ele>168.33333333333334</ele><time>2026-03-29T07:46:37Z</time></trkpt><trkpt lat="40.783336855638254" lon="8.569473432152966"><ele>172.0</ele><time>2026-03-29T07:46:38Z</time></trkpt><trkpt lat="40.78326048357122" lon="8.569654779999361"><ele>172.0</ele><time>2026-03-29T07:46:39Z</time></trkpt><trkpt lat="40.783165543012444" lon="8.569836021168209"><ele>172.0</ele><time>2026-03-29T07:46:40Z</time></trkpt><trkpt lat="40.78310973709732" lon="8.570000459903513"><ele>172.0</ele><time>2026-03-29T07:46:41Z</time></trkpt><trkpt lat="40.78305153270583" lon="8.570169705099966"><ele>172.0</ele><time>2026-03-29T07:46:42Z</time></trkpt><trkpt lat="40.78299667186939" lon="8.570320528706594"><ele>172.39999999999998</ele><time>2026-03-29T07:46:43Z</time></trkpt><trkpt lat="40.782950795495815" lon="8.570476310048951"><ele>172.79999999999998</ele><time>2026-03-29T07:46:44Z</time></trkpt><trkpt lat="40.782955125280886" lon="8.57060667843839"><ele>173.2</ele><time>2026-03-29T07:46:45Z</time></trkpt><trkpt lat="40.78295935015379" lon="8.57072970210149"><ele>173.6</ele><time>2026-03-29T07:46:46Z</time></trkpt><trkpt lat="40.782963135708584" lon="8.570822193679358"><ele>174.0</ele><time>2026-03-29T07:46:47Z</time></trkpt><trkpt lat="40.78296656314329" lon="8.57092579047272"><ele>174.0</ele><time>2026-03-29T07:46:48Z</time></trkpt><trkpt lat="40.78299540849243" lon="8.571013882360743"><ele>174.0</ele><time>2026-03-29T07:46:49Z</time></trkpt><trkpt lat="40.7830082877593" lon="8.571103769797444"><ele>174.0</ele><time>2026-03-29T07:46:50Z</time></trkpt><trkpt lat="40.78292108943055" lon="8.571195219653168"><ele>174.0</ele><time>2026-03-29T07:46:51Z</time></trkpt><trkpt lat="40.78287057947066" lon="8.571255314100316"><ele>174.0</ele><time>2026-03-29T07:46:52Z</time></trkpt><trkpt lat="40.78280775028558" lon="8.57132689164949"><ele>174.0</ele><time>2026-03-29T07:46:53Z</time></trkpt><trkpt lat="40.782740378064595" lon="8.571415602714348"><ele>175.39999999999998</ele><time>2026-03-29T07:46:54Z</time></trkpt><trkpt lat="40.78265253263697" lon="8.571490767269678"><ele>176.8</ele><time>2026-03-29T07:46:55Z</time></trkpt><trkpt lat="40.7825635010015" lon="8.571575630879417"><ele>178.2</ele><time>2026-03-29T07:46:56Z</time></trkpt><trkpt lat="40.78247893567522" lon="8.571649875225745"><ele>179.60000000000002</ele><time>2026-03-29T07:46:57Z</time></trkpt><trkpt lat="40.78237524017583" lon="8.57171905030451"><ele>181.0</ele><time>2026-03-29T07:46:58Z</time></trkpt><trkpt lat="40.78227856230382" lon="8.571786867075632"><ele>181.0</ele><time>2026-03-29T07:46:59Z</time></trkpt><trkpt lat="40.7821556121021" lon="8.571864972527266"><ele>181.0</ele><time>2026-03-29T07:47:00Z</time></trkpt><trkpt lat="40.78203237869116" lon="8.571940283423517"><ele>181.0</ele><time>2026-03-29T07:47:01Z</time></trkpt><trkpt lat="40.781908733679714" lon="8.572037607121034"><ele>181.0</ele><time>2026-03-29T07:47:02Z</time></trkpt><trkpt lat="40.781774260660974" lon="8.5721215828812"><ele>182.25</ele><time>2026-03-29T07:47:03Z</time></trkpt><trkpt lat="40.78163135718295" lon="8.572180273419008"><ele>183.5</ele><time>2026-03-29T07:47:04Z</time></trkpt><trkpt lat="40.78149882922548" lon="8.572284938166685"><ele>184.75</ele><time>2026-03-29T07:47:05Z</time></trkpt><trkpt lat="40.78138024370343" lon="8.572381380193326"><ele>186.0</ele><time>2026-03-29T07:47:06Z</time></trkpt><trkpt lat="40.7812511764188" lon="8.572471773415309"><ele>186.0</ele><time>2026-03-29T07:47:07Z</time></trkpt><trkpt lat="40.78113451167655" lon="8.572554772121023"><ele>186.0</ele><time>2026-03-29T07:47:08Z</time></trkpt><trkpt lat="40.78102862288493" lon="8.572636269799073"><ele>186.0</ele><time>2026-03-29T07:47:09Z</time></trkpt><trkpt lat="40.78093242235514" lon="8.572694145671601"><ele>186.0</ele><time>2026-03-29T07:47:10Z</time></trkpt><trkpt lat="40.78081718497822" lon="8.57276974864397"><ele>186.75</ele><time>2026-03-29T07:47:11Z</time></trkpt><trkpt lat="40.78071176754215" lon="8.572855706844571"><ele>187.5</ele><time>2026-03-29T07:47:12Z</time></trkpt><trkpt lat="40.780589716854216" lon="8.572944835995402"><ele>188.25</ele><time>2026-03-29T07:47:13Z</time></trkpt><trkpt lat="40.780479206204944" lon="8.573035253903651"><ele>189.0</ele><time>2026-03-29T07:47:14Z</time></trkpt><trkpt lat="40.78035615970274" lon="8.57309745727143"><ele>190.5</ele><time>2026-03-29T07:47:15Z</time></trkpt><trkpt lat="40.780236856987074" lon="8.573168002147291"><ele>192.0</ele><time>2026-03-29T07:47:16Z</time></trkpt><trkpt lat="40.78014025844707" lon="8.573248913854451"><ele>193.5</ele><time>2026-03-29T07:47:17Z</time></trkpt><trkpt lat="40.780045456230496" lon="8.573318096098335"><ele>195.0</ele><time>2026-03-29T07:47:18Z</time></trkpt><trkpt lat="40.779957558771144" lon="8.573375985966754"><ele>195.0</ele><time>2026-03-29T07:47:19Z</time></trkpt><trkpt lat="40.77988361366639" lon="8.573478087491718"><ele>195.0</ele><time>2026-03-29T07:47:20Z</time></trkpt><trkpt lat="40.77980486601266" lon="8.573606641028896"><ele>195.0</ele><time>2026-03-29T07:47:21Z</time></trkpt><trkpt lat="40.779741351076844" lon="8.573717697806016"><ele>195.0</ele><time>2026-03-29T07:47:22Z</time></trkpt><trkpt lat="40.77967077120644" lon="8.573810052089945"><ele>195.0</ele><time>2026-03-29T07:47:23Z</time></trkpt><trkpt lat="40.77961942819653" lon="8.57395105984511"><ele>195.6</ele><time>2026-03-29T07:47:25Z</time></trkpt><trkpt lat="40.77968199860744" lon="8.574056121075673"><ele>196.2</ele><time>2026-03-29T07:47:28Z</time></trkpt><trkpt lat="40.779714335682726" lon="8.574176713937096"><ele>196.8</ele><time>2026-03-29T07:47:30Z</time></trkpt><trkpt lat="40.77972719075165" lon="8.574337641650411"><ele>197.4</ele><time>2026-03-29T07:47:32Z</time></trkpt><trkpt lat="40.77970304799157" lon="8.574460066649895"><ele>198.0</ele><time>2026-03-29T07:47:34Z</time></trkpt><trkpt lat="40.779654872735634" lon="8.574601739452268"><ele>199.2</ele><time>2026-03-29T07:47:36Z</time></trkpt><trkpt lat="40.77960447011253" lon="8.574729016473997"><ele>200.4</ele><time>2026-03-29T07:47:38Z</time></trkpt><trkpt lat="40.7795659142033" lon="8.574828894286052"><ele>201.6</ele><time>2026-03-29T07:47:39Z</time></trkpt><trkpt lat="40.77954627299633" lon="8.574916534062025"><ele>202.79999999999998</ele><time>2026-03-29T07:47:40Z</time></trkpt><trkpt lat="40.7795448970905" lon="8.575005765106814"><ele>204.0</ele><time>2026-03-29T07:47:41Z</time></trkpt><trkpt lat="40.77956903064947" lon="8.575161839171281"><ele>204.0</ele><time>2026-03-29T07:47:43Z</time></trkpt><trkpt lat="40.77957753839244" lon="8.575244749155818"><ele>204.0</ele><time>2026-03-29T07:47:44Z</time></trkpt><trkpt lat="40.77958982856866" lon="8.575335062060477"><ele>204.0</ele><time>2026-03-29T07:47:45Z</time></trkpt><trkpt lat="40.77961730972216" lon="8.575413795072478"><ele>204.0</ele><time>2026-03-29T07:47:46Z</time></trkpt><trkpt lat="40.77965553391078" lon="8.57557254893292"><ele>204.0</ele><time>2026-03-29T07:47:48Z</time></trkpt><trkpt lat="40.77971700611288" lon="8.575656744283965"><ele>204.0</ele><time>2026-03-29T07:47:50Z</time></trkpt><trkpt lat="40.77981970231506" lon="8.575668578970015"><ele>204.79999999999998</ele><time>2026-03-29T07:47:52Z</time></trkpt><trkpt lat="40.77989848130727" lon="8.575659131700514"><ele>205.6</ele><time>2026-03-29T07:47:53Z</time></trkpt><trkpt lat="40.77998589338975" lon="8.575672722190918"><ele>206.4</ele><time>2026-03-29T07:47:54Z</time></trkpt><trkpt lat="40.780054400337924" lon="8.575688106443886"><ele>207.2</ele><time>2026-03-29T07:47:55Z</time></trkpt><trkpt lat="40.78014609140101" lon="8.575822559023306"><ele>208.0</ele><time>2026-03-29T07:47:57Z</time></trkpt><trkpt lat="40.78018498902598" lon="8.575941984850441"><ele>207.99999999999997</ele><time>2026-03-29T07:47:58Z</time></trkpt><trkpt lat="40.780234720014874" lon="8.576025084176882"><ele>208.0</ele><time>2026-03-29T07:47:59Z</time></trkpt><trkpt lat="40.78030505405428" lon="8.576093211030342"><ele>208.0</ele><time>2026-03-29T07:48:00Z</time></trkpt><trkpt lat="40.78036422741822" lon="8.576163468430147"><ele>208.0</ele><time>2026-03-29T07:48:01Z</time></trkpt><trkpt lat="40.780432730388846" lon="8.576225292317758"><ele>207.99999999999997</ele><time>2026-03-29T07:48:02Z</time></trkpt><trkpt lat="40.780482144542596" lon="8.576324920817617"><ele>208.0</ele><time>2026-03-29T07:48:03Z</time></trkpt><trkpt lat="40.78054361150556" lon="8.576414919701959"><ele>208.33333333333331</ele><time>2026-03-29T07:48:04Z</time></trkpt><trkpt lat="40.78060989319781" lon="8.576521334588103"><ele>208.66666666666666</ele><time>2026-03-29T07:48:05Z</time></trkpt><trkpt lat="40.78067387404326" lon="8.576622407336748"><ele>209.0</ele><time>2026-03-29T07:48:06Z</time></trkpt><trkpt lat="40.78072577378894" lon="8.576706938696958"><ele>209.33333333333331</ele><time>2026-03-29T07:48:07Z</time></trkpt><trkpt lat="40.78079091721518" lon="8.576779841846836"><ele>209.66666666666666</ele><time>2026-03-29T07:48:08Z</time></trkpt><trkpt lat="40.78082786341043" lon="8.576856372615453"><ele>210.0</ele><time>2026-03-29T07:48:09Z</time></trkpt><trkpt lat="40.780871124755905" lon="8.576946605399593"><ele>209.83333333333334</ele><time>2026-03-29T07:48:10Z</time></trkpt><trkpt lat="40.780926542186045" lon="8.57702855739717"><ele>209.66666666666669</ele><time>2026-03-29T07:48:11Z</time></trkpt><trkpt lat="40.78098753086891" lon="8.577111708511529"><ele>209.5</ele><time>2026-03-29T07:48:12Z</time></trkpt><trkpt lat="40.78105557955812" lon="8.577198311138991"><ele>209.33333333333334</ele><time>2026-03-29T07:48:13Z</time></trkpt><trkpt lat="40.78110436433558" lon="8.577259538861952"><ele>209.16666666666669</ele><time>2026-03-29T07:48:14Z</time></trkpt><trkpt lat="40.781159679373076" lon="8.577326144796752"><ele>209.0</ele><time>2026-03-29T07:48:15Z</time></trkpt><trkpt lat="40.78121968145197" lon="8.577397728360415"><ele>209.00000000000003</ele><time>2026-03-29T07:48:16Z</time></trkpt><trkpt lat="40.78128080363627" lon="8.577467200568975"><ele>209.0</ele><time>2026-03-29T07:48:17Z</time></trkpt><trkpt lat="40.781350496333395" lon="8.577545607364891"><ele>209.0</ele><time>2026-03-29T07:48:18Z</time></trkpt><trkpt lat="40.78144381065517" lon="8.577589189537738"><ele>209.0</ele><time>2026-03-29T07:48:19Z</time></trkpt><trkpt lat="40.78150395536801" lon="8.577625512565472"><ele>209.00000000000003</ele><time>2026-03-29T07:48:20Z</time></trkpt><trkpt lat="40.78156008173364" lon="8.577666602806577"><ele>209.0</ele><time>2026-03-29T07:48:21Z</time></trkpt><trkpt lat="40.78166146904735" lon="8.577780294413554"><ele>209.0</ele><time>2026-03-29T07:48:23Z</time></trkpt><trkpt lat="40.78171681892497" lon="8.577836478394218"><ele>209.0</ele><time>2026-03-29T07:48:24Z</time></trkpt><trkpt lat="40.78176130462412" lon="8.577948253527632"><ele>209.0</ele><time>2026-03-29T07:48:26Z</time></trkpt><trkpt lat="40.78167472249459" lon="8.578056525738509"><ele>209.0</ele><time>2026-03-29T07:48:29Z</time></trkpt><trkpt lat="40.78160728240297" lon="8.57813963613873"><ele>209.0</ele><time>2026-03-29T07:48:30Z</time></trkpt><trkpt lat="40.781522440177675" lon="8.57824172548275"><ele>210.25</ele><time>2026-03-29T07:48:31Z</time></trkpt><trkpt lat="40.78141747938258" lon="8.578342179555872"><ele>211.5</ele><time>2026-03-29T07:48:32Z</time></trkpt><trkpt lat="40.78131527036604" lon="8.578452390160534"><ele>212.75</ele><time>2026-03-29T07:48:33Z</time></trkpt><trkpt lat="40.78124169636804" lon="8.578531895297957"><ele>214.0</ele><time>2026-03-29T07:48:34Z</time></trkpt><trkpt lat="40.78117305571374" lon="8.578619885487718"><ele>215.0</ele><time>2026-03-29T07:48:35Z</time></trkpt><trkpt lat="40.78111078771782" lon="8.57868914241119"><ele>215.99999999999997</ele><time>2026-03-29T07:48:36Z</time></trkpt><trkpt lat="40.78103500899499" lon="8.578796545446453"><ele>216.99999999999997</ele><time>2026-03-29T07:48:37Z</time></trkpt><trkpt lat="40.78099848711735" lon="8.578886913583032"><ele>218.0</ele><time>2026-03-29T07:48:38Z</time></trkpt><trkpt lat="40.78092570255217" lon="8.57901853542339"><ele>219.0</ele><time>2026-03-29T07:48:39Z</time></trkpt><trkpt lat="40.780880417850774" lon="8.579079195208408"><ele>219.5</ele><time>2026-03-29T07:48:40Z</time></trkpt><trkpt lat="40.78082526207491" lon="8.579162717673315"><ele>220.0</ele><time>2026-03-29T07:48:41Z</time></trkpt><trkpt lat="40.78076769196043" lon="8.579272665618191"><ele>220.5</ele><time>2026-03-29T07:48:42Z</time></trkpt><trkpt lat="40.78072735681753" lon="8.57935612758538"><ele>221.0</ele><time>2026-03-29T07:48:43Z</time></trkpt><trkpt lat="40.78068464733832" lon="8.579464477111957"><ele>221.5</ele><time>2026-03-29T07:48:44Z</time></trkpt><trkpt lat="40.780668577926235" lon="8.579569997601505"><ele>222.0</ele><time>2026-03-29T07:48:45Z</time></trkpt><trkpt lat="40.78064018186958" lon="8.579688059114483"><ele>221.66666666666666</ele><time>2026-03-29T07:48:47Z</time></trkpt><trkpt lat="40.780617507659315" lon="8.579773991952143"><ele>221.33333333333331</ele><time>2026-03-29T07:48:49Z</time></trkpt><trkpt lat="40.780653175741755" lon="8.579848700361339"><ele>221.0</ele><time>2026-03-29T07:48:52Z</time></trkpt><trkpt lat="40.780783074721754" lon="8.579886385595755"><ele>220.66666666666666</ele><time>2026-03-29T07:48:53Z</time></trkpt><trkpt lat="40.78085379622924" lon="8.579892174124899"><ele>220.33333333333331</ele><time>2026-03-29T07:48:54Z</time></trkpt><trkpt lat="40.7809540609377" lon="8.579892174125698"><ele>220.0</ele><time>2026-03-29T07:48:56Z</time></trkpt><trkpt lat="40.78102674740664" lon="8.579891581306214"><ele>220.0</ele><time>2026-03-29T07:48:58Z</time></trkpt><trkpt lat="40.78109812102564" lon="8.57988974502392"><ele>220.0</ele><time>2026-03-29T07:49:00Z</time></trkpt><trkpt lat="40.781181735839304" lon="8.579889295369512"><ele>220.0</ele><time>2026-03-29T07:49:02Z</time></trkpt><trkpt lat="40.78125774656185" lon="8.579898057415617"><ele>220.0</ele><time>2026-03-29T07:49:04Z</time></trkpt><trkpt lat="40.781327738890084" lon="8.579926186351935"><ele>220.0</ele><time>2026-03-29T07:49:06Z</time></trkpt><trkpt lat="40.78130702837295" lon="8.580162057332052"><ele>220.0</ele><time>2026-03-29T07:49:12Z</time></trkpt><trkpt lat="40.78124926961967" lon="8.580248739479385"><ele>220.0</ele><time>2026-03-29T07:49:14Z</time></trkpt><trkpt lat="40.78121214443898" lon="8.580326248372014"><ele>220.0</ele><time>2026-03-29T07:49:16Z</time></trkpt><trkpt lat="40.78117223556767" lon="8.580445814032718"><ele>220.0</ele><time>2026-03-29T07:49:18Z</time></trkpt><trkpt lat="40.78115889864884" lon="8.580583705666347"><ele>220.0</ele><time>2026-03-29T07:49:20Z</time></trkpt><trkpt lat="40.78115116089459" lon="8.580709250499176"><ele>219.66666666666666</ele><time>2026-03-29T07:49:22Z</time></trkpt><trkpt lat="40.78114481523589" lon="8.580820615107745"><ele>219.33333333333331</ele><time>2026-03-29T07:49:24Z</time></trkpt><trkpt lat="40.781140658772316" lon="8.580911799251338"><ele>219.0</ele><time>2026-03-29T07:49:26Z</time></trkpt><trkpt lat="40.78112467451896" lon="8.581008502000795"><ele>218.66666666666669</ele><time>2026-03-29T07:49:28Z</time></trkpt><trkpt lat="40.78111065259388" lon="8.581111544873258"><ele>218.33333333333334</ele><time>2026-03-29T07:49:30Z</time></trkpt><trkpt lat="40.78114951988193" lon="8.581200694436717"><ele>218.0</ele><time>2026-03-29T07:49:32Z</time></trkpt><trkpt lat="40.78112236804123" lon="8.581323081855249"><ele>218.8</ele><time>2026-03-29T07:49:34Z</time></trkpt><trkpt lat="40.781096306251804" lon="8.581438202893587"><ele>219.60000000000002</ele><time>2026-03-29T07:49:36Z</time></trkpt><trkpt lat="40.7811083237019" lon="8.58154660536573"><ele>220.39999999999998</ele><time>2026-03-29T07:49:38Z</time></trkpt><trkpt lat="40.78114255946143" lon="8.58166097789976"><ele>221.2</ele><time>2026-03-29T07:49:40Z</time></trkpt><trkpt lat="40.78120201830301" lon="8.581763567854773"><ele>222.0</ele><time>2026-03-29T07:49:42Z</time></trkpt><trkpt lat="40.78123426447145" lon="8.581869832720432"><ele>222.0</ele><time>2026-03-29T07:49:44Z</time></trkpt><trkpt lat="40.7813066737942" lon="8.58192838495362"><ele>222.0</ele><time>2026-03-29T07:49:46Z</time></trkpt><trkpt lat="40.78138843685131" lon="8.581955380351351"><ele>222.0</ele><time>2026-03-29T07:49:48Z</time></trkpt><trkpt lat="40.7814664744053" lon="8.581950975144261"><ele>222.0</ele><time>2026-03-29T07:49:50Z</time></trkpt><trkpt lat="40.7815726859902" lon="8.582043703812587"><ele>222.0</ele><time>2026-03-29T07:49:51Z</time></trkpt><trkpt lat="40.78154388858276" lon="8.582154588913834"><ele>223.5</ele><time>2026-03-29T07:49:53Z</time></trkpt><trkpt lat="40.781476181330156" lon="8.582208688673832"><ele>225.0</ele><time>2026-03-29T07:49:55Z</time></trkpt><trkpt lat="40.781528582443926" lon="8.58232178784902"><ele>226.5</ele><time>2026-03-29T07:49:57Z</time></trkpt><trkpt lat="40.78158083423036" lon="8.58241484138192"><ele>228.0</ele><time>2026-03-29T07:49:59Z</time></trkpt><trkpt lat="40.78164108148181" lon="8.582481257134578"><ele>229.5</ele><time>2026-03-29T07:50:01Z</time></trkpt><trkpt lat="40.78171508700639" lon="8.582526099574785"><ele>231.0</ele><time>2026-03-29T07:50:03Z</time></trkpt><trkpt lat="40.78177691426346" lon="8.582569940742301"><ele>231.66666666666666</ele><time>2026-03-29T07:50:05Z</time></trkpt><trkpt lat="40.78187220557689" lon="8.582502945904459"><ele>232.33333333333331</ele><time>2026-03-29T07:50:06Z</time></trkpt><trkpt lat="40.78194035219934" lon="8.582567563498191"><ele>233.0</ele><time>2026-03-29T07:50:08Z</time></trkpt><trkpt lat="40.78199672486751" lon="8.58265748594325"><ele>233.66666666666666</ele><time>2026-03-29T07:50:56Z</time></trkpt><trkpt lat="40.78202219532986" lon="8.582737414505237"><ele>234.33333333333331</ele><time>2026-03-29T07:50:58Z</time></trkpt><trkpt lat="40.78202802167811" lon="8.582850775795675"><ele>235.0</ele><time>2026-03-29T07:51:00Z</time></trkpt><trkpt lat="40.78202456970886" lon="8.582945409592309"><ele>236.99999999999997</ele><time>2026-03-29T07:54:06Z</time></trkpt><trkpt lat="40.78201357866848" lon="8.583029983618875"><ele>239.0</ele><time>2026-03-29T07:54:09Z</time></trkpt><trkpt lat="40.78198603469739" lon="8.583107942573747"><ele>241.0</ele><time>2026-03-29T07:54:21Z</time></trkpt><trkpt lat="40.7819561878668" lon="8.583202572276154"><ele>243.0</ele><time>2026-03-29T07:54:38Z</time></trkpt><trkpt lat="40.78194050488584" lon="8.583317664266033"><ele>244.99999999999997</ele><time>2026-03-29T07:54:41Z</time></trkpt><trkpt lat="40.78189991203185" lon="8.583383309924203"><ele>247.0</ele><time>2026-03-29T07:54:49Z</time></trkpt><trkpt lat="40.78189623300903" lon="8.583690880031538"><ele>248.49999999999997</ele><time>2026-03-29T07:54:51Z</time></trkpt><trkpt lat="40.781966233709504" lon="8.583738737130671"><ele>250.0</ele><time>2026-03-29T07:54:53Z</time></trkpt><trkpt lat="40.782025064076905" lon="8.583771807935607"><ele>251.5</ele><time>2026-03-29T07:55:04Z</time></trkpt><trkpt lat="40.78208593533106" lon="8.583795141432685"><ele>253.0</ele><time>2026-03-29T07:55:28.999Z</time></trkpt><trkpt lat="40.78217494379327" lon="8.583809487672719"><ele>254.49999999999997</ele><time>2026-03-29T07:55:33.999Z</time></trkpt><trkpt lat="40.78223681019189" lon="8.583829914419596"><ele>256.0</ele><time>2026-03-29T07:55:35.999Z</time></trkpt><trkpt lat="40.78228275609354" lon="8.583708195542924"><ele>256.0</ele><time>2026-03-29T07:55:39.999Z</time></trkpt><trkpt lat="40.7822233322801" lon="8.584032232733861"><ele>256.0</ele><time>2026-03-29T07:55:48Z</time></trkpt><trkpt lat="40.78218844282066" lon="8.584130689390665"><ele>256.0</ele><time>2026-03-29T07:55:50Z</time></trkpt><trkpt lat="40.782149301695995" lon="8.584288202845224"><ele>256.0</ele><time>2026-03-29T07:55:52Z</time></trkpt><trkpt lat="40.78213426467642" lon="8.58439125369377"><ele>256.0</ele><time>2026-03-29T07:55:53Z</time></trkpt><trkpt lat="40.78208721739661" lon="8.584570524687393"><ele>256.0</ele><time>2026-03-29T07:55:55Z</time></trkpt><trkpt lat="40.78207627061917" lon="8.584653392091834"><ele>256.0</ele><time>2026-03-29T07:55:56Z</time></trkpt><trkpt lat="40.78204898529067" lon="8.584830096881689"><ele>256.0</ele><time>2026-03-29T07:55:58Z</time></trkpt><trkpt lat="40.78200639187587" lon="8.584982151928775"><ele>257.3333333333333</ele><time>2026-03-29T07:56:00Z</time></trkpt><trkpt lat="40.78196440169808" lon="8.585078707698084"><ele>258.66666666666663</ele><time>2026-03-29T07:56:02Z</time></trkpt><trkpt lat="40.78192557712677" lon="8.58519923551523"><ele>260.0</ele><time>2026-03-29T07:56:04Z</time></trkpt><trkpt lat="40.78189569629141" lon="8.585323652306203"><ele>261.3333333333333</ele><time>2026-03-29T07:56:06Z</time></trkpt><trkpt lat="40.781846662339596" lon="8.585391361569801"><ele>262.6666666666667</ele><time>2026-03-29T07:56:08Z</time></trkpt><trkpt lat="40.78184482890083" lon="8.585483569922289"><ele>264.0</ele><time>2026-03-29T07:56:10Z</time></trkpt><trkpt lat="40.78186343336398" lon="8.58556976869037"><ele>264.8</ele><time>2026-03-29T07:56:12Z</time></trkpt><trkpt lat="40.78192909511324" lon="8.58560770377904"><ele>265.59999999999997</ele><time>2026-03-29T08:00:49.001Z</time></trkpt><trkpt lat="40.781917206244366" lon="8.585523742244007"><ele>266.4</ele><time>2026-03-29T08:01:08.001Z</time></trkpt><trkpt lat="40.7818304678201" lon="8.585511826855344"><ele>267.2</ele><time>2026-03-29T08:01:22.001Z</time></trkpt><trkpt lat="40.78176497176221" lon="8.585509628203885"><ele>268.0</ele><time>2026-03-29T08:01:23.001Z</time></trkpt><trkpt lat="40.78165579155027" lon="8.58574918791581"><ele>268.0</ele><time>2026-03-29T08:01:24.001Z</time></trkpt><trkpt lat="40.78156012330124" lon="8.58572637797339"><ele>268.0</ele><time>2026-03-29T08:01:26.001Z</time></trkpt><trkpt lat="40.78149069867066" lon="8.585746610165055"><ele>268.0</ele><time>2026-03-29T08:01:29.001Z</time></trkpt><trkpt lat="40.78140960625437" lon="8.585694911377418"><ele>268.0</ele><time>2026-03-29T08:01:30.001Z</time></trkpt><trkpt lat="40.781464274780774" lon="8.585840953728637"><ele>268.0</ele><time>2026-03-29T08:01:32.001Z</time></trkpt><trkpt lat="40.78152891998326" lon="8.585932437257707"><ele>268.0</ele><time>2026-03-29T08:01:33.001Z</time></trkpt><trkpt lat="40.78152113366791" lon="8.586112538094827"><ele>268.0</ele><time>2026-03-29T08:01:34.001Z</time></trkpt><trkpt lat="40.78161654774949" lon="8.58619370633829"><ele>268.0</ele><time>2026-03-29T08:01:35.001Z</time></trkpt><trkpt lat="40.78164463955389" lon="8.58627744159215"><ele>268.0</ele><time>2026-03-29T08:01:36.001Z</time></trkpt><trkpt lat="40.78168808406689" lon="8.586390765979827"><ele>268.0</ele><time>2026-03-29T08:01:37.001Z</time></trkpt><trkpt lat="40.781761202422246" lon="8.586583132336296"><ele>269.8</ele><time>2026-03-29T08:01:38.001Z</time></trkpt><trkpt lat="40.781834290224054" lon="8.586658700036853"><ele>271.6</ele><time>2026-03-29T08:01:39.001Z</time></trkpt><trkpt lat="40.78190904316993" lon="8.586741801833883"><ele>273.4</ele><time>2026-03-29T08:01:40.001Z</time></trkpt><trkpt lat="40.78197965156068" lon="8.58681998983741"><ele>275.2</ele><time>2026-03-29T08:01:41.001Z</time></trkpt><trkpt lat="40.78204525104722" lon="8.586903877650467"><ele>277.0</ele><time>2026-03-29T08:01:42.001Z</time></trkpt><trkpt lat="40.78210862213728" lon="8.587004509437943"><ele>278.2</ele><time>2026-03-29T08:01:43.001Z</time></trkpt><trkpt lat="40.78217183397295" lon="8.58710607397838"><ele>279.4</ele><time>2026-03-29T08:01:44.001Z</time></trkpt><trkpt lat="40.78222859676487" lon="8.587218004162045"><ele>280.6</ele><time>2026-03-29T08:01:45.001Z</time></trkpt><trkpt lat="40.78228193903939" lon="8.58733438176332"><ele>281.8</ele><time>2026-03-29T08:01:46.001Z</time></trkpt><trkpt lat="40.78231548299157" lon="8.587468873149593"><ele>283.0</ele><time>2026-03-29T08:01:47.001Z</time></trkpt><trkpt lat="40.78234442214231" lon="8.587604544055358"><ele>283.0</ele><time>2026-03-29T08:01:48.001Z</time></trkpt><trkpt lat="40.7823601764656" lon="8.58774112111761"><ele>283.0</ele><time>2026-03-29T08:01:49.001Z</time></trkpt><trkpt lat="40.78239621234455" lon="8.587870240630465"><ele>283.0</ele><time>2026-03-29T08:01:50.001Z</time></trkpt><trkpt lat="40.78241747267299" lon="8.588007085385838"><ele>283.0</ele><time>2026-03-29T08:01:51.001Z</time></trkpt><trkpt lat="40.78243188666308" lon="8.588147033232609"><ele>283.0</ele><time>2026-03-29T08:01:52.001Z</time></trkpt><trkpt lat="40.78244123472015" lon="8.588299011515874"><ele>284.0</ele><time>2026-03-29T08:01:53.001Z</time></trkpt><trkpt lat="40.78244033982562" lon="8.588451336034332"><ele>285.0</ele><time>2026-03-29T08:01:54.001Z</time></trkpt><trkpt lat="40.78243528130204" lon="8.58860266392897"><ele>286.0</ele><time>2026-03-29T08:01:55.001Z</time></trkpt><trkpt lat="40.78241955507711" lon="8.588756535866226"><ele>287.0</ele><time>2026-03-29T08:01:56.001Z</time></trkpt><trkpt lat="40.78239374513528" lon="8.588913898225938"><ele>288.25</ele><time>2026-03-29T08:01:57.001Z</time></trkpt><trkpt lat="40.78235658842527" lon="8.58906725851364"><ele>289.5</ele><time>2026-03-29T08:01:58.001Z</time></trkpt><trkpt lat="40.782309746199005" lon="8.589231617002255"><ele>290.75</ele><time>2026-03-29T08:01:59.001Z</time></trkpt><trkpt lat="40.782256124747995" lon="8.58937088138923"><ele>292.0</ele><time>2026-03-29T08:02:00.001Z</time></trkpt><trkpt lat="40.78219915093223" lon="8.589509880122849"><ele>292.75</ele><time>2026-03-29T08:02:01.001Z</time></trkpt><trkpt lat="40.782133235195595" lon="8.589655718548038"><ele>293.5</ele><time>2026-03-29T08:02:02.001Z</time></trkpt><trkpt lat="40.78206405543063" lon="8.589795736086971"><ele>294.25</ele><time>2026-03-29T08:02:03.001Z</time></trkpt><trkpt lat="40.78197032027201" lon="8.589956357362434"><ele>295.0</ele><time>2026-03-29T08:02:04.001Z</time></trkpt><trkpt lat="40.7818608237863" lon="8.590094414604389"><ele>296.0</ele><time>2026-03-29T08:02:05.001Z</time></trkpt><trkpt lat="40.78175529472442" lon="8.590198265084963"><ele>297.0</ele><time>2026-03-29T08:02:06.001Z</time></trkpt><trkpt lat="40.78164793221571" lon="8.590296139165384"><ele>298.0</ele><time>2026-03-29T08:02:07.001Z</time></trkpt><trkpt lat="40.78154472230294" lon="8.590389012986986"><ele>299.0</ele><time>2026-03-29T08:02:08.001Z</time></trkpt><trkpt lat="40.78143962601845" lon="8.590482770806988"><ele>300.5</ele><time>2026-03-29T08:02:09.001Z</time></trkpt><trkpt lat="40.78133041613855" lon="8.59058005396949"><ele>302.0</ele><time>2026-03-29T08:02:10.001Z</time></trkpt><trkpt lat="40.78121815213108" lon="8.59068005687251"><ele>303.5</ele><time>2026-03-29T08:02:11.001Z</time></trkpt><trkpt lat="40.78110337552623" lon="8.590782298025413"><ele>305.0</ele><time>2026-03-29T08:02:12.001Z</time></trkpt><trkpt lat="40.780880779474906" lon="8.590672460358867"><ele>305.33333333333337</ele><time>2026-03-29T08:02:13.001Z</time></trkpt><trkpt lat="40.78075987827706" lon="8.590782531702017"><ele>305.6666666666667</ele><time>2026-03-29T08:02:14Z</time></trkpt><trkpt lat="40.780630414449405" lon="8.590901067755016"><ele>306.0</ele><time>2026-03-29T08:02:15Z</time></trkpt><trkpt lat="40.78049589498313" lon="8.59102060077318"><ele>306.0</ele><time>2026-03-29T08:02:16Z</time></trkpt><trkpt lat="40.7803598710747" lon="8.5911611537299"><ele>306.0</ele><time>2026-03-29T08:02:17Z</time></trkpt><trkpt lat="40.78021710301019" lon="8.59134865430396"><ele>306.0</ele><time>2026-03-29T08:02:18Z</time></trkpt><trkpt lat="40.78008411353836" lon="8.591508710922467"><ele>308.6666666666667</ele><time>2026-03-29T08:02:19Z</time></trkpt><trkpt lat="40.77994470676206" lon="8.591650352954835"><ele>311.33333333333337</ele><time>2026-03-29T08:02:20Z</time></trkpt><trkpt lat="40.77981375138318" lon="8.591792412501459"><ele>314.0</ele><time>2026-03-29T08:02:21Z</time></trkpt><trkpt lat="40.77970350482504" lon="8.59190697758651"><ele>316.33333333333337</ele><time>2026-03-29T08:02:22Z</time></trkpt><trkpt lat="40.77974363463773" lon="8.592142401658839"><ele>318.6666666666667</ele><time>2026-03-29T08:02:23Z</time></trkpt><trkpt lat="40.77971009262933" lon="8.592310388737811"><ele>321.0</ele><time>2026-03-29T08:02:24Z</time></trkpt><trkpt lat="40.77971470088323" lon="8.592489978151203"><ele>321.0</ele><time>2026-03-29T08:02:25Z</time></trkpt><trkpt lat="40.779766205663925" lon="8.592664138756353"><ele>321.0</ele><time>2026-03-29T08:02:26Z</time></trkpt><trkpt lat="40.779775101470115" lon="8.592836235046578"><ele>321.0</ele><time>2026-03-29T08:02:27Z</time></trkpt><trkpt lat="40.77979118959642" lon="8.593014922991316"><ele>321.0</ele><time>2026-03-29T08:02:28.001Z</time></trkpt><trkpt lat="40.779836725697685" lon="8.59318017197076"><ele>322.5</ele><time>2026-03-29T08:02:29.001Z</time></trkpt><trkpt lat="40.77990939249873" lon="8.593342776212946"><ele>324.0</ele><time>2026-03-29T08:02:30.001Z</time></trkpt><trkpt lat="40.7799748646945" lon="8.59347481044573"><ele>325.5</ele><time>2026-03-29T08:02:31.001Z</time></trkpt><trkpt lat="40.78006285571688" lon="8.59361974135922"><ele>327.0</ele><time>2026-03-29T08:02:32.001Z</time></trkpt><trkpt lat="40.780154903154894" lon="8.593778898754634"><ele>327.5</ele><time>2026-03-29T08:02:33.001Z</time></trkpt><trkpt lat="40.78022341965397" lon="8.593936288782741"><ele>328.0</ele><time>2026-03-29T08:02:34.001Z</time></trkpt><trkpt lat="40.78035582621328" lon="8.594067189335279"><ele>328.5</ele><time>2026-03-29T08:02:35.001Z</time></trkpt><trkpt lat="40.78043136226434" lon="8.594223655911694"><ele>329.0</ele><time>2026-03-29T08:02:36.001Z</time></trkpt><trkpt lat="40.78050588118221" lon="8.594377289514272"><ele>329.0</ele><time>2026-03-29T08:02:37.001Z</time></trkpt><trkpt lat="40.78056681147689" lon="8.594504341367436"><ele>329.0</ele><time>2026-03-29T08:02:38.001Z</time></trkpt><trkpt lat="40.78067855833702" lon="8.5946567049437"><ele>329.0</ele><time>2026-03-29T08:02:39.001Z</time></trkpt><trkpt lat="40.78075733937629" lon="8.59480757578597"><ele>329.0</ele><time>2026-03-29T08:02:40.001Z</time></trkpt><trkpt lat="40.78083454124361" lon="8.594953844190005"><ele>332.0</ele><time>2026-03-29T08:02:41.001Z</time></trkpt><trkpt lat="40.780918587338356" lon="8.5951379141646"><ele>335.0</ele><time>2026-03-29T08:02:42.001Z</time></trkpt><trkpt lat="40.781010613177045" lon="8.595301425159327"><ele>338.0</ele><time>2026-03-29T08:02:43.001Z</time></trkpt><trkpt lat="40.781067094114" lon="8.595483067913774"><ele>338.5</ele><time>2026-03-29T08:02:44.001Z</time></trkpt><trkpt lat="40.78114751323129" lon="8.595642756928825"><ele>339.0</ele><time>2026-03-29T08:02:45.001Z</time></trkpt><trkpt lat="40.78119384663516" lon="8.595807262249751"><ele>339.5</ele><time>2026-03-29T08:02:46.001Z</time></trkpt><trkpt lat="40.781247689301146" lon="8.59596663095423"><ele>340.0</ele><time>2026-03-29T08:02:47.001Z</time></trkpt><trkpt lat="40.78130098967462" lon="8.596130876448596"><ele>340.25</ele><time>2026-03-29T08:02:48.001Z</time></trkpt><trkpt lat="40.781353052572726" lon="8.596291311693875"><ele>340.5</ele><time>2026-03-29T08:02:49.001Z</time></trkpt><trkpt lat="40.78140301018407" lon="8.596471461986228"><ele>340.75</ele><time>2026-03-29T08:02:50Z</time></trkpt><trkpt lat="40.781449807181694" lon="8.59663644684089"><ele>341.0</ele><time>2026-03-29T08:02:51Z</time></trkpt><trkpt lat="40.78149709160014" lon="8.596803149966114"><ele>341.0</ele><time>2026-03-29T08:02:52Z</time></trkpt><trkpt lat="40.78155035243635" lon="8.596980920240979"><ele>341.0</ele><time>2026-03-29T08:02:53Z</time></trkpt><trkpt lat="40.78160404102562" lon="8.59714107651642"><ele>341.0</ele><time>2026-03-29T08:02:54Z</time></trkpt><trkpt lat="40.78165455617506" lon="8.597274389292286"><ele>341.0</ele><time>2026-03-29T08:02:55Z</time></trkpt><trkpt lat="40.78170612584375" lon="8.597401947845793"><ele>340.20000000000005</ele><time>2026-03-29T08:02:56Z</time></trkpt><trkpt lat="40.781762584838745" lon="8.59753240628236"><ele>339.40000000000003</ele><time>2026-03-29T08:02:57Z</time></trkpt><trkpt lat="40.78182448353075" lon="8.597659818327012"><ele>338.6</ele><time>2026-03-29T08:02:58Z</time></trkpt><trkpt lat="40.78188582073768" lon="8.597768320853492"><ele>337.8</ele><time>2026-03-29T08:02:59Z</time></trkpt><trkpt lat="40.78195795243828" lon="8.597873302983142"><ele>337.0</ele><time>2026-03-29T08:03:00Z</time></trkpt><trkpt lat="40.781992361777505" lon="8.59800997844288"><ele>341.3333333333333</ele><time>2026-03-29T08:03:01Z</time></trkpt><trkpt lat="40.78203531162723" lon="8.598193875993633"><ele>345.6666666666667</ele><time>2026-03-29T08:03:02Z</time></trkpt><trkpt lat="40.78209037014075" lon="8.598388674074442"><ele>350.0</ele><time>2026-03-29T08:03:03Z</time></trkpt><trkpt lat="40.78211264588408" lon="8.59858816901008"><ele>352.5</ele><time>2026-03-29T08:03:04Z</time></trkpt><trkpt lat="40.782174905104945" lon="8.598776958142057"><ele>355.0</ele><time>2026-03-29T08:03:05Z</time></trkpt><trkpt lat="40.78222715270031" lon="8.598939542313616"><ele>357.5</ele><time>2026-03-29T08:03:06Z</time></trkpt><trkpt lat="40.78227514680141" lon="8.5990888904921"><ele>360.0</ele><time>2026-03-29T08:03:07Z</time></trkpt><trkpt lat="40.782322476495594" lon="8.59920301878873"><ele>360.0</ele><time>2026-03-29T08:03:08Z</time></trkpt><trkpt lat="40.78234622227294" lon="8.599318794110337"><ele>360.0</ele><time>2026-03-29T08:03:09Z</time></trkpt><trkpt lat="40.78237356070117" lon="8.59943513588278"><ele>360.0</ele><time>2026-03-29T08:03:10Z</time></trkpt><trkpt lat="40.782328115993366" lon="8.599511838225961"><ele>360.0</ele><time>2026-03-29T08:03:12Z</time></trkpt><trkpt lat="40.782317361450254" lon="8.599418804608428"><ele>360.0</ele><time>2026-03-29T08:03:14Z</time></trkpt><trkpt lat="40.78225159961389" lon="8.599449969533753"><ele>360.0</ele><time>2026-03-29T08:03:15Z</time></trkpt><trkpt lat="40.78215930452204" lon="8.599487162543978"><ele>362.25</ele><time>2026-03-29T08:03:16Z</time></trkpt><trkpt lat="40.78205256418532" lon="8.599526666421058"><ele>364.5</ele><time>2026-03-29T08:03:17Z</time></trkpt><trkpt lat="40.78194070043896" lon="8.599567559223253"><ele>366.75</ele><time>2026-03-29T08:03:18Z</time></trkpt><trkpt lat="40.781824076047144" lon="8.599630086387608"><ele>369.0</ele><time>2026-03-29T08:03:19Z</time></trkpt><trkpt lat="40.781727824895434" lon="8.599663850421637"><ele>370.25</ele><time>2026-03-29T08:03:20Z</time></trkpt><trkpt lat="40.7816213191035" lon="8.599702496141036"><ele>371.5</ele><time>2026-03-29T08:03:21Z</time></trkpt><trkpt lat="40.78150967025589" lon="8.59974058537082"><ele>372.75</ele><time>2026-03-29T08:03:22Z</time></trkpt><trkpt lat="40.78139579323173" lon="8.59978648691696"><ele>374.0</ele><time>2026-03-29T08:03:23Z</time></trkpt><trkpt lat="40.781289434661126" lon="8.599805635449957"><ele>374.0</ele><time>2026-03-29T08:03:24Z</time></trkpt><trkpt lat="40.78117834322877" lon="8.599865564832736"><ele>374.0</ele><time>2026-03-29T08:03:25Z</time></trkpt><trkpt lat="40.781061301487014" lon="8.599888469096788"><ele>374.0</ele><time>2026-03-29T08:03:26Z</time></trkpt><trkpt lat="40.78094020095231" lon="8.599931053794405"><ele>374.0</ele><time>2026-03-29T08:03:27Z</time></trkpt><trkpt lat="40.78082123563348" lon="8.599978043783072"><ele>375.25</ele><time>2026-03-29T08:03:28Z</time></trkpt><trkpt lat="40.78070644521385" lon="8.600047270671558"><ele>376.5</ele><time>2026-03-29T08:03:29Z</time></trkpt><trkpt lat="40.78058845214791" lon="8.600092337756609"><ele>377.75</ele><time>2026-03-29T08:03:30Z</time></trkpt><trkpt lat="40.78048009480109" lon="8.600118912499902"><ele>379.0</ele><time>2026-03-29T08:03:31Z</time></trkpt><trkpt lat="40.78038516851641" lon="8.60016279243124"><ele>379.0</ele><time>2026-03-29T08:03:32Z</time></trkpt><trkpt lat="40.780288939552335" lon="8.60019174116973"><ele>379.0</ele><time>2026-03-29T08:03:33Z</time></trkpt><trkpt lat="40.780171238155894" lon="8.600239822336176"><ele>379.0</ele><time>2026-03-29T08:03:34Z</time></trkpt><trkpt lat="40.780069268275426" lon="8.600297298107709"><ele>379.0</ele><time>2026-03-29T08:03:35Z</time></trkpt><trkpt lat="40.77996859344733" lon="8.600312874400176"><ele>379.0</ele><time>2026-03-29T08:03:36Z</time></trkpt><trkpt lat="40.77986517855381" lon="8.600360626093572"><ele>382.75</ele><time>2026-03-29T08:03:37Z</time></trkpt><trkpt lat="40.779735215955114" lon="8.600417417899438"><ele>386.5</ele><time>2026-03-29T08:03:38Z</time></trkpt><trkpt lat="40.77960833356909" lon="8.600461303000142"><ele>390.25</ele><time>2026-03-29T08:03:39Z</time></trkpt><trkpt lat="40.7794773826328" lon="8.60050086655396"><ele>394.0</ele><time>2026-03-29T08:03:40Z</time></trkpt><trkpt lat="40.77935989589453" lon="8.600544077135929"><ele>395.0</ele><time>2026-03-29T08:03:41Z</time></trkpt><trkpt lat="40.77924419287374" lon="8.60060170207306"><ele>396.0</ele><time>2026-03-29T08:03:42Z</time></trkpt><trkpt lat="40.77913979651099" lon="8.600651493838436"><ele>397.0</ele><time>2026-03-29T08:03:43Z</time></trkpt><trkpt lat="40.77901418944524" lon="8.600682595033813"><ele>398.0</ele><time>2026-03-29T08:03:44Z</time></trkpt><trkpt lat="40.77888038287683" lon="8.600729493226357"><ele>398.0</ele><time>2026-03-29T08:03:45Z</time></trkpt><trkpt lat="40.77872670050359" lon="8.600797745664439"><ele>398.0</ele><time>2026-03-29T08:03:46Z</time></trkpt><trkpt lat="40.77857023778322" lon="8.600865339532097"><ele>398.0</ele><time>2026-03-29T08:03:47Z</time></trkpt><trkpt lat="40.77840539272344" lon="8.600928812839154"><ele>399.3333333333333</ele><time>2026-03-29T08:03:48Z</time></trkpt><trkpt lat="40.778249427209126" lon="8.600987087727797"><ele>400.66666666666663</ele><time>2026-03-29T08:03:49Z</time></trkpt><trkpt lat="40.77809659078426" lon="8.601045051517438"><ele>402.0</ele><time>2026-03-29T08:03:50Z</time></trkpt><trkpt lat="40.77794295661985" lon="8.601101965755646"><ele>403.25</ele><time>2026-03-29T08:03:51Z</time></trkpt><trkpt lat="40.777797235786686" lon="8.60116707933969"><ele>404.5</ele><time>2026-03-29T08:03:52Z</time></trkpt><trkpt lat="40.77766464456375" lon="8.601200886948352"><ele>405.75</ele><time>2026-03-29T08:03:53Z</time></trkpt><trkpt lat="40.77753224689338" lon="8.60124103285708"><ele>407.0</ele><time>2026-03-29T08:03:54Z</time></trkpt><trkpt lat="40.77739371119876" lon="8.601284461622976"><ele>407.5</ele><time>2026-03-29T08:03:55Z</time></trkpt><trkpt lat="40.77726493662942" lon="8.601337601529783"><ele>408.0</ele><time>2026-03-29T08:03:56Z</time></trkpt><trkpt lat="40.77713876413993" lon="8.601390476852641"><ele>408.5</ele><time>2026-03-29T08:03:57Z</time></trkpt><trkpt lat="40.77701699187075" lon="8.601438905107345"><ele>409.0</ele><time>2026-03-29T08:03:58Z</time></trkpt><trkpt lat="40.77688927350699" lon="8.601474477032086"><ele>409.2</ele><time>2026-03-29T08:03:59Z</time></trkpt><trkpt lat="40.77678213089127" lon="8.601504453964594"><ele>409.4</ele><time>2026-03-29T08:04:00Z</time></trkpt><trkpt lat="40.77669634729695" lon="8.601529483326322"><ele>409.6</ele><time>2026-03-29T08:04:01Z</time></trkpt><trkpt lat="40.77662581467271" lon="8.60157214748829"><ele>409.8</ele><time>2026-03-29T08:04:02Z</time></trkpt><trkpt lat="40.77656691429481" lon="8.601671999573501"><ele>410.0</ele><time>2026-03-29T08:04:04Z</time></trkpt><trkpt lat="40.776637755834685" lon="8.601604320222167"><ele>410.0</ele><time>2026-03-29T08:04:36Z</time></trkpt><trkpt lat="40.776583018613444" lon="8.601688129738227"><ele>410.0</ele><time>2026-03-29T08:04:44Z</time></trkpt><trkpt lat="40.77655947127867" lon="8.601788010718474"><ele>410.0</ele><time>2026-03-29T08:04:45Z</time></trkpt><trkpt lat="40.77653957484657" lon="8.601917947031698"><ele>410.0</ele><time>2026-03-29T08:04:46Z</time></trkpt><trkpt lat="40.77652285744504" lon="8.602041625617435"><ele>410.0</ele><time>2026-03-29T08:04:47Z</time></trkpt><trkpt lat="40.776503416231776" lon="8.602165497516623"><ele>410.75</ele><time>2026-03-29T08:04:48Z</time></trkpt><trkpt lat="40.776477345036135" lon="8.602333243714636"><ele>411.5</ele><time>2026-03-29T08:04:49Z</time></trkpt><trkpt lat="40.77645289011186" lon="8.60249525079535"><ele>412.25</ele><time>2026-03-29T08:04:50Z</time></trkpt><trkpt lat="40.7764321436108" lon="8.602632691189207"><ele>413.0</ele><time>2026-03-29T08:04:51Z</time></trkpt><trkpt lat="40.77641448411734" lon="8.6027647639417"><ele>413.75</ele><time>2026-03-29T08:04:52Z</time></trkpt><trkpt lat="40.77639968638791" lon="8.602935428118336"><ele>414.5</ele><time>2026-03-29T08:04:53Z</time></trkpt><trkpt lat="40.77636752624666" lon="8.603062113981718"><ele>415.25</ele><time>2026-03-29T08:04:54Z</time></trkpt><trkpt lat="40.77634404894624" lon="8.603212239430789"><ele>416.0</ele><time>2026-03-29T08:04:55Z</time></trkpt><trkpt lat="40.77632519254414" lon="8.603367458032464"><ele>416.0</ele><time>2026-03-29T08:04:56Z</time></trkpt><trkpt lat="40.7763208309017" lon="8.603512744390688"><ele>416.0</ele><time>2026-03-29T08:04:57Z</time></trkpt><trkpt lat="40.77630436908204" lon="8.60368821410086"><ele>416.0</ele><time>2026-03-29T08:04:58Z</time></trkpt><trkpt lat="40.776274871180235" lon="8.603839386221596"><ele>416.0</ele><time>2026-03-29T08:04:59Z</time></trkpt><trkpt lat="40.776261032200615" lon="8.603969539446025"><ele>416.5</ele><time>2026-03-29T08:05:00Z</time></trkpt><trkpt lat="40.776229120429804" lon="8.604110910181063"><ele>417.0</ele><time>2026-03-29T08:05:01Z</time></trkpt><trkpt lat="40.776220173880304" lon="8.604278436997005"><ele>417.5</ele><time>2026-03-29T08:05:02Z</time></trkpt><trkpt lat="40.77619156896967" lon="8.604429878445046"><ele>418.0</ele><time>2026-03-29T08:05:03Z</time></trkpt><trkpt lat="40.77616431538598" lon="8.60459176315023"><ele>418.5</ele><time>2026-03-29T08:05:04Z</time></trkpt><trkpt lat="40.77616489369099" lon="8.604758464834054"><ele>419.0</ele><time>2026-03-29T08:05:05Z</time></trkpt><trkpt lat="40.77614343521069" lon="8.60491163971262"><ele>419.5</ele><time>2026-03-29T08:05:06Z</time></trkpt><trkpt lat="40.77612535168225" lon="8.60506948639653"><ele>420.0</ele><time>2026-03-29T08:05:07Z</time></trkpt><trkpt lat="40.776148327995266" lon="8.605213903318372"><ele>419.8</ele><time>2026-03-29T08:05:08Z</time></trkpt><trkpt lat="40.776161403156706" lon="8.605332398503046"><ele>419.6</ele><time>2026-03-29T08:05:09Z</time></trkpt><trkpt lat="40.77617482388803" lon="8.60547554909628"><ele>419.4</ele><time>2026-03-29T08:05:10Z</time></trkpt><trkpt lat="40.77618420551221" lon="8.605622651795894"><ele>419.2</ele><time>2026-03-29T08:05:11Z</time></trkpt><trkpt lat="40.77618548589446" lon="8.605772176178675"><ele>419.0</ele><time>2026-03-29T08:05:12Z</time></trkpt><trkpt lat="40.776180019113994" lon="8.605903380076903"><ele>419.0</ele><time>2026-03-29T08:05:13Z</time></trkpt><trkpt lat="40.776163170371944" lon="8.606063561804215"><ele>419.0</ele><time>2026-03-29T08:05:14Z</time></trkpt><trkpt lat="40.77614426733285" lon="8.606213793280704"><ele>419.0</ele><time>2026-03-29T08:05:15Z</time></trkpt><trkpt lat="40.77608322008142" lon="8.606339190360043"><ele>419.0</ele><time>2026-03-29T08:05:16Z</time></trkpt><trkpt lat="40.77602078912873" lon="8.60647614949379"><ele>417.75</ele><time>2026-03-29T08:05:17Z</time></trkpt><trkpt lat="40.775948105322506" lon="8.606611123608502"><ele>416.5</ele><time>2026-03-29T08:05:18Z</time></trkpt><trkpt lat="40.77588613716767" lon="8.606756842788997"><ele>415.25</ele><time>2026-03-29T08:05:19Z</time></trkpt><trkpt lat="40.77581540818868" lon="8.606884736684922"><ele>414.0</ele><time>2026-03-29T08:05:20Z</time></trkpt><trkpt lat="40.775757898962944" lon="8.607019503459014"><ele>414.0</ele><time>2026-03-29T08:05:21Z</time></trkpt><trkpt lat="40.77571235779514" lon="8.6071593270022"><ele>414.0</ele><time>2026-03-29T08:05:22Z</time></trkpt><trkpt lat="40.775693145553255" lon="8.607272857514072"><ele>414.0</ele><time>2026-03-29T08:05:23Z</time></trkpt><trkpt lat="40.77567672797423" lon="8.607411022503674"><ele>414.0</ele><time>2026-03-29T08:05:24Z</time></trkpt><trkpt lat="40.77568506347133" lon="8.607558442504995"><ele>414.0</ele><time>2026-03-29T08:05:25Z</time></trkpt><trkpt lat="40.775649902723124" lon="8.607690382595154"><ele>414.0</ele><time>2026-03-29T08:05:26Z</time></trkpt><trkpt lat="40.77559717133942" lon="8.607825607299652"><ele>414.0</ele><time>2026-03-29T08:05:27Z</time></trkpt><trkpt lat="40.77553698677186" lon="8.60795180293751"><ele>414.0</ele><time>2026-03-29T08:05:28Z</time></trkpt><trkpt lat="40.77546958722468" lon="8.608059413140692"><ele>414.0</ele><time>2026-03-29T08:05:29Z</time></trkpt><trkpt lat="40.775427473110035" lon="8.608176931898564"><ele>414.0</ele><time>2026-03-29T08:05:30Z</time></trkpt><trkpt lat="40.77536744256234" lon="8.60827770735623"><ele>413.79999999999995</ele><time>2026-03-29T08:05:31Z</time></trkpt><trkpt lat="40.77535072706219" lon="8.608402829686527"><ele>413.59999999999997</ele><time>2026-03-29T08:05:32Z</time></trkpt><trkpt lat="40.77533223159521" lon="8.60851936012538"><ele>413.4</ele><time>2026-03-29T08:05:33Z</time></trkpt><trkpt lat="40.775329736142886" lon="8.608645584907942"><ele>413.2</ele><time>2026-03-29T08:05:34Z</time></trkpt><trkpt lat="40.775330588554105" lon="8.608802404837668"><ele>413.0</ele><time>2026-03-29T08:05:35Z</time></trkpt><trkpt lat="40.775333454683384" lon="8.6089344345453"><ele>412.0</ele><time>2026-03-29T08:05:36Z</time></trkpt><trkpt lat="40.775331718893895" lon="8.609088024532346"><ele>411.0</ele><time>2026-03-29T08:05:37Z</time></trkpt><trkpt lat="40.77530924539137" lon="8.609243824345885"><ele>410.0</ele><time>2026-03-29T08:05:38Z</time></trkpt><trkpt lat="40.77527059690872" lon="8.609390309323551"><ele>409.0</ele><time>2026-03-29T08:05:39Z</time></trkpt><trkpt lat="40.7752424555912" lon="8.609503313550434"><ele>408.0</ele><time>2026-03-29T08:05:40Z</time></trkpt><trkpt lat="40.77519507147969" lon="8.609611441730577"><ele>407.2</ele><time>2026-03-29T08:05:41Z</time></trkpt><trkpt lat="40.77512930163938" lon="8.60973446259125"><ele>406.4</ele><time>2026-03-29T08:05:42Z</time></trkpt><trkpt lat="40.775069010867625" lon="8.60984422374155"><ele>405.59999999999997</ele><time>2026-03-29T08:05:43Z</time></trkpt><trkpt lat="40.775018042742914" lon="8.60997316221701"><ele>404.79999999999995</ele><time>2026-03-29T08:05:44Z</time></trkpt><trkpt lat="40.77499183957887" lon="8.610089436378342"><ele>404.0</ele><time>2026-03-29T08:05:45Z</time></trkpt><trkpt lat="40.7749853984908" lon="8.610213380312446"><ele>404.16666666666663</ele><time>2026-03-29T08:05:46Z</time></trkpt><trkpt lat="40.77498674182686" lon="8.610342646905803"><ele>404.3333333333333</ele><time>2026-03-29T08:05:47Z</time></trkpt><trkpt lat="40.77497665918395" lon="8.610469625069342"><ele>404.5</ele><time>2026-03-29T08:05:48Z</time></trkpt><trkpt lat="40.77496406506141" lon="8.610562457400016"><ele>404.66666666666663</ele><time>2026-03-29T08:05:49Z</time></trkpt><trkpt lat="40.77493013493233" lon="8.61065265761482"><ele>404.8333333333333</ele><time>2026-03-29T08:05:50Z</time></trkpt><trkpt lat="40.77492788347595" lon="8.610738741543894"><ele>405.0</ele><time>2026-03-29T08:05:51Z</time></trkpt><trkpt lat="40.77490310601131" lon="8.61081808393464"><ele>405.0</ele><time>2026-03-29T08:05:52Z</time></trkpt><trkpt lat="40.774890283356775" lon="8.610905768780102"><ele>405.0</ele><time>2026-03-29T08:05:53Z</time></trkpt><trkpt lat="40.774902649413754" lon="8.611038819866623"><ele>405.0</ele><time>2026-03-29T08:05:55Z</time></trkpt><trkpt lat="40.774911885380426" lon="8.611185024723566"><ele>405.0</ele><time>2026-03-29T08:05:57Z</time></trkpt><trkpt lat="40.774918934341" lon="8.611276482594235"><ele>405.0</ele><time>2026-03-29T08:05:58Z</time></trkpt><trkpt lat="40.77491975978159" lon="8.611384435096483"><ele>405.0</ele><time>2026-03-29T08:05:59Z</time></trkpt><trkpt lat="40.77494326780597" lon="8.611493799135749"><ele>404.8333333333333</ele><time>2026-03-29T08:06:00Z</time></trkpt><trkpt lat="40.774971877921026" lon="8.611603487179444"><ele>404.66666666666663</ele><time>2026-03-29T08:06:01Z</time></trkpt><trkpt lat="40.77499106220596" lon="8.6117121334041"><ele>404.5</ele><time>2026-03-29T08:06:02Z</time></trkpt><trkpt lat="40.77501429927206" lon="8.611808512820556"><ele>404.3333333333333</ele><time>2026-03-29T08:06:03Z</time></trkpt><trkpt lat="40.77506798173078" lon="8.611899856690338"><ele>404.16666666666663</ele><time>2026-03-29T08:06:04Z</time></trkpt><trkpt lat="40.77507390463782" lon="8.61200875589918"><ele>404.0</ele><time>2026-03-29T08:06:05Z</time></trkpt><trkpt lat="40.77506253810993" lon="8.612128789970045"><ele>404.0</ele><time>2026-03-29T08:06:06Z</time></trkpt><trkpt lat="40.77504748982408" lon="8.612252379581367"><ele>404.0</ele><time>2026-03-29T08:06:07Z</time></trkpt><trkpt lat="40.775058738873916" lon="8.612392051172593"><ele>404.0</ele><time>2026-03-29T08:06:08Z</time></trkpt><trkpt lat="40.77504025530336" lon="8.612522891267702"><ele>404.0</ele><time>2026-03-29T08:06:09Z</time></trkpt><trkpt lat="40.77500626211859" lon="8.612654358472424"><ele>404.0</ele><time>2026-03-29T08:06:10Z</time></trkpt><trkpt lat="40.77500075444637" lon="8.612789550587763"><ele>402.8333333333333</ele><time>2026-03-29T08:06:11Z</time></trkpt><trkpt lat="40.77498414530354" lon="8.612911466789477"><ele>401.66666666666663</ele><time>2026-03-29T08:06:12Z</time></trkpt><trkpt lat="40.774956636379805" lon="8.61302074744411"><ele>400.5</ele><time>2026-03-29T08:06:13Z</time></trkpt><trkpt lat="40.77494750934567" lon="8.613131897019018"><ele>399.33333333333337</ele><time>2026-03-29T08:06:14Z</time></trkpt><trkpt lat="40.7749402918419" lon="8.61323945757634"><ele>398.1666666666667</ele><time>2026-03-29T08:06:15Z</time></trkpt><trkpt lat="40.77492506872146" lon="8.613342029848026"><ele>397.0</ele><time>2026-03-29T08:06:16Z</time></trkpt><trkpt lat="40.77489980414279" lon="8.613444363630833"><ele>397.00000000000006</ele><time>2026-03-29T08:06:17Z</time></trkpt><trkpt lat="40.77488080099384" lon="8.61354945100393"><ele>397.0</ele><time>2026-03-29T08:06:18Z</time></trkpt><trkpt lat="40.774870241441604" lon="8.613654975402504"><ele>397.0</ele><time>2026-03-29T08:06:19Z</time></trkpt><trkpt lat="40.77486176636335" lon="8.613763040032321"><ele>397.0</ele><time>2026-03-29T08:06:20Z</time></trkpt><trkpt lat="40.77486422553453" lon="8.61387166506431"><ele>397.00000000000006</ele><time>2026-03-29T08:06:21Z</time></trkpt><trkpt lat="40.774871557924556" lon="8.613977270961103"><ele>397.0</ele><time>2026-03-29T08:06:22Z</time></trkpt><trkpt lat="40.77488719845189" lon="8.614079815692707"><ele>396.83333333333337</ele><time>2026-03-29T08:06:23Z</time></trkpt><trkpt lat="40.77491183505595" lon="8.614180040583857"><ele>396.6666666666667</ele><time>2026-03-29T08:06:24Z</time></trkpt><trkpt lat="40.77494812184717" lon="8.614270373632344"><ele>396.5</ele><time>2026-03-29T08:06:25Z</time></trkpt><trkpt lat="40.774988533788004" lon="8.61435465892717"><ele>396.33333333333337</ele><time>2026-03-29T08:06:26Z</time></trkpt><trkpt lat="40.77504951655667" lon="8.614420269818046"><ele>396.1666666666667</ele><time>2026-03-29T08:06:27Z</time></trkpt><trkpt lat="40.77511785137576" lon="8.614481368106881"><ele>396.0</ele><time>2026-03-29T08:06:28Z</time></trkpt><trkpt lat="40.775185985237954" lon="8.614544978511459"><ele>395.6666666666667</ele><time>2026-03-29T08:06:29Z</time></trkpt><trkpt lat="40.77524825893177" lon="8.614608047497377"><ele>395.33333333333337</ele><time>2026-03-29T08:06:30Z</time></trkpt><trkpt lat="40.77530608041351" lon="8.61465192318041"><ele>395.0</ele><time>2026-03-29T08:06:31Z</time></trkpt><trkpt lat="40.77540584725193" lon="8.614682583517906"><ele>394.6666666666667</ele><time>2026-03-29T08:06:33Z</time></trkpt><trkpt lat="40.77547229513027" lon="8.614725949081318"><ele>394.33333333333337</ele><time>2026-03-29T08:06:35Z</time></trkpt><trkpt lat="40.775525934646424" lon="8.614793491642907"><ele>394.0</ele><time>2026-03-29T08:06:37Z</time></trkpt><trkpt lat="40.77549170944909" lon="8.614897676351257"><ele>394.0</ele><time>2026-03-29T08:06:39Z</time></trkpt><trkpt lat="40.77538351742052" lon="8.614951131434724"><ele>394.0</ele><time>2026-03-29T08:06:41Z</time></trkpt><trkpt lat="40.77526213267906" lon="8.614971404883459"><ele>394.0</ele><time>2026-03-29T08:06:43Z</time></trkpt><trkpt lat="40.77519939483885" lon="8.614981104289992"><ele>394.0</ele><time>2026-03-29T08:06:44Z</time></trkpt><trkpt lat="40.775072469925924" lon="8.61500072327649"><ele>394.0</ele><time>2026-03-29T08:06:46Z</time></trkpt><trkpt lat="40.775004407401696" lon="8.614992859245017"><ele>394.4</ele><time>2026-03-29T08:06:47Z</time></trkpt><trkpt lat="40.7748707389435" lon="8.614991780644727"><ele>394.79999999999995</ele><time>2026-03-29T08:06:49Z</time></trkpt><trkpt lat="40.77478990497947" lon="8.614989057636308"><ele>395.20000000000005</ele><time>2026-03-29T08:06:50Z</time></trkpt><trkpt lat="40.77470723719799" lon="8.614981745755356"><ele>395.6</ele><time>2026-03-29T08:06:51Z</time></trkpt><trkpt lat="40.77462235934764" lon="8.614971695121595"><ele>396.0</ele><time>2026-03-29T08:06:52Z</time></trkpt><trkpt lat="40.774536856575466" lon="8.6149562803347"><ele>396.0</ele><time>2026-03-29T08:06:53Z</time></trkpt><trkpt lat="40.77445136963084" lon="8.61493254283121"><ele>396.0</ele><time>2026-03-29T08:06:54Z</time></trkpt><trkpt lat="40.774368013808335" lon="8.614906572551334"><ele>396.0</ele><time>2026-03-29T08:06:55Z</time></trkpt><trkpt lat="40.77428844955699" lon="8.61486978002146"><ele>396.0</ele><time>2026-03-29T08:06:56Z</time></trkpt><trkpt lat="40.774211253185655" lon="8.614849364017442"><ele>396.0</ele><time>2026-03-29T08:06:57Z</time></trkpt><trkpt lat="40.77413439858132" lon="8.614858557687157"><ele>396.0</ele><time>2026-03-29T08:06:58Z</time></trkpt><trkpt lat="40.77406696540962" lon="8.61490259522949"><ele>395.42857142857144</ele><time>2026-03-29T08:06:59Z</time></trkpt><trkpt lat="40.77400635634695" lon="8.61496746516155"><ele>394.85714285714283</ele><time>2026-03-29T08:07:00Z</time></trkpt><trkpt lat="40.77394810691243" lon="8.61502868683588"><ele>394.2857142857143</ele><time>2026-03-29T08:07:01Z</time></trkpt><trkpt lat="40.77388648117215" lon="8.615076279218613"><ele>393.7142857142857</ele><time>2026-03-29T08:07:02Z</time></trkpt><trkpt lat="40.77383581824868" lon="8.615141556895829"><ele>393.1428571428571</ele><time>2026-03-29T08:07:03Z</time></trkpt><trkpt lat="40.77378983777839" lon="8.615209038975882"><ele>392.57142857142856</ele><time>2026-03-29T08:07:04Z</time></trkpt><trkpt lat="40.77374577399822" lon="8.615275271840414"><ele>392.0</ele><time>2026-03-29T08:07:05Z</time></trkpt><trkpt lat="40.77370200814459" lon="8.615340567824576"><ele>391.99999999999994</ele><time>2026-03-29T08:07:06Z</time></trkpt><trkpt lat="40.773657809270404" lon="8.61540553910013"><ele>392.0</ele><time>2026-03-29T08:07:07Z</time></trkpt><trkpt lat="40.77361543915339" lon="8.615468504584944"><ele>392.0</ele><time>2026-03-29T08:07:08Z</time></trkpt><trkpt lat="40.77352519878914" lon="8.615581848466396"><ele>392.0</ele><time>2026-03-29T08:07:10Z</time></trkpt><trkpt lat="40.77348047289635" lon="8.615651876368021"><ele>391.99999999999994</ele><time>2026-03-29T08:07:11Z</time></trkpt><trkpt lat="40.77344349720404" lon="8.615727720026621"><ele>392.0</ele><time>2026-03-29T08:07:12Z</time></trkpt><trkpt lat="40.77341409638496" lon="8.61580624688939"><ele>392.7142857142857</ele><time>2026-03-29T08:07:13Z</time></trkpt><trkpt lat="40.773394574317784" lon="8.615890608717642"><ele>393.42857142857144</ele><time>2026-03-29T08:07:14Z</time></trkpt><trkpt lat="40.77338673360462" lon="8.615976460577869"><ele>394.1428571428571</ele><time>2026-03-29T08:07:15Z</time></trkpt><trkpt lat="40.77340468714456" lon="8.61606762787502"><ele>394.8571428571429</ele><time>2026-03-29T08:07:16Z</time></trkpt><trkpt lat="40.77340126836666" lon="8.616159420765559"><ele>395.57142857142856</ele><time>2026-03-29T08:07:17Z</time></trkpt><trkpt lat="40.77339936334929" lon="8.616256491174347"><ele>396.2857142857143</ele><time>2026-03-29T08:07:18Z</time></trkpt><trkpt lat="40.773391634594944" lon="8.616357964208364"><ele>397.0</ele><time>2026-03-29T08:07:19Z</time></trkpt><trkpt lat="40.77336332624152" lon="8.616466228028592"><ele>397.0</ele><time>2026-03-29T08:07:20Z</time></trkpt><trkpt lat="40.77331158274558" lon="8.616575765397645"><ele>397.0</ele><time>2026-03-29T08:07:21Z</time></trkpt><trkpt lat="40.77326191393449" lon="8.616687321761646"><ele>397.0</ele><time>2026-03-29T08:07:22Z</time></trkpt><trkpt lat="40.773214684217315" lon="8.616794403667814"><ele>397.0</ele><time>2026-03-29T08:07:23Z</time></trkpt><trkpt lat="40.773172269533134" lon="8.616902848878357"><ele>397.0</ele><time>2026-03-29T08:07:24Z</time></trkpt><trkpt lat="40.773140646279806" lon="8.61701369123562"><ele>396.50000000000006</ele><time>2026-03-29T08:07:25Z</time></trkpt><trkpt lat="40.77311703351036" lon="8.617114432488371"><ele>396.0</ele><time>2026-03-29T08:07:26Z</time></trkpt><trkpt lat="40.773095742828005" lon="8.617210609285456"><ele>395.5</ele><time>2026-03-29T08:07:27Z</time></trkpt><trkpt lat="40.77307470984243" lon="8.617305525054787"><ele>395.0</ele><time>2026-03-29T08:07:28Z</time></trkpt><trkpt lat="40.77308481708498" lon="8.617411112119731"><ele>394.50000000000006</ele><time>2026-03-29T08:07:29Z</time></trkpt><trkpt lat="40.7731089670742" lon="8.617525122552298"><ele>394.0</ele><time>2026-03-29T08:07:30Z</time></trkpt><trkpt lat="40.77313635395931" lon="8.61763987333991"><ele>394.00000000000006</ele><time>2026-03-29T08:07:31Z</time></trkpt><trkpt lat="40.77317859895179" lon="8.617738113337994"><ele>394.0</ele><time>2026-03-29T08:07:32Z</time></trkpt><trkpt lat="40.773230190062016" lon="8.617829566675312"><ele>394.0</ele><time>2026-03-29T08:07:33Z</time></trkpt><trkpt lat="40.773298934384485" lon="8.617904743979304"><ele>394.0</ele><time>2026-03-29T08:07:34Z</time></trkpt><trkpt lat="40.77336560072971" lon="8.617974396492425"><ele>394.00000000000006</ele><time>2026-03-29T08:07:35Z</time></trkpt><trkpt lat="40.77343376177205" lon="8.618031653039978"><ele>394.0</ele><time>2026-03-29T08:07:36Z</time></trkpt><trkpt lat="40.773507334242176" lon="8.61809641839426"><ele>391.79999999999995</ele><time>2026-03-29T08:07:37Z</time></trkpt><trkpt lat="40.773571118654175" lon="8.618184145775038"><ele>389.59999999999997</ele><time>2026-03-29T08:07:38Z</time></trkpt><trkpt lat="40.77363771969304" lon="8.61827370456166"><ele>387.4</ele><time>2026-03-29T08:07:39Z</time></trkpt><trkpt lat="40.773694584912555" lon="8.618372720025075"><ele>385.2</ele><time>2026-03-29T08:07:40Z</time></trkpt><trkpt lat="40.773767157419535" lon="8.61844120663039"><ele>383.0</ele><time>2026-03-29T08:07:41Z</time></trkpt><trkpt lat="40.773825833226624" lon="8.618517239014437"><ele>383.0</ele><time>2026-03-29T08:07:42Z</time></trkpt><trkpt lat="40.77388259625584" lon="8.618597176737799"><ele>383.0</ele><time>2026-03-29T08:07:43Z</time></trkpt><trkpt lat="40.773924774295125" lon="8.618684265534764"><ele>383.0</ele><time>2026-03-29T08:07:44Z</time></trkpt><trkpt lat="40.77395493570022" lon="8.618781417639283"><ele>383.0</ele><time>2026-03-29T08:07:45Z</time></trkpt><trkpt lat="40.773963299370266" lon="8.618884104698447"><ele>383.0</ele><time>2026-03-29T08:07:46Z</time></trkpt><trkpt lat="40.77397869292273" lon="8.618977054888807"><ele>383.0</ele><time>2026-03-29T08:07:47Z</time></trkpt><trkpt lat="40.77398509839322" lon="8.61906253009249"><ele>383.0</ele><time>2026-03-29T08:07:48Z</time></trkpt><trkpt lat="40.77400847056244" lon="8.619200416044423"><ele>383.0</ele><time>2026-03-29T08:07:50Z</time></trkpt><trkpt lat="40.77402032732612" lon="8.619289688315497"><ele>383.0</ele><time>2026-03-29T08:07:52Z</time></trkpt><trkpt lat="40.77404430723479" lon="8.619385122525383"><ele>383.0</ele><time>2026-03-29T08:08:18Z</time></trkpt><trkpt lat="40.77404491299218" lon="8.61948147808533"><ele>383.0</ele><time>2026-03-29T08:08:20Z</time></trkpt><trkpt lat="40.77401658965014" lon="8.619579573798656"><ele>383.0</ele><time>2026-03-29T08:08:22Z</time></trkpt><trkpt lat="40.77393682062602" lon="8.61969495554057"><ele>383.0</ele><time>2026-03-29T08:08:24Z</time></trkpt><trkpt lat="40.77386323721648" lon="8.61973641462712"><ele>383.0</ele><time>2026-03-29T08:08:25Z</time></trkpt><trkpt lat="40.77377491299647" lon="8.619788312802601"><ele>383.0</ele><time>2026-03-29T08:08:26Z</time></trkpt><trkpt lat="40.77368839691066" lon="8.619869527352217"><ele>383.0</ele><time>2026-03-29T08:08:27Z</time></trkpt><trkpt lat="40.77359228125016" lon="8.6199306586954"><ele>383.0</ele><time>2026-03-29T08:08:28Z</time></trkpt><trkpt lat="40.773499731202094" lon="8.619991226245132"><ele>384.79999999999995</ele><time>2026-03-29T08:08:29Z</time></trkpt><trkpt lat="40.77340684716061" lon="8.620045722594204"><ele>386.6</ele><time>2026-03-29T08:08:30Z</time></trkpt><trkpt lat="40.77331128921276" lon="8.620096523302701"><ele>388.4</ele><time>2026-03-29T08:08:31Z</time></trkpt><trkpt lat="40.77321944651979" lon="8.62015387831093"><ele>390.20000000000005</ele><time>2026-03-29T08:08:32Z</time></trkpt><trkpt lat="40.77311728359718" lon="8.620189488876305"><ele>392.0</ele><time>2026-03-29T08:08:33Z</time></trkpt><trkpt lat="40.7730187367473" lon="8.620235566047008"><ele>392.0</ele><time>2026-03-29T08:08:34Z</time></trkpt><trkpt lat="40.77292319324928" lon="8.620289324845789"><ele>392.0</ele><time>2026-03-29T08:08:35Z</time></trkpt><trkpt lat="40.77281977075554" lon="8.620317741908256"><ele>392.0</ele><time>2026-03-29T08:08:36Z</time></trkpt><trkpt lat="40.772714701226874" lon="8.620342135182888"><ele>392.0</ele><time>2026-03-29T08:08:37Z</time></trkpt><trkpt lat="40.772607345968325" lon="8.620380414366014"><ele>392.0</ele><time>2026-03-29T08:08:38Z</time></trkpt><trkpt lat="40.772504980500976" lon="8.620442233449687"><ele>392.20000000000005</ele><time>2026-03-29T08:08:39Z</time></trkpt><trkpt lat="40.77241200050591" lon="8.62052314657925"><ele>392.4</ele><time>2026-03-29T08:08:40Z</time></trkpt><trkpt lat="40.77231294356147" lon="8.620576391632671"><ele>392.6</ele><time>2026-03-29T08:08:41Z</time></trkpt><trkpt lat="40.77223367247121" lon="8.620646072103087"><ele>392.79999999999995</ele><time>2026-03-29T08:08:42Z</time></trkpt><trkpt lat="40.772166221495695" lon="8.620711793232525"><ele>393.0</ele><time>2026-03-29T08:08:43Z</time></trkpt><trkpt lat="40.77209801955662" lon="8.620772463724993"><ele>393.0</ele><time>2026-03-29T08:08:44Z</time></trkpt><trkpt lat="40.77203293445308" lon="8.620835674666095"><ele>393.0</ele><time>2026-03-29T08:08:45Z</time></trkpt><trkpt lat="40.77197261020872" lon="8.620910451534602"><ele>393.0</ele><time>2026-03-29T08:08:46Z</time></trkpt><trkpt lat="40.77191911994496" lon="8.620987082346609"><ele>393.0</ele><time>2026-03-29T08:08:47Z</time></trkpt><trkpt lat="40.771868963162866" lon="8.62107401930323"><ele>393.0</ele><time>2026-03-29T08:08:48Z</time></trkpt><trkpt lat="40.771826722020435" lon="8.621181713101324"><ele>393.0</ele><time>2026-03-29T08:08:49Z</time></trkpt><trkpt lat="40.77179337694374" lon="8.621305255551617"><ele>392.0</ele><time>2026-03-29T08:08:50Z</time></trkpt><trkpt lat="40.77176887001432" lon="8.621438854734524"><ele>391.0</ele><time>2026-03-29T08:08:51Z</time></trkpt><trkpt lat="40.77175360524685" lon="8.621575079945261"><ele>390.0</ele><time>2026-03-29T08:08:52Z</time></trkpt><trkpt lat="40.77174184336078" lon="8.621712951595823"><ele>389.0</ele><time>2026-03-29T08:08:53Z</time></trkpt><trkpt lat="40.77172885172321" lon="8.621853237624526"><ele>388.0</ele><time>2026-03-29T08:08:54Z</time></trkpt><trkpt lat="40.771709677928385" lon="8.621999572902213"><ele>387.59999999999997</ele><time>2026-03-29T08:08:55Z</time></trkpt><trkpt lat="40.771687534399504" lon="8.622142858514675"><ele>387.2</ele><time>2026-03-29T08:08:56Z</time></trkpt><trkpt lat="40.771665953947945" lon="8.622277763604515"><ele>386.8</ele><time>2026-03-29T08:08:57Z</time></trkpt><trkpt lat="40.77164748232355" lon="8.622405989267966"><ele>386.4</ele><time>2026-03-29T08:08:58Z</time></trkpt><trkpt lat="40.771628334601104" lon="8.622533111699715"><ele>386.0</ele><time>2026-03-29T08:08:59Z</time></trkpt><trkpt lat="40.77161577562408" lon="8.622665297897003"><ele>385.99999999999994</ele><time>2026-03-29T08:09:00Z</time></trkpt><trkpt lat="40.77161398091699" lon="8.622791077905609"><ele>386.0</ele><time>2026-03-29T08:09:01Z</time></trkpt><trkpt lat="40.77161259308378" lon="8.622901253332854"><ele>386.0</ele><time>2026-03-29T08:09:02Z</time></trkpt><trkpt lat="40.7715999704004" lon="8.623001768705983"><ele>386.0</ele><time>2026-03-29T08:09:03Z</time></trkpt><trkpt lat="40.77156638971138" lon="8.62307624066874"><ele>385.99999999999994</ele><time>2026-03-29T08:09:04Z</time></trkpt><trkpt lat="40.77151018203498" lon="8.623159002326432"><ele>386.0</ele><time>2026-03-29T08:09:05Z</time></trkpt><trkpt lat="40.77145368712733" lon="8.623249639869215"><ele>387.3333333333333</ele><time>2026-03-29T08:09:06Z</time></trkpt><trkpt lat="40.771414430561485" lon="8.623351768805444"><ele>388.66666666666663</ele><time>2026-03-29T08:09:07Z</time></trkpt><trkpt lat="40.77140208785879" lon="8.62345406919716"><ele>390.0</ele><time>2026-03-29T08:09:08Z</time></trkpt><trkpt lat="40.77138926829653" lon="8.623552439211712"><ele>391.33333333333337</ele><time>2026-03-29T08:09:09Z</time></trkpt><trkpt lat="40.77137801810922" lon="8.623656337141728"><ele>392.6666666666667</ele><time>2026-03-29T08:09:10Z</time></trkpt><trkpt lat="40.771373156030506" lon="8.623766711322345"><ele>394.0</ele><time>2026-03-29T08:09:11Z</time></trkpt><trkpt lat="40.77137360508716" lon="8.623890001797351"><ele>395.2</ele><time>2026-03-29T08:09:12Z</time></trkpt><trkpt lat="40.771355538910534" lon="8.624019423750282"><ele>396.4</ele><time>2026-03-29T08:09:13Z</time></trkpt><trkpt lat="40.771350211973946" lon="8.624155999213574"><ele>397.6</ele><time>2026-03-29T08:09:14Z</time></trkpt><trkpt lat="40.77134487297256" lon="8.624295374416253"><ele>398.8</ele><time>2026-03-29T08:09:15Z</time></trkpt><trkpt lat="40.77133981395964" lon="8.624438263887518"><ele>400.0</ele><time>2026-03-29T08:09:16Z</time></trkpt><trkpt lat="40.77133577261629" lon="8.624577695408611"><ele>401.2</ele><time>2026-03-29T08:09:17Z</time></trkpt><trkpt lat="40.77133414553531" lon="8.624717658084077"><ele>402.4</ele><time>2026-03-29T08:09:18Z</time></trkpt><trkpt lat="40.77136131759481" lon="8.624847118858206"><ele>403.6</ele><time>2026-03-29T08:09:19Z</time></trkpt><trkpt lat="40.77137453312556" lon="8.624971934645416"><ele>404.8</ele><time>2026-03-29T08:09:20Z</time></trkpt><trkpt lat="40.77139336697132" lon="8.625094820138047"><ele>406.0</ele><time>2026-03-29T08:09:21Z</time></trkpt><trkpt lat="40.77141789021105" lon="8.625209605485017"><ele>406.00000000000006</ele><time>2026-03-29T08:09:22Z</time></trkpt><trkpt lat="40.77144774148053" lon="8.625311687098602"><ele>406.0</ele><time>2026-03-29T08:09:23Z</time></trkpt><trkpt lat="40.77148437131225" lon="8.625404808438786"><ele>406.0</ele><time>2026-03-29T08:09:24Z</time></trkpt><trkpt lat="40.77152884228457" lon="8.625494094528404"><ele>406.0</ele><time>2026-03-29T08:09:25Z</time></trkpt><trkpt lat="40.771571217357035" lon="8.625599512486447"><ele>406.00000000000006</ele><time>2026-03-29T08:09:26Z</time></trkpt><trkpt lat="40.77160643131095" lon="8.625729091821723"><ele>406.0</ele><time>2026-03-29T08:09:27Z</time></trkpt><trkpt lat="40.77163891594528" lon="8.625877354686713"><ele>406.5</ele><time>2026-03-29T08:09:28Z</time></trkpt><trkpt lat="40.77165841477139" lon="8.626043213740658"><ele>407.0</ele><time>2026-03-29T08:09:29Z</time></trkpt><trkpt lat="40.771676513737305" lon="8.626204939262633"><ele>407.5</ele><time>2026-03-29T08:09:30Z</time></trkpt><trkpt lat="40.77170346099282" lon="8.626361199190038"><ele>408.0</ele><time>2026-03-29T08:09:31Z</time></trkpt><trkpt lat="40.771751013811624" lon="8.626516292202103"><ele>408.25</ele><time>2026-03-29T08:09:32Z</time></trkpt><trkpt lat="40.77181628872383" lon="8.626660830879372"><ele>408.5</ele><time>2026-03-29T08:09:33Z</time></trkpt><trkpt lat="40.77186673911442" lon="8.626798336836568"><ele>408.75</ele><time>2026-03-29T08:09:34.001Z</time></trkpt><trkpt lat="40.77190530485579" lon="8.626929772616421"><ele>409.0</ele><time>2026-03-29T08:09:35.001Z</time></trkpt><trkpt lat="40.77194822751927" lon="8.62705939386874"><ele>409.0</ele><time>2026-03-29T08:09:36.001Z</time></trkpt><trkpt lat="40.771998035003264" lon="8.627187147615265"><ele>409.0</ele><time>2026-03-29T08:09:37.001Z</time></trkpt><trkpt lat="40.77202712814201" lon="8.627311472727719"><ele>409.0</ele><time>2026-03-29T08:09:38Z</time></trkpt><trkpt lat="40.77205776339689" lon="8.627429511463532"><ele>409.0</ele><time>2026-03-29T08:09:39Z</time></trkpt><trkpt lat="40.77209971885747" lon="8.627537364336222"><ele>409.0</ele><time>2026-03-29T08:09:40Z</time></trkpt><trkpt lat="40.772159014120554" lon="8.627623326803505"><ele>409.00000000000006</ele><time>2026-03-29T08:09:41Z</time></trkpt><trkpt lat="40.77222533620877" lon="8.627690399885244"><ele>409.0</ele><time>2026-03-29T08:09:42Z</time></trkpt><trkpt lat="40.772281221042576" lon="8.627761734893255"><ele>409.0</ele><time>2026-03-29T08:09:43Z</time></trkpt><trkpt lat="40.77232243854071" lon="8.627853547637404"><ele>409.0</ele><time>2026-03-29T08:09:44Z</time></trkpt><trkpt lat="40.77231252574374" lon="8.62796135964339"><ele>409.00000000000006</ele><time>2026-03-29T08:09:45Z</time></trkpt><trkpt lat="40.77228354136635" lon="8.628066136161396"><ele>409.0</ele><time>2026-03-29T08:09:46Z</time></trkpt><trkpt lat="40.77226178460303" lon="8.628171988101373"><ele>409.0</ele><time>2026-03-29T08:09:47Z</time></trkpt><trkpt lat="40.77221439419255" lon="8.628260087045103"><ele>409.0</ele><time>2026-03-29T08:09:48Z</time></trkpt><trkpt lat="40.77219956619478" lon="8.628375870749293"><ele>409.0</ele><time>2026-03-29T08:09:49Z</time></trkpt><trkpt lat="40.7722241702781" lon="8.62850540032701"><ele>409.0</ele><time>2026-03-29T08:09:50Z</time></trkpt><trkpt lat="40.77226637971611" lon="8.628640040338896"><ele>409.0</ele><time>2026-03-29T08:09:51Z</time></trkpt><trkpt lat="40.77232338234727" lon="8.628779704775223"><ele>408.5</ele><time>2026-03-29T08:09:52Z</time></trkpt><trkpt lat="40.77234383375347" lon="8.62894077093614"><ele>408.0</ele><time>2026-03-29T08:09:53Z</time></trkpt><trkpt lat="40.77235210959888" lon="8.629112142907443"><ele>407.5</ele><time>2026-03-29T08:09:54Z</time></trkpt><trkpt lat="40.77236019809364" lon="8.629279635129844"><ele>407.0</ele><time>2026-03-29T08:09:55Z</time></trkpt><trkpt lat="40.77236617542194" lon="8.62943101885942"><ele>407.16666666666663</ele><time>2026-03-29T08:09:56Z</time></trkpt><trkpt lat="40.772378729500026" lon="8.629565942382493"><ele>407.3333333333333</ele><time>2026-03-29T08:09:57Z</time></trkpt><trkpt lat="40.77238465638871" lon="8.629687469613604"><ele>407.5</ele><time>2026-03-29T08:09:58Z</time></trkpt><trkpt lat="40.77239000058037" lon="8.629801512738412"><ele>407.66666666666663</ele><time>2026-03-29T08:09:59Z</time></trkpt><trkpt lat="40.7723923242187" lon="8.62990855294692"><ele>407.8333333333333</ele><time>2026-03-29T08:10:00Z</time></trkpt><trkpt lat="40.77239786673252" lon="8.630002607697683"><ele>408.0</ele><time>2026-03-29T08:10:01Z</time></trkpt><trkpt lat="40.77238587844502" lon="8.630084943313776"><ele>408.0</ele><time>2026-03-29T08:10:02Z</time></trkpt><trkpt lat="40.772357844528734" lon="8.630208220911024"><ele>408.0</ele><time>2026-03-29T08:10:04Z</time></trkpt><trkpt lat="40.77223355893534" lon="8.630238572330745"><ele>408.0</ele><time>2026-03-29T08:10:06Z</time></trkpt><trkpt lat="40.772145149742435" lon="8.630214483310214"><ele>408.0</ele><time>2026-03-29T08:10:07Z</time></trkpt><trkpt lat="40.7720461912855" lon="8.630187334133653"><ele>408.0</ele><time>2026-03-29T08:10:08Z</time></trkpt><trkpt lat="40.77194525335945" lon="8.630170056124141"><ele>408.0</ele><time>2026-03-29T08:10:09Z</time></trkpt><trkpt lat="40.77184292149806" lon="8.630158600517918"><ele>408.0</ele><time>2026-03-29T08:10:10Z</time></trkpt><trkpt lat="40.77173978686934" lon="8.630150236720047"><ele>408.0</ele><time>2026-03-29T08:10:11Z</time></trkpt><trkpt lat="40.771638158617435" lon="8.630142434960378"><ele>408.0</ele><time>2026-03-29T08:10:12Z</time></trkpt><trkpt lat="40.77153719469802" lon="8.630139692255142"><ele>408.0</ele><time>2026-03-29T08:10:13Z</time></trkpt><trkpt lat="40.771440524527" lon="8.630133028888073"><ele>408.0</ele><time>2026-03-29T08:10:14Z</time></trkpt><trkpt lat="40.77134838637821" lon="8.630118753648938"><ele>408.0</ele><time>2026-03-29T08:10:15Z</time></trkpt><trkpt lat="40.77125655656685" lon="8.630122287864554"><ele>408.0</ele><time>2026-03-29T08:10:16Z</time></trkpt><trkpt lat="40.77116681154896" lon="8.630094936754064"><ele>408.0</ele><time>2026-03-29T08:10:17Z</time></trkpt><trkpt lat="40.771080636429055" lon="8.630101737815048"><ele>408.0</ele><time>2026-03-29T08:10:18Z</time></trkpt><trkpt lat="40.77099803913373" lon="8.630139182767818"><ele>407.4</ele><time>2026-03-29T08:10:19Z</time></trkpt><trkpt lat="40.77092633914106" lon="8.630195771077677"><ele>406.79999999999995</ele><time>2026-03-29T08:10:20Z</time></trkpt><trkpt lat="40.770857959771746" lon="8.630265225782212"><ele>406.2</ele><time>2026-03-29T08:10:21Z</time></trkpt><trkpt lat="40.770784305696566" lon="8.630348237521535"><ele>405.6</ele><time>2026-03-29T08:10:22Z</time></trkpt><trkpt lat="40.770712245598105" lon="8.630444510503091"><ele>405.0</ele><time>2026-03-29T08:10:23Z</time></trkpt><trkpt lat="40.77064192410942" lon="8.630548496243385"><ele>407.0</ele><time>2026-03-29T08:10:24Z</time></trkpt><trkpt lat="40.77056952922312" lon="8.630644401405373"><ele>409.0</ele><time>2026-03-29T08:10:25Z</time></trkpt><trkpt lat="40.7704928475779" lon="8.630743281227813"><ele>411.0</ele><time>2026-03-29T08:10:26Z</time></trkpt><trkpt lat="40.770408866385445" lon="8.630843617633724"><ele>413.0</ele><time>2026-03-29T08:10:27Z</time></trkpt><trkpt lat="40.77032162610697" lon="8.630937384101022"><ele>415.0</ele><time>2026-03-29T08:10:28Z</time></trkpt><trkpt lat="40.77023662359304" lon="8.631036973282782"><ele>416.0</ele><time>2026-03-29T08:10:29Z</time></trkpt><trkpt lat="40.77015845550191" lon="8.631141817188148"><ele>417.0</ele><time>2026-03-29T08:10:30Z</time></trkpt><trkpt lat="40.77007824263603" lon="8.631271263608255"><ele>418.0</ele><time>2026-03-29T08:10:31Z</time></trkpt><trkpt lat="40.76999049986189" lon="8.631400655770474"><ele>419.0</ele><time>2026-03-29T08:10:32Z</time></trkpt><trkpt lat="40.769894638329184" lon="8.631537434530784"><ele>419.0</ele><time>2026-03-29T08:10:33Z</time></trkpt><trkpt lat="40.769799239105225" lon="8.631657776315386"><ele>419.0</ele><time>2026-03-29T08:10:34Z</time></trkpt><trkpt lat="40.76970269199423" lon="8.631772070379414"><ele>419.0</ele><time>2026-03-29T08:10:35Z</time></trkpt><trkpt lat="40.76960930046191" lon="8.63188262886149"><ele>419.0</ele><time>2026-03-29T08:10:36Z</time></trkpt><trkpt lat="40.76952187128699" lon="8.63198734523836"><ele>419.0</ele><time>2026-03-29T08:10:37Z</time></trkpt><trkpt lat="40.769442729812525" lon="8.632085349403209"><ele>419.0</ele><time>2026-03-29T08:10:38Z</time></trkpt><trkpt lat="40.76937099622502" lon="8.632174180038184"><ele>419.0</ele><time>2026-03-29T08:10:39Z</time></trkpt><trkpt lat="40.76931020233018" lon="8.632252232786685"><ele>419.0</ele><time>2026-03-29T08:10:40Z</time></trkpt><trkpt lat="40.769252442510584" lon="8.63233007678606"><ele>419.0</ele><time>2026-03-29T08:10:41Z</time></trkpt><trkpt lat="40.76921526828049" lon="8.632420064923195"><ele>418.99999999999994</ele><time>2026-03-29T08:10:42Z</time></trkpt><trkpt lat="40.769211544867936" lon="8.632530444753579"><ele>419.0</ele><time>2026-03-29T08:10:43Z</time></trkpt><trkpt lat="40.769260993525364" lon="8.63260953404437"><ele>419.0</ele><time>2026-03-29T08:10:44Z</time></trkpt><trkpt lat="40.76931147476945" lon="8.632702950851877"><ele>419.0</ele><time>2026-03-29T08:10:45Z</time></trkpt><trkpt lat="40.769388216269434" lon="8.632774978259249"><ele>418.99999999999994</ele><time>2026-03-29T08:10:46Z</time></trkpt><trkpt lat="40.769448991709986" lon="8.632866656655887"><ele>419.0</ele><time>2026-03-29T08:10:47Z</time></trkpt><trkpt lat="40.76950843253985" lon="8.632950687953286"><ele>417.66666666666663</ele><time>2026-03-29T08:10:48Z</time></trkpt><trkpt lat="40.76955734118208" lon="8.633032763415157"><ele>416.3333333333333</ele><time>2026-03-29T08:10:49Z</time></trkpt><trkpt lat="40.769594291859725" lon="8.633123754924512"><ele>415.0</ele><time>2026-03-29T08:10:50Z</time></trkpt><trkpt lat="40.76964138283412" lon="8.633209638343384"><ele>413.66666666666663</ele><time>2026-03-29T08:10:51Z</time></trkpt><trkpt lat="40.769685454589236" lon="8.633295475940873"><ele>412.3333333333333</ele><time>2026-03-29T08:10:52Z</time></trkpt><trkpt lat="40.7697228558122" lon="8.6333774098067"><ele>411.0</ele><time>2026-03-29T08:10:53Z</time></trkpt><trkpt lat="40.769760332487586" lon="8.633535845303424"><ele>410.1666666666667</ele><time>2026-03-29T08:10:55Z</time></trkpt><trkpt lat="40.76971158272011" lon="8.633680999817374"><ele>409.33333333333337</ele><time>2026-03-29T08:10:57Z</time></trkpt><trkpt lat="40.769646352728365" lon="8.633699963826915"><ele>408.5</ele><time>2026-03-29T08:10:58Z</time></trkpt><trkpt lat="40.769580003785826" lon="8.633727992179866"><ele>407.6666666666667</ele><time>2026-03-29T08:10:59Z</time></trkpt><trkpt lat="40.76950277206344" lon="8.633758106372248"><ele>406.83333333333337</ele><time>2026-03-29T08:11:00Z</time></trkpt><trkpt lat="40.76942186665308" lon="8.633793080086544"><ele>406.0</ele><time>2026-03-29T08:11:01Z</time></trkpt><trkpt lat="40.769337136600235" lon="8.633847756071454"><ele>406.0</ele><time>2026-03-29T08:11:02Z</time></trkpt><trkpt lat="40.769272617055286" lon="8.633943667785221"><ele>406.0</ele><time>2026-03-29T08:11:03Z</time></trkpt><trkpt lat="40.76920110570384" lon="8.634033998827816"><ele>406.0</ele><time>2026-03-29T08:11:04Z</time></trkpt><trkpt lat="40.769138483733" lon="8.634138995367408"><ele>406.0</ele><time>2026-03-29T08:11:05Z</time></trkpt><trkpt lat="40.76905509154818" lon="8.634213974662858"><ele>406.0</ele><time>2026-03-29T08:11:06Z</time></trkpt><trkpt lat="40.768983605066424" lon="8.634304540368959"><ele>406.0</ele><time>2026-03-29T08:11:07Z</time></trkpt><trkpt lat="40.76890897148916" lon="8.634393848923866"><ele>406.0</ele><time>2026-03-29T08:11:08Z</time></trkpt><trkpt lat="40.76885874787329" lon="8.634513698917328"><ele>406.0</ele><time>2026-03-29T08:11:09Z</time></trkpt><trkpt lat="40.76880772081173" lon="8.634619304458859"><ele>406.0</ele><time>2026-03-29T08:11:10Z</time></trkpt><trkpt lat="40.768747914357576" lon="8.634712771484883"><ele>406.0</ele><time>2026-03-29T08:11:11Z</time></trkpt><trkpt lat="40.7687039064857" lon="8.634815818233204"><ele>405.6666666666667</ele><time>2026-03-29T08:11:12Z</time></trkpt><trkpt lat="40.76869096134691" lon="8.634927464922729"><ele>405.33333333333337</ele><time>2026-03-29T08:11:13Z</time></trkpt><trkpt lat="40.768677026557974" lon="8.635030934834973"><ele>405.0</ele><time>2026-03-29T08:11:14Z</time></trkpt><trkpt lat="40.76869262488272" lon="8.635132349617036"><ele>404.66666666666663</ele><time>2026-03-29T08:11:15Z</time></trkpt><trkpt lat="40.76872426776071" lon="8.63523621145357"><ele>404.3333333333333</ele><time>2026-03-29T08:11:16Z</time></trkpt><trkpt lat="40.768775933367024" lon="8.635341467641686"><ele>404.0</ele><time>2026-03-29T08:11:17Z</time></trkpt><trkpt lat="40.76883203556827" lon="8.635451941705194"><ele>404.0</ele><time>2026-03-29T08:11:18Z</time></trkpt><trkpt lat="40.7688917915367" lon="8.635550909545868"><ele>404.0</ele><time>2026-03-29T08:11:19Z</time></trkpt><trkpt lat="40.76894933023329" lon="8.635637771683669"><ele>404.0</ele><time>2026-03-29T08:11:20Z</time></trkpt><trkpt lat="40.76900063604961" lon="8.63570987738444"><ele>404.0</ele><time>2026-03-29T08:11:21Z</time></trkpt><trkpt lat="40.76902751747181" lon="8.635846013191989"><ele>404.0</ele><time>2026-03-29T08:11:23Z</time></trkpt><trkpt lat="40.768936795577915" lon="8.635947817575953"><ele>403.99999999999994</ele><time>2026-03-29T08:11:25Z</time></trkpt><trkpt lat="40.76887505914358" lon="8.636011431549989"><ele>404.0</ele><time>2026-03-29T08:11:26Z</time></trkpt><trkpt lat="40.768810139817866" lon="8.636076120452877"><ele>404.0</ele><time>2026-03-29T08:11:27Z</time></trkpt><trkpt lat="40.76874587068019" lon="8.636144699854343"><ele>404.0</ele><time>2026-03-29T08:11:28Z</time></trkpt><trkpt lat="40.76867819213336" lon="8.636216916771518"><ele>403.99999999999994</ele><time>2026-03-29T08:11:29Z</time></trkpt><trkpt lat="40.76861041998185" lon="8.636287006858547"><ele>404.0</ele><time>2026-03-29T08:11:30Z</time></trkpt><trkpt lat="40.76853927519626" lon="8.636350163815912"><ele>406.0</ele><time>2026-03-29T08:11:31Z</time></trkpt><trkpt lat="40.76847129845899" lon="8.636421446074285"><ele>408.0</ele><time>2026-03-29T08:11:32Z</time></trkpt><trkpt lat="40.76840360989272" lon="8.636497870203073"><ele>410.0</ele><time>2026-03-29T08:11:33Z</time></trkpt><trkpt lat="40.7683347799034" lon="8.636579231424136"><ele>412.0</ele><time>2026-03-29T08:11:34Z</time></trkpt><trkpt lat="40.768264946947404" lon="8.636657681608302"><ele>414.0</ele><time>2026-03-29T08:11:35Z</time></trkpt><trkpt lat="40.768191170435415" lon="8.636738989916816"><ele>414.0</ele><time>2026-03-29T08:11:36Z</time></trkpt><trkpt lat="40.768116291155124" lon="8.636827501772894"><ele>414.0</ele><time>2026-03-29T08:11:37Z</time></trkpt><trkpt lat="40.76804113088951" lon="8.636926971688421"><ele>414.0</ele><time>2026-03-29T08:11:38Z</time></trkpt><trkpt lat="40.767966856869954" lon="8.637044118154883"><ele>414.0</ele><time>2026-03-29T08:11:39Z</time></trkpt><trkpt lat="40.76790574152508" lon="8.637179335085213"><ele>414.0</ele><time>2026-03-29T08:11:40Z</time></trkpt><trkpt lat="40.767859649744004" lon="8.637317103425964"><ele>414.5</ele><time>2026-03-29T08:11:41Z</time></trkpt><trkpt lat="40.76782543983774" lon="8.637462503796979"><ele>415.0</ele><time>2026-03-29T08:11:42Z</time></trkpt><trkpt lat="40.76777945133928" lon="8.637598165429209"><ele>415.5</ele><time>2026-03-29T08:11:43Z</time></trkpt><trkpt lat="40.767743971483014" lon="8.637747102699393"><ele>416.0</ele><time>2026-03-29T08:11:44Z</time></trkpt><trkpt lat="40.76772729960295" lon="8.63791440237113"><ele>417.75</ele><time>2026-03-29T08:11:45Z</time></trkpt><trkpt lat="40.76771686191938" lon="8.63808877397203"><ele>419.5</ele><time>2026-03-29T08:11:46Z</time></trkpt><trkpt lat="40.76770761862628" lon="8.638246026240067"><ele>421.25</ele><time>2026-03-29T08:11:47Z</time></trkpt><trkpt lat="40.76769929565165" lon="8.638387622245357"><ele>423.0</ele><time>2026-03-29T08:11:48Z</time></trkpt><trkpt lat="40.76769105623276" lon="8.63853142745746"><ele>424.2</ele><time>2026-03-29T08:11:49Z</time></trkpt><trkpt lat="40.76768289125643" lon="8.63867667376958"><ele>425.4</ele><time>2026-03-29T08:11:50Z</time></trkpt><trkpt lat="40.767666755902894" lon="8.638818322168436"><ele>426.59999999999997</ele><time>2026-03-29T08:11:51Z</time></trkpt><trkpt lat="40.76764664311929" lon="8.63894592408377"><ele>427.79999999999995</ele><time>2026-03-29T08:11:52Z</time></trkpt><trkpt lat="40.767622821402085" lon="8.639074579938107"><ele>429.0</ele><time>2026-03-29T08:11:53Z</time></trkpt><trkpt lat="40.76760346832018" lon="8.639214001717695"><ele>429.0</ele><time>2026-03-29T08:11:54Z</time></trkpt><trkpt lat="40.767565436169726" lon="8.639344670167363"><ele>429.0</ele><time>2026-03-29T08:11:55Z</time></trkpt><trkpt lat="40.76751152280424" lon="8.639467491942657"><ele>429.0</ele><time>2026-03-29T08:11:56Z</time></trkpt><trkpt lat="40.76746590709987" lon="8.63959191864223"><ele>429.0</ele><time>2026-03-29T08:11:57Z</time></trkpt><trkpt lat="40.76744923523147" lon="8.639717067155676"><ele>429.0</ele><time>2026-03-29T08:11:58Z</time></trkpt><trkpt lat="40.76740760064403" lon="8.639816914663493"><ele>428.42857142857144</ele><time>2026-03-29T08:11:59Z</time></trkpt><trkpt lat="40.76740148609703" lon="8.639913586166836"><ele>427.8571428571429</ele><time>2026-03-29T08:12:00Z</time></trkpt><trkpt lat="40.767386512558424" lon="8.639995452737352"><ele>427.2857142857143</ele><time>2026-03-29T08:12:01Z</time></trkpt><trkpt lat="40.76736871071028" lon="8.64007687716971"><ele>426.7142857142857</ele><time>2026-03-29T08:12:02Z</time></trkpt><trkpt lat="40.767325388445016" lon="8.640143454548095"><ele>426.1428571428571</ele><time>2026-03-29T08:12:03Z</time></trkpt><trkpt lat="40.76727726023907" lon="8.640210943564709"><ele>425.57142857142856</ele><time>2026-03-29T08:12:04Z</time></trkpt><trkpt lat="40.76722821957312" lon="8.640280415922277"><ele>425.0</ele><time>2026-03-29T08:12:05Z</time></trkpt><trkpt lat="40.76715851194936" lon="8.640318937090818"><ele>424.16666666666663</ele><time>2026-03-29T08:12:06Z</time></trkpt><trkpt lat="40.767099867779514" lon="8.640392016403545"><ele>423.3333333333333</ele><time>2026-03-29T08:12:07Z</time></trkpt><trkpt lat="40.767031779937966" lon="8.640447147685435"><ele>422.5</ele><time>2026-03-29T08:12:08Z</time></trkpt><trkpt lat="40.76696941270966" lon="8.64050161112399"><ele>421.66666666666663</ele><time>2026-03-29T08:12:09Z</time></trkpt><trkpt lat="40.76691385830884" lon="8.6405476515957"><ele>420.8333333333333</ele><time>2026-03-29T08:12:10Z</time></trkpt><trkpt lat="40.76682250603776" lon="8.640615591554855"><ele>420.0</ele><time>2026-03-29T08:12:12Z</time></trkpt><trkpt lat="40.76674408384115" lon="8.640669660234458"><ele>419.8</ele><time>2026-03-29T08:12:14Z</time></trkpt><trkpt lat="40.766683395420436" lon="8.640701683703078"><ele>419.6</ele><time>2026-03-29T08:12:16Z</time></trkpt><trkpt lat="40.76659352649885" lon="8.640614806277078"><ele>419.4</ele><time>2026-03-29T08:12:44Z</time></trkpt><trkpt lat="40.76654133040674" lon="8.640508512005082"><ele>419.2</ele><time>2026-03-29T08:12:46Z</time></trkpt><trkpt lat="40.766467526830944" lon="8.640366653843458"><ele>419.0</ele><time>2026-03-29T08:12:48Z</time></trkpt><trkpt lat="40.766406494756325" lon="8.640310391314316"><ele>419.66666666666663</ele><time>2026-03-29T08:12:49Z</time></trkpt><trkpt lat="40.766339328277404" lon="8.64026089361073"><ele>420.3333333333333</ele><time>2026-03-29T08:12:50Z</time></trkpt><trkpt lat="40.766278291926696" lon="8.640210080235116"><ele>421.0</ele><time>2026-03-29T08:12:51Z</time></trkpt><trkpt lat="40.76621919812862" lon="8.640153130755193"><ele>421.66666666666663</ele><time>2026-03-29T08:12:52Z</time></trkpt><trkpt lat="40.76615930821527" lon="8.640094036986822"><ele>422.3333333333333</ele><time>2026-03-29T08:12:53Z</time></trkpt><trkpt lat="40.76608676875657" lon="8.640048357958062"><ele>423.0</ele><time>2026-03-29T08:12:54Z</time></trkpt><trkpt lat="40.766024354560116" lon="8.63997827547511"><ele>423.0</ele><time>2026-03-29T08:12:55Z</time></trkpt><trkpt lat="40.76596260653031" lon="8.63990660875089"><ele>423.0</ele><time>2026-03-29T08:12:56Z</time></trkpt><trkpt lat="40.76590060188686" lon="8.639834838416684"><ele>423.0</ele><time>2026-03-29T08:12:57Z</time></trkpt><trkpt lat="40.76583475688519" lon="8.639778158132174"><ele>423.0</ele><time>2026-03-29T08:12:58Z</time></trkpt><trkpt lat="40.76576691939469" lon="8.639732356559271"><ele>423.0</ele><time>2026-03-29T08:12:59Z</time></trkpt><trkpt lat="40.76569797417497" lon="8.639697192253742"><ele>423.0</ele><time>2026-03-29T08:13:00Z</time></trkpt><trkpt lat="40.76563058291748" lon="8.63966074723192"><ele>423.0</ele><time>2026-03-29T08:13:01Z</time></trkpt><trkpt lat="40.76556222452723" lon="8.639630912901138"><ele>423.0</ele><time>2026-03-29T08:13:02Z</time></trkpt><trkpt lat="40.7654936239764" lon="8.639590349236533"><ele>423.0</ele><time>2026-03-29T08:13:03Z</time></trkpt><trkpt lat="40.765428537021876" lon="8.63956107641602"><ele>423.0</ele><time>2026-03-29T08:13:04Z</time></trkpt><trkpt lat="40.765359518151875" lon="8.639555596021882"><ele>423.0</ele><time>2026-03-29T08:13:06Z</time></trkpt><trkpt lat="40.76545920456951" lon="8.639577028517545"><ele>423.0</ele><time>2026-03-29T08:13:47.999Z</time></trkpt><trkpt lat="40.76557267375415" lon="8.639623703643418"><ele>423.0</ele><time>2026-03-29T08:13:49.999Z</time></trkpt><trkpt lat="40.76567287771748" lon="8.63967710971214"><ele>423.0</ele><time>2026-03-29T08:13:51.999Z</time></trkpt><trkpt lat="40.765782545147914" lon="8.63972578379343"><ele>423.0</ele><time>2026-03-29T08:13:53.999Z</time></trkpt><trkpt lat="40.76581320171302" lon="8.639907808985543"><ele>423.0</ele><time>2026-03-29T08:13:54.999Z</time></trkpt><trkpt lat="40.76587080346223" lon="8.639980023957536"><ele>423.0</ele><time>2026-03-29T08:13:55.999Z</time></trkpt><trkpt lat="40.765923377236135" lon="8.640048317861979"><ele>423.0</ele><time>2026-03-29T08:13:56.999Z</time></trkpt><trkpt lat="40.76597587343905" lon="8.640102602405955"><ele>423.0</ele><time>2026-03-29T08:13:57.999Z</time></trkpt><trkpt lat="40.76607960618106" lon="8.640070175302778"><ele>423.0</ele><time>2026-03-29T08:13:58.999Z</time></trkpt><trkpt lat="40.766135103524576" lon="8.640124934797875"><ele>423.0</ele><time>2026-03-29T08:13:59.999Z</time></trkpt><trkpt lat="40.76619200259764" lon="8.64018107714372"><ele>423.0</ele><time>2026-03-29T08:14:00.999Z</time></trkpt><trkpt lat="40.76625124672751" lon="8.640238602740393"><ele>423.0</ele><time>2026-03-29T08:14:01.999Z</time></trkpt><trkpt lat="40.766314001082044" lon="8.640299042870629"><ele>422.2</ele><time>2026-03-29T08:14:02.999Z</time></trkpt><trkpt lat="40.76638217660809" lon="8.640354086316638"><ele>421.4</ele><time>2026-03-29T08:14:03.999Z</time></trkpt><trkpt lat="40.76644094872464" lon="8.640407509338417"><ele>420.59999999999997</ele><time>2026-03-29T08:14:04.999Z</time></trkpt><trkpt lat="40.766513560327894" lon="8.640532751683923"><ele>419.79999999999995</ele><time>2026-03-29T08:14:06.999Z</time></trkpt><trkpt lat="40.76657172746912" lon="8.640652056583454"><ele>419.0</ele><time>2026-03-29T08:14:08.999Z</time></trkpt><trkpt lat="40.76662123013632" lon="8.64075958764985"><ele>418.99999999999994</ele><time>2026-03-29T08:14:10.999Z</time></trkpt><trkpt lat="40.76666155231159" lon="8.640847179384444"><ele>419.0</ele><time>2026-03-29T08:14:12.999Z</time></trkpt><trkpt lat="40.76663261641935" lon="8.64095584468415"><ele>419.0</ele><time>2026-03-29T08:14:13.999Z</time></trkpt><trkpt lat="40.76662171875391" lon="8.64105529355403"><ele>419.0</ele><time>2026-03-29T08:14:15.999Z</time></trkpt><trkpt lat="40.76650518292357" lon="8.641129088290047"><ele>418.99999999999994</ele><time>2026-03-29T08:14:16.999Z</time></trkpt><trkpt lat="40.76643929647648" lon="8.64113099378635"><ele>419.0</ele><time>2026-03-29T08:14:17.999Z</time></trkpt><trkpt lat="40.76634049609688" lon="8.641143891815164"><ele>418.99999999999994</ele><time>2026-03-29T08:14:19.999Z</time></trkpt><trkpt lat="40.76627332309981" lon="8.641181807248223"><ele>419.0</ele><time>2026-03-29T08:14:21.999Z</time></trkpt><trkpt lat="40.766220809914664" lon="8.641255403710273"><ele>419.0</ele><time>2026-03-29T08:14:22.999Z</time></trkpt><trkpt lat="40.76615135600618" lon="8.641310180005673"><ele>419.0</ele><time>2026-03-29T08:14:23.999Z</time></trkpt><trkpt lat="40.76608817794594" lon="8.641326837046153"><ele>419.0</ele><time>2026-03-29T08:14:24.999Z</time></trkpt><trkpt lat="40.766023670288185" lon="8.641339100560058"><ele>418.99999999999994</ele><time>2026-03-29T08:14:25.999Z</time></trkpt><trkpt lat="40.765948468537935" lon="8.641352396166306"><ele>419.0</ele><time>2026-03-29T08:14:26.999Z</time></trkpt><trkpt lat="40.7658426473628" lon="8.64138288318182"><ele>416.6</ele><time>2026-03-29T08:14:27.999Z</time></trkpt><trkpt lat="40.76575751187586" lon="8.64137855960408"><ele>414.2</ele><time>2026-03-29T08:14:28.999Z</time></trkpt><trkpt lat="40.76566472891079" lon="8.641374580999742"><ele>411.8</ele><time>2026-03-29T08:14:29.999Z</time></trkpt><trkpt lat="40.76557265786128" lon="8.641388909202668"><ele>409.40000000000003</ele><time>2026-03-29T08:14:30.999Z</time></trkpt><trkpt lat="40.76547834616695" lon="8.641410032948684"><ele>407.0</ele><time>2026-03-29T08:14:31.999Z</time></trkpt><trkpt lat="40.76537800851697" lon="8.641432743547242"><ele>407.0</ele><time>2026-03-29T08:14:32.999Z</time></trkpt><trkpt lat="40.76527658154042" lon="8.641471177124984"><ele>407.0</ele><time>2026-03-29T08:14:33.999Z</time></trkpt><trkpt lat="40.76517947035552" lon="8.641483460548978"><ele>407.0</ele><time>2026-03-29T08:14:34.999Z</time></trkpt><trkpt lat="40.7650753498276" lon="8.641473383055613"><ele>407.0</ele><time>2026-03-29T08:14:35.999Z</time></trkpt><trkpt lat="40.76497283595865" lon="8.641513538320721"><ele>407.0</ele><time>2026-03-29T08:14:36.999Z</time></trkpt><trkpt lat="40.76486507437431" lon="8.641559587321142"><ele>404.0</ele><time>2026-03-29T08:14:37.999Z</time></trkpt><trkpt lat="40.76476040781807" lon="8.641604091825618"><ele>401.0</ele><time>2026-03-29T08:14:38.999Z</time></trkpt><trkpt lat="40.764659995358045" lon="8.641646010114288"><ele>398.0</ele><time>2026-03-29T08:14:39.999Z</time></trkpt><trkpt lat="40.764560897068975" lon="8.641677420329735"><ele>395.0</ele><time>2026-03-29T08:14:40.999Z</time></trkpt><trkpt lat="40.764462293344856" lon="8.641708315399544"><ele>392.0</ele><time>2026-03-29T08:14:41.999Z</time></trkpt><trkpt lat="40.764353888899315" lon="8.641699376516378"><ele>392.6</ele><time>2026-03-29T08:14:42.999Z</time></trkpt><trkpt lat="40.76424716425076" lon="8.6417422416917"><ele>393.20000000000005</ele><time>2026-03-29T08:14:43.999Z</time></trkpt><trkpt lat="40.76414529010976" lon="8.641801649439158"><ele>393.8</ele><time>2026-03-29T08:14:45Z</time></trkpt><trkpt lat="40.76404795566618" lon="8.641860803810472"><ele>394.4</ele><time>2026-03-29T08:14:46Z</time></trkpt><trkpt lat="40.76395608440158" lon="8.641930001272"><ele>395.0</ele><time>2026-03-29T08:14:47Z</time></trkpt><trkpt lat="40.763861629501456" lon="8.641993438209896"><ele>395.0</ele><time>2026-03-29T08:14:48Z</time></trkpt><trkpt lat="40.76376635096081" lon="8.642057533743733"><ele>395.0</ele><time>2026-03-29T08:14:49Z</time></trkpt><trkpt lat="40.76369529306393" lon="8.642156140840584"><ele>395.0</ele><time>2026-03-29T08:14:50Z</time></trkpt><trkpt lat="40.763630167761384" lon="8.642248651034635"><ele>395.0</ele><time>2026-03-29T08:14:51Z</time></trkpt><trkpt lat="40.76356917392582" lon="8.642343538240496"><ele>395.0</ele><time>2026-03-29T08:14:52Z</time></trkpt><trkpt lat="40.763513819628905" lon="8.642429651567836"><ele>390.99999999999994</ele><time>2026-03-29T08:14:53Z</time></trkpt><trkpt lat="40.76346007907517" lon="8.64250615763885"><ele>387.0</ele><time>2026-03-29T08:14:54Z</time></trkpt><trkpt lat="40.763390636119475" lon="8.642541732905686"><ele>383.0</ele><time>2026-03-29T08:14:55Z</time></trkpt><trkpt lat="40.76332553919055" lon="8.642583408075557"><ele>379.0</ele><time>2026-03-29T08:14:56Z</time></trkpt><trkpt lat="40.76325410834521" lon="8.642613463100561"><ele>375.0</ele><time>2026-03-29T08:14:57Z</time></trkpt><trkpt lat="40.76318288943604" lon="8.64263490294573"><ele>371.0</ele><time>2026-03-29T08:14:58Z</time></trkpt><trkpt lat="40.76310420441593" lon="8.642649942853069"><ele>371.0</ele><time>2026-03-29T08:14:59Z</time></trkpt><trkpt lat="40.763020218160804" lon="8.64266776430571"><ele>371.0</ele><time>2026-03-29T08:15:00Z</time></trkpt><trkpt lat="40.76293262015166" lon="8.642680702489885"><ele>371.0</ele><time>2026-03-29T08:15:01Z</time></trkpt><trkpt lat="40.76284347383592" lon="8.642721680098967"><ele>371.0</ele><time>2026-03-29T08:15:02Z</time></trkpt><trkpt lat="40.76276817650309" lon="8.642794290031004"><ele>371.0</ele><time>2026-03-29T08:15:03Z</time></trkpt><trkpt lat="40.76267722263337" lon="8.642820825973345"><ele>370.6666666666667</ele><time>2026-03-29T08:15:04Z</time></trkpt><trkpt lat="40.76259841414697" lon="8.642872495941793"><ele>370.33333333333337</ele><time>2026-03-29T08:15:05Z</time></trkpt><trkpt lat="40.762517236424834" lon="8.642894685886057"><ele>370.0</ele><time>2026-03-29T08:15:06Z</time></trkpt><trkpt lat="40.76244165158128" lon="8.642920260935014"><ele>369.6666666666667</ele><time>2026-03-29T08:15:07Z</time></trkpt><trkpt lat="40.76236785278433" lon="8.642951062565913"><ele>369.3333333333333</ele><time>2026-03-29T08:15:08Z</time></trkpt><trkpt lat="40.76230026413742" lon="8.643001319285522"><ele>369.0</ele><time>2026-03-29T08:15:09Z</time></trkpt><trkpt lat="40.762224593942406" lon="8.64302505903345"><ele>369.0</ele><time>2026-03-29T08:15:10Z</time></trkpt><trkpt lat="40.762145034827164" lon="8.643039135728257"><ele>369.0</ele><time>2026-03-29T08:15:11Z</time></trkpt><trkpt lat="40.762069077536005" lon="8.643073259886513"><ele>369.0</ele><time>2026-03-29T08:15:12Z</time></trkpt><trkpt lat="40.761992086674766" lon="8.643107160375557"><ele>369.0</ele><time>2026-03-29T08:15:13Z</time></trkpt><trkpt lat="40.761912921955016" lon="8.643146621290079"><ele>369.0</ele><time>2026-03-29T08:15:14Z</time></trkpt><trkpt lat="40.761826576005596" lon="8.643163215006554"><ele>369.0</ele><time>2026-03-29T08:15:15Z</time></trkpt><trkpt lat="40.76174073845807" lon="8.643186725371521"><ele>367.1666666666667</ele><time>2026-03-29T08:15:16Z</time></trkpt><trkpt lat="40.76165707461843" lon="8.643224309244966"><ele>365.3333333333333</ele><time>2026-03-29T08:15:17Z</time></trkpt><trkpt lat="40.76157258382374" lon="8.64324037172869"><ele>363.5</ele><time>2026-03-29T08:15:18Z</time></trkpt><trkpt lat="40.76149262808457" lon="8.643213979438254"><ele>361.66666666666663</ele><time>2026-03-29T08:15:19Z</time></trkpt><trkpt lat="40.76141803961989" lon="8.643212923800824"><ele>359.8333333333333</ele><time>2026-03-29T08:15:20Z</time></trkpt><trkpt lat="40.761349734466165" lon="8.643208893435354"><ele>358.0</ele><time>2026-03-29T08:15:21Z</time></trkpt><trkpt lat="40.761281107640336" lon="8.643204879678782"><ele>358.0</ele><time>2026-03-29T08:15:22Z</time></trkpt><trkpt lat="40.76121320435817" lon="8.643204926325186"><ele>358.0</ele><time>2026-03-29T08:15:23Z</time></trkpt><trkpt lat="40.76114928756521" lon="8.643211444552197"><ele>358.0</ele><time>2026-03-29T08:15:24Z</time></trkpt><trkpt lat="40.76103015904" lon="8.643257246203861"><ele>358.0</ele><time>2026-03-29T08:15:26Z</time></trkpt><trkpt lat="40.76096615544754" lon="8.643291123738624"><ele>358.0</ele><time>2026-03-29T08:15:27Z</time></trkpt><trkpt lat="40.7608976453123" lon="8.643329204965388"><ele>358.0</ele><time>2026-03-29T08:15:28Z</time></trkpt><trkpt lat="40.76083212237012" lon="8.643380094334235"><ele>358.5</ele><time>2026-03-29T08:15:29Z</time></trkpt><trkpt lat="40.76076306756676" lon="8.643427236092908"><ele>359.0</ele><time>2026-03-29T08:15:30Z</time></trkpt><trkpt lat="40.76068913743975" lon="8.643465055519771"><ele>359.5</ele><time>2026-03-29T08:15:31Z</time></trkpt><trkpt lat="40.76061596557924" lon="8.643514664865585"><ele>360.0</ele><time>2026-03-29T08:15:32Z</time></trkpt><trkpt lat="40.76054170429587" lon="8.64357371498075"><ele>360.5</ele><time>2026-03-29T08:15:33Z</time></trkpt><trkpt lat="40.76046700168433" lon="8.643643136494411"><ele>361.0</ele><time>2026-03-29T08:15:34Z</time></trkpt><trkpt lat="40.760387270736096" lon="8.643713439249588"><ele>361.0</ele><time>2026-03-29T08:15:35Z</time></trkpt><trkpt lat="40.76031214562573" lon="8.643803441394533"><ele>361.0</ele><time>2026-03-29T08:15:36Z</time></trkpt><trkpt lat="40.76024187512484" lon="8.643909318574512"><ele>361.0</ele><time>2026-03-29T08:15:37Z</time></trkpt><trkpt lat="40.76018016801797" lon="8.644022598203764"><ele>361.0</ele><time>2026-03-29T08:15:38Z</time></trkpt><trkpt lat="40.76013646817588" lon="8.644142688124669"><ele>361.0</ele><time>2026-03-29T08:15:39Z</time></trkpt><trkpt lat="40.76009845326672" lon="8.644261568396844"><ele>361.8</ele><time>2026-03-29T08:15:40Z</time></trkpt><trkpt lat="40.76007155237609" lon="8.644382515908806"><ele>362.6</ele><time>2026-03-29T08:15:41Z</time></trkpt><trkpt lat="40.76005472403231" lon="8.644512427946205"><ele>363.4</ele><time>2026-03-29T08:15:42Z</time></trkpt><trkpt lat="40.76003823940359" lon="8.644651349415819"><ele>364.2</ele><time>2026-03-29T08:15:43Z</time></trkpt><trkpt lat="40.760015800146924" lon="8.644794897520201"><ele>365.0</ele><time>2026-03-29T08:15:44Z</time></trkpt><trkpt lat="40.76000542098172" lon="8.64494121768515"><ele>365.0</ele><time>2026-03-29T08:15:45Z</time></trkpt><trkpt lat="40.75997848632595" lon="8.645074926084977"><ele>365.0</ele><time>2026-03-29T08:15:46Z</time></trkpt><trkpt lat="40.75996101131165" lon="8.64520100923218"><ele>365.0</ele><time>2026-03-29T08:15:47Z</time></trkpt><trkpt lat="40.75993637657623" lon="8.645322090300601"><ele>365.0</ele><time>2026-03-29T08:15:48Z</time></trkpt><trkpt lat="40.75991860636601" lon="8.645453416576887"><ele>365.0</ele><time>2026-03-29T08:15:49Z</time></trkpt><trkpt lat="40.75988559827202" lon="8.645591647198678"><ele>366.4</ele><time>2026-03-29T08:15:50Z</time></trkpt><trkpt lat="40.75984736346934" lon="8.645730364711616"><ele>367.8</ele><time>2026-03-29T08:15:51Z</time></trkpt><trkpt lat="40.75979189150478" lon="8.645843010841672"><ele>369.20000000000005</ele><time>2026-03-29T08:15:52Z</time></trkpt><trkpt lat="40.75975941667096" lon="8.645951501047989"><ele>370.6</ele><time>2026-03-29T08:15:53Z</time></trkpt><trkpt lat="40.75970179644594" lon="8.646032723102646"><ele>372.0</ele><time>2026-03-29T08:15:54Z</time></trkpt><trkpt lat="40.75962908268632" lon="8.646107307327775"><ele>372.8</ele><time>2026-03-29T08:15:55Z</time></trkpt><trkpt lat="40.7595417030689" lon="8.646172012072695"><ele>373.6</ele><time>2026-03-29T08:15:56Z</time></trkpt><trkpt lat="40.75944123559039" lon="8.646223985622523"><ele>374.40000000000003</ele><time>2026-03-29T08:15:57Z</time></trkpt><trkpt lat="40.75933872498021" lon="8.646281843024479"><ele>375.20000000000005</ele><time>2026-03-29T08:15:58Z</time></trkpt><trkpt lat="40.759226205951464" lon="8.64634161161604"><ele>376.0</ele><time>2026-03-29T08:15:59Z</time></trkpt><trkpt lat="40.75912238695295" lon="8.646426497015293"><ele>372.75</ele><time>2026-03-29T08:16:00Z</time></trkpt><trkpt lat="40.75902086534263" lon="8.646510091675976"><ele>369.5</ele><time>2026-03-29T08:16:01Z</time></trkpt><trkpt lat="40.75890444406661" lon="8.646573597769917"><ele>366.25</ele><time>2026-03-29T08:16:02Z</time></trkpt><trkpt lat="40.75877326824845" lon="8.646624061262074"><ele>363.0</ele><time>2026-03-29T08:16:03Z</time></trkpt><trkpt lat="40.75864385513718" lon="8.6466804061206"><ele>363.4</ele><time>2026-03-29T08:16:04Z</time></trkpt><trkpt lat="40.75852680750522" lon="8.646744214034415"><ele>363.79999999999995</ele><time>2026-03-29T08:16:05Z</time></trkpt><trkpt lat="40.75843421703015" lon="8.646827106636522"><ele>364.2</ele><time>2026-03-29T08:16:06Z</time></trkpt><trkpt lat="40.75834423615279" lon="8.646886816522306"><ele>364.6</ele><time>2026-03-29T08:16:07Z</time></trkpt><trkpt lat="40.75826434031284" lon="8.646940727026609"><ele>365.0</ele><time>2026-03-29T08:16:08Z</time></trkpt><trkpt lat="40.75819394885606" lon="8.647000001746132"><ele>365.0</ele><time>2026-03-29T08:16:09Z</time></trkpt><trkpt lat="40.7581240571214" lon="8.647060861858236"><ele>365.0</ele><time>2026-03-29T08:16:10Z</time></trkpt><trkpt lat="40.75805999819316" lon="8.647128666380809"><ele>365.0</ele><time>2026-03-29T08:16:11Z</time></trkpt><trkpt lat="40.75799861731277" lon="8.647185905544388"><ele>365.0</ele><time>2026-03-29T08:16:12Z</time></trkpt><trkpt lat="40.757935616645725" lon="8.647242078486086"><ele>365.0</ele><time>2026-03-29T08:16:13Z</time></trkpt><trkpt lat="40.75786386535381" lon="8.64727592684018"><ele>365.0</ele><time>2026-03-29T08:16:14Z</time></trkpt><trkpt lat="40.757790283391905" lon="8.647310598948293"><ele>365.0</ele><time>2026-03-29T08:16:15Z</time></trkpt><trkpt lat="40.757713761120705" lon="8.64734309550666"><ele>365.0</ele><time>2026-03-29T08:16:16Z</time></trkpt><trkpt lat="40.75763260163706" lon="8.647372522472356"><ele>365.0</ele><time>2026-03-29T08:16:17Z</time></trkpt><trkpt lat="40.7575513123499" lon="8.647399499155295"><ele>365.0</ele><time>2026-03-29T08:16:18Z</time></trkpt><trkpt lat="40.75747068665705" lon="8.64741750309377"><ele>365.0</ele><time>2026-03-29T08:16:19Z</time></trkpt><trkpt lat="40.75739645745936" lon="8.64742138990962"><ele>365.0</ele><time>2026-03-29T08:16:20Z</time></trkpt><trkpt lat="40.757326360796" lon="8.647420373019324"><ele>362.2</ele><time>2026-03-29T08:16:21Z</time></trkpt><trkpt lat="40.75724840489558" lon="8.647397067043416"><ele>359.4</ele><time>2026-03-29T08:16:22Z</time></trkpt><trkpt lat="40.75716805323668" lon="8.647355807481528"><ele>356.6</ele><time>2026-03-29T08:16:23Z</time></trkpt><trkpt lat="40.757073595641955" lon="8.647303078723883"><ele>353.8</ele><time>2026-03-29T08:16:24Z</time></trkpt><trkpt lat="40.756966383859" lon="8.6472880136954"><ele>351.0</ele><time>2026-03-29T08:16:25Z</time></trkpt><trkpt lat="40.756859791675325" lon="8.647317140168738"><ele>350.0</ele><time>2026-03-29T08:16:26Z</time></trkpt><trkpt lat="40.75676087003383" lon="8.647373404660058"><ele>349.0</ele><time>2026-03-29T08:16:27Z</time></trkpt><trkpt lat="40.75666820574227" lon="8.64745394694355"><ele>348.0</ele><time>2026-03-29T08:16:28Z</time></trkpt><trkpt lat="40.756579239115645" lon="8.647521067356973"><ele>347.0</ele><time>2026-03-29T08:16:29Z</time></trkpt><trkpt lat="40.75650776275437" lon="8.647594996669477"><ele>346.0</ele><time>2026-03-29T08:16:30Z</time></trkpt><trkpt lat="40.75645121406383" lon="8.647678367281236"><ele>346.0</ele><time>2026-03-29T08:16:31Z</time></trkpt><trkpt lat="40.756415180678616" lon="8.647784939791276"><ele>346.0</ele><time>2026-03-29T08:16:32Z</time></trkpt><trkpt lat="40.75638854096518" lon="8.647909610418733"><ele>346.0</ele><time>2026-03-29T08:16:33Z</time></trkpt><trkpt lat="40.75635016346103" lon="8.648041738178367"><ele>346.0</ele><time>2026-03-29T08:16:34Z</time></trkpt><trkpt lat="40.75629553175831" lon="8.648172022241907"><ele>346.0</ele><time>2026-03-29T08:16:35Z</time></trkpt><trkpt lat="40.7562215775346" lon="8.648288750860779"><ele>347.5</ele><time>2026-03-29T08:16:36Z</time></trkpt><trkpt lat="40.75615208266723" lon="8.648406913682281"><ele>349.0</ele><time>2026-03-29T08:16:37Z</time></trkpt><trkpt lat="40.75608566662433" lon="8.648523857077228"><ele>350.5</ele><time>2026-03-29T08:16:38Z</time></trkpt><trkpt lat="40.75601392105265" lon="8.6486419098"><ele>352.0</ele><time>2026-03-29T08:16:39Z</time></trkpt><trkpt lat="40.75592922238426" lon="8.648761605627648"><ele>354.0</ele><time>2026-03-29T08:16:40Z</time></trkpt><trkpt lat="40.75584772004328" lon="8.64889058584442"><ele>356.0</ele><time>2026-03-29T08:16:41Z</time></trkpt><trkpt lat="40.75577469059572" lon="8.649030986201753"><ele>358.0</ele><time>2026-03-29T08:16:42Z</time></trkpt><trkpt lat="40.755693787006884" lon="8.649165051560516"><ele>360.0</ele><time>2026-03-29T08:16:43Z</time></trkpt><trkpt lat="40.75562613647723" lon="8.649309834783455"><ele>360.0</ele><time>2026-03-29T08:16:44Z</time></trkpt><trkpt lat="40.755574373660316" lon="8.649458265488697"><ele>360.0</ele><time>2026-03-29T08:16:45Z</time></trkpt><trkpt lat="40.755500733066434" lon="8.649586434248786"><ele>360.0</ele><time>2026-03-29T08:16:46Z</time></trkpt><trkpt lat="40.7554354077204" lon="8.649719655603409"><ele>360.0</ele><time>2026-03-29T08:16:47Z</time></trkpt><trkpt lat="40.7553628011676" lon="8.649847212546682"><ele>362.25</ele><time>2026-03-29T08:16:48Z</time></trkpt><trkpt lat="40.755288787387855" lon="8.649978785767358"><ele>364.5</ele><time>2026-03-29T08:16:49Z</time></trkpt><trkpt lat="40.75521517150781" lon="8.650108674464954"><ele>366.75</ele><time>2026-03-29T08:16:50Z</time></trkpt><trkpt lat="40.75513361848477" lon="8.650219816556147"><ele>369.0</ele><time>2026-03-29T08:16:51Z</time></trkpt><trkpt lat="40.755084045398746" lon="8.650350926839268"><ele>371.5</ele><time>2026-03-29T08:16:52Z</time></trkpt><trkpt lat="40.75502859686518" lon="8.650458639920979"><ele>374.0</ele><time>2026-03-29T08:16:53Z</time></trkpt><trkpt lat="40.754993182946734" lon="8.650555650370459"><ele>376.5</ele><time>2026-03-29T08:16:54Z</time></trkpt><trkpt lat="40.754965197259025" lon="8.650647510219647"><ele>379.0</ele><time>2026-03-29T08:16:55Z</time></trkpt><trkpt lat="40.75495631391396" lon="8.650751342060056"><ele>381.5</ele><time>2026-03-29T08:16:56Z</time></trkpt><trkpt lat="40.75496485585829" lon="8.650871157017917"><ele>384.0</ele><time>2026-03-29T08:16:57Z</time></trkpt><trkpt lat="40.75498101335591" lon="8.650991525904873"><ele>384.0</ele><time>2026-03-29T08:16:58Z</time></trkpt><trkpt lat="40.75499170069806" lon="8.65109938986899"><ele>384.0</ele><time>2026-03-29T08:16:59Z</time></trkpt><trkpt lat="40.754986880462795" lon="8.65119113480952"><ele>384.0</ele><time>2026-03-29T08:17:00Z</time></trkpt><trkpt lat="40.75493721795127" lon="8.651251596592315"><ele>384.0</ele><time>2026-03-29T08:17:01Z</time></trkpt><trkpt lat="40.754890018423225" lon="8.651333418794325"><ele>384.0</ele><time>2026-03-29T08:17:02Z</time></trkpt><trkpt lat="40.754825150663095" lon="8.65142165030724"><ele>384.0</ele><time>2026-03-29T08:17:03Z</time></trkpt><trkpt lat="40.75477206865962" lon="8.6515379873775"><ele>386.79999999999995</ele><time>2026-03-29T08:17:04Z</time></trkpt><trkpt lat="40.7547494199597" lon="8.651673066467081"><ele>389.59999999999997</ele><time>2026-03-29T08:17:05Z</time></trkpt><trkpt lat="40.754719261927825" lon="8.651810476302648"><ele>392.4</ele><time>2026-03-29T08:17:06Z</time></trkpt><trkpt lat="40.75467375695093" lon="8.651948956883405"><ele>395.2</ele><time>2026-03-29T08:17:07Z</time></trkpt><trkpt lat="40.754665046416456" lon="8.652104672400126"><ele>398.0</ele><time>2026-03-29T08:17:08Z</time></trkpt><trkpt lat="40.754640861125864" lon="8.652258680886886"><ele>401.25</ele><time>2026-03-29T08:17:09Z</time></trkpt><trkpt lat="40.75459741829852" lon="8.652407874470494"><ele>404.5</ele><time>2026-03-29T08:17:10Z</time></trkpt><trkpt lat="40.754569940980836" lon="8.65255922513958"><ele>407.75</ele><time>2026-03-29T08:17:11Z</time></trkpt><trkpt lat="40.75453811763778" lon="8.652705919820688"><ele>411.0</ele><time>2026-03-29T08:17:12Z</time></trkpt><trkpt lat="40.75449138796281" lon="8.652857379435533"><ele>412.0</ele><time>2026-03-29T08:17:13Z</time></trkpt><trkpt lat="40.75443179020368" lon="8.653018040509895"><ele>413.0</ele><time>2026-03-29T08:17:14Z</time></trkpt><trkpt lat="40.75436567507511" lon="8.653178296881132"><ele>414.0</ele><time>2026-03-29T08:17:15Z</time></trkpt><trkpt lat="40.75429845196893" lon="8.653324916249648"><ele>415.0</ele><time>2026-03-29T08:17:16Z</time></trkpt><trkpt lat="40.754236141219295" lon="8.653474462024157"><ele>411.5</ele><time>2026-03-29T08:17:17Z</time></trkpt><trkpt lat="40.75417969787137" lon="8.653614555675453"><ele>408.0</ele><time>2026-03-29T08:17:18Z</time></trkpt><trkpt lat="40.75413317905893" lon="8.653748330336848"><ele>404.5</ele><time>2026-03-29T08:17:19Z</time></trkpt><trkpt lat="40.75411252119884" lon="8.653894760486455"><ele>401.0</ele><time>2026-03-29T08:17:20Z</time></trkpt><trkpt lat="40.75406543975243" lon="8.6540420983521"><ele>401.0</ele><time>2026-03-29T08:17:21Z</time></trkpt><trkpt lat="40.75405223273165" lon="8.654204884964075"><ele>401.0</ele><time>2026-03-29T08:17:22Z</time></trkpt><trkpt lat="40.75400389007891" lon="8.65434960854335"><ele>401.0</ele><time>2026-03-29T08:17:23Z</time></trkpt><trkpt lat="40.75396197909813" lon="8.654489328356588"><ele>401.0</ele><time>2026-03-29T08:17:24Z</time></trkpt><trkpt lat="40.75390589109092" lon="8.654615652863217"><ele>401.5</ele><time>2026-03-29T08:17:25Z</time></trkpt><trkpt lat="40.75383776933465" lon="8.65473450185567"><ele>402.0</ele><time>2026-03-29T08:17:26Z</time></trkpt><trkpt lat="40.75375036505184" lon="8.654849515521919"><ele>402.5</ele><time>2026-03-29T08:17:27Z</time></trkpt><trkpt lat="40.753665244836306" lon="8.654950113020794"><ele>403.0</ele><time>2026-03-29T08:17:28Z</time></trkpt><trkpt lat="40.75358107614577" lon="8.655040419535561"><ele>404.4</ele><time>2026-03-29T08:17:29Z</time></trkpt><trkpt lat="40.75349861754997" lon="8.655126554396732"><ele>405.79999999999995</ele><time>2026-03-29T08:17:30Z</time></trkpt><trkpt lat="40.75342040949226" lon="8.655219923095196"><ele>407.2</ele><time>2026-03-29T08:17:31Z</time></trkpt><trkpt lat="40.753349703477696" lon="8.655326207717703"><ele>408.6</ele><time>2026-03-29T08:17:32Z</time></trkpt><trkpt lat="40.75328583501526" lon="8.655443522062939"><ele>410.0</ele><time>2026-03-29T08:17:33Z</time></trkpt><trkpt lat="40.753234203729576" lon="8.655557289583365"><ele>410.8333333333333</ele><time>2026-03-29T08:17:34Z</time></trkpt><trkpt lat="40.75319555473043" lon="8.655663393102985"><ele>411.66666666666663</ele><time>2026-03-29T08:17:35Z</time></trkpt><trkpt lat="40.75317380246966" lon="8.655770158465666"><ele>412.5</ele><time>2026-03-29T08:17:36Z</time></trkpt><trkpt lat="40.75315447863259" lon="8.655881841528213"><ele>413.33333333333337</ele><time>2026-03-29T08:17:37Z</time></trkpt><trkpt lat="40.75314219081989" lon="8.655990483751534"><ele>414.1666666666667</ele><time>2026-03-29T08:17:38Z</time></trkpt><trkpt lat="40.75313318292833" lon="8.65609859787781"><ele>415.0</ele><time>2026-03-29T08:17:39Z</time></trkpt><trkpt lat="40.75313625678584" lon="8.656209132813196"><ele>415.33333333333337</ele><time>2026-03-29T08:17:40Z</time></trkpt><trkpt lat="40.75311733589409" lon="8.656314580081297"><ele>415.6666666666667</ele><time>2026-03-29T08:17:41Z</time></trkpt><trkpt lat="40.753108065798195" lon="8.656420699242613"><ele>416.0</ele><time>2026-03-29T08:17:42Z</time></trkpt><trkpt lat="40.753098430113944" lon="8.656526433385068"><ele>416.33333333333337</ele><time>2026-03-29T08:17:43Z</time></trkpt><trkpt lat="40.75310393441811" lon="8.65662935678045"><ele>416.6666666666667</ele><time>2026-03-29T08:17:44Z</time></trkpt><trkpt lat="40.753093792916474" lon="8.656728311283473"><ele>417.0</ele><time>2026-03-29T08:17:45Z</time></trkpt><trkpt lat="40.75308486053204" lon="8.656820752656651"><ele>417.0</ele><time>2026-03-29T08:17:46Z</time></trkpt><trkpt lat="40.75305881799382" lon="8.656897878264978"><ele>417.0</ele><time>2026-03-29T08:17:47Z</time></trkpt><trkpt lat="40.753016028022316" lon="8.657018471694444"><ele>417.0</ele><time>2026-03-29T08:17:49Z</time></trkpt><trkpt lat="40.75293306947511" lon="8.657040118595546"><ele>417.0</ele><time>2026-03-29T08:17:51Z</time></trkpt><trkpt lat="40.75286931575191" lon="8.656991769767185"><ele>417.0</ele><time>2026-03-29T08:17:52Z</time></trkpt><trkpt lat="40.75279559505247" lon="8.656927615260757"><ele>417.0</ele><time>2026-03-29T08:17:53Z</time></trkpt><trkpt lat="40.75271548221825" lon="8.656853248792935"><ele>416.0</ele><time>2026-03-29T08:17:54Z</time></trkpt><trkpt lat="40.75262727704876" lon="8.656796051073297"><ele>415.0</ele><time>2026-03-29T08:17:55Z</time></trkpt><trkpt lat="40.75256229316166" lon="8.656729725443462"><ele>414.0</ele><time>2026-03-29T08:17:56Z</time></trkpt><trkpt lat="40.75247097807801" lon="8.656641216624234"><ele>413.0</ele><time>2026-03-29T08:17:58Z</time></trkpt><trkpt lat="40.75239961866332" lon="8.656669264777776"><ele>412.0</ele><time>2026-03-29T08:18:00Z</time></trkpt><trkpt lat="40.75236429293214" lon="8.65681933460109"><ele>412.00000000000006</ele><time>2026-03-29T08:18:02Z</time></trkpt><trkpt lat="40.752432883038004" lon="8.65685660481743"><ele>412.0</ele><time>2026-03-29T08:18:03Z</time></trkpt><trkpt lat="40.75250668191594" lon="8.656913262710427"><ele>412.0</ele><time>2026-03-29T08:18:04Z</time></trkpt><trkpt lat="40.752586740237625" lon="8.656980031550214"><ele>412.0</ele><time>2026-03-29T08:18:05Z</time></trkpt><trkpt lat="40.752670163007316" lon="8.657045846628684"><ele>412.00000000000006</ele><time>2026-03-29T08:18:06Z</time></trkpt><trkpt lat="40.75274151362547" lon="8.657120614510154"><ele>412.0</ele><time>2026-03-29T08:18:07Z</time></trkpt><trkpt lat="40.752808438181944" lon="8.657185930140754"><ele>412.1666666666667</ele><time>2026-03-29T08:18:08Z</time></trkpt><trkpt lat="40.75286436242537" lon="8.657251056841115"><ele>412.33333333333337</ele><time>2026-03-29T08:18:09Z</time></trkpt><trkpt lat="40.75291165043222" lon="8.657328544032762"><ele>412.5</ele><time>2026-03-29T08:18:10Z</time></trkpt><trkpt lat="40.75293657618952" lon="8.657429799328963"><ele>412.66666666666663</ele><time>2026-03-29T08:18:11Z</time></trkpt><trkpt lat="40.752912802418194" lon="8.657545128533961"><ele>412.8333333333333</ele><time>2026-03-29T08:18:12Z</time></trkpt><trkpt lat="40.752904624967215" lon="8.657689497701705"><ele>413.0</ele><time>2026-03-29T08:18:13Z</time></trkpt><trkpt lat="40.75290137042538" lon="8.657829053543477"><ele>411.8333333333333</ele><time>2026-03-29T08:18:14Z</time></trkpt><trkpt lat="40.75289674250272" lon="8.657964009949577"><ele>410.66666666666663</ele><time>2026-03-29T08:18:15Z</time></trkpt><trkpt lat="40.75289235395048" lon="8.658091986048623"><ele>409.5</ele><time>2026-03-29T08:18:16Z</time></trkpt><trkpt lat="40.75288494671686" lon="8.658207402173364"><ele>408.33333333333337</ele><time>2026-03-29T08:18:17Z</time></trkpt><trkpt lat="40.75287460326044" lon="8.658308204417853"><ele>407.1666666666667</ele><time>2026-03-29T08:18:18Z</time></trkpt><trkpt lat="40.752862385359684" lon="8.658393039614117"><ele>406.0</ele><time>2026-03-29T08:18:19Z</time></trkpt><trkpt lat="40.75282868620204" lon="8.658541279613093"><ele>405.20000000000005</ele><time>2026-03-29T08:18:21Z</time></trkpt><trkpt lat="40.75282492544143" lon="8.658643710932747"><ele>404.40000000000003</ele><time>2026-03-29T08:18:22Z</time></trkpt><trkpt lat="40.75289676999991" lon="8.658791321022717"><ele>403.6</ele><time>2026-03-29T08:18:24Z</time></trkpt><trkpt lat="40.75294310422141" lon="8.658891766109123"><ele>402.8</ele><time>2026-03-29T08:18:25Z</time></trkpt><trkpt lat="40.75299615845424" lon="8.659008374906037"><ele>402.0</ele><time>2026-03-29T08:18:26Z</time></trkpt><trkpt lat="40.753025499714035" lon="8.65914956663211"><ele>402.0</ele><time>2026-03-29T08:18:27Z</time></trkpt><trkpt lat="40.753034816922344" lon="8.659302567165675"><ele>402.0</ele><time>2026-03-29T08:18:28Z</time></trkpt><trkpt lat="40.75306385916161" lon="8.659467061013922"><ele>402.0</ele><time>2026-03-29T08:18:29Z</time></trkpt><trkpt lat="40.753095055296896" lon="8.659643174329037"><ele>402.0</ele><time>2026-03-29T08:18:30Z</time></trkpt><trkpt lat="40.753126044655644" lon="8.659823510104493"><ele>400.75</ele><time>2026-03-29T08:18:31Z</time></trkpt><trkpt lat="40.75317299783906" lon="8.659997740930315"><ele>399.5</ele><time>2026-03-29T08:18:32Z</time></trkpt><trkpt lat="40.75320778484344" lon="8.660178327610078"><ele>398.25</ele><time>2026-03-29T08:18:33Z</time></trkpt><trkpt lat="40.75323316731123" lon="8.660353112504492"><ele>397.0</ele><time>2026-03-29T08:18:34Z</time></trkpt><trkpt lat="40.753259778441745" lon="8.660513395016734"><ele>397.0</ele><time>2026-03-29T08:18:35Z</time></trkpt><trkpt lat="40.75327814588771" lon="8.660675334581049"><ele>397.0</ele><time>2026-03-29T08:18:36Z</time></trkpt><trkpt lat="40.75330051241212" lon="8.66084122091549"><ele>397.0</ele><time>2026-03-29T08:18:37Z</time></trkpt><trkpt lat="40.75332910065578" lon="8.661009545454451"><ele>397.0</ele><time>2026-03-29T08:18:38Z</time></trkpt><trkpt lat="40.753366534042485" lon="8.661171487587469"><ele>396.5</ele><time>2026-03-29T08:18:39Z</time></trkpt><trkpt lat="40.753416831653944" lon="8.661323420976057"><ele>396.0</ele><time>2026-03-29T08:18:40Z</time></trkpt><trkpt lat="40.753465571175035" lon="8.661462376963213"><ele>395.5</ele><time>2026-03-29T08:18:41Z</time></trkpt><trkpt lat="40.75352598915689" lon="8.66158417056264"><ele>395.0</ele><time>2026-03-29T08:18:42Z</time></trkpt><trkpt lat="40.75359925761105" lon="8.661708007556413"><ele>395.5</ele><time>2026-03-29T08:18:43Z</time></trkpt><trkpt lat="40.75367363767172" lon="8.66184847516836"><ele>396.0</ele><time>2026-03-29T08:18:44Z</time></trkpt><trkpt lat="40.75373720116319" lon="8.662007036279869"><ele>396.5</ele><time>2026-03-29T08:18:45Z</time></trkpt><trkpt lat="40.75380741793588" lon="8.662161645682632"><ele>397.0</ele><time>2026-03-29T08:18:46Z</time></trkpt><trkpt lat="40.753884570778276" lon="8.662309666800391"><ele>397.0</ele><time>2026-03-29T08:18:47Z</time></trkpt><trkpt lat="40.75396128786445" lon="8.662450356162143"><ele>397.0</ele><time>2026-03-29T08:18:48Z</time></trkpt><trkpt lat="40.75403519973836" lon="8.662595426612658"><ele>397.0</ele><time>2026-03-29T08:18:49Z</time></trkpt><trkpt lat="40.754109475226414" lon="8.662739570357736"><ele>397.0</ele><time>2026-03-29T08:18:50Z</time></trkpt><trkpt lat="40.75417687337825" lon="8.662890928693276"><ele>396.75</ele><time>2026-03-29T08:18:51Z</time></trkpt><trkpt lat="40.754240163322685" lon="8.663041229873219"><ele>396.5</ele><time>2026-03-29T08:18:52Z</time></trkpt><trkpt lat="40.75430239719845" lon="8.663177333265448"><ele>396.25</ele><time>2026-03-29T08:18:53Z</time></trkpt><trkpt lat="40.75436442719269" lon="8.663303811756476"><ele>396.0</ele><time>2026-03-29T08:18:54Z</time></trkpt><trkpt lat="40.75439577924597" lon="8.66343622958284"><ele>396.8333333333333</ele><time>2026-03-29T08:18:55Z</time></trkpt><trkpt lat="40.754427666877014" lon="8.663550000241461"><ele>397.66666666666663</ele><time>2026-03-29T08:18:56Z</time></trkpt><trkpt lat="40.75445602981035" lon="8.663651195459497"><ele>398.5</ele><time>2026-03-29T08:18:57Z</time></trkpt><trkpt lat="40.75447882597707" lon="8.663744187811089"><ele>399.3333333333333</ele><time>2026-03-29T08:18:58Z</time></trkpt><trkpt lat="40.754501435585006" lon="8.663836116333023"><ele>400.16666666666663</ele><time>2026-03-29T08:18:59Z</time></trkpt><trkpt lat="40.75452527857129" lon="8.663925347677605"><ele>401.0</ele><time>2026-03-29T08:19:00Z</time></trkpt><trkpt lat="40.75454802720199" lon="8.664008647212581"><ele>400.99999999999994</ele><time>2026-03-29T08:19:01Z</time></trkpt><trkpt lat="40.754571521409" lon="8.66409467675199"><ele>401.0</ele><time>2026-03-29T08:19:02Z</time></trkpt><trkpt lat="40.75460039546611" lon="8.664199284484647"><ele>401.0</ele><time>2026-03-29T08:19:03Z</time></trkpt><trkpt lat="40.75463707821009" lon="8.664316730187817"><ele>401.0</ele><time>2026-03-29T08:19:04Z</time></trkpt><trkpt lat="40.754660430461904" lon="8.664444605668933"><ele>400.99999999999994</ele><time>2026-03-29T08:19:05Z</time></trkpt><trkpt lat="40.754688314651005" lon="8.66456366793305"><ele>401.0</ele><time>2026-03-29T08:19:06Z</time></trkpt><trkpt lat="40.75471769194442" lon="8.664676877766874"><ele>401.20000000000005</ele><time>2026-03-29T08:19:07Z</time></trkpt><trkpt lat="40.75474201896203" lon="8.664792992341651"><ele>401.40000000000003</ele><time>2026-03-29T08:19:08Z</time></trkpt><trkpt lat="40.75475255657131" lon="8.664919590354355"><ele>401.6</ele><time>2026-03-29T08:19:09Z</time></trkpt><trkpt lat="40.75475936914185" lon="8.665046545924396"><ele>401.8</ele><time>2026-03-29T08:19:10Z</time></trkpt><trkpt lat="40.754775613779486" lon="8.665182693595924"><ele>402.0</ele><time>2026-03-29T08:19:11Z</time></trkpt><trkpt lat="40.754802109651294" lon="8.665324405933152"><ele>402.0</ele><time>2026-03-29T08:19:12Z</time></trkpt><trkpt lat="40.754846937107885" lon="8.665461576725102"><ele>402.0</ele><time>2026-03-29T08:19:13Z</time></trkpt><trkpt lat="40.75488295593028" lon="8.665610273294902"><ele>402.0</ele><time>2026-03-29T08:19:14Z</time></trkpt><trkpt lat="40.754960617254426" lon="8.665746296201677"><ele>402.0</ele><time>2026-03-29T08:19:15Z</time></trkpt><trkpt lat="40.75503771558897" lon="8.665887018391164"><ele>402.0</ele><time>2026-03-29T08:19:16Z</time></trkpt><trkpt lat="40.755123135089804" lon="8.666015628456051"><ele>402.0</ele><time>2026-03-29T08:19:17Z</time></trkpt><trkpt lat="40.755215569532105" lon="8.666126330973693"><ele>402.0</ele><time>2026-03-29T08:19:18Z</time></trkpt><trkpt lat="40.75530431243053" lon="8.666225514892568"><ele>402.0</ele><time>2026-03-29T08:19:19Z</time></trkpt><trkpt lat="40.75538803189206" lon="8.666315987250572"><ele>404.0</ele><time>2026-03-29T08:19:20Z</time></trkpt><trkpt lat="40.755465512009344" lon="8.666399717011632"><ele>406.0</ele><time>2026-03-29T08:19:21Z</time></trkpt><trkpt lat="40.755541318663894" lon="8.666484181364343"><ele>408.0</ele><time>2026-03-29T08:19:22Z</time></trkpt><trkpt lat="40.75561171528076" lon="8.666583714965478"><ele>410.0</ele><time>2026-03-29T08:19:23Z</time></trkpt><trkpt lat="40.755674606842284" lon="8.666683620337638"><ele>412.0</ele><time>2026-03-29T08:19:24Z</time></trkpt><trkpt lat="40.75572431053038" lon="8.666805490146617"><ele>412.0</ele><time>2026-03-29T08:19:25Z</time></trkpt><trkpt lat="40.75577283357567" lon="8.666935092839616"><ele>412.0</ele><time>2026-03-29T08:19:26Z</time></trkpt><trkpt lat="40.75585276594489" lon="8.667072085270622"><ele>412.0</ele><time>2026-03-29T08:19:27Z</time></trkpt><trkpt lat="40.755899824498385" lon="8.667215807411592"><ele>412.0</ele><time>2026-03-29T08:19:28Z</time></trkpt><trkpt lat="40.755948460719935" lon="8.66736668283497"><ele>413.0</ele><time>2026-03-29T08:19:29Z</time></trkpt><trkpt lat="40.75598681066105" lon="8.667525464506518"><ele>414.0</ele><time>2026-03-29T08:19:30Z</time></trkpt><trkpt lat="40.75602295347954" lon="8.66769179254165"><ele>415.0</ele><time>2026-03-29T08:19:31Z</time></trkpt><trkpt lat="40.75605416775738" lon="8.667869396536604"><ele>416.0</ele><time>2026-03-29T08:19:32Z</time></trkpt><trkpt lat="40.7560795643882" lon="8.668057786740803"><ele>418.75</ele><time>2026-03-29T08:19:33Z</time></trkpt><trkpt lat="40.756099301626" lon="8.668242916620692"><ele>421.5</ele><time>2026-03-29T08:19:34Z</time></trkpt><trkpt lat="40.756111697800314" lon="8.668417902511543"><ele>424.25</ele><time>2026-03-29T08:19:35Z</time></trkpt><trkpt lat="40.756117949105885" lon="8.66858329832631"><ele>427.0</ele><time>2026-03-29T08:19:36Z</time></trkpt><trkpt lat="40.756123726313334" lon="8.66873615068512"><ele>427.00000000000006</ele><time>2026-03-29T08:19:37Z</time></trkpt><trkpt lat="40.75612869175277" lon="8.668867525424277"><ele>427.0</ele><time>2026-03-29T08:19:38Z</time></trkpt><trkpt lat="40.7561333107595" lon="8.668989734202878"><ele>427.0</ele><time>2026-03-29T08:19:39Z</time></trkpt><trkpt lat="40.75614951800754" lon="8.66909910179457"><ele>427.0</ele><time>2026-03-29T08:19:40Z</time></trkpt><trkpt lat="40.756145376121346" lon="8.669195552421666"><ele>427.00000000000006</ele><time>2026-03-29T08:19:41Z</time></trkpt><trkpt lat="40.75616138371999" lon="8.66927824995124"><ele>427.0</ele><time>2026-03-29T08:19:42Z</time></trkpt><trkpt lat="40.75622998181435" lon="8.669390988459941"><ele>427.00000000000006</ele><time>2026-03-29T08:19:44Z</time></trkpt><trkpt lat="40.75629382555421" lon="8.669426223873101"><ele>427.0</ele><time>2026-03-29T08:19:45Z</time></trkpt><trkpt lat="40.75633602839866" lon="8.669506730327251"><ele>427.0</ele><time>2026-03-29T08:19:46Z</time></trkpt><trkpt lat="40.756384784803366" lon="8.669600435855664"><ele>427.0</ele><time>2026-03-29T08:19:47Z</time></trkpt><trkpt lat="40.75642787954501" lon="8.669708728708367"><ele>427.00000000000006</ele><time>2026-03-29T08:19:48Z</time></trkpt><trkpt lat="40.75647408337691" lon="8.669832350100583"><ele>427.0</ele><time>2026-03-29T08:19:49Z</time></trkpt><trkpt lat="40.75653102064198" lon="8.669950764999703"><ele>427.0</ele><time>2026-03-29T08:19:50Z</time></trkpt><trkpt lat="40.7565783954285" lon="8.670064384436648"><ele>427.00000000000006</ele><time>2026-03-29T08:19:51Z</time></trkpt><trkpt lat="40.75661895223479" lon="8.670174270161054"><ele>427.00000000000006</ele><time>2026-03-29T08:19:52Z</time></trkpt><trkpt lat="40.75665506751542" lon="8.670291543329121"><ele>427.0</ele><time>2026-03-29T08:19:53Z</time></trkpt><trkpt lat="40.756671710496406" lon="8.67041699290583"><ele>427.0</ele><time>2026-03-29T08:19:54Z</time></trkpt><trkpt lat="40.75665579443876" lon="8.670539753006224"><ele>427.0</ele><time>2026-03-29T08:19:55Z</time></trkpt><trkpt lat="40.75662231145553" lon="8.670667732935556"><ele>427.0</ele><time>2026-03-29T08:19:56Z</time></trkpt><trkpt lat="40.756585713611805" lon="8.670808025728467"><ele>427.0</ele><time>2026-03-29T08:19:57Z</time></trkpt><trkpt lat="40.756544682219676" lon="8.670958281692693"><ele>427.0</ele><time>2026-03-29T08:19:58Z</time></trkpt><trkpt lat="40.75649827855047" lon="8.671125512418067"><ele>428.0</ele><time>2026-03-29T08:19:59Z</time></trkpt><trkpt lat="40.75644728846913" lon="8.671305474568408"><ele>429.0</ele><time>2026-03-29T08:20:00Z</time></trkpt><trkpt lat="40.75639383408328" lon="8.671480786308646"><ele>430.0</ele><time>2026-03-29T08:20:01Z</time></trkpt><trkpt lat="40.75633852533157" lon="8.671638702750895"><ele>431.0</ele><time>2026-03-29T08:20:02Z</time></trkpt><trkpt lat="40.756289226891234" lon="8.671790194667784"><ele>430.75</ele><time>2026-03-29T08:20:03Z</time></trkpt><trkpt lat="40.756256755670194" lon="8.671954301590041"><ele>430.5</ele><time>2026-03-29T08:20:04Z</time></trkpt><trkpt lat="40.75618937786092" lon="8.67210958333612"><ele>430.25</ele><time>2026-03-29T08:20:05Z</time></trkpt><trkpt lat="40.75612643290314" lon="8.67228472510244"><ele>430.0</ele><time>2026-03-29T08:20:06Z</time></trkpt><trkpt lat="40.75605710271735" lon="8.672467145131126"><ele>429.0</ele><time>2026-03-29T08:20:07Z</time></trkpt><trkpt lat="40.75598620901632" lon="8.672649333675253"><ele>428.0</ele><time>2026-03-29T08:20:08Z</time></trkpt><trkpt lat="40.75591095144215" lon="8.672838164688638"><ele>427.0</ele><time>2026-03-29T08:20:09Z</time></trkpt><trkpt lat="40.755844510858246" lon="8.673044407613125"><ele>427.0</ele><time>2026-03-29T08:20:10Z</time></trkpt><trkpt lat="40.755746829936335" lon="8.673218102875948"><ele>427.0</ele><time>2026-03-29T08:20:11Z</time></trkpt><trkpt lat="40.75567181722459" lon="8.673408784331738"><ele>427.0</ele><time>2026-03-29T08:20:12Z</time></trkpt><trkpt lat="40.75558066380009" lon="8.673597276449016"><ele>427.33333333333337</ele><time>2026-03-29T08:20:13Z</time></trkpt><trkpt lat="40.75550746981423" lon="8.673777750572999"><ele>427.66666666666663</ele><time>2026-03-29T08:20:14Z</time></trkpt><trkpt lat="40.75543030755495" lon="8.673969677366697"><ele>428.0</ele><time>2026-03-29T08:20:15Z</time></trkpt><trkpt lat="40.755356189316934" lon="8.674152863344368"><ele>428.0</ele><time>2026-03-29T08:20:16Z</time></trkpt><trkpt lat="40.75527281998037" lon="8.674317964869239"><ele>428.0</ele><time>2026-03-29T08:20:17Z</time></trkpt><trkpt lat="40.75522872711722" lon="8.674464845895688"><ele>428.0</ele><time>2026-03-29T08:20:18Z</time></trkpt><trkpt lat="40.75514843543307" lon="8.67466180621306"><ele>428.0</ele><time>2026-03-29T08:20:19Z</time></trkpt><trkpt lat="40.755067539766706" lon="8.674820678655202"><ele>426.75</ele><time>2026-03-29T08:20:20Z</time></trkpt><trkpt lat="40.75501673849143" lon="8.674998784910553"><ele>425.5</ele><time>2026-03-29T08:20:21Z</time></trkpt><trkpt lat="40.7549533292126" lon="8.675164835808207"><ele>424.25</ele><time>2026-03-29T08:20:22Z</time></trkpt><trkpt lat="40.75489462402422" lon="8.675315357749295"><ele>423.0</ele><time>2026-03-29T08:20:23Z</time></trkpt><trkpt lat="40.75483015078609" lon="8.67547551172483"><ele>423.0</ele><time>2026-03-29T08:20:24Z</time></trkpt><trkpt lat="40.75477956818588" lon="8.675618270875399"><ele>423.0</ele><time>2026-03-29T08:20:25Z</time></trkpt><trkpt lat="40.75473390758336" lon="8.675723262762402"><ele>423.0</ele><time>2026-03-29T08:20:26Z</time></trkpt><trkpt lat="40.754685799224944" lon="8.675866173678358"><ele>423.0</ele><time>2026-03-29T08:20:27Z</time></trkpt><trkpt lat="40.75463882507214" lon="8.67600850032224"><ele>423.0</ele><time>2026-03-29T08:20:28Z</time></trkpt><trkpt lat="40.75458490417526" lon="8.676149157617889"><ele>422.75</ele><time>2026-03-29T08:20:29Z</time></trkpt><trkpt lat="40.75452933697187" lon="8.676293149722177"><ele>422.5</ele><time>2026-03-29T08:20:30Z</time></trkpt><trkpt lat="40.75446644187398" lon="8.676416022705492"><ele>422.25</ele><time>2026-03-29T08:20:31Z</time></trkpt><trkpt lat="40.75442239445765" lon="8.676599752480278"><ele>422.0</ele><time>2026-03-29T08:20:32Z</time></trkpt><trkpt lat="40.75436107477682" lon="8.676802462896603"><ele>420.0</ele><time>2026-03-29T08:20:33Z</time></trkpt><trkpt lat="40.75429793018197" lon="8.677009979517623"><ele>418.0</ele><time>2026-03-29T08:20:34Z</time></trkpt><trkpt lat="40.75424345589512" lon="8.677189002103164"><ele>416.0</ele><time>2026-03-29T08:20:35Z</time></trkpt><trkpt lat="40.75418999261226" lon="8.677368186356533"><ele>416.0</ele><time>2026-03-29T08:20:36Z</time></trkpt><trkpt lat="40.754133892794925" lon="8.677558520960414"><ele>416.0</ele><time>2026-03-29T08:20:37Z</time></trkpt><trkpt lat="40.75407614456984" lon="8.677748359405456"><ele>416.0</ele><time>2026-03-29T08:20:38Z</time></trkpt><trkpt lat="40.75402858342058" lon="8.677902085090269"><ele>416.0</ele><time>2026-03-29T08:20:39Z</time></trkpt><trkpt lat="40.75402227270654" lon="8.678027712486047"><ele>416.16666666666663</ele><time>2026-03-29T08:20:40Z</time></trkpt><trkpt lat="40.75398712877174" lon="8.678135857562593"><ele>416.3333333333333</ele><time>2026-03-29T08:20:41Z</time></trkpt><trkpt lat="40.753947776224045" lon="8.678248428453088"><ele>416.5</ele><time>2026-03-29T08:20:42Z</time></trkpt><trkpt lat="40.75390566536934" lon="8.678357504669913"><ele>416.66666666666663</ele><time>2026-03-29T08:20:43Z</time></trkpt><trkpt lat="40.75387637259471" lon="8.678455482158652"><ele>416.8333333333333</ele><time>2026-03-29T08:20:44Z</time></trkpt><trkpt lat="40.75386406844702" lon="8.678548552071756"><ele>417.0</ele><time>2026-03-29T08:20:45Z</time></trkpt><trkpt lat="40.75381420060132" lon="8.678631296179642"><ele>416.6</ele><time>2026-03-29T08:20:46Z</time></trkpt><trkpt lat="40.75378171207583" lon="8.678713133640713"><ele>416.20000000000005</ele><time>2026-03-29T08:20:48Z</time></trkpt><trkpt lat="40.753758627929244" lon="8.678790609307764"><ele>415.8</ele><time>2026-03-29T08:21:17Z</time></trkpt><trkpt lat="40.75353411252206" lon="8.678755626525527"><ele>415.4</ele><time>2026-03-29T08:21:29Z</time></trkpt><trkpt lat="40.753599885538506" lon="8.678745294209483"><ele>415.0</ele><time>2026-03-29T08:21:40Z</time></trkpt><trkpt lat="40.75368221273804" lon="8.678726044808593"><ele>415.0</ele><time>2026-03-29T08:21:47Z</time></trkpt><trkpt lat="40.75374997166305" lon="8.678710201516639"><ele>415.0</ele><time>2026-03-29T08:21:51Z</time></trkpt><trkpt lat="40.75366833922171" lon="8.678729288590743"><ele>415.0</ele><time>2026-03-29T08:22:04Z</time></trkpt><trkpt lat="40.75359835236984" lon="8.678745652696827"><ele>415.0</ele><time>2026-03-29T08:22:07Z</time></trkpt><trkpt lat="40.75353530274285" lon="8.678745822065597"><ele>415.0</ele><time>2026-03-29T08:22:08Z</time></trkpt><trkpt lat="40.75346014694563" lon="8.678765912824236"><ele>415.0</ele><time>2026-03-29T08:22:09Z</time></trkpt><trkpt lat="40.753427135247954" lon="8.67886131180967"><ele>415.0</ele><time>2026-03-29T08:22:10Z</time></trkpt><trkpt lat="40.75336070247027" lon="8.678856796060648"><ele>415.0</ele><time>2026-03-29T08:22:11Z</time></trkpt><trkpt lat="40.75326692673356" lon="8.678884602993731"><ele>415.0</ele><time>2026-03-29T08:22:12Z</time></trkpt><trkpt lat="40.75316462590836" lon="8.67892023673864"><ele>415.0</ele><time>2026-03-29T08:22:13Z</time></trkpt><trkpt lat="40.75305285352766" lon="8.678953634634603"><ele>415.0</ele><time>2026-03-29T08:22:14Z</time></trkpt><trkpt lat="40.75294189995125" lon="8.678992924829958"><ele>415.0</ele><time>2026-03-29T08:22:15Z</time></trkpt><trkpt lat="40.75282415719941" lon="8.679044111224236"><ele>416.0</ele><time>2026-03-29T08:22:16Z</time></trkpt><trkpt lat="40.75268723251431" lon="8.679125588080629"><ele>417.0</ele><time>2026-03-29T08:22:17Z</time></trkpt><trkpt lat="40.752563759519184" lon="8.679201779197857"><ele>418.0</ele><time>2026-03-29T08:22:18Z</time></trkpt><trkpt lat="40.75245087113571" lon="8.67928838373395"><ele>419.0</ele><time>2026-03-29T08:22:19Z</time></trkpt><trkpt lat="40.75232308702812" lon="8.679357053539295"><ele>419.0</ele><time>2026-03-29T08:22:20Z</time></trkpt><trkpt lat="40.75220264581807" lon="8.679424062747243"><ele>419.0</ele><time>2026-03-29T08:22:21Z</time></trkpt><trkpt lat="40.7520901839146" lon="8.679477487830376"><ele>419.0</ele><time>2026-03-29T08:22:22Z</time></trkpt><trkpt lat="40.75198643319945" lon="8.679534188934854"><ele>419.0</ele><time>2026-03-29T08:22:23Z</time></trkpt><trkpt lat="40.75188300393028" lon="8.679608479760878"><ele>419.79999999999995</ele><time>2026-03-29T08:22:24Z</time></trkpt><trkpt lat="40.75178872286834" lon="8.679691367427234"><ele>420.59999999999997</ele><time>2026-03-29T08:22:25Z</time></trkpt><trkpt lat="40.75169472638895" lon="8.679738252266585"><ele>421.4</ele><time>2026-03-29T08:22:26Z</time></trkpt><trkpt lat="40.75160462062715" lon="8.67978126799049"><ele>422.2</ele><time>2026-03-29T08:22:27Z</time></trkpt><trkpt lat="40.75150676743109" lon="8.679836975053702"><ele>423.0</ele><time>2026-03-29T08:22:28Z</time></trkpt><trkpt lat="40.751423144806246" lon="8.679832969490317"><ele>423.0</ele><time>2026-03-29T08:22:29Z</time></trkpt><trkpt lat="40.75133972761843" lon="8.67991978832924"><ele>423.0</ele><time>2026-03-29T08:22:30Z</time></trkpt><trkpt lat="40.7512742731974" lon="8.67994984639772"><ele>423.0</ele><time>2026-03-29T08:22:31Z</time></trkpt><trkpt lat="40.75116897316259" lon="8.679932114091793"><ele>423.0</ele><time>2026-03-29T08:22:33Z</time></trkpt><trkpt lat="40.75107884374303" lon="8.679951636449754"><ele>423.0</ele><time>2026-03-29T08:22:35Z</time></trkpt><trkpt lat="40.751118845131366" lon="8.680297708062097"><ele>423.2</ele><time>2026-03-29T08:22:37Z</time></trkpt><trkpt lat="40.751118559494174" lon="8.680412750606394"><ele>423.4</ele><time>2026-03-29T08:22:38Z</time></trkpt><trkpt lat="40.751115846855186" lon="8.68053321569626"><ele>423.59999999999997</ele><time>2026-03-29T08:22:39Z</time></trkpt><trkpt lat="40.751088506958006" lon="8.680661154323362"><ele>423.79999999999995</ele><time>2026-03-29T08:22:40Z</time></trkpt><trkpt lat="40.751180127807615" lon="8.68083953188351"><ele>424.0</ele><time>2026-03-29T08:22:41Z</time></trkpt><trkpt lat="40.75114666471659" lon="8.680962107893512"><ele>424.0</ele><time>2026-03-29T08:22:42Z</time></trkpt><trkpt lat="40.75111549400652" lon="8.681068833518054"><ele>424.0</ele><time>2026-03-29T08:22:43Z</time></trkpt><trkpt lat="40.75105315990597" lon="8.68119410998664"><ele>424.0</ele><time>2026-03-29T08:22:44Z</time></trkpt><trkpt lat="40.75098810191336" lon="8.681290296569095"><ele>424.0</ele><time>2026-03-29T08:22:45Z</time></trkpt><trkpt lat="40.750904533614175" lon="8.68137763331876"><ele>424.0</ele><time>2026-03-29T08:22:46Z</time></trkpt><trkpt lat="40.75082470789619" lon="8.681464704898236"><ele>425.0</ele><time>2026-03-29T08:22:47Z</time></trkpt><trkpt lat="40.7507407934014" lon="8.681557354265067"><ele>426.0</ele><time>2026-03-29T08:22:48Z</time></trkpt><trkpt lat="40.750657729095764" lon="8.681665653086846"><ele>427.0</ele><time>2026-03-29T08:22:49Z</time></trkpt><trkpt lat="40.750572177275465" lon="8.681783481252852"><ele>428.0</ele><time>2026-03-29T08:22:50Z</time></trkpt><trkpt lat="40.7504945053726" lon="8.681911052808488"><ele>429.0</ele><time>2026-03-29T08:22:51Z</time></trkpt><trkpt lat="40.75041380444992" lon="8.682042437690923"><ele>430.0</ele><time>2026-03-29T08:22:52Z</time></trkpt><trkpt lat="40.7503305822958" lon="8.682166765309377"><ele>431.0</ele><time>2026-03-29T08:22:53Z</time></trkpt><trkpt lat="40.75023007795249" lon="8.682283845882028"><ele>432.0</ele><time>2026-03-29T08:22:54Z</time></trkpt><trkpt lat="40.75012079556109" lon="8.682369037418127"><ele>432.0</ele><time>2026-03-29T08:22:55Z</time></trkpt><trkpt lat="40.750050407307995" lon="8.682499873284666"><ele>432.0</ele><time>2026-03-29T08:22:56Z</time></trkpt><trkpt lat="40.749965398662624" lon="8.68260405119719"><ele>432.0</ele><time>2026-03-29T08:22:57Z</time></trkpt><trkpt lat="40.749863127594836" lon="8.682685054233945"><ele>432.0</ele><time>2026-03-29T08:22:58Z</time></trkpt><trkpt lat="40.74977092335782" lon="8.68279293388354"><ele>432.25</ele><time>2026-03-29T08:22:59Z</time></trkpt><trkpt lat="40.749667460745165" lon="8.682884532376228"><ele>432.5</ele><time>2026-03-29T08:23:00Z</time></trkpt><trkpt lat="40.74956236153166" lon="8.68297835821774"><ele>432.75</ele><time>2026-03-29T08:23:01Z</time></trkpt><trkpt lat="40.74944513093647" lon="8.683047687446482"><ele>433.0</ele><time>2026-03-29T08:23:02Z</time></trkpt><trkpt lat="40.749337534614774" lon="8.683127570406894"><ele>434.0</ele><time>2026-03-29T08:23:03Z</time></trkpt><trkpt lat="40.74922742561799" lon="8.683204264906447"><ele>435.0</ele><time>2026-03-29T08:23:04Z</time></trkpt><trkpt lat="40.7491228098479" lon="8.68329754617252"><ele>436.0</ele><time>2026-03-29T08:23:05Z</time></trkpt><trkpt lat="40.74900943030957" lon="8.68337109910135"><ele>437.0</ele><time>2026-03-29T08:23:06Z</time></trkpt><trkpt lat="40.74889649383983" lon="8.683450355826238"><ele>437.0</ele><time>2026-03-29T08:23:07Z</time></trkpt><trkpt lat="40.74878190748428" lon="8.68353218905298"><ele>437.0</ele><time>2026-03-29T08:23:08Z</time></trkpt><trkpt lat="40.748669361361365" lon="8.683621994109679"><ele>437.0</ele><time>2026-03-29T08:23:09Z</time></trkpt><trkpt lat="40.74855134934468" lon="8.683705722516395"><ele>437.0</ele><time>2026-03-29T08:23:10Z</time></trkpt><trkpt lat="40.74843666269467" lon="8.683794265045"><ele>435.5</ele><time>2026-03-29T08:23:11Z</time></trkpt><trkpt lat="40.74832817303567" lon="8.683875949149515"><ele>434.0</ele><time>2026-03-29T08:23:12Z</time></trkpt><trkpt lat="40.74822995763483" lon="8.683956568050037"><ele>432.5</ele><time>2026-03-29T08:23:13Z</time></trkpt><trkpt lat="40.748136530231" lon="8.68402597970768"><ele>431.0</ele><time>2026-03-29T08:23:14Z</time></trkpt><trkpt lat="40.748043069934845" lon="8.684083988372265"><ele>431.0</ele><time>2026-03-29T08:23:15Z</time></trkpt><trkpt lat="40.74794964255136" lon="8.684134202194526"><ele>431.0</ele><time>2026-03-29T08:23:16Z</time></trkpt><trkpt lat="40.747851933632255" lon="8.684158514326919"><ele>431.0</ele><time>2026-03-29T08:23:17Z</time></trkpt><trkpt lat="40.74776853013168" lon="8.684225136177508"><ele>431.0</ele><time>2026-03-29T08:23:18Z</time></trkpt><trkpt lat="40.74768721911294" lon="8.68428151914323"><ele>431.0</ele><time>2026-03-29T08:23:19Z</time></trkpt><trkpt lat="40.747617499709655" lon="8.684364632864161"><ele>432.0</ele><time>2026-03-29T08:23:20Z</time></trkpt><trkpt lat="40.74755955334802" lon="8.684481487018942"><ele>433.0</ele><time>2026-03-29T08:23:21Z</time></trkpt><trkpt lat="40.747510353812864" lon="8.68461902608709"><ele>434.0</ele><time>2026-03-29T08:23:22Z</time></trkpt><trkpt lat="40.74745797483766" lon="8.684763975403392"><ele>435.0</ele><time>2026-03-29T08:23:23Z</time></trkpt><trkpt lat="40.74740651012884" lon="8.684910111652902"><ele>435.0</ele><time>2026-03-29T08:23:24Z</time></trkpt><trkpt lat="40.74734711243319" lon="8.685054258196471"><ele>435.0</ele><time>2026-03-29T08:23:25Z</time></trkpt><trkpt lat="40.747281230186424" lon="8.68519881369475"><ele>435.0</ele><time>2026-03-29T08:23:26Z</time></trkpt><trkpt lat="40.74721194306773" lon="8.685342356274214"><ele>435.0</ele><time>2026-03-29T08:23:27Z</time></trkpt><trkpt lat="40.74714313589086" lon="8.685486609270963"><ele>435.25</ele><time>2026-03-29T08:23:28Z</time></trkpt><trkpt lat="40.747071584804424" lon="8.685633672041755"><ele>435.5</ele><time>2026-03-29T08:23:29Z</time></trkpt><trkpt lat="40.746992339439274" lon="8.685779003532195"><ele>435.75</ele><time>2026-03-29T08:23:30Z</time></trkpt><trkpt lat="40.746917473841684" lon="8.685936235573688"><ele>436.0</ele><time>2026-03-29T08:23:31Z</time></trkpt><trkpt lat="40.746836213578696" lon="8.68609507998782"><ele>435.5</ele><time>2026-03-29T08:23:32Z</time></trkpt><trkpt lat="40.74675651802738" lon="8.686256834287075"><ele>435.0</ele><time>2026-03-29T08:23:33Z</time></trkpt><trkpt lat="40.746678743872074" lon="8.686420685829368"><ele>434.5</ele><time>2026-03-29T08:23:34Z</time></trkpt><trkpt lat="40.74660321536571" lon="8.686579445197491"><ele>434.0</ele><time>2026-03-29T08:23:35Z</time></trkpt><trkpt lat="40.74654260619258" lon="8.686740837800103"><ele>434.0</ele><time>2026-03-29T08:23:36Z</time></trkpt><trkpt lat="40.746484817396585" lon="8.686900988082176"><ele>434.0</ele><time>2026-03-29T08:23:37Z</time></trkpt><trkpt lat="40.74642963345411" lon="8.68705585377551"><ele>434.0</ele><time>2026-03-29T08:23:38Z</time></trkpt><trkpt lat="40.74637548182007" lon="8.687202101086141"><ele>434.0</ele><time>2026-03-29T08:23:39Z</time></trkpt><trkpt lat="40.746321340810326" lon="8.687343473742754"><ele>433.75</ele><time>2026-03-29T08:23:40Z</time></trkpt><trkpt lat="40.74624197873114" lon="8.68746204674588"><ele>433.5</ele><time>2026-03-29T08:23:41Z</time></trkpt><trkpt lat="40.74615760236669" lon="8.687584927855116"><ele>433.25</ele><time>2026-03-29T08:23:42Z</time></trkpt><trkpt lat="40.74606520991206" lon="8.68770399331692"><ele>433.0</ele><time>2026-03-29T08:23:43Z</time></trkpt><trkpt lat="40.74596676074316" lon="8.687822449103118"><ele>433.75</ele><time>2026-03-29T08:23:44Z</time></trkpt><trkpt lat="40.74586855542441" lon="8.687949990973493"><ele>434.5</ele><time>2026-03-29T08:23:45Z</time></trkpt><trkpt lat="40.74577577513632" lon="8.68807965174464"><ele>435.25</ele><time>2026-03-29T08:23:46Z</time></trkpt><trkpt lat="40.74568793304639" lon="8.688207720194727"><ele>436.0</ele><time>2026-03-29T08:23:47Z</time></trkpt><trkpt lat="40.74560803412982" lon="8.68832879061879"><ele>436.0</ele><time>2026-03-29T08:23:48Z</time></trkpt><trkpt lat="40.74553441826687" lon="8.688433678058736"><ele>436.0</ele><time>2026-03-29T08:23:49Z</time></trkpt><trkpt lat="40.745466139880534" lon="8.688522317746324"><ele>436.0</ele><time>2026-03-29T08:23:50Z</time></trkpt><trkpt lat="40.74539264516604" lon="8.688590929967944"><ele>436.0</ele><time>2026-03-29T08:23:51Z</time></trkpt><trkpt lat="40.74531353601227" lon="8.688648989113565"><ele>436.0</ele><time>2026-03-29T08:23:52Z</time></trkpt><trkpt lat="40.74522381365614" lon="8.688704296673457"><ele>435.5</ele><time>2026-03-29T08:23:53Z</time></trkpt><trkpt lat="40.74512395103786" lon="8.688772472292163"><ele>435.0</ele><time>2026-03-29T08:23:54Z</time></trkpt><trkpt lat="40.7450283879865" lon="8.688850378029867"><ele>434.5</ele><time>2026-03-29T08:23:55Z</time></trkpt><trkpt lat="40.744929184677474" lon="8.68891690702128"><ele>434.0</ele><time>2026-03-29T08:23:56Z</time></trkpt><trkpt lat="40.74482484210422" lon="8.688979886386573"><ele>434.0</ele><time>2026-03-29T08:23:57Z</time></trkpt><trkpt lat="40.7447174913566" lon="8.689053314536785"><ele>434.0</ele><time>2026-03-29T08:23:58Z</time></trkpt><trkpt lat="40.74461192926321" lon="8.68912963237213"><ele>434.0</ele><time>2026-03-29T08:23:59Z</time></trkpt><trkpt lat="40.74450740519658" lon="8.689203030314406"><ele>434.0</ele><time>2026-03-29T08:24:00Z</time></trkpt><trkpt lat="40.74439749604402" lon="8.689279234530956"><ele>434.5</ele><time>2026-03-29T08:24:01Z</time></trkpt><trkpt lat="40.74428145707666" lon="8.689361444007869"><ele>435.0</ele><time>2026-03-29T08:24:02Z</time></trkpt><trkpt lat="40.744166907148696" lon="8.689448344825323"><ele>435.5</ele><time>2026-03-29T08:24:03Z</time></trkpt><trkpt lat="40.74405391517266" lon="8.689542167821982"><ele>436.0</ele><time>2026-03-29T08:24:04Z</time></trkpt><trkpt lat="40.74394494349573" lon="8.689646216869662"><ele>435.5</ele><time>2026-03-29T08:24:05Z</time></trkpt><trkpt lat="40.74383881094947" lon="8.689757663469342"><ele>435.0</ele><time>2026-03-29T08:24:06Z</time></trkpt><trkpt lat="40.74373237259317" lon="8.689871134392583"><ele>434.5</ele><time>2026-03-29T08:24:07Z</time></trkpt><trkpt lat="40.74363852982519" lon="8.690004182312697"><ele>434.0</ele><time>2026-03-29T08:24:08Z</time></trkpt><trkpt lat="40.743531511005855" lon="8.690098079394941"><ele>434.0</ele><time>2026-03-29T08:24:09Z</time></trkpt><trkpt lat="40.74343824317359" lon="8.69020298887852"><ele>434.0</ele><time>2026-03-29T08:24:10Z</time></trkpt><trkpt lat="40.74334471238721" lon="8.690304420842734"><ele>434.0</ele><time>2026-03-29T08:24:11Z</time></trkpt><trkpt lat="40.74324463249059" lon="8.690396047238748"><ele>434.0</ele><time>2026-03-29T08:24:12Z</time></trkpt><trkpt lat="40.74313962300368" lon="8.690484840939844"><ele>432.5</ele><time>2026-03-29T08:24:13Z</time></trkpt><trkpt lat="40.74303432311883" lon="8.690573142446569"><ele>431.0</ele><time>2026-03-29T08:24:14Z</time></trkpt><trkpt lat="40.74293164748662" lon="8.6906610581731"><ele>429.5</ele><time>2026-03-29T08:24:15Z</time></trkpt><trkpt lat="40.74283430250321" lon="8.690752032230145"><ele>428.0</ele><time>2026-03-29T08:24:16Z</time></trkpt><trkpt lat="40.742744708375874" lon="8.690839595376787"><ele>429.4</ele><time>2026-03-29T08:24:17Z</time></trkpt><trkpt lat="40.7426698023076" lon="8.69093393454646"><ele>430.79999999999995</ele><time>2026-03-29T08:24:18Z</time></trkpt><trkpt lat="40.74259520939136" lon="8.691011689720794"><ele>432.2</ele><time>2026-03-29T08:24:19Z</time></trkpt><trkpt lat="40.7425440904189" lon="8.691118423196272"><ele>433.6</ele><time>2026-03-29T08:24:20Z</time></trkpt><trkpt lat="40.74252039022855" lon="8.691246552488185"><ele>435.0</ele><time>2026-03-29T08:24:21Z</time></trkpt><trkpt lat="40.74250370384896" lon="8.691385827213871"><ele>435.5</ele><time>2026-03-29T08:24:22Z</time></trkpt><trkpt lat="40.74252722595663" lon="8.69153401623867"><ele>436.0</ele><time>2026-03-29T08:24:23Z</time></trkpt><trkpt lat="40.742635869028405" lon="8.69164597607272"><ele>436.5</ele><time>2026-03-29T08:24:24Z</time></trkpt><trkpt lat="40.742692996991956" lon="8.691788707218855"><ele>437.0</ele><time>2026-03-29T08:24:25Z</time></trkpt><trkpt lat="40.74275056985123" lon="8.69192408962126"><ele>437.0</ele><time>2026-03-29T08:24:26Z</time></trkpt><trkpt lat="40.74280709702063" lon="8.692055932560722"><ele>437.00000000000006</ele><time>2026-03-29T08:24:27Z</time></trkpt><trkpt lat="40.74285734297646" lon="8.69217312435295"><ele>437.00000000000006</ele><time>2026-03-29T08:24:28Z</time></trkpt><trkpt lat="40.7429005882011" lon="8.692277177240662"><ele>437.0</ele><time>2026-03-29T08:24:29Z</time></trkpt><trkpt lat="40.742937873336736" lon="8.692369525567491"><ele>437.0</ele><time>2026-03-29T08:24:30Z</time></trkpt><trkpt lat="40.74297461851037" lon="8.692464477829978"><ele>436.99999999999994</ele><time>2026-03-29T08:24:31Z</time></trkpt><trkpt lat="40.742999473763604" lon="8.692549498924883"><ele>437.0</ele><time>2026-03-29T08:24:32Z</time></trkpt><trkpt lat="40.74301226818291" lon="8.692633228555062"><ele>437.0</ele><time>2026-03-29T08:24:34Z</time></trkpt><trkpt lat="40.74296529657648" lon="8.69254889733935"><ele>437.0</ele><time>2026-03-29T08:24:49Z</time></trkpt><trkpt lat="40.742922366533165" lon="8.692458228946924"><ele>436.99999999999994</ele><time>2026-03-29T08:24:50Z</time></trkpt><trkpt lat="40.74287606331252" lon="8.692367962153911"><ele>437.0</ele><time>2026-03-29T08:24:51Z</time></trkpt><trkpt lat="40.74283689558472" lon="8.692274896542058"><ele>437.0</ele><time>2026-03-29T08:24:52Z</time></trkpt><trkpt lat="40.742801260205425" lon="8.692185872250057"><ele>437.0</ele><time>2026-03-29T08:24:53Z</time></trkpt><trkpt lat="40.74276228427249" lon="8.69210286974228"><ele>437.0</ele><time>2026-03-29T08:24:54Z</time></trkpt><trkpt lat="40.74272599741016" lon="8.692022449425771"><ele>437.0</ele><time>2026-03-29T08:24:55Z</time></trkpt><trkpt lat="40.74269143047799" lon="8.69194367189868"><ele>437.0</ele><time>2026-03-29T08:24:56Z</time></trkpt><trkpt lat="40.74265038860375" lon="8.691867287873933"><ele>437.0</ele><time>2026-03-29T08:24:57Z</time></trkpt><trkpt lat="40.74261170699851" lon="8.691784205626924"><ele>437.0</ele><time>2026-03-29T08:24:58Z</time></trkpt><trkpt lat="40.74258480735607" lon="8.691693437897051"><ele>437.49999999999994</ele><time>2026-03-29T08:24:59Z</time></trkpt><trkpt lat="40.74256223402828" lon="8.691608647103715"><ele>438.0</ele><time>2026-03-29T08:25:00Z</time></trkpt><trkpt lat="40.74255375452102" lon="8.691522913743325"><ele>438.5</ele><time>2026-03-29T08:25:01Z</time></trkpt><trkpt lat="40.74255540048324" lon="8.691380874112397"><ele>439.0</ele><time>2026-03-29T08:25:03Z</time></trkpt><trkpt lat="40.74254606302994" lon="8.691257313563618"><ele>439.49999999999994</ele><time>2026-03-29T08:25:05Z</time></trkpt><trkpt lat="40.74245292214105" lon="8.691254247440094"><ele>440.0</ele><time>2026-03-29T08:25:09Z</time></trkpt><trkpt lat="40.742333649380676" lon="8.691239996026832"><ele>439.99999999999994</ele><time>2026-03-29T08:25:10Z</time></trkpt><trkpt lat="40.74229569267662" lon="8.691314372116718"><ele>440.0</ele><time>2026-03-29T08:25:11Z</time></trkpt><trkpt lat="40.742254330559796" lon="8.69139542108415"><ele>440.0</ele><time>2026-03-29T08:25:12Z</time></trkpt><trkpt lat="40.742211751858314" lon="8.691468639624473"><ele>440.0</ele><time>2026-03-29T08:25:13Z</time></trkpt><trkpt lat="40.7421635989581" lon="8.691536107082689"><ele>439.99999999999994</ele><time>2026-03-29T08:25:14Z</time></trkpt><trkpt lat="40.742103174886786" lon="8.691606912267806"><ele>440.0</ele><time>2026-03-29T08:25:15Z</time></trkpt><trkpt lat="40.74203013553947" lon="8.69169320711045"><ele>440.0</ele><time>2026-03-29T08:25:16Z</time></trkpt><trkpt lat="40.74195728006682" lon="8.691784560855824"><ele>440.0</ele><time>2026-03-29T08:25:17Z</time></trkpt><trkpt lat="40.74189264823718" lon="8.69187268341647"><ele>440.0</ele><time>2026-03-29T08:25:18Z</time></trkpt><trkpt lat="40.74182965670399" lon="8.691961876164864"><ele>440.0</ele><time>2026-03-29T08:25:19Z</time></trkpt><trkpt lat="40.74176988397104" lon="8.692049396367864"><ele>440.0</ele><time>2026-03-29T08:25:20Z</time></trkpt><trkpt lat="40.74170953750126" lon="8.692142215498052"><ele>439.4</ele><time>2026-03-29T08:25:21Z</time></trkpt><trkpt lat="40.74164840133093" lon="8.692244969589371"><ele>438.8</ele><time>2026-03-29T08:25:22Z</time></trkpt><trkpt lat="40.74159224118576" lon="8.692342876522082"><ele>438.20000000000005</ele><time>2026-03-29T08:25:23Z</time></trkpt><trkpt lat="40.74154238727219" lon="8.692437626847518"><ele>437.6</ele><time>2026-03-29T08:25:24Z</time></trkpt><trkpt lat="40.741498143464106" lon="8.692536838893036"><ele>437.0</ele><time>2026-03-29T08:25:25Z</time></trkpt><trkpt lat="40.74145897648348" lon="8.69263384608161"><ele>436.99999999999994</ele><time>2026-03-29T08:25:26Z</time></trkpt><trkpt lat="40.741419958413374" lon="8.69273048434265"><ele>437.0</ele><time>2026-03-29T08:25:27Z</time></trkpt><trkpt lat="40.74137747624117" lon="8.692822254058466"><ele>437.0</ele><time>2026-03-29T08:25:28Z</time></trkpt><trkpt lat="40.74134656799993" lon="8.692921777446685"><ele>437.0</ele><time>2026-03-29T08:25:29Z</time></trkpt><trkpt lat="40.74129877524022" lon="8.693010912641698"><ele>436.99999999999994</ele><time>2026-03-29T08:25:30Z</time></trkpt><trkpt lat="40.74125226196433" lon="8.69310955336087"><ele>437.0</ele><time>2026-03-29T08:25:31Z</time></trkpt><trkpt lat="40.741197533452265" lon="8.693200315313916"><ele>437.49999999999994</ele><time>2026-03-29T08:25:32Z</time></trkpt><trkpt lat="40.741139215030024" lon="8.69327610067285"><ele>438.0</ele><time>2026-03-29T08:25:33Z</time></trkpt><trkpt lat="40.741092689503795" lon="8.693352184396753"><ele>438.5</ele><time>2026-03-29T08:25:34Z</time></trkpt><trkpt lat="40.74105351150942" lon="8.693420208125143"><ele>439.0</ele><time>2026-03-29T08:25:35Z</time></trkpt><trkpt lat="40.740977741101204" lon="8.693546539062893"><ele>439.49999999999994</ele><time>2026-03-29T08:25:37Z</time></trkpt><trkpt lat="40.74093789747821" lon="8.693612435866466"><ele>440.0</ele><time>2026-03-29T08:25:38Z</time></trkpt><trkpt lat="40.74089334968401" lon="8.693679643104728"><ele>436.49999999999994</ele><time>2026-03-29T08:25:39Z</time></trkpt><trkpt lat="40.74084308072533" lon="8.693746854723743"><ele>433.0</ele><time>2026-03-29T08:25:40Z</time></trkpt><trkpt lat="40.74079952671481" lon="8.693814707887551"><ele>429.5</ele><time>2026-03-29T08:25:41Z</time></trkpt><trkpt lat="40.740714981383476" lon="8.693899892043198"><ele>426.0</ele><time>2026-03-29T08:25:43Z</time></trkpt><trkpt lat="40.74061034621213" lon="8.693925192368738"><ele>422.49999999999994</ele><time>2026-03-29T08:25:45Z</time></trkpt><trkpt lat="40.74053721341646" lon="8.69392942995775"><ele>419.0</ele><time>2026-03-29T08:25:46Z</time></trkpt><trkpt lat="40.74047487077437" lon="8.693948504296479"><ele>418.99999999999994</ele><time>2026-03-29T08:25:47Z</time></trkpt><trkpt lat="40.74037645958656" lon="8.694055863341408"><ele>419.0</ele><time>2026-03-29T08:25:49Z</time></trkpt><trkpt lat="40.740338222338266" lon="8.694130360477269"><ele>419.0</ele><time>2026-03-29T08:25:50Z</time></trkpt><trkpt lat="40.74032234060171" lon="8.694241412766827"><ele>419.0</ele><time>2026-03-29T08:25:51Z</time></trkpt><trkpt lat="40.74027174701792" lon="8.694321876281926"><ele>418.99999999999994</ele><time>2026-03-29T08:25:52Z</time></trkpt><trkpt lat="40.74020203787879" lon="8.694369996749245"><ele>419.0</ele><time>2026-03-29T08:25:53Z</time></trkpt><trkpt lat="40.74013304956455" lon="8.694427203407773"><ele>418.16666666666663</ele><time>2026-03-29T08:25:54Z</time></trkpt><trkpt lat="40.740059815718325" lon="8.694473362051449"><ele>417.3333333333333</ele><time>2026-03-29T08:25:55Z</time></trkpt><trkpt lat="40.73999260909293" lon="8.694511322025667"><ele>416.5</ele><time>2026-03-29T08:25:56Z</time></trkpt><trkpt lat="40.73992562084185" lon="8.694544455615105"><ele>415.66666666666663</ele><time>2026-03-29T08:25:57Z</time></trkpt><trkpt lat="40.73983967310935" lon="8.694584178953201"><ele>414.8333333333333</ele><time>2026-03-29T08:25:58Z</time></trkpt><trkpt lat="40.739773662219164" lon="8.694663477448698"><ele>414.0</ele><time>2026-03-29T08:25:59Z</time></trkpt><trkpt lat="40.73972311564776" lon="8.694768385936307"><ele>414.0</ele><time>2026-03-29T08:26:00Z</time></trkpt><trkpt lat="40.739683418817" lon="8.694878901352997"><ele>414.0</ele><time>2026-03-29T08:26:01Z</time></trkpt><trkpt lat="40.739640326556966" lon="8.694993384230749"><ele>414.0</ele><time>2026-03-29T08:26:02Z</time></trkpt><trkpt lat="40.73959096281634" lon="8.695112844995638"><ele>414.0</ele><time>2026-03-29T08:26:03Z</time></trkpt><trkpt lat="40.73953979002695" lon="8.695229803508038"><ele>414.0</ele><time>2026-03-29T08:26:04Z</time></trkpt><trkpt lat="40.73948177767523" lon="8.695355842174301"><ele>412.75</ele><time>2026-03-29T08:26:05Z</time></trkpt><trkpt lat="40.73941681900066" lon="8.695479746207223"><ele>411.5</ele><time>2026-03-29T08:26:06Z</time></trkpt><trkpt lat="40.73935131204754" lon="8.69560944835031"><ele>410.25</ele><time>2026-03-29T08:26:07Z</time></trkpt><trkpt lat="40.73929343100922" lon="8.695745298849218"><ele>409.0</ele><time>2026-03-29T08:26:08Z</time></trkpt><trkpt lat="40.7392551485397" lon="8.695890022491113"><ele>412.4</ele><time>2026-03-29T08:26:09Z</time></trkpt><trkpt lat="40.739226585795414" lon="8.69602204381408"><ele>415.79999999999995</ele><time>2026-03-29T08:26:10Z</time></trkpt><trkpt lat="40.7392006751552" lon="8.696139904345017"><ele>419.20000000000005</ele><time>2026-03-29T08:26:11Z</time></trkpt><trkpt lat="40.73916028317645" lon="8.696259145650302"><ele>422.6</ele><time>2026-03-29T08:26:12Z</time></trkpt><trkpt lat="40.73911414150729" lon="8.696383972704147"><ele>426.0</ele><time>2026-03-29T08:26:13Z</time></trkpt><trkpt lat="40.739083989757006" lon="8.696505720194235"><ele>426.0</ele><time>2026-03-29T08:26:14Z</time></trkpt><trkpt lat="40.739063918696914" lon="8.69661725695564"><ele>426.0</ele><time>2026-03-29T08:26:15Z</time></trkpt><trkpt lat="40.739048163859806" lon="8.696737744274156"><ele>426.0</ele><time>2026-03-29T08:26:16Z</time></trkpt><trkpt lat="40.73903484839637" lon="8.69684428272124"><ele>426.0</ele><time>2026-03-29T08:26:17Z</time></trkpt><trkpt lat="40.73901141840862" lon="8.696954064683895"><ele>426.0</ele><time>2026-03-29T08:26:18Z</time></trkpt><trkpt lat="40.73899086525591" lon="8.697078295177201"><ele>426.0</ele><time>2026-03-29T08:26:19Z</time></trkpt><trkpt lat="40.738966576602905" lon="8.697186435388103"><ele>424.6</ele><time>2026-03-29T08:26:20Z</time></trkpt><trkpt lat="40.73894496814227" lon="8.697268261008933"><ele>423.20000000000005</ele><time>2026-03-29T08:26:21Z</time></trkpt><trkpt lat="40.73890046039419" lon="8.697374365231454"><ele>421.79999999999995</ele><time>2026-03-29T08:26:23Z</time></trkpt><trkpt lat="40.738831117827836" lon="8.697522506610534"><ele>420.4</ele><time>2026-03-29T08:26:25Z</time></trkpt><trkpt lat="40.73875996088509" lon="8.697589404980208"><ele>419.0</ele><time>2026-03-29T08:26:26Z</time></trkpt><trkpt lat="40.73870805399026" lon="8.697672768526953"><ele>418.8333333333333</ele><time>2026-03-29T08:26:27Z</time></trkpt><trkpt lat="40.73865875173044" lon="8.697753987907323"><ele>418.66666666666663</ele><time>2026-03-29T08:26:28Z</time></trkpt><trkpt lat="40.73860859615211" lon="8.697837167761485"><ele>418.5</ele><time>2026-03-29T08:26:29Z</time></trkpt><trkpt lat="40.73856394944123" lon="8.69791737539421"><ele>418.33333333333337</ele><time>2026-03-29T08:26:30Z</time></trkpt><trkpt lat="40.73852255829043" lon="8.697995697063169"><ele>418.1666666666667</ele><time>2026-03-29T08:26:31Z</time></trkpt><trkpt lat="40.73848202387472" lon="8.698072850591393"><ele>418.0</ele><time>2026-03-29T08:26:32Z</time></trkpt><trkpt lat="40.738439260851244" lon="8.69815908077584"><ele>421.00000000000006</ele><time>2026-03-29T08:26:33Z</time></trkpt><trkpt lat="40.73837004601117" lon="8.698229406660472"><ele>424.0</ele><time>2026-03-29T08:26:34Z</time></trkpt><trkpt lat="40.738298679821035" lon="8.69829428742727"><ele>427.0</ele><time>2026-03-29T08:26:35Z</time></trkpt><trkpt lat="40.73822906301138" lon="8.698356646705017"><ele>430.0</ele><time>2026-03-29T08:26:36Z</time></trkpt><trkpt lat="40.73816625681773" lon="8.698422345907149"><ele>433.00000000000006</ele><time>2026-03-29T08:26:37Z</time></trkpt><trkpt lat="40.73809760178527" lon="8.698477094666648"><ele>436.0</ele><time>2026-03-29T08:26:38Z</time></trkpt><trkpt lat="40.73804327493209" lon="8.69855903897312"><ele>435.6</ele><time>2026-03-29T08:26:39Z</time></trkpt><trkpt lat="40.73798317854069" lon="8.698654881238223"><ele>435.20000000000005</ele><time>2026-03-29T08:26:40Z</time></trkpt><trkpt lat="40.737931023947745" lon="8.698759893345493"><ele>434.79999999999995</ele><time>2026-03-29T08:26:41Z</time></trkpt><trkpt lat="40.73788534864152" lon="8.698866979259755"><ele>434.4</ele><time>2026-03-29T08:26:42Z</time></trkpt><trkpt lat="40.737828795737954" lon="8.698971645290456"><ele>434.0</ele><time>2026-03-29T08:26:43Z</time></trkpt><trkpt lat="40.73776878001444" lon="8.699076991082794"><ele>435.2</ele><time>2026-03-29T08:26:44Z</time></trkpt><trkpt lat="40.73770868216501" lon="8.699182481160896"><ele>436.4</ele><time>2026-03-29T08:26:45Z</time></trkpt><trkpt lat="40.737647767898345" lon="8.699290844821036"><ele>437.6</ele><time>2026-03-29T08:26:46Z</time></trkpt><trkpt lat="40.73759061806319" lon="8.699399239842538"><ele>438.8</ele><time>2026-03-29T08:26:47Z</time></trkpt><trkpt lat="40.73753784803963" lon="8.699509683074892"><ele>440.0</ele><time>2026-03-29T08:26:48Z</time></trkpt><trkpt lat="40.73748764111707" lon="8.699619544934517"><ele>439.99999999999994</ele><time>2026-03-29T08:26:49Z</time></trkpt><trkpt lat="40.73743932292404" lon="8.699721545411577"><ele>440.0</ele><time>2026-03-29T08:26:50Z</time></trkpt><trkpt lat="40.73739121602462" lon="8.699813539731757"><ele>440.0</ele><time>2026-03-29T08:26:51Z</time></trkpt><trkpt lat="40.73733689237317" lon="8.699901279411831"><ele>440.0</ele><time>2026-03-29T08:26:52Z</time></trkpt><trkpt lat="40.73727733117642" lon="8.699987916272708"><ele>439.99999999999994</ele><time>2026-03-29T08:26:53Z</time></trkpt><trkpt lat="40.737216048642026" lon="8.700065511301107"><ele>440.0</ele><time>2026-03-29T08:26:54Z</time></trkpt><trkpt lat="40.73716306024952" lon="8.700142608054918"><ele>439.99999999999994</ele><time>2026-03-29T08:26:55Z</time></trkpt><trkpt lat="40.737103383903026" lon="8.700204575522417"><ele>440.0</ele><time>2026-03-29T08:26:56Z</time></trkpt><trkpt lat="40.737050611668074" lon="8.70027385740609"><ele>440.0</ele><time>2026-03-29T08:26:57Z</time></trkpt><trkpt lat="40.736983049032595" lon="8.700330743980446"><ele>440.0</ele><time>2026-03-29T08:26:58Z</time></trkpt><trkpt lat="40.73691850493603" lon="8.700402368629117"><ele>439.99999999999994</ele><time>2026-03-29T08:26:59Z</time></trkpt><trkpt lat="40.73684372810993" lon="8.700466259779995"><ele>440.0</ele><time>2026-03-29T08:27:00Z</time></trkpt><trkpt lat="40.73677089653412" lon="8.70051383451429"><ele>439.49999999999994</ele><time>2026-03-29T08:27:01Z</time></trkpt><trkpt lat="40.73669822315901" lon="8.70055011125984"><ele>439.0</ele><time>2026-03-29T08:27:02Z</time></trkpt><trkpt lat="40.73662549235153" lon="8.700597807026005"><ele>438.5</ele><time>2026-03-29T08:27:03Z</time></trkpt><trkpt lat="40.736543328838174" lon="8.700610486894135"><ele>438.0</ele><time>2026-03-29T08:27:04Z</time></trkpt><trkpt lat="40.736453083527245" lon="8.7006066153139"><ele>437.49999999999994</ele><time>2026-03-29T08:27:05Z</time></trkpt><trkpt lat="40.73635517183176" lon="8.700598980698974"><ele>437.0</ele><time>2026-03-29T08:27:06Z</time></trkpt><trkpt lat="40.73625230182639" lon="8.700588859803661"><ele>436.99999999999994</ele><time>2026-03-29T08:27:07Z</time></trkpt><trkpt lat="40.736161168965516" lon="8.700571557991076"><ele>437.0</ele><time>2026-03-29T08:27:08Z</time></trkpt><trkpt lat="40.736081033045664" lon="8.700553199216907"><ele>437.0</ele><time>2026-03-29T08:27:09Z</time></trkpt><trkpt lat="40.73601465615954" lon="8.700545343194333"><ele>437.0</ele><time>2026-03-29T08:27:10Z</time></trkpt><trkpt lat="40.73588710885999" lon="8.700540523652933"><ele>436.99999999999994</ele><time>2026-03-29T08:27:12Z</time></trkpt><trkpt lat="40.7358116397833" lon="8.700539585115392"><ele>437.0</ele><time>2026-03-29T08:27:13Z</time></trkpt><trkpt lat="40.73572904154509" lon="8.700569980436779"><ele>437.3333333333333</ele><time>2026-03-29T08:27:14Z</time></trkpt><trkpt lat="40.73564496163968" lon="8.700585909526588"><ele>437.66666666666663</ele><time>2026-03-29T08:27:15Z</time></trkpt><trkpt lat="40.73556692110006" lon="8.700630167029308"><ele>438.0</ele><time>2026-03-29T08:27:16Z</time></trkpt><trkpt lat="40.735472209357404" lon="8.700644725118355"><ele>438.33333333333337</ele><time>2026-03-29T08:27:17Z</time></trkpt><trkpt lat="40.73538328967636" lon="8.700652017715228"><ele>438.6666666666667</ele><time>2026-03-29T08:27:18Z</time></trkpt><trkpt lat="40.735300114533636" lon="8.700665661807667"><ele>439.0</ele><time>2026-03-29T08:27:19Z</time></trkpt><trkpt lat="40.73522491113289" lon="8.70069511362681"><ele>439.1666666666667</ele><time>2026-03-29T08:27:20Z</time></trkpt><trkpt lat="40.735154612140725" lon="8.700735755097105"><ele>439.33333333333337</ele><time>2026-03-29T08:27:21Z</time></trkpt><trkpt lat="40.735085256705474" lon="8.700777406962052"><ele>439.5</ele><time>2026-03-29T08:27:22Z</time></trkpt><trkpt lat="40.73502043913643" lon="8.700817340054103"><ele>439.66666666666663</ele><time>2026-03-29T08:27:23Z</time></trkpt><trkpt lat="40.73495121129898" lon="8.700877375937294"><ele>439.8333333333333</ele><time>2026-03-29T08:27:24Z</time></trkpt><trkpt lat="40.73487663388752" lon="8.700955149569362"><ele>440.0</ele><time>2026-03-29T08:27:25Z</time></trkpt><trkpt lat="40.73480921500022" lon="8.701049366572056"><ele>438.6</ele><time>2026-03-29T08:27:26Z</time></trkpt><trkpt lat="40.73474980460827" lon="8.701147372666332"><ele>437.2</ele><time>2026-03-29T08:27:27Z</time></trkpt><trkpt lat="40.73469602829794" lon="8.701245437663033"><ele>435.79999999999995</ele><time>2026-03-29T08:27:28Z</time></trkpt><trkpt lat="40.734642499216754" lon="8.7013302112459"><ele>434.4</ele><time>2026-03-29T08:27:29Z</time></trkpt><trkpt lat="40.73457471441869" lon="8.701408783783947"><ele>433.0</ele><time>2026-03-29T08:27:30Z</time></trkpt><trkpt lat="40.73449925501963" lon="8.701487141348037"><ele>433.0</ele><time>2026-03-29T08:27:31Z</time></trkpt><trkpt lat="40.73442320046452" lon="8.701565920372108"><ele>432.99999999999994</ele><time>2026-03-29T08:27:32Z</time></trkpt><trkpt lat="40.73434478745582" lon="8.701642620604662"><ele>432.99999999999994</ele><time>2026-03-29T08:27:33Z</time></trkpt><trkpt lat="40.734261681002614" lon="8.701716692411816"><ele>433.0</ele><time>2026-03-29T08:27:34Z</time></trkpt><trkpt lat="40.734182604521145" lon="8.701802587509794"><ele>433.0</ele><time>2026-03-29T08:27:35Z</time></trkpt><trkpt lat="40.73410463536161" lon="8.70189929127582"><ele>432.79999999999995</ele><time>2026-03-29T08:27:36Z</time></trkpt><trkpt lat="40.734028629893395" lon="8.702017113544832"><ele>432.59999999999997</ele><time>2026-03-29T08:27:37Z</time></trkpt><trkpt lat="40.73395642862625" lon="8.702141765874748"><ele>432.40000000000003</ele><time>2026-03-29T08:27:38Z</time></trkpt><trkpt lat="40.733892191200724" lon="8.702260636318062"><ele>432.20000000000005</ele><time>2026-03-29T08:27:39Z</time></trkpt><trkpt lat="40.733839102800125" lon="8.702365298872538"><ele>432.0</ele><time>2026-03-29T08:27:40Z</time></trkpt><trkpt lat="40.73379668809118" lon="8.702456876875768"><ele>432.0</ele><time>2026-03-29T08:27:41Z</time></trkpt><trkpt lat="40.73375251043966" lon="8.702544125221062"><ele>432.00000000000006</ele><time>2026-03-29T08:27:42Z</time></trkpt><trkpt lat="40.73369785023111" lon="8.702637931901371"><ele>432.00000000000006</ele><time>2026-03-29T08:27:43Z</time></trkpt><trkpt lat="40.73361340766224" lon="8.702730225293463"><ele>432.0</ele><time>2026-03-29T08:27:44Z</time></trkpt><trkpt lat="40.73350947190231" lon="8.702810142629248"><ele>432.0</ele><time>2026-03-29T08:27:45Z</time></trkpt><trkpt lat="40.73341318327815" lon="8.702911355846298"><ele>433.0</ele><time>2026-03-29T08:27:46Z</time></trkpt><trkpt lat="40.73333576440164" lon="8.703018354537686"><ele>434.0</ele><time>2026-03-29T08:27:47Z</time></trkpt><trkpt lat="40.73326696654096" lon="8.703095471856503"><ele>435.0</ele><time>2026-03-29T08:27:48Z</time></trkpt><trkpt lat="40.73320108207838" lon="8.703160962246525"><ele>436.0</ele><time>2026-03-29T08:27:49Z</time></trkpt><trkpt lat="40.73314068732638" lon="8.703225761808854"><ele>437.0</ele><time>2026-03-29T08:27:50Z</time></trkpt><trkpt lat="40.73308898825906" lon="8.70328781257326"><ele>438.0</ele><time>2026-03-29T08:27:51Z</time></trkpt><trkpt lat="40.733029643587585" lon="8.703388195769211"><ele>438.0</ele><time>2026-03-29T08:27:53Z</time></trkpt><trkpt lat="40.732997476830626" lon="8.703469137608035"><ele>437.99999999999994</ele><time>2026-03-29T08:27:56Z</time></trkpt><trkpt lat="40.73303574510296" lon="8.70339457868752"><ele>437.99999999999994</ele><time>2026-03-29T08:28:08Z</time></trkpt><trkpt lat="40.7331132345575" lon="8.703274222574649"><ele>438.0</ele><time>2026-03-29T08:28:10Z</time></trkpt><trkpt lat="40.73317965259615" lon="8.70316313997657"><ele>438.0</ele><time>2026-03-29T08:28:12Z</time></trkpt><trkpt lat="40.733097360875036" lon="8.703249920046579"><ele>438.0</ele><time>2026-03-29T08:28:19Z</time></trkpt><trkpt lat="40.73304969393871" lon="8.703309831792724"><ele>438.0</ele><time>2026-03-29T08:28:20Z</time></trkpt><trkpt lat="40.732997823540124" lon="8.703493668925116"><ele>438.0</ele><time>2026-03-29T08:28:21Z</time></trkpt><trkpt lat="40.732902865621604" lon="8.703500857392132"><ele>438.0</ele><time>2026-03-29T08:28:23Z</time></trkpt><trkpt lat="40.732952637489184" lon="8.703247255535725"><ele>438.0</ele><time>2026-03-29T08:28:24Z</time></trkpt><trkpt lat="40.73295263748646" lon="8.703114558888986"><ele>438.0</ele><time>2026-03-29T08:28:26Z</time></trkpt><trkpt lat="40.73303409832045" lon="8.703268262312088"><ele>438.0</ele><time>2026-03-29T08:28:28Z</time></trkpt><trkpt lat="40.73272296833328" lon="8.70287076895701"><ele>438.0</ele><time>2026-03-29T08:28:30Z</time></trkpt><trkpt lat="40.73272289385289" lon="8.702780803538948"><ele>437.99999999999994</ele><time>2026-03-29T08:28:33Z</time></trkpt><trkpt lat="40.73262562551144" lon="8.702814515857561"><ele>437.99999999999994</ele><time>2026-03-29T08:28:36Z</time></trkpt><trkpt lat="40.73253714144317" lon="8.702889345177919"><ele>438.0</ele><time>2026-03-29T08:28:38Z</time></trkpt><trkpt lat="40.732448131912506" lon="8.70296623979664"><ele>438.0</ele><time>2026-03-29T08:28:40Z</time></trkpt><trkpt lat="40.73235032775736" lon="8.703049817813282"><ele>440.79999999999995</ele><time>2026-03-29T08:28:42Z</time></trkpt><trkpt lat="40.732301079692164" lon="8.703105435380229"><ele>443.59999999999997</ele><time>2026-03-29T08:28:43Z</time></trkpt><trkpt lat="40.73222910494397" lon="8.703156078110965"><ele>446.40000000000003</ele><time>2026-03-29T08:28:44Z</time></trkpt><trkpt lat="40.732141916571166" lon="8.703240156029544"><ele>449.20000000000005</ele><time>2026-03-29T08:28:45Z</time></trkpt><trkpt lat="40.732037046571314" lon="8.70334393354287"><ele>452.0</ele><time>2026-03-29T08:28:46Z</time></trkpt><trkpt lat="40.73193333216066" lon="8.703470936800521"><ele>452.6</ele><time>2026-03-29T08:28:47Z</time></trkpt><trkpt lat="40.73184133524469" lon="8.703583849332277"><ele>453.20000000000005</ele><time>2026-03-29T08:28:48Z</time></trkpt><trkpt lat="40.73176663875703" lon="8.703671037620326"><ele>453.8</ele><time>2026-03-29T08:28:49Z</time></trkpt><trkpt lat="40.73169169943444" lon="8.703739701905018"><ele>454.4</ele><time>2026-03-29T08:28:50Z</time></trkpt><trkpt lat="40.73161610026912" lon="8.703794270412661"><ele>455.0</ele><time>2026-03-29T08:28:51Z</time></trkpt><trkpt lat="40.731529478017364" lon="8.703805103911433"><ele>455.0</ele><time>2026-03-29T08:28:52Z</time></trkpt><trkpt lat="40.73143262428255" lon="8.703797683374338"><ele>455.0</ele><time>2026-03-29T08:28:53Z</time></trkpt><trkpt lat="40.731327463001776" lon="8.703738757315703"><ele>455.0</ele><time>2026-03-29T08:28:54Z</time></trkpt><trkpt lat="40.73121694627178" lon="8.70366109106037"><ele>455.0</ele><time>2026-03-29T08:28:55Z</time></trkpt><trkpt lat="40.73109939017424" lon="8.703588374025268"><ele>457.75</ele><time>2026-03-29T08:28:56Z</time></trkpt><trkpt lat="40.730976669217405" lon="8.70352932319785"><ele>460.5</ele><time>2026-03-29T08:28:57Z</time></trkpt><trkpt lat="40.73084831966273" lon="8.703472780370602"><ele>463.25</ele><time>2026-03-29T08:28:58Z</time></trkpt><trkpt lat="40.730707571579785" lon="8.703466288003586"><ele>466.0</ele><time>2026-03-29T08:28:59Z</time></trkpt><trkpt lat="40.73056681952769" lon="8.703533371839605"><ele>466.0</ele><time>2026-03-29T08:29:00Z</time></trkpt><trkpt lat="40.730410478282856" lon="8.703577648191247"><ele>466.0</ele><time>2026-03-29T08:29:01Z</time></trkpt><trkpt lat="40.73024805097274" lon="8.703615865462448"><ele>466.0</ele><time>2026-03-29T08:29:02Z</time></trkpt><trkpt lat="40.73007451536323" lon="8.703706806407814"><ele>463.0</ele><time>2026-03-29T08:29:03Z</time></trkpt><trkpt lat="40.72988139447823" lon="8.703825833662902"><ele>460.0</ele><time>2026-03-29T08:29:04Z</time></trkpt><trkpt lat="40.72969661407271" lon="8.703862644899832"><ele>457.0</ele><time>2026-03-29T08:29:05Z</time></trkpt><trkpt lat="40.72951023816651" lon="8.703902345326357"><ele>458.6666666666667</ele><time>2026-03-29T08:29:06Z</time></trkpt><trkpt lat="40.72931810563287" lon="8.70397537543921"><ele>460.33333333333337</ele><time>2026-03-29T08:29:07Z</time></trkpt><trkpt lat="40.729138398403535" lon="8.704069304858406"><ele>462.0</ele><time>2026-03-29T08:29:08Z</time></trkpt><trkpt lat="40.728966337847034" lon="8.704205544420658"><ele>462.0</ele><time>2026-03-29T08:29:09Z</time></trkpt><trkpt lat="40.72881540472487" lon="8.704348591630563"><ele>462.0</ele><time>2026-03-29T08:29:10Z</time></trkpt><trkpt lat="40.728671101549736" lon="8.704462417727093"><ele>462.0</ele><time>2026-03-29T08:29:11Z</time></trkpt><trkpt lat="40.72854673093179" lon="8.70456846614997"><ele>460.5</ele><time>2026-03-29T08:29:12Z</time></trkpt><trkpt lat="40.728425723540184" lon="8.704650515512636"><ele>459.0</ele><time>2026-03-29T08:29:13Z</time></trkpt><trkpt lat="40.728305027472764" lon="8.704713247754638"><ele>457.5</ele><time>2026-03-29T08:29:14Z</time></trkpt><trkpt lat="40.72818365813738" lon="8.704754311001906"><ele>456.0</ele><time>2026-03-29T08:29:15Z</time></trkpt><trkpt lat="40.728059456289174" lon="8.70482638153541"><ele>456.0</ele><time>2026-03-29T08:29:16Z</time></trkpt><trkpt lat="40.72793010330757" lon="8.704854628524535"><ele>456.0</ele><time>2026-03-29T08:29:17Z</time></trkpt><trkpt lat="40.72777651427516" lon="8.704858283666796"><ele>456.0</ele><time>2026-03-29T08:29:18Z</time></trkpt><trkpt lat="40.727642622082044" lon="8.704895041968648"><ele>456.0</ele><time>2026-03-29T08:29:19Z</time></trkpt><trkpt lat="40.72750179128372" lon="8.704936273355726"><ele>455.5</ele><time>2026-03-29T08:29:20Z</time></trkpt><trkpt lat="40.727361629364275" lon="8.704896622729231"><ele>455.0</ele><time>2026-03-29T08:29:21Z</time></trkpt><trkpt lat="40.72721697498533" lon="8.704881514601707"><ele>454.5</ele><time>2026-03-29T08:29:22Z</time></trkpt><trkpt lat="40.72709795884164" lon="8.70490898413176"><ele>454.0</ele><time>2026-03-29T08:29:23Z</time></trkpt><trkpt lat="40.72699110417565" lon="8.704966073074798"><ele>454.0</ele><time>2026-03-29T08:29:24Z</time></trkpt><trkpt lat="40.7269235239784" lon="8.705018600264799"><ele>454.0</ele><time>2026-03-29T08:29:25.001Z</time></trkpt><trkpt lat="40.726861123592236" lon="8.705108594150364"><ele>454.0</ele><time>2026-03-29T08:29:26.001Z</time></trkpt><trkpt lat="40.72687933952067" lon="8.705218950041708"><ele>454.0</ele><time>2026-03-29T08:29:27.001Z</time></trkpt><trkpt lat="40.726876834436645" lon="8.705380292051402"><ele>454.0</ele><time>2026-03-29T08:29:28.001Z</time></trkpt><trkpt lat="40.72687744616579" lon="8.705544298405743"><ele>454.6</ele><time>2026-03-29T08:29:29.001Z</time></trkpt><trkpt lat="40.72687744616762" lon="8.705684069723151"><ele>455.2</ele><time>2026-03-29T08:29:30.001Z</time></trkpt><trkpt lat="40.72687744616719" lon="8.705830373534514"><ele>455.80000000000007</ele><time>2026-03-29T08:29:31.001Z</time></trkpt><trkpt lat="40.72687744616496" lon="8.705983098456956"><ele>456.40000000000003</ele><time>2026-03-29T08:29:32.001Z</time></trkpt><trkpt lat="40.72687614175317" lon="8.706109985613217"><ele>457.0</ele><time>2026-03-29T08:29:33.001Z</time></trkpt><trkpt lat="40.72687259507625" lon="8.70624035700335"><ele>455.8</ele><time>2026-03-29T08:29:34.001Z</time></trkpt><trkpt lat="40.72686649676418" lon="8.70634256431898"><ele>454.6</ele><time>2026-03-29T08:29:35.001Z</time></trkpt><trkpt lat="40.72682608837728" lon="8.706508120206546"><ele>453.40000000000003</ele><time>2026-03-29T08:29:37.001Z</time></trkpt><trkpt lat="40.72675057978941" lon="8.706613967386101"><ele>452.20000000000005</ele><time>2026-03-29T08:29:38.001Z</time></trkpt><trkpt lat="40.726656590437756" lon="8.706668913558953"><ele>451.0</ele><time>2026-03-29T08:29:39.001Z</time></trkpt><trkpt lat="40.72656904983839" lon="8.706736137090099"><ele>451.0</ele><time>2026-03-29T08:29:40.001Z</time></trkpt><trkpt lat="40.72648126469782" lon="8.706720770249158"><ele>451.0</ele><time>2026-03-29T08:29:41.001Z</time></trkpt><trkpt lat="40.72636624577568" lon="8.706716291480898"><ele>451.0</ele><time>2026-03-29T08:29:42.001Z</time></trkpt><trkpt lat="40.726251842036504" lon="8.70671682827835"><ele>451.0</ele><time>2026-03-29T08:29:43.001Z</time></trkpt><trkpt lat="40.726119992921745" lon="8.706683727629938"><ele>451.0</ele><time>2026-03-29T08:29:44.001Z</time></trkpt><trkpt lat="40.72598247616727" lon="8.706670370624222"><ele>451.0</ele><time>2026-03-29T08:29:45.001Z</time></trkpt><trkpt lat="40.725835931192385" lon="8.70665613671119"><ele>451.0</ele><time>2026-03-29T08:29:46.001Z</time></trkpt><trkpt lat="40.72568804668605" lon="8.706641772702051"><ele>451.0</ele><time>2026-03-29T08:29:47.001Z</time></trkpt><trkpt lat="40.7255497379714" lon="8.706653597598333"><ele>451.0</ele><time>2026-03-29T08:29:48.001Z</time></trkpt><trkpt lat="40.7254203324524" lon="8.70666472614652"><ele>451.0</ele><time>2026-03-29T08:29:49.001Z</time></trkpt><trkpt lat="40.7253131157113" lon="8.706659372366813"><ele>451.0</ele><time>2026-03-29T08:29:50.001Z</time></trkpt><trkpt lat="40.72525610475895" lon="8.706729969169992"><ele>451.0</ele><time>2026-03-29T08:29:51.001Z</time></trkpt><trkpt lat="40.72520362695175" lon="8.706856554259524"><ele>451.0</ele><time>2026-03-29T08:29:52.001Z</time></trkpt><trkpt lat="40.725153906111174" lon="8.707041017347661"><ele>450.33333333333337</ele><time>2026-03-29T08:29:53.001Z</time></trkpt><trkpt lat="40.72511372964226" lon="8.707222456982075"><ele>449.66666666666663</ele><time>2026-03-29T08:29:54.001Z</time></trkpt><trkpt lat="40.725066083637635" lon="8.707438691596256"><ele>449.0</ele><time>2026-03-29T08:29:55.001Z</time></trkpt><trkpt lat="40.72507499073337" lon="8.707671375794229"><ele>448.0</ele><time>2026-03-29T08:29:56.001Z</time></trkpt><trkpt lat="40.725029886247384" lon="8.70790217776253"><ele>447.0</ele><time>2026-03-29T08:29:57.001Z</time></trkpt><trkpt lat="40.72496721394161" lon="8.708130217064781"><ele>446.0</ele><time>2026-03-29T08:29:58.001Z</time></trkpt><trkpt lat="40.72490909325369" lon="8.708362320312308"><ele>444.66666666666663</ele><time>2026-03-29T08:29:59.001Z</time></trkpt><trkpt lat="40.724833245634684" lon="8.708598775884338"><ele>443.33333333333337</ele><time>2026-03-29T08:30:00.001Z</time></trkpt><trkpt lat="40.72479535444194" lon="8.708853823320027"><ele>442.0</ele><time>2026-03-29T08:30:01.001Z</time></trkpt><trkpt lat="40.72473684622599" lon="8.709094970554794"><ele>442.0</ele><time>2026-03-29T08:30:02.001Z</time></trkpt><trkpt lat="40.724666698671804" lon="8.709323638315025"><ele>442.0</ele><time>2026-03-29T08:30:03.001Z</time></trkpt><trkpt lat="40.724600103387296" lon="8.709538169278595"><ele>442.0</ele><time>2026-03-29T08:30:04.001Z</time></trkpt><trkpt lat="40.724545224837286" lon="8.709776892341962"><ele>442.33333333333337</ele><time>2026-03-29T08:30:05.001Z</time></trkpt><trkpt lat="40.724494030696064" lon="8.70999048822988"><ele>442.66666666666663</ele><time>2026-03-29T08:30:06.001Z</time></trkpt><trkpt lat="40.72443619531214" lon="8.710222101670904"><ele>443.0</ele><time>2026-03-29T08:30:07.001Z</time></trkpt><trkpt lat="40.72440853271886" lon="8.710432588227048"><ele>443.59999999999997</ele><time>2026-03-29T08:30:08.001Z</time></trkpt><trkpt lat="40.72435818190028" lon="8.7105947151034"><ele>444.19999999999993</ele><time>2026-03-29T08:30:09.001Z</time></trkpt><trkpt lat="40.724326020449524" lon="8.71074774496655"><ele>444.8</ele><time>2026-03-29T08:30:10.001Z</time></trkpt><trkpt lat="40.72430556839768" lon="8.710881636463"><ele>445.4</ele><time>2026-03-29T08:30:11.001Z</time></trkpt><trkpt lat="40.72430221659088" lon="8.71097533442232"><ele>446.0</ele><time>2026-03-29T08:30:12.001Z</time></trkpt><trkpt lat="40.72432319177313" lon="8.711098360100484"><ele>446.66666666666663</ele><time>2026-03-29T08:30:14.001Z</time></trkpt><trkpt lat="40.72433394570969" lon="8.711180655817719"><ele>447.3333333333333</ele><time>2026-03-29T08:30:16.001Z</time></trkpt><trkpt lat="40.72423356117058" lon="8.711255287981423"><ele>448.0</ele><time>2026-03-29T08:30:18.001Z</time></trkpt><trkpt lat="40.72415715754998" lon="8.711246439275598"><ele>448.66666666666663</ele><time>2026-03-29T08:30:20.001Z</time></trkpt><trkpt lat="40.724070835309234" lon="8.71131846427657"><ele>449.3333333333333</ele><time>2026-03-29T08:30:22.001Z</time></trkpt><trkpt lat="40.72402419827625" lon="8.711383696822532"><ele>450.0</ele><time>2026-03-29T08:30:23.001Z</time></trkpt><trkpt lat="40.723960609647776" lon="8.711442390324972"><ele>450.0</ele><time>2026-03-29T08:30:24.001Z</time></trkpt><trkpt lat="40.723914267552644" lon="8.711534203821753"><ele>450.0</ele><time>2026-03-29T08:30:25.001Z</time></trkpt><trkpt lat="40.72387596609081" lon="8.711608196598057"><ele>450.0</ele><time>2026-03-29T08:30:26.001Z</time></trkpt><trkpt lat="40.723832415376265" lon="8.711669245169348"><ele>450.0</ele><time>2026-03-29T08:30:27.001Z</time></trkpt><trkpt lat="40.723778311116575" lon="8.711728986803749"><ele>450.0</ele><time>2026-03-29T08:30:28.001Z</time></trkpt><trkpt lat="40.72373029219389" lon="8.711868517118512"><ele>450.0</ele><time>2026-03-29T08:30:30.001Z</time></trkpt><trkpt lat="40.723722045779816" lon="8.711967129802318"><ele>450.8</ele><time>2026-03-29T08:30:31.001Z</time></trkpt><trkpt lat="40.723706529280975" lon="8.712074072506615"><ele>451.6</ele><time>2026-03-29T08:30:32.001Z</time></trkpt><trkpt lat="40.72368713782241" lon="8.712184428101253"><ele>452.4</ele><time>2026-03-29T08:30:33.001Z</time></trkpt><trkpt lat="40.72364655528136" lon="8.71229325555963"><ele>453.2</ele><time>2026-03-29T08:30:34.001Z</time></trkpt><trkpt lat="40.72360486444931" lon="8.712416116379133"><ele>454.0</ele><time>2026-03-29T08:30:35.001Z</time></trkpt><trkpt lat="40.72357595644962" lon="8.712527940781957"><ele>454.6</ele><time>2026-03-29T08:30:36.001Z</time></trkpt><trkpt lat="40.72351734022413" lon="8.712656469139288"><ele>455.2</ele><time>2026-03-29T08:30:37.001Z</time></trkpt><trkpt lat="40.723464669613335" lon="8.71278064066773"><ele>455.80000000000007</ele><time>2026-03-29T08:30:38.001Z</time></trkpt><trkpt lat="40.72342252781835" lon="8.712901515345578"><ele>456.40000000000003</ele><time>2026-03-29T08:30:39.001Z</time></trkpt><trkpt lat="40.72338384171653" lon="8.71301937705634"><ele>457.0</ele><time>2026-03-29T08:30:40.001Z</time></trkpt><trkpt lat="40.723381906305" lon="8.713119681670799"><ele>457.50000000000006</ele><time>2026-03-29T08:30:41.001Z</time></trkpt><trkpt lat="40.723378660491186" lon="8.713231108113169"><ele>458.0</ele><time>2026-03-29T08:30:42.001Z</time></trkpt><trkpt lat="40.72335255679733" lon="8.71334114448982"><ele>458.5</ele><time>2026-03-29T08:30:43.001Z</time></trkpt><trkpt lat="40.72334095445963" lon="8.71345931027657"><ele>459.0</ele><time>2026-03-29T08:30:44.001Z</time></trkpt><trkpt lat="40.723316213673115" lon="8.713567694860048"><ele>459.50000000000006</ele><time>2026-03-29T08:30:45.001Z</time></trkpt><trkpt lat="40.72328817400602" lon="8.713680283753355"><ele>460.0</ele><time>2026-03-29T08:30:46.001Z</time></trkpt><trkpt lat="40.7232421918434" lon="8.713769337791325"><ele>460.5714285714285</ele><time>2026-03-29T08:30:47.001Z</time></trkpt><trkpt lat="40.72321573648004" lon="8.713868305214138"><ele>461.1428571428571</ele><time>2026-03-29T08:30:48.001Z</time></trkpt><trkpt lat="40.723172673690115" lon="8.713940018082225"><ele>461.7142857142857</ele><time>2026-03-29T08:30:49.001Z</time></trkpt><trkpt lat="40.72311255322754" lon="8.714030004546576"><ele>462.2857142857143</ele><time>2026-03-29T08:30:51.001Z</time></trkpt><trkpt lat="40.723052185322935" lon="8.713998170835087"><ele>462.8571428571429</ele><time>2026-03-29T08:30:55.001Z</time></trkpt><trkpt lat="40.72300268640189" lon="8.713943182621957"><ele>463.4285714285715</ele><time>2026-03-29T08:30:57.001Z</time></trkpt><trkpt lat="40.72294182117692" lon="8.713890497336804"><ele>464.00000000000006</ele><time>2026-03-29T08:30:59.001Z</time></trkpt><trkpt lat="40.72284387490801" lon="8.713836099315564"><ele>463.99999999999994</ele><time>2026-03-29T08:31:01.001Z</time></trkpt><trkpt lat="40.722773688627605" lon="8.713763058944823"><ele>464.0</ele><time>2026-03-29T08:31:17.001Z</time></trkpt><trkpt lat="40.72270218617709" lon="8.713740330827816"><ele>464.0</ele><time>2026-03-29T08:31:20.001Z</time></trkpt><trkpt lat="40.72267724639325" lon="8.713641635511888"><ele>464.0</ele><time>2026-03-29T08:31:24Z</time></trkpt><trkpt lat="40.722605128875834" lon="8.713586200874053"><ele>463.99999999999994</ele><time>2026-03-29T08:31:26Z</time></trkpt><trkpt lat="40.72253394882142" lon="8.713550658456159"><ele>464.0</ele><time>2026-03-29T08:31:28Z</time></trkpt><trkpt lat="40.72246733353872" lon="8.713541716333106"><ele>465.49999999999994</ele><time>2026-03-29T08:31:30Z</time></trkpt><trkpt lat="40.722401740816665" lon="8.713546457404371"><ele>467.0</ele><time>2026-03-29T08:31:32Z</time></trkpt><trkpt lat="40.72232820522025" lon="8.713530006702785"><ele>468.5</ele><time>2026-03-29T08:31:34Z</time></trkpt><trkpt lat="40.72224444909717" lon="8.713530991286563"><ele>470.0</ele><time>2026-03-29T08:31:36Z</time></trkpt><trkpt lat="40.72216769298117" lon="8.713543409377444"><ele>471.49999999999994</ele><time>2026-03-29T08:31:38Z</time></trkpt><trkpt lat="40.72208867026102" lon="8.713537006900353"><ele>473.0</ele><time>2026-03-29T08:31:40Z</time></trkpt><trkpt lat="40.722003181092205" lon="8.713504535340453"><ele>472.99999999999994</ele><time>2026-03-29T08:31:42Z</time></trkpt><trkpt lat="40.721928195123354" lon="8.713525923853112"><ele>473.0</ele><time>2026-03-29T08:31:44Z</time></trkpt><trkpt lat="40.721857450710125" lon="8.713579777942623"><ele>473.0</ele><time>2026-03-29T08:31:46Z</time></trkpt><trkpt lat="40.72177827809999" lon="8.71361074298279"><ele>473.0</ele><time>2026-03-29T08:31:48Z</time></trkpt><trkpt lat="40.72167741964605" lon="8.7135848795175"><ele>472.99999999999994</ele><time>2026-03-29T08:31:50Z</time></trkpt><trkpt lat="40.72160044636565" lon="8.713555384922719"><ele>473.0</ele><time>2026-03-29T08:31:51Z</time></trkpt><trkpt lat="40.72165887483579" lon="8.713496454019722"><ele>474.8333333333333</ele><time>2026-03-29T08:32:07Z</time></trkpt><trkpt lat="40.72160655607872" lon="8.713428088672096"><ele>476.66666666666663</ele><time>2026-03-29T08:34:23Z</time></trkpt><trkpt lat="40.72157491227665" lon="8.71350256800571"><ele>478.5</ele><time>2026-03-29T08:34:45Z</time></trkpt><trkpt lat="40.721445420296384" lon="8.713609297367956"><ele>480.33333333333337</ele><time>2026-03-29T08:40:32Z</time></trkpt><trkpt lat="40.72138208058957" lon="8.71362794277193"><ele>482.1666666666667</ele><time>2026-03-29T08:41:02Z</time></trkpt><trkpt lat="40.72131641389348" lon="8.71365578424812"><ele>484.0</ele><time>2026-03-29T08:41:11Z</time></trkpt><trkpt lat="40.72123894536976" lon="8.713651069959761"><ele>484.00000000000006</ele><time>2026-03-29T08:41:13Z</time></trkpt><trkpt lat="40.72116639679123" lon="8.713619112201911"><ele>484.0</ele><time>2026-03-29T08:41:15Z</time></trkpt><trkpt lat="40.72109354503624" lon="8.713585210821668"><ele>484.0</ele><time>2026-03-29T08:41:17Z</time></trkpt><trkpt lat="40.72100813921455" lon="8.713565203726777"><ele>484.0</ele><time>2026-03-29T08:41:19Z</time></trkpt><trkpt lat="40.72091167846222" lon="8.713556569756399"><ele>484.00000000000006</ele><time>2026-03-29T08:41:21Z</time></trkpt><trkpt lat="40.7208097248904" lon="8.713503138667269"><ele>484.0</ele><time>2026-03-29T08:41:23Z</time></trkpt><trkpt lat="40.720719610902314" lon="8.713441539770551"><ele>484.25</ele><time>2026-03-29T08:41:25Z</time></trkpt><trkpt lat="40.72065255781353" lon="8.713183041135398"><ele>484.5</ele><time>2026-03-29T08:41:27Z</time></trkpt><trkpt lat="40.72051731448831" lon="8.713150135642897"><ele>484.75</ele><time>2026-03-29T08:41:29Z</time></trkpt><trkpt lat="40.72042802758115" lon="8.713109573652568"><ele>485.0</ele><time>2026-03-29T08:41:31Z</time></trkpt><trkpt lat="40.72036455602532" lon="8.713078885022384"><ele>484.99999999999994</ele><time>2026-03-29T08:41:32Z</time></trkpt><trkpt lat="40.720297443971305" lon="8.713050972658541"><ele>485.0</ele><time>2026-03-29T08:41:33Z</time></trkpt><trkpt lat="40.720224861322976" lon="8.713022757809323"><ele>485.0</ele><time>2026-03-29T08:41:34Z</time></trkpt><trkpt lat="40.72015793470111" lon="8.712998013028386"><ele>485.0</ele><time>2026-03-29T08:41:35Z</time></trkpt><trkpt lat="40.72003710174936" lon="8.712955238931386"><ele>484.99999999999994</ele><time>2026-03-29T08:41:37Z</time></trkpt><trkpt lat="40.71995793370315" lon="8.712929315513435"><ele>485.0</ele><time>2026-03-29T08:41:38Z</time></trkpt><trkpt lat="40.71987658926667" lon="8.712900702894526"><ele>484.4</ele><time>2026-03-29T08:41:39Z</time></trkpt><trkpt lat="40.71979352740535" lon="8.712865691370776"><ele>483.8</ele><time>2026-03-29T08:41:40Z</time></trkpt><trkpt lat="40.71970823385414" lon="8.712824311345036"><ele>483.20000000000005</ele><time>2026-03-29T08:41:41Z</time></trkpt><trkpt lat="40.719618322617265" lon="8.712789377178652"><ele>482.6</ele><time>2026-03-29T08:41:42Z</time></trkpt><trkpt lat="40.71953238487321" lon="8.71275018201045"><ele>482.0</ele><time>2026-03-29T08:41:43Z</time></trkpt><trkpt lat="40.71944816782246" lon="8.712708513160836"><ele>481.8</ele><time>2026-03-29T08:41:44Z</time></trkpt><trkpt lat="40.71936175007273" lon="8.71266575294637"><ele>481.6</ele><time>2026-03-29T08:41:45Z</time></trkpt><trkpt lat="40.71926009066744" lon="8.71264378662064"><ele>481.40000000000003</ele><time>2026-03-29T08:41:46Z</time></trkpt><trkpt lat="40.71916145185935" lon="8.712638192723166"><ele>481.20000000000005</ele><time>2026-03-29T08:41:47Z</time></trkpt><trkpt lat="40.719070888607824" lon="8.712613545877083"><ele>481.0</ele><time>2026-03-29T08:41:48Z</time></trkpt><trkpt lat="40.71898061294685" lon="8.712632558281769"><ele>481.0</ele><time>2026-03-29T08:41:49Z</time></trkpt><trkpt lat="40.71888331099213" lon="8.71263651140882"><ele>481.0</ele><time>2026-03-29T08:41:50Z</time></trkpt><trkpt lat="40.71878664585829" lon="8.712647539542614"><ele>481.0</ele><time>2026-03-29T08:41:51Z</time></trkpt><trkpt lat="40.71870544154444" lon="8.712660781206893"><ele>481.0</ele><time>2026-03-29T08:41:52Z</time></trkpt><trkpt lat="40.71862090962796" lon="8.712663591605331"><ele>481.0</ele><time>2026-03-29T08:41:53Z</time></trkpt><trkpt lat="40.71853171638777" lon="8.712665154010875"><ele>480.8</ele><time>2026-03-29T08:41:54Z</time></trkpt><trkpt lat="40.718440336419135" lon="8.712682145679993"><ele>480.6</ele><time>2026-03-29T08:41:55Z</time></trkpt><trkpt lat="40.71835158095776" lon="8.712690865471785"><ele>480.4</ele><time>2026-03-29T08:41:56Z</time></trkpt><trkpt lat="40.71825705909216" lon="8.712681715461256"><ele>480.2</ele><time>2026-03-29T08:41:57Z</time></trkpt><trkpt lat="40.71815995130281" lon="8.712690230515172"><ele>480.0</ele><time>2026-03-29T08:41:58Z</time></trkpt><trkpt lat="40.71806813268062" lon="8.712686977119018"><ele>480.0</ele><time>2026-03-29T08:41:59Z</time></trkpt><trkpt lat="40.71798061313585" lon="8.71266611021234"><ele>480.0</ele><time>2026-03-29T08:42:00Z</time></trkpt><trkpt lat="40.71789336366567" lon="8.712659642680581"><ele>480.0</ele><time>2026-03-29T08:42:01Z</time></trkpt><trkpt lat="40.717803933681346" lon="8.712650064199622"><ele>480.0</ele><time>2026-03-29T08:42:02Z</time></trkpt><trkpt lat="40.71771880325566" lon="8.712640427347505"><ele>480.0</ele><time>2026-03-29T08:42:03Z</time></trkpt><trkpt lat="40.71763858456056" lon="8.712631346512396"><ele>480.0</ele><time>2026-03-29T08:42:04Z</time></trkpt><trkpt lat="40.71755971739791" lon="8.712642087892357"><ele>480.0</ele><time>2026-03-29T08:42:05Z</time></trkpt><trkpt lat="40.71749209893545" lon="8.712634399044624"><ele>480.0</ele><time>2026-03-29T08:42:06Z</time></trkpt><trkpt lat="40.71739877149666" lon="8.712688729319062"><ele>480.0</ele><time>2026-03-29T08:42:08Z</time></trkpt><trkpt lat="40.71736665684817" lon="8.712840937438825"><ele>480.0</ele><time>2026-03-29T08:42:10Z</time></trkpt><trkpt lat="40.71738748190149" lon="8.71301550089935"><ele>480.0</ele><time>2026-03-29T08:42:12Z</time></trkpt><trkpt lat="40.717392154369975" lon="8.713122060759297"><ele>480.0</ele><time>2026-03-29T08:42:13Z</time></trkpt><trkpt lat="40.71739623237221" lon="8.713233176314988"><ele>480.0</ele><time>2026-03-29T08:42:14Z</time></trkpt><trkpt lat="40.71739777823841" lon="8.713352800699303"><ele>480.0</ele><time>2026-03-29T08:42:15Z</time></trkpt><trkpt lat="40.717395613161834" lon="8.713471818484717"><ele>480.0</ele><time>2026-03-29T08:42:16Z</time></trkpt><trkpt lat="40.717389260309076" lon="8.71359183512964"><ele>480.0</ele><time>2026-03-29T08:42:17Z</time></trkpt><trkpt lat="40.7173829707828" lon="8.713707670189088"><ele>480.0</ele><time>2026-03-29T08:42:18Z</time></trkpt><trkpt lat="40.71738315324304" lon="8.71383148569623"><ele>480.4</ele><time>2026-03-29T08:42:19Z</time></trkpt><trkpt lat="40.71738564946378" lon="8.713957332188599"><ele>480.8</ele><time>2026-03-29T08:42:20Z</time></trkpt><trkpt lat="40.71738900023047" lon="8.714084070007438"><ele>481.20000000000005</ele><time>2026-03-29T08:42:21Z</time></trkpt><trkpt lat="40.71739122406805" lon="8.714194427044498"><ele>481.6</ele><time>2026-03-29T08:42:22Z</time></trkpt><trkpt lat="40.717389830586626" lon="8.714348444743049"><ele>482.0</ele><time>2026-03-29T08:42:24Z</time></trkpt><trkpt lat="40.71737295380199" lon="8.714487949806974"><ele>482.8</ele><time>2026-03-29T08:42:26Z</time></trkpt><trkpt lat="40.717385621168084" lon="8.714640698616115"><ele>483.6</ele><time>2026-03-29T08:42:28Z</time></trkpt><trkpt lat="40.71734646532197" lon="8.71472070774073"><ele>484.40000000000003</ele><time>2026-03-29T08:42:30Z</time></trkpt><trkpt lat="40.71722954959295" lon="8.714717669671472"><ele>485.20000000000005</ele><time>2026-03-29T08:42:32Z</time></trkpt><trkpt lat="40.717129316383314" lon="8.714733441931044"><ele>486.0</ele><time>2026-03-29T08:42:33Z</time></trkpt><trkpt lat="40.71701695313546" lon="8.714755076614706"><ele>484.0</ele><time>2026-03-29T08:42:34Z</time></trkpt><trkpt lat="40.7168928842295" lon="8.714760050195267"><ele>482.0</ele><time>2026-03-29T08:42:35Z</time></trkpt><trkpt lat="40.71676347698762" lon="8.71477121994131"><ele>480.0</ele><time>2026-03-29T08:42:36Z</time></trkpt><trkpt lat="40.716637820785024" lon="8.714794173190148"><ele>478.0</ele><time>2026-03-29T08:42:37Z</time></trkpt><trkpt lat="40.71651671139885" lon="8.714818152559365"><ele>478.0</ele><time>2026-03-29T08:42:38Z</time></trkpt><trkpt lat="40.71640989977379" lon="8.714890579946292"><ele>477.99999999999994</ele><time>2026-03-29T08:42:39Z</time></trkpt><trkpt lat="40.716309132450604" lon="8.714920139679784"><ele>477.99999999999994</ele><time>2026-03-29T08:42:40Z</time></trkpt><trkpt lat="40.71621352480432" lon="8.714944771316388"><ele>478.0</ele><time>2026-03-29T08:42:41Z</time></trkpt><trkpt lat="40.71611868327622" lon="8.714953556615423"><ele>478.0</ele><time>2026-03-29T08:42:42Z</time></trkpt><trkpt lat="40.71602442055315" lon="8.71496093183581"><ele>477.2</ele><time>2026-03-29T08:42:43Z</time></trkpt><trkpt lat="40.71593134863986" lon="8.714943011096189"><ele>476.4</ele><time>2026-03-29T08:42:44Z</time></trkpt><trkpt lat="40.71583514703873" lon="8.714895048920718"><ele>475.59999999999997</ele><time>2026-03-29T08:42:45Z</time></trkpt><trkpt lat="40.71573919719201" lon="8.714844261969876"><ele>474.79999999999995</ele><time>2026-03-29T08:42:46Z</time></trkpt><trkpt lat="40.71565536584661" lon="8.71479040336572"><ele>474.0</ele><time>2026-03-29T08:42:47Z</time></trkpt><trkpt lat="40.715572633760104" lon="8.71476834291894"><ele>474.0</ele><time>2026-03-29T08:42:48Z</time></trkpt><trkpt lat="40.71548255326632" lon="8.714760891536692"><ele>474.0</ele><time>2026-03-29T08:42:49Z</time></trkpt><trkpt lat="40.71538213722795" lon="8.714754310803514"><ele>474.0</ele><time>2026-03-29T08:42:50Z</time></trkpt><trkpt lat="40.715279279643354" lon="8.714798031605476"><ele>474.0</ele><time>2026-03-29T08:42:51Z</time></trkpt><trkpt lat="40.715183977381336" lon="8.714803616510476"><ele>474.0</ele><time>2026-03-29T08:42:52Z</time></trkpt><trkpt lat="40.715106163788946" lon="8.714807377930425"><ele>474.0</ele><time>2026-03-29T08:42:53Z</time></trkpt><trkpt lat="40.715014744405586" lon="8.714827688080161"><ele>474.0</ele><time>2026-03-29T08:42:55Z</time></trkpt><trkpt lat="40.71495197374254" lon="8.714854918801914"><ele>474.0</ele><time>2026-03-29T08:42:57Z</time></trkpt><trkpt lat="40.7148726867208" lon="8.714870607340348"><ele>474.0</ele><time>2026-03-29T08:42:59Z</time></trkpt><trkpt lat="40.714807568082875" lon="8.714901290610388"><ele>474.0</ele><time>2026-03-29T08:43:00Z</time></trkpt><trkpt lat="40.714731645726786" lon="8.714943178068328"><ele>474.0</ele><time>2026-03-29T08:43:01Z</time></trkpt><trkpt lat="40.71465467538749" lon="8.714982951683446"><ele>474.0</ele><time>2026-03-29T08:43:02Z</time></trkpt><trkpt lat="40.71457597189646" lon="8.715013922630074"><ele>474.0</ele><time>2026-03-29T08:43:03Z</time></trkpt><trkpt lat="40.71448922797354" lon="8.715046241943572"><ele>474.0</ele><time>2026-03-29T08:43:04Z</time></trkpt><trkpt lat="40.71440145254656" lon="8.715078945656236"><ele>474.0</ele><time>2026-03-29T08:43:05Z</time></trkpt><trkpt lat="40.714319040468965" lon="8.7151135017535"><ele>474.0</ele><time>2026-03-29T08:43:06Z</time></trkpt><trkpt lat="40.714237442695996" lon="8.715158020971806"><ele>474.0</ele><time>2026-03-29T08:43:07Z</time></trkpt><trkpt lat="40.71415703132037" lon="8.71520939189918"><ele>473.99999999999994</ele><time>2026-03-29T08:43:08Z</time></trkpt><trkpt lat="40.71409081952794" lon="8.715261464299653"><ele>474.0</ele><time>2026-03-29T08:43:09Z</time></trkpt><trkpt lat="40.71403738478884" lon="8.715311875390446"><ele>473.99999999999994</ele><time>2026-03-29T08:43:10Z</time></trkpt><trkpt lat="40.713996239215284" lon="8.715382161523097"><ele>473.99999999999994</ele><time>2026-03-29T08:43:11Z</time></trkpt><trkpt lat="40.713947751893244" lon="8.715442375534993"><ele>474.0</ele><time>2026-03-29T08:43:12Z</time></trkpt><trkpt lat="40.71389566840417" lon="8.715503741070204"><ele>473.99999999999994</ele><time>2026-03-29T08:43:13Z</time></trkpt><trkpt lat="40.71384528169992" lon="8.715570107092008"><ele>473.99999999999994</ele><time>2026-03-29T08:43:14Z</time></trkpt><trkpt lat="40.71379329595247" lon="8.715639020227263"><ele>474.0</ele><time>2026-03-29T08:43:15Z</time></trkpt><trkpt lat="40.71372194423105" lon="8.715691197364874"><ele>474.0</ele><time>2026-03-29T08:43:16Z</time></trkpt><trkpt lat="40.713630878830394" lon="8.715694011632575"><ele>474.0</ele><time>2026-03-29T08:43:17Z</time></trkpt><trkpt lat="40.713536110842625" lon="8.715721304554723"><ele>474.0</ele><time>2026-03-29T08:43:18Z</time></trkpt><trkpt lat="40.71344215887525" lon="8.715754719886784"><ele>474.0</ele><time>2026-03-29T08:43:19Z</time></trkpt><trkpt lat="40.71334841704072" lon="8.715791821811505"><ele>473.2</ele><time>2026-03-29T08:43:20Z</time></trkpt><trkpt lat="40.713254831034206" lon="8.715839402759038"><ele>472.4</ele><time>2026-03-29T08:43:21Z</time></trkpt><trkpt lat="40.713155628126785" lon="8.715839800939026"><ele>471.6</ele><time>2026-03-29T08:43:22Z</time></trkpt><trkpt lat="40.71305913934022" lon="8.715857901199959"><ele>470.8</ele><time>2026-03-29T08:43:23Z</time></trkpt><trkpt lat="40.7129636232395" lon="8.715898838725563"><ele>470.0</ele><time>2026-03-29T08:43:24Z</time></trkpt><trkpt lat="40.712867430290224" lon="8.715932192018558"><ele>470.0</ele><time>2026-03-29T08:43:25Z</time></trkpt><trkpt lat="40.71277631430942" lon="8.715991575347342"><ele>470.0</ele><time>2026-03-29T08:43:26Z</time></trkpt><trkpt lat="40.7126806653717" lon="8.716049442429894"><ele>470.0</ele><time>2026-03-29T08:43:27Z</time></trkpt><trkpt lat="40.71259016547818" lon="8.716109480531491"><ele>470.0</ele><time>2026-03-29T08:43:28Z</time></trkpt><trkpt lat="40.71250359204126" lon="8.716160976051805"><ele>470.0</ele><time>2026-03-29T08:43:29Z</time></trkpt><trkpt lat="40.71241578155233" lon="8.716208374667"><ele>470.25</ele><time>2026-03-29T08:43:30Z</time></trkpt><trkpt lat="40.71231193897192" lon="8.716204784532232"><ele>470.5</ele><time>2026-03-29T08:43:31Z</time></trkpt><trkpt lat="40.71219331028979" lon="8.71621620322045"><ele>470.75</ele><time>2026-03-29T08:43:32Z</time></trkpt><trkpt lat="40.71206868033629" lon="8.716250910887037"><ele>471.0</ele><time>2026-03-29T08:43:33Z</time></trkpt><trkpt lat="40.711940753439556" lon="8.716294089091619"><ele>471.25</ele><time>2026-03-29T08:43:34Z</time></trkpt><trkpt lat="40.71181051290473" lon="8.716335423607216"><ele>471.5</ele><time>2026-03-29T08:43:35Z</time></trkpt><trkpt lat="40.711684978818944" lon="8.71637341617577"><ele>471.75</ele><time>2026-03-29T08:43:36Z</time></trkpt><trkpt lat="40.711559296525046" lon="8.716406279906174"><ele>472.0</ele><time>2026-03-29T08:43:37Z</time></trkpt><trkpt lat="40.71143780419399" lon="8.716449122747035"><ele>472.0</ele><time>2026-03-29T08:43:38Z</time></trkpt><trkpt lat="40.711320319335215" lon="8.716504010273407"><ele>472.0</ele><time>2026-03-29T08:43:39Z</time></trkpt><trkpt lat="40.71120773225626" lon="8.716569915228927"><ele>472.0</ele><time>2026-03-29T08:43:40Z</time></trkpt><trkpt lat="40.71109599690909" lon="8.716638542443041"><ele>472.0</ele><time>2026-03-29T08:43:41Z</time></trkpt><trkpt lat="40.710985750501415" lon="8.716706255135565"><ele>472.25</ele><time>2026-03-29T08:43:42Z</time></trkpt><trkpt lat="40.71087997203572" lon="8.716787653167277"><ele>472.5</ele><time>2026-03-29T08:43:43Z</time></trkpt><trkpt lat="40.71077083335393" lon="8.716863910485987"><ele>472.75</ele><time>2026-03-29T08:43:44Z</time></trkpt><trkpt lat="40.71065644426772" lon="8.716922785898742"><ele>473.0</ele><time>2026-03-29T08:43:45Z</time></trkpt><trkpt lat="40.71055117198123" lon="8.71700716561217"><ele>473.4</ele><time>2026-03-29T08:43:46Z</time></trkpt><trkpt lat="40.710444095341266" lon="8.717069343574275"><ele>473.79999999999995</ele><time>2026-03-29T08:43:47Z</time></trkpt><trkpt lat="40.71034518748741" lon="8.7171319981783"><ele>474.2</ele><time>2026-03-29T08:43:48Z</time></trkpt><trkpt lat="40.71024995248803" lon="8.71719213728535"><ele>474.6</ele><time>2026-03-29T08:43:49Z</time></trkpt><trkpt lat="40.710153031976844" lon="8.717240344437593"><ele>475.0</ele><time>2026-03-29T08:43:50Z</time></trkpt><trkpt lat="40.71005179681924" lon="8.717255765704694"><ele>475.2</ele><time>2026-03-29T08:43:51Z</time></trkpt><trkpt lat="40.70995835842388" lon="8.717322839426211"><ele>475.4</ele><time>2026-03-29T08:43:52Z</time></trkpt><trkpt lat="40.709884305237104" lon="8.717420190314867"><ele>475.6</ele><time>2026-03-29T08:43:53Z</time></trkpt><trkpt lat="40.709796032703004" lon="8.717497046592836"><ele>475.8</ele><time>2026-03-29T08:43:54Z</time></trkpt><trkpt lat="40.70968383480171" lon="8.71752450126815"><ele>476.0</ele><time>2026-03-29T08:43:55Z</time></trkpt><trkpt lat="40.70957857154095" lon="8.717584789975213"><ele>476.0</ele><time>2026-03-29T08:43:56Z</time></trkpt><trkpt lat="40.70947787369267" lon="8.717654956608358"><ele>476.0</ele><time>2026-03-29T08:43:57Z</time></trkpt><trkpt lat="40.70937995054634" lon="8.717728783331518"><ele>476.0</ele><time>2026-03-29T08:43:58Z</time></trkpt><trkpt lat="40.70928013187526" lon="8.717809519056283"><ele>476.0</ele><time>2026-03-29T08:43:59Z</time></trkpt><trkpt lat="40.709183956498194" lon="8.717903787481811"><ele>476.75</ele><time>2026-03-29T08:44:00Z</time></trkpt><trkpt lat="40.709088102583515" lon="8.717997712854311"><ele>477.5</ele><time>2026-03-29T08:44:01Z</time></trkpt><trkpt lat="40.708986083202944" lon="8.71808506557292"><ele>478.25</ele><time>2026-03-29T08:44:02Z</time></trkpt><trkpt lat="40.70888594069192" lon="8.718169697646495"><ele>479.0</ele><time>2026-03-29T08:44:03Z</time></trkpt><trkpt lat="40.70879481884447" lon="8.718244471464132"><ele>479.0</ele><time>2026-03-29T08:44:04Z</time></trkpt><trkpt lat="40.70870963566181" lon="8.71831554728915"><ele>479.0</ele><time>2026-03-29T08:44:05Z</time></trkpt><trkpt lat="40.708628707308314" lon="8.718395660896409"><ele>479.0</ele><time>2026-03-29T08:44:06Z</time></trkpt><trkpt lat="40.70855913646863" lon="8.71848829615918"><ele>479.0</ele><time>2026-03-29T08:44:07.001Z</time></trkpt><trkpt lat="40.708491733782715" lon="8.71858053716227"><ele>479.0</ele><time>2026-03-29T08:44:08.001Z</time></trkpt><trkpt lat="40.708424380178855" lon="8.718667559248672"><ele>479.8333333333333</ele><time>2026-03-29T08:44:09.001Z</time></trkpt><trkpt lat="40.708360701560395" lon="8.71874561880046"><ele>480.66666666666663</ele><time>2026-03-29T08:44:10.001Z</time></trkpt><trkpt lat="40.708298988658356" lon="8.71881052600665"><ele>481.5</ele><time>2026-03-29T08:44:11.001Z</time></trkpt><trkpt lat="40.70823484020289" lon="8.718865636452092"><ele>482.33333333333337</ele><time>2026-03-29T08:44:12.001Z</time></trkpt><trkpt lat="40.70816890614661" lon="8.718901614639604"><ele>483.1666666666667</ele><time>2026-03-29T08:44:13.001Z</time></trkpt><trkpt lat="40.708067408069226" lon="8.718929202736165"><ele>484.0</ele><time>2026-03-29T08:44:15.001Z</time></trkpt><trkpt lat="40.70799495006774" lon="8.718904400327371"><ele>484.0</ele><time>2026-03-29T08:44:16.001Z</time></trkpt><trkpt lat="40.7079170956567" lon="8.718861848796056"><ele>483.99999999999994</ele><time>2026-03-29T08:44:17.001Z</time></trkpt><trkpt lat="40.70784893420124" lon="8.718812663112612"><ele>484.0</ele><time>2026-03-29T08:44:18.001Z</time></trkpt><trkpt lat="40.70779151919473" lon="8.718771232092699"><ele>484.0</ele><time>2026-03-29T08:44:19.001Z</time></trkpt><trkpt lat="40.70772044134563" lon="8.718748198983308"><ele>483.99999999999994</ele><time>2026-03-29T08:44:20.001Z</time></trkpt><trkpt lat="40.707651918027516" lon="8.718704721464551"><ele>484.0</ele><time>2026-03-29T08:44:21.001Z</time></trkpt><trkpt lat="40.707587204888384" lon="8.718663726533448"><ele>484.0</ele><time>2026-03-29T08:44:22.001Z</time></trkpt><trkpt lat="40.70745650872278" lon="8.718666048639239"><ele>484.2857142857143</ele><time>2026-03-29T08:44:24.001Z</time></trkpt><trkpt lat="40.707441987077196" lon="8.71874988917399"><ele>484.57142857142856</ele><time>2026-03-29T08:44:25.001Z</time></trkpt><trkpt lat="40.707404990704575" lon="8.718820427164594"><ele>484.85714285714283</ele><time>2026-03-29T08:44:26.001Z</time></trkpt><trkpt lat="40.70737850586471" lon="8.71890932569173"><ele>485.1428571428571</ele><time>2026-03-29T08:44:27.001Z</time></trkpt><trkpt lat="40.70735639033497" lon="8.71900488431541"><ele>485.42857142857144</ele><time>2026-03-29T08:44:28.001Z</time></trkpt><trkpt lat="40.70734071670843" lon="8.719108894905718"><ele>485.71428571428567</ele><time>2026-03-29T08:44:29.001Z</time></trkpt><trkpt lat="40.70731361487122" lon="8.719199041977399"><ele>486.0</ele><time>2026-03-29T08:44:30.001Z</time></trkpt><trkpt lat="40.70726570704398" lon="8.719331914139179"><ele>486.3333333333333</ele><time>2026-03-29T08:44:32.001Z</time></trkpt><trkpt lat="40.70723479576834" lon="8.71940616638332"><ele>486.66666666666663</ele><time>2026-03-29T08:44:33.001Z</time></trkpt><trkpt lat="40.707195855396236" lon="8.719472891312844"><ele>487.0</ele><time>2026-03-29T08:44:34.001Z</time></trkpt><trkpt lat="40.70715472442854" lon="8.719536856904064"><ele>487.3333333333333</ele><time>2026-03-29T08:44:35.001Z</time></trkpt><trkpt lat="40.70708859088597" lon="8.719558192943989"><ele>487.66666666666663</ele><time>2026-03-29T08:44:36.001Z</time></trkpt><trkpt lat="40.70697076754053" lon="8.719585629366222"><ele>488.0</ele><time>2026-03-29T08:44:38.001Z</time></trkpt><trkpt lat="40.70689272110451" lon="8.719616454661745"><ele>489.0</ele><time>2026-03-29T08:44:39.001Z</time></trkpt><trkpt lat="40.70680466495653" lon="8.71964991638064"><ele>489.99999999999994</ele><time>2026-03-29T08:44:40.001Z</time></trkpt><trkpt lat="40.706713033406416" lon="8.719683320390248"><ele>490.99999999999994</ele><time>2026-03-29T08:44:41.001Z</time></trkpt><trkpt lat="40.70661987123571" lon="8.719714602880657"><ele>492.0</ele><time>2026-03-29T08:44:42.001Z</time></trkpt><trkpt lat="40.706520477827596" lon="8.71973410086802"><ele>493.0</ele><time>2026-03-29T08:44:43.001Z</time></trkpt><trkpt lat="40.70642199193349" lon="8.719778948764507"><ele>493.0</ele><time>2026-03-29T08:44:44.001Z</time></trkpt><trkpt lat="40.70633896758327" lon="8.719859040747915"><ele>492.99999999999994</ele><time>2026-03-29T08:44:45.001Z</time></trkpt><trkpt lat="40.706245522037044" lon="8.71990929399157"><ele>492.99999999999994</ele><time>2026-03-29T08:44:46.001Z</time></trkpt><trkpt lat="40.706152393320906" lon="8.71996228321853"><ele>493.0</ele><time>2026-03-29T08:44:47.001Z</time></trkpt><trkpt lat="40.70605510826127" lon="8.72000606082959"><ele>493.0</ele><time>2026-03-29T08:44:48.001Z</time></trkpt><trkpt lat="40.705968309955765" lon="8.720072523362644"><ele>494.4</ele><time>2026-03-29T08:44:49.001Z</time></trkpt><trkpt lat="40.7058884906165" lon="8.72015617081882"><ele>495.79999999999995</ele><time>2026-03-29T08:44:50.001Z</time></trkpt><trkpt lat="40.70580855568699" lon="8.720245582915624"><ele>497.2</ele><time>2026-03-29T08:44:51.001Z</time></trkpt><trkpt lat="40.70572727167698" lon="8.720313824186947"><ele>498.6</ele><time>2026-03-29T08:44:52.001Z</time></trkpt><trkpt lat="40.70566044128832" lon="8.720393507018162"><ele>500.0</ele><time>2026-03-29T08:44:53.001Z</time></trkpt><trkpt lat="40.70558641402285" lon="8.720472217763723"><ele>500.75</ele><time>2026-03-29T08:44:54.001Z</time></trkpt><trkpt lat="40.70551277368823" lon="8.720566926030363"><ele>501.5</ele><time>2026-03-29T08:44:55.001Z</time></trkpt><trkpt lat="40.70541093269466" lon="8.720624266462352"><ele>502.25</ele><time>2026-03-29T08:44:56.001Z</time></trkpt><trkpt lat="40.70532018865892" lon="8.720726353881156"><ele>503.0</ele><time>2026-03-29T08:44:57.001Z</time></trkpt><trkpt lat="40.70523688639789" lon="8.720840817439038"><ele>504.0</ele><time>2026-03-29T08:44:58.001Z</time></trkpt><trkpt lat="40.70514402331137" lon="8.720956069490036"><ele>505.0</ele><time>2026-03-29T08:44:59.001Z</time></trkpt><trkpt lat="40.70506176730778" lon="8.721092599173147"><ele>506.0</ele><time>2026-03-29T08:45:00.001Z</time></trkpt><trkpt lat="40.70497680780332" lon="8.721220608755049"><ele>507.0</ele><time>2026-03-29T08:45:01.001Z</time></trkpt><trkpt lat="40.70489653253265" lon="8.721339506268096"><ele>508.40000000000003</ele><time>2026-03-29T08:45:02.001Z</time></trkpt><trkpt lat="40.70482005987803" lon="8.72145277158263"><ele>509.80000000000007</ele><time>2026-03-29T08:45:03Z</time></trkpt><trkpt lat="40.70475555764088" lon="8.721570192959812"><ele>511.2</ele><time>2026-03-29T08:45:04Z</time></trkpt><trkpt lat="40.70466273944876" lon="8.721651993208772"><ele>512.6</ele><time>2026-03-29T08:45:05Z</time></trkpt><trkpt lat="40.70458302001606" lon="8.72173414237629"><ele>514.0</ele><time>2026-03-29T08:45:06Z</time></trkpt><trkpt lat="40.70451823522422" lon="8.721807184684673"><ele>514.0</ele><time>2026-03-29T08:45:07Z</time></trkpt><trkpt lat="40.704467303104856" lon="8.721872879468785"><ele>514.0</ele><time>2026-03-29T08:45:08Z</time></trkpt><trkpt lat="40.704376303658776" lon="8.72196097103534"><ele>514.0</ele><time>2026-03-29T08:45:10Z</time></trkpt><trkpt lat="40.70431801158194" lon="8.722044149256948"><ele>514.0</ele><time>2026-03-29T08:45:12Z</time></trkpt><trkpt lat="40.70422593510009" lon="8.722112796307032"><ele>514.0</ele><time>2026-03-29T08:45:14Z</time></trkpt><trkpt lat="40.70416622392486" lon="8.72208350870505"><ele>514.0</ele><time>2026-03-29T08:45:15Z</time></trkpt><trkpt lat="40.70409177620637" lon="8.72204678503372"><ele>515.0</ele><time>2026-03-29T08:45:16Z</time></trkpt><trkpt lat="40.704004547147015" lon="8.722002543929834"><ele>516.0</ele><time>2026-03-29T08:45:17Z</time></trkpt><trkpt lat="40.7039030485357" lon="8.721950802394383"><ele>517.0</ele><time>2026-03-29T08:45:18Z</time></trkpt><trkpt lat="40.703798258301" lon="8.721879361923312"><ele>518.0</ele><time>2026-03-29T08:45:19Z</time></trkpt><trkpt lat="40.70367620487722" lon="8.721842322824214"><ele>519.0</ele><time>2026-03-29T08:45:20Z</time></trkpt><trkpt lat="40.70355186962276" lon="8.721786782130826"><ele>520.0</ele><time>2026-03-29T08:45:21Z</time></trkpt><trkpt lat="40.70341993496596" lon="8.721753349913755"><ele>521.0</ele><time>2026-03-29T08:45:22Z</time></trkpt><trkpt lat="40.70328162704944" lon="8.721728579207484"><ele>522.0</ele><time>2026-03-29T08:45:23Z</time></trkpt><trkpt lat="40.70314168272307" lon="8.721727558137667"><ele>523.0</ele><time>2026-03-29T08:45:24Z</time></trkpt><trkpt lat="40.702998472623584" lon="8.721726703125604"><ele>523.0</ele><time>2026-03-29T08:45:25Z</time></trkpt><trkpt lat="40.7028556149405" lon="8.721751590049736"><ele>523.0</ele><time>2026-03-29T08:45:26Z</time></trkpt><trkpt lat="40.70271607420007" lon="8.721778138963552"><ele>523.0</ele><time>2026-03-29T08:45:27Z</time></trkpt><trkpt lat="40.70258007135526" lon="8.721818579870872"><ele>523.0</ele><time>2026-03-29T08:45:28Z</time></trkpt><trkpt lat="40.70244028492686" lon="8.721867922852306"><ele>523.0</ele><time>2026-03-29T08:45:29Z</time></trkpt><trkpt lat="40.70231869709562" lon="8.721969761889417"><ele>523.0</ele><time>2026-03-29T08:45:30Z</time></trkpt><trkpt lat="40.7022044330101" lon="8.72207251528938"><ele>523.0</ele><time>2026-03-29T08:45:31Z</time></trkpt><trkpt lat="40.70210222597832" lon="8.722179690180361"><ele>523.0</ele><time>2026-03-29T08:45:32Z</time></trkpt><trkpt lat="40.70201219780786" lon="8.72228750461233"><ele>523.0</ele><time>2026-03-29T08:45:33Z</time></trkpt><trkpt lat="40.701937522247334" lon="8.722401112710454"><ele>523.0</ele><time>2026-03-29T08:45:34Z</time></trkpt><trkpt lat="40.70185939361192" lon="8.72250709348748"><ele>523.0</ele><time>2026-03-29T08:45:35Z</time></trkpt><trkpt lat="40.701804485666685" lon="8.722648297635796"><ele>523.0</ele><time>2026-03-29T08:45:36Z</time></trkpt><trkpt lat="40.70177555388349" lon="8.722803592854403"><ele>520.25</ele><time>2026-03-29T08:45:37Z</time></trkpt><trkpt lat="40.701770808203406" lon="8.722951429689115"><ele>517.5</ele><time>2026-03-29T08:45:38Z</time></trkpt><trkpt lat="40.70178809392123" lon="8.72309939218346"><ele>514.75</ele><time>2026-03-29T08:45:39Z</time></trkpt><trkpt lat="40.701820185650206" lon="8.723253438984917"><ele>512.0</ele><time>2026-03-29T08:45:40Z</time></trkpt><trkpt lat="40.701875224013335" lon="8.723405937006829"><ele>515.25</ele><time>2026-03-29T08:45:41Z</time></trkpt><trkpt lat="40.70192954551337" lon="8.723568419956948"><ele>518.5</ele><time>2026-03-29T08:45:42Z</time></trkpt><trkpt lat="40.70198548980936" lon="8.72373113053842"><ele>521.75</ele><time>2026-03-29T08:45:43Z</time></trkpt><trkpt lat="40.70204156177684" lon="8.723894335058429"><ele>525.0</ele><time>2026-03-29T08:45:44Z</time></trkpt><trkpt lat="40.702097683356484" lon="8.724059944865823"><ele>525.0</ele><time>2026-03-29T08:45:45Z</time></trkpt><trkpt lat="40.702153494042115" lon="8.724226322894545"><ele>525.0</ele><time>2026-03-29T08:45:46Z</time></trkpt><trkpt lat="40.702205309861895" lon="8.724394394200408"><ele>525.0</ele><time>2026-03-29T08:45:47Z</time></trkpt><trkpt lat="40.702265852861295" lon="8.724559611462531"><ele>525.0</ele><time>2026-03-29T08:45:48Z</time></trkpt><trkpt lat="40.702301653735034" lon="8.724741815022982"><ele>523.5</ele><time>2026-03-29T08:45:49Z</time></trkpt><trkpt lat="40.7023110011986" lon="8.724933083215548"><ele>522.0</ele><time>2026-03-29T08:45:50Z</time></trkpt><trkpt lat="40.70232337844399" lon="8.725122782801858"><ele>520.5</ele><time>2026-03-29T08:45:51Z</time></trkpt><trkpt lat="40.702334788558325" lon="8.72530951080844"><ele>519.0</ele><time>2026-03-29T08:45:52Z</time></trkpt><trkpt lat="40.7023481887607" lon="8.72548555980808"><ele>518.0</ele><time>2026-03-29T08:45:53Z</time></trkpt><trkpt lat="40.702361063344924" lon="8.725652973703722"><ele>517.0</ele><time>2026-03-29T08:45:54Z</time></trkpt><trkpt lat="40.702373703224865" lon="8.725815789610706"><ele>516.0</ele><time>2026-03-29T08:45:55Z</time></trkpt><trkpt lat="40.70238406281907" lon="8.725970343803255"><ele>515.0</ele><time>2026-03-29T08:45:56Z</time></trkpt><trkpt lat="40.702390815928275" lon="8.726106880421142"><ele>514.8</ele><time>2026-03-29T08:45:57Z</time></trkpt><trkpt lat="40.70238055310981" lon="8.726225964101943"><ele>514.6</ele><time>2026-03-29T08:45:58Z</time></trkpt><trkpt lat="40.70237257577885" lon="8.726324739152355"><ele>514.4</ele><time>2026-03-29T08:45:59Z</time></trkpt><trkpt lat="40.70231213581664" lon="8.726456257766884"><ele>514.2</ele><time>2026-03-29T08:46:01Z</time></trkpt><trkpt lat="40.70223442961625" lon="8.726544898873156"><ele>514.0</ele><time>2026-03-29T08:46:03Z</time></trkpt><trkpt lat="40.7021567265528" lon="8.726599487987135"><ele>514.0</ele><time>2026-03-29T08:46:05Z</time></trkpt><trkpt lat="40.702103827437945" lon="8.72665092779801"><ele>514.0</ele><time>2026-03-29T08:46:24Z</time></trkpt><trkpt lat="40.70203579401393" lon="8.726701856491337"><ele>514.0</ele><time>2026-03-29T08:46:35Z</time></trkpt><trkpt lat="40.70195132165514" lon="8.72669703125195"><ele>514.0</ele><time>2026-03-29T08:46:36Z</time></trkpt><trkpt lat="40.70186477208945" lon="8.726686757969418"><ele>514.0</ele><time>2026-03-29T08:46:37Z</time></trkpt><trkpt lat="40.70177774728609" lon="8.726657967806998"><ele>514.0</ele><time>2026-03-29T08:46:38Z</time></trkpt><trkpt lat="40.70168277343771" lon="8.72659830928569"><ele>511.25</ele><time>2026-03-29T08:46:39Z</time></trkpt><trkpt lat="40.70157989546853" lon="8.726521900775989"><ele>508.5</ele><time>2026-03-29T08:46:40Z</time></trkpt><trkpt lat="40.701471533365726" lon="8.726440269008767"><ele>505.75</ele><time>2026-03-29T08:46:41Z</time></trkpt><trkpt lat="40.70136027039765" lon="8.726352642687443"><ele>503.0</ele><time>2026-03-29T08:46:42Z</time></trkpt><trkpt lat="40.7012476714556" lon="8.726262704989544"><ele>503.0</ele><time>2026-03-29T08:46:43Z</time></trkpt><trkpt lat="40.70113146961911" lon="8.726169854966589"><ele>503.0</ele><time>2026-03-29T08:46:44Z</time></trkpt><trkpt lat="40.701012684552055" lon="8.726074509561661"><ele>503.0</ele><time>2026-03-29T08:46:45Z</time></trkpt><trkpt lat="40.70089178047417" lon="8.725977386761768"><ele>503.0</ele><time>2026-03-29T08:46:46Z</time></trkpt><trkpt lat="40.70076975206919" lon="8.72587936077579"><ele>503.5</ele><time>2026-03-29T08:46:47Z</time></trkpt><trkpt lat="40.70064459933211" lon="8.725780255581187"><ele>504.0</ele><time>2026-03-29T08:46:48Z</time></trkpt><trkpt lat="40.70051869006173" lon="8.725683614665497"><ele>504.5</ele><time>2026-03-29T08:46:49Z</time></trkpt><trkpt lat="40.70038682233636" lon="8.725584539982522"><ele>505.0</ele><time>2026-03-29T08:46:50Z</time></trkpt><trkpt lat="40.70023484347581" lon="8.725478907855564"><ele>505.0</ele><time>2026-03-29T08:46:51Z</time></trkpt><trkpt lat="40.70008127055676" lon="8.72540894764887"><ele>505.0</ele><time>2026-03-29T08:46:52Z</time></trkpt><trkpt lat="40.699926320617436" lon="8.725359401276876"><ele>505.0</ele><time>2026-03-29T08:46:53Z</time></trkpt><trkpt lat="40.69977740052497" lon="8.725321261819255"><ele>505.0</ele><time>2026-03-29T08:46:54Z</time></trkpt><trkpt lat="40.69962538249157" lon="8.725293058655048"><ele>505.0</ele><time>2026-03-29T08:46:55Z</time></trkpt><trkpt lat="40.699466642413185" lon="8.725283766429799"><ele>505.0</ele><time>2026-03-29T08:46:56Z</time></trkpt><trkpt lat="40.69930399698562" lon="8.72531409397787"><ele>504.33333333333337</ele><time>2026-03-29T08:46:57Z</time></trkpt><trkpt lat="40.69915545961876" lon="8.72536913917262"><ele>503.66666666666663</ele><time>2026-03-29T08:46:58Z</time></trkpt><trkpt lat="40.69900302995918" lon="8.725458110271278"><ele>503.0</ele><time>2026-03-29T08:46:59Z</time></trkpt><trkpt lat="40.698889636911765" lon="8.725558507386369"><ele>502.99999999999994</ele><time>2026-03-29T08:47:00Z</time></trkpt><trkpt lat="40.69880993495617" lon="8.725664586282557"><ele>503.0</ele><time>2026-03-29T08:47:01Z</time></trkpt><trkpt lat="40.698744020920266" lon="8.725747689807283"><ele>503.0</ele><time>2026-03-29T08:47:02Z</time></trkpt><trkpt lat="40.69868747706121" lon="8.72581380207712"><ele>503.0</ele><time>2026-03-29T08:47:03Z</time></trkpt><trkpt lat="40.69863982687224" lon="8.725870046899555"><ele>502.99999999999994</ele><time>2026-03-29T08:47:04Z</time></trkpt><trkpt lat="40.698569325233784" lon="8.725969879742985"><ele>503.0</ele><time>2026-03-29T08:47:06Z</time></trkpt><trkpt lat="40.69851530950392" lon="8.726051272089078"><ele>501.5</ele><time>2026-03-29T08:47:08Z</time></trkpt><trkpt lat="40.69847452633682" lon="8.726132173901494"><ele>500.0</ele><time>2026-03-29T08:47:11Z</time></trkpt><trkpt lat="40.698385163753194" lon="8.726309680401375"><ele>498.5</ele><time>2026-03-29T08:48:09.001Z</time></trkpt><trkpt lat="40.69831731019453" lon="8.72642240508626"><ele>497.0</ele><time>2026-03-29T08:48:11.001Z</time></trkpt><trkpt lat="40.69824655688634" lon="8.726539947085083"><ele>496.99999999999994</ele><time>2026-03-29T08:48:13.001Z</time></trkpt><trkpt lat="40.69817647306886" lon="8.726653681162853"><ele>497.0</ele><time>2026-03-29T08:48:15.001Z</time></trkpt><trkpt lat="40.69809559598718" lon="8.726784601930067"><ele>497.0</ele><time>2026-03-29T08:48:17.001Z</time></trkpt><trkpt lat="40.698053234467196" lon="8.726853175145951"><ele>497.0</ele><time>2026-03-29T08:48:18.001Z</time></trkpt><trkpt lat="40.698010462428805" lon="8.726922412919166"><ele>496.99999999999994</ele><time>2026-03-29T08:48:19.001Z</time></trkpt><trkpt lat="40.69796797123685" lon="8.726991196055286"><ele>497.0</ele><time>2026-03-29T08:48:20.001Z</time></trkpt><trkpt lat="40.69792612249948" lon="8.727060143631137"><ele>496.20000000000005</ele><time>2026-03-29T08:48:21.001Z</time></trkpt><trkpt lat="40.69785398941344" lon="8.72718070576383"><ele>495.40000000000003</ele><time>2026-03-29T08:48:23.001Z</time></trkpt><trkpt lat="40.69779735120829" lon="8.72727674613759"><ele>494.59999999999997</ele><time>2026-03-29T08:48:25.001Z</time></trkpt><trkpt lat="40.69776292424263" lon="8.727377259736922"><ele>493.79999999999995</ele><time>2026-03-29T08:48:27.001Z</time></trkpt><trkpt lat="40.697712470728945" lon="8.727457486352668"><ele>493.0</ele><time>2026-03-29T08:48:29.001Z</time></trkpt><trkpt lat="40.69765989131803" lon="8.727545498514774"><ele>493.0</ele><time>2026-03-29T08:48:31.001Z</time></trkpt><trkpt lat="40.69761834170848" lon="8.727666219584236"><ele>493.0</ele><time>2026-03-29T08:48:33.001Z</time></trkpt><trkpt lat="40.69758996235185" lon="8.72774415048743"><ele>493.0</ele><time>2026-03-29T08:48:34.001Z</time></trkpt><trkpt lat="40.69756107633802" lon="8.727823878896496"><ele>493.0</ele><time>2026-03-29T08:48:35.001Z</time></trkpt><trkpt lat="40.69753339551561" lon="8.727904338351308"><ele>493.0</ele><time>2026-03-29T08:48:36.001Z</time></trkpt><trkpt lat="40.69750617880066" lon="8.727983866412412"><ele>493.0</ele><time>2026-03-29T08:48:37.001Z</time></trkpt><trkpt lat="40.697478046221214" lon="8.728066359839186"><ele>493.0</ele><time>2026-03-29T08:48:38.001Z</time></trkpt><trkpt lat="40.69744896014629" lon="8.728156110534584"><ele>493.1428571428571</ele><time>2026-03-29T08:48:39.001Z</time></trkpt><trkpt lat="40.69742273009954" lon="8.728243489323495"><ele>493.28571428571433</ele><time>2026-03-29T08:48:40.001Z</time></trkpt><trkpt lat="40.69739959566151" lon="8.72832856229338"><ele>493.42857142857144</ele><time>2026-03-29T08:48:41.001Z</time></trkpt><trkpt lat="40.69737778238855" lon="8.728413983984879"><ele>493.57142857142856</ele><time>2026-03-29T08:48:42.001Z</time></trkpt><trkpt lat="40.69735711875148" lon="8.728503235949923"><ele>493.71428571428567</ele><time>2026-03-29T08:48:43.001Z</time></trkpt><trkpt lat="40.69733790267916" lon="8.728598300458032"><ele>493.8571428571429</ele><time>2026-03-29T08:48:44.001Z</time></trkpt><trkpt lat="40.69732048645435" lon="8.728700295210436"><ele>494.0</ele><time>2026-03-29T08:48:45.001Z</time></trkpt><trkpt lat="40.69730366776335" lon="8.728805667023462"><ele>493.49999999999994</ele><time>2026-03-29T08:48:46.001Z</time></trkpt><trkpt lat="40.6972903478749" lon="8.728919888267306"><ele>493.0</ele><time>2026-03-29T08:48:47.001Z</time></trkpt><trkpt lat="40.697278567895765" lon="8.729029983443448"><ele>492.5</ele><time>2026-03-29T08:48:48.001Z</time></trkpt><trkpt lat="40.69726795411162" lon="8.729139176928532"><ele>492.0</ele><time>2026-03-29T08:48:49.001Z</time></trkpt><trkpt lat="40.69726039077078" lon="8.729256536170617"><ele>491.49999999999994</ele><time>2026-03-29T08:48:50.001Z</time></trkpt><trkpt lat="40.69726360619287" lon="8.729379448275406"><ele>491.0</ele><time>2026-03-29T08:48:51.001Z</time></trkpt><trkpt lat="40.69725151552147" lon="8.729506301697109"><ele>490.20000000000005</ele><time>2026-03-29T08:48:52.001Z</time></trkpt><trkpt lat="40.69723557108435" lon="8.729637685936448"><ele>489.40000000000003</ele><time>2026-03-29T08:48:53.001Z</time></trkpt><trkpt lat="40.69721467850828" lon="8.729773186839687"><ele>488.6</ele><time>2026-03-29T08:48:54.001Z</time></trkpt><trkpt lat="40.69717118501891" lon="8.729903901243109"><ele>487.8</ele><time>2026-03-29T08:48:55.001Z</time></trkpt><trkpt lat="40.697125651000235" lon="8.730016809725372"><ele>487.0</ele><time>2026-03-29T08:48:56.001Z</time></trkpt><trkpt lat="40.69706794358081" lon="8.730122400182907"><ele>487.0</ele><time>2026-03-29T08:48:57.001Z</time></trkpt><trkpt lat="40.69699889827284" lon="8.73021519285911"><ele>487.00000000000006</ele><time>2026-03-29T08:48:58.001Z</time></trkpt><trkpt lat="40.696914114186534" lon="8.73029708014702"><ele>487.00000000000006</ele><time>2026-03-29T08:48:59.001Z</time></trkpt><trkpt lat="40.69681292124896" lon="8.730368418124472"><ele>487.0</ele><time>2026-03-29T08:49:00.001Z</time></trkpt><trkpt lat="40.69670563238297" lon="8.730441025999635"><ele>487.0</ele><time>2026-03-29T08:49:01.001Z</time></trkpt><trkpt lat="40.69659479430677" lon="8.730511741128515"><ele>484.75</ele><time>2026-03-29T08:49:02.001Z</time></trkpt><trkpt lat="40.696483790110044" lon="8.730577199025129"><ele>482.5</ele><time>2026-03-29T08:49:03.001Z</time></trkpt><trkpt lat="40.69637016099342" lon="8.730639986660316"><ele>480.25</ele><time>2026-03-29T08:49:04.001Z</time></trkpt><trkpt lat="40.69625668406234" lon="8.730702690197477"><ele>478.0</ele><time>2026-03-29T08:49:05.001Z</time></trkpt><trkpt lat="40.69614192927728" lon="8.730766099869044"><ele>476.25</ele><time>2026-03-29T08:49:06.001Z</time></trkpt><trkpt lat="40.69602315683014" lon="8.730831729554632"><ele>474.5</ele><time>2026-03-29T08:49:07.001Z</time></trkpt><trkpt lat="40.69589952265816" lon="8.7309018521568"><ele>472.75</ele><time>2026-03-29T08:49:08.001Z</time></trkpt><trkpt lat="40.69577593356081" lon="8.730973291667642"><ele>471.0</ele><time>2026-03-29T08:49:09.001Z</time></trkpt><trkpt lat="40.695657265198236" lon="8.731041886727878"><ele>471.20000000000005</ele><time>2026-03-29T08:49:10.001Z</time></trkpt><trkpt lat="40.69554829626143" lon="8.731104875248365"><ele>471.40000000000003</ele><time>2026-03-29T08:49:11.001Z</time></trkpt><trkpt lat="40.695448974422945" lon="8.731162287283698"><ele>471.6</ele><time>2026-03-29T08:49:12.001Z</time></trkpt><trkpt lat="40.69535643642595" lon="8.731215119837456"><ele>471.8</ele><time>2026-03-29T08:49:13.001Z</time></trkpt><trkpt lat="40.6952672872407" lon="8.73126464613867"><ele>472.0</ele><time>2026-03-29T08:49:14.001Z</time></trkpt><trkpt lat="40.695182265594255" lon="8.731311879351637"><ele>472.0</ele><time>2026-03-29T08:49:15.001Z</time></trkpt><trkpt lat="40.69509501706659" lon="8.731360349723756"><ele>472.0</ele><time>2026-03-29T08:49:16.001Z</time></trkpt><trkpt lat="40.694996386770285" lon="8.731415143134523"><ele>472.0</ele><time>2026-03-29T08:49:17.001Z</time></trkpt><trkpt lat="40.69488479853508" lon="8.731477135260405"><ele>472.0</ele><time>2026-03-29T08:49:18.001Z</time></trkpt><trkpt lat="40.6947641825472" lon="8.73154414269669"><ele>472.0</ele><time>2026-03-29T08:49:19.001Z</time></trkpt><trkpt lat="40.69464121536696" lon="8.731615513042076"><ele>472.0</ele><time>2026-03-29T08:49:20.001Z</time></trkpt><trkpt lat="40.69452344002391" lon="8.731699379690543"><ele>472.0</ele><time>2026-03-29T08:49:21.001Z</time></trkpt><trkpt lat="40.6944177165685" lon="8.73180568168403"><ele>472.0</ele><time>2026-03-29T08:49:22.001Z</time></trkpt><trkpt lat="40.694308607569496" lon="8.731903183620197"><ele>472.0</ele><time>2026-03-29T08:49:23.001Z</time></trkpt><trkpt lat="40.694202729694446" lon="8.732008825502836"><ele>472.0</ele><time>2026-03-29T08:49:24.001Z</time></trkpt><trkpt lat="40.69409923020834" lon="8.732121921241985"><ele>472.0</ele><time>2026-03-29T08:49:25.001Z</time></trkpt><trkpt lat="40.694006505528066" lon="8.732262237949222"><ele>472.0</ele><time>2026-03-29T08:49:26.001Z</time></trkpt><trkpt lat="40.69391435689498" lon="8.732412703172189"><ele>472.0</ele><time>2026-03-29T08:49:27.001Z</time></trkpt><trkpt lat="40.693819928795115" lon="8.732567017218646"><ele>472.0</ele><time>2026-03-29T08:49:28.001Z</time></trkpt><trkpt lat="40.693725496294114" lon="8.732729251983642"><ele>472.0</ele><time>2026-03-29T08:49:29.001Z</time></trkpt><trkpt lat="40.693634450499985" lon="8.732900498025703"><ele>471.6666666666667</ele><time>2026-03-29T08:49:30.001Z</time></trkpt><trkpt lat="40.693549382499256" lon="8.733092280960847"><ele>471.33333333333337</ele><time>2026-03-29T08:49:31.001Z</time></trkpt><trkpt lat="40.69346668700502" lon="8.733297975346687"><ele>471.0</ele><time>2026-03-29T08:49:32.001Z</time></trkpt><trkpt lat="40.693374977227506" lon="8.733515812726013"><ele>472.33333333333337</ele><time>2026-03-29T08:49:33.001Z</time></trkpt><trkpt lat="40.69327364990119" lon="8.73374163959003"><ele>473.6666666666667</ele><time>2026-03-29T08:49:34.001Z</time></trkpt><trkpt lat="40.69317013754082" lon="8.733955153003423"><ele>475.0</ele><time>2026-03-29T08:49:35.001Z</time></trkpt><trkpt lat="40.69308152874451" lon="8.734163589507384"><ele>475.0</ele><time>2026-03-29T08:49:36.001Z</time></trkpt><trkpt lat="40.692996693844286" lon="8.734359558111677"><ele>475.0</ele><time>2026-03-29T08:49:37.001Z</time></trkpt><trkpt lat="40.692925248949145" lon="8.734550462880739"><ele>475.0</ele><time>2026-03-29T08:49:38.001Z</time></trkpt><trkpt lat="40.69283800111738" lon="8.734759165844473"><ele>473.33333333333337</ele><time>2026-03-29T08:49:39.001Z</time></trkpt><trkpt lat="40.69279902032598" lon="8.734986992341401"><ele>471.66666666666663</ele><time>2026-03-29T08:49:40.001Z</time></trkpt><trkpt lat="40.69275768400002" lon="8.735231192989266"><ele>470.0</ele><time>2026-03-29T08:49:41.001Z</time></trkpt><trkpt lat="40.69271353407718" lon="8.73549538288051"><ele>470.0</ele><time>2026-03-29T08:49:42.001Z</time></trkpt><trkpt lat="40.692665795064876" lon="8.73577074929419"><ele>470.0</ele><time>2026-03-29T08:49:43.001Z</time></trkpt><trkpt lat="40.69261829104713" lon="8.736054391759206"><ele>470.0</ele><time>2026-03-29T08:49:44.001Z</time></trkpt><trkpt lat="40.69257823080469" lon="8.736342446980574"><ele>472.3333333333333</ele><time>2026-03-29T08:49:45.001Z</time></trkpt><trkpt lat="40.692539242636606" lon="8.736593908453614"><ele>474.66666666666663</ele><time>2026-03-29T08:49:46.001Z</time></trkpt><trkpt lat="40.692500448921464" lon="8.736824774616009"><ele>477.0</ele><time>2026-03-29T08:49:47.001Z</time></trkpt><trkpt lat="40.69246991491637" lon="8.737037695157726"><ele>477.66666666666663</ele><time>2026-03-29T08:49:48.001Z</time></trkpt><trkpt lat="40.69244833122895" lon="8.737240097453558"><ele>478.3333333333333</ele><time>2026-03-29T08:49:49.001Z</time></trkpt><trkpt lat="40.69247003345446" lon="8.737436662773591"><ele>479.0</ele><time>2026-03-29T08:49:50.001Z</time></trkpt><trkpt lat="40.692489846646666" lon="8.737642274042889"><ele>479.3333333333333</ele><time>2026-03-29T08:49:51.001Z</time></trkpt><trkpt lat="40.69251795453673" lon="8.73786358526488"><ele>479.66666666666663</ele><time>2026-03-29T08:49:52.001Z</time></trkpt><trkpt lat="40.69254589330391" lon="8.7380811758357"><ele>480.0</ele><time>2026-03-29T08:49:53.001Z</time></trkpt><trkpt lat="40.69258516663975" lon="8.738309246184674"><ele>480.0</ele><time>2026-03-29T08:49:54.001Z</time></trkpt><trkpt lat="40.69262423754112" lon="8.738522533790286"><ele>480.0</ele><time>2026-03-29T08:49:55.001Z</time></trkpt><trkpt lat="40.692649779793854" lon="8.738739081126292"><ele>480.0</ele><time>2026-03-29T08:49:56.001Z</time></trkpt><trkpt lat="40.69269265484532" lon="8.738917236635778"><ele>480.6</ele><time>2026-03-29T08:49:57.001Z</time></trkpt><trkpt lat="40.692731282171806" lon="8.739083023367039"><ele>481.2</ele><time>2026-03-29T08:49:58.001Z</time></trkpt><trkpt lat="40.69271731785895" lon="8.739184523130573"><ele>481.79999999999995</ele><time>2026-03-29T08:49:59.001Z</time></trkpt><trkpt lat="40.69269931047253" lon="8.73928849955839"><ele>482.4</ele><time>2026-03-29T08:50:00.001Z</time></trkpt><trkpt lat="40.6926637350373" lon="8.739381358749203"><ele>483.0</ele><time>2026-03-29T08:50:01.001Z</time></trkpt><trkpt lat="40.69260766795927" lon="8.73948866062923"><ele>485.5</ele><time>2026-03-29T08:50:02.001Z</time></trkpt><trkpt lat="40.692528708659516" lon="8.739626030874629"><ele>488.0</ele><time>2026-03-29T08:50:03.001Z</time></trkpt><trkpt lat="40.69244864501214" lon="8.7397622817257"><ele>490.5</ele><time>2026-03-29T08:50:04.001Z</time></trkpt><trkpt lat="40.69236431050711" lon="8.739909493953313"><ele>493.0</ele><time>2026-03-29T08:50:05.001Z</time></trkpt><trkpt lat="40.69228030949888" lon="8.740073819286765"><ele>496.6666666666667</ele><time>2026-03-29T08:50:06.001Z</time></trkpt><trkpt lat="40.692181673700254" lon="8.740231682863563"><ele>500.33333333333337</ele><time>2026-03-29T08:50:07.001Z</time></trkpt><trkpt lat="40.692086839654294" lon="8.740384788780702"><ele>504.0</ele><time>2026-03-29T08:50:08.001Z</time></trkpt><trkpt lat="40.69199449512651" lon="8.74054666352532"><ele>503.0</ele><time>2026-03-29T08:50:09.001Z</time></trkpt><trkpt lat="40.6919175053814" lon="8.740688401041496"><ele>502.0</ele><time>2026-03-29T08:50:10.001Z</time></trkpt><trkpt lat="40.69181157952844" lon="8.740849523242135"><ele>501.0</ele><time>2026-03-29T08:50:11.001Z</time></trkpt><trkpt lat="40.69173330657964" lon="8.74098165723305"><ele>500.0</ele><time>2026-03-29T08:50:12.001Z</time></trkpt><trkpt lat="40.691617156668634" lon="8.741086202871557"><ele>500.0</ele><time>2026-03-29T08:50:13.001Z</time></trkpt><trkpt lat="40.69153979013956" lon="8.741160139826293"><ele>500.0</ele><time>2026-03-29T08:50:14.001Z</time></trkpt><trkpt lat="40.69144240313921" lon="8.741238500302941"><ele>500.0</ele><time>2026-03-29T08:50:15.001Z</time></trkpt><trkpt lat="40.69133974036421" lon="8.741323293074629"><ele>500.0</ele><time>2026-03-29T08:50:16.001Z</time></trkpt><trkpt lat="40.69121180753275" lon="8.741412101596344"><ele>500.0</ele><time>2026-03-29T08:50:17.001Z</time></trkpt><trkpt lat="40.691095836546936" lon="8.74151736792185"><ele>500.0</ele><time>2026-03-29T08:50:18.001Z</time></trkpt><trkpt lat="40.69096089079254" lon="8.741623202018337"><ele>500.0</ele><time>2026-03-29T08:50:19.001Z</time></trkpt><trkpt lat="40.6908410695256" lon="8.741734119369495"><ele>500.0</ele><time>2026-03-29T08:50:20.001Z</time></trkpt><trkpt lat="40.690719610033476" lon="8.741833486049787"><ele>499.3333333333333</ele><time>2026-03-29T08:50:21.001Z</time></trkpt><trkpt lat="40.690591933942905" lon="8.741959537533969"><ele>498.66666666666663</ele><time>2026-03-29T08:50:22.001Z</time></trkpt><trkpt lat="40.69045828824015" lon="8.742071163569026"><ele>498.0</ele><time>2026-03-29T08:50:23.001Z</time></trkpt><trkpt lat="40.690323805044976" lon="8.74219473210298"><ele>496.25</ele><time>2026-03-29T08:50:24.001Z</time></trkpt><trkpt lat="40.69021551649593" lon="8.742339117866925"><ele>494.5</ele><time>2026-03-29T08:50:25.001Z</time></trkpt><trkpt lat="40.690109204929655" lon="8.742483998533729"><ele>492.75</ele><time>2026-03-29T08:50:26.001Z</time></trkpt><trkpt lat="40.69004536832909" lon="8.74259839389672"><ele>491.0</ele><time>2026-03-29T08:50:27.001Z</time></trkpt><trkpt lat="40.68994746632427" lon="8.742739420879314"><ele>490.5</ele><time>2026-03-29T08:50:28.001Z</time></trkpt><trkpt lat="40.68983873500163" lon="8.742848594917943"><ele>490.0</ele><time>2026-03-29T08:50:29.001Z</time></trkpt><trkpt lat="40.68972667912498" lon="8.742977373343683"><ele>489.5</ele><time>2026-03-29T08:50:30.001Z</time></trkpt><trkpt lat="40.689637499943814" lon="8.74312127986386"><ele>489.0</ele><time>2026-03-29T08:50:31.001Z</time></trkpt><trkpt lat="40.68953391897296" lon="8.743258945036978"><ele>489.0</ele><time>2026-03-29T08:50:32.001Z</time></trkpt><trkpt lat="40.6894288179008" lon="8.743398270993517"><ele>489.0</ele><time>2026-03-29T08:50:33.001Z</time></trkpt><trkpt lat="40.68932718715999" lon="8.743531144551724"><ele>489.0</ele><time>2026-03-29T08:50:34.001Z</time></trkpt><trkpt lat="40.689210210940296" lon="8.743658990943807"><ele>489.0</ele><time>2026-03-29T08:50:35.001Z</time></trkpt><trkpt lat="40.689130310169205" lon="8.743789588634959"><ele>488.25</ele><time>2026-03-29T08:50:36.001Z</time></trkpt><trkpt lat="40.689049673965094" lon="8.743898250529256"><ele>487.5</ele><time>2026-03-29T08:50:37.001Z</time></trkpt><trkpt lat="40.68895089542749" lon="8.744031402590636"><ele>486.75</ele><time>2026-03-29T08:50:38.001Z</time></trkpt><trkpt lat="40.688856861452685" lon="8.744157643095033"><ele>486.0</ele><time>2026-03-29T08:50:39.001Z</time></trkpt><trkpt lat="40.68875914334149" lon="8.744285417757135"><ele>486.25</ele><time>2026-03-29T08:50:40.001Z</time></trkpt><trkpt lat="40.68866868825384" lon="8.744398626896771"><ele>486.5</ele><time>2026-03-29T08:50:41.001Z</time></trkpt><trkpt lat="40.68856077467661" lon="8.744495841299525"><ele>486.75</ele><time>2026-03-29T08:50:42.001Z</time></trkpt><trkpt lat="40.68844267690885" lon="8.744619454840207"><ele>487.0</ele><time>2026-03-29T08:50:43.001Z</time></trkpt><trkpt lat="40.688313155946695" lon="8.744658695230395"><ele>487.0</ele><time>2026-03-29T08:50:44.001Z</time></trkpt><trkpt lat="40.68819882241359" lon="8.744686409520222"><ele>487.0</ele><time>2026-03-29T08:50:45.001Z</time></trkpt><trkpt lat="40.688073956929344" lon="8.744706353953807"><ele>487.0</ele><time>2026-03-29T08:50:46.001Z</time></trkpt><trkpt lat="40.68793153967234" lon="8.744728346302535"><ele>487.0</ele><time>2026-03-29T08:50:47.001Z</time></trkpt><trkpt lat="40.6877941216095" lon="8.744747997116118"><ele>486.5</ele><time>2026-03-29T08:50:48.001Z</time></trkpt><trkpt lat="40.68764602177764" lon="8.744769175447736"><ele>486.0</ele><time>2026-03-29T08:50:49.001Z</time></trkpt><trkpt lat="40.68750069719347" lon="8.744790326356924"><ele>485.5</ele><time>2026-03-29T08:50:50.001Z</time></trkpt><trkpt lat="40.68736087140315" lon="8.744813565675983"><ele>485.0</ele><time>2026-03-29T08:50:51.001Z</time></trkpt><trkpt lat="40.68722146328348" lon="8.744834923733755"><ele>485.0</ele><time>2026-03-29T08:50:52.001Z</time></trkpt><trkpt lat="40.68707144305664" lon="8.744852802912037"><ele>485.0</ele><time>2026-03-29T08:50:53.001Z</time></trkpt><trkpt lat="40.68694757285782" lon="8.744927677807281"><ele>485.0</ele><time>2026-03-29T08:50:54.001Z</time></trkpt><trkpt lat="40.686775349668984" lon="8.745031266572898"><ele>486.3333333333333</ele><time>2026-03-29T08:50:55.001Z</time></trkpt><trkpt lat="40.68660828604109" lon="8.745131548795873"><ele>487.66666666666663</ele><time>2026-03-29T08:50:56.001Z</time></trkpt><trkpt lat="40.68645211451358" lon="8.745226132198622"><ele>489.0</ele><time>2026-03-29T08:50:57.001Z</time></trkpt><trkpt lat="40.686267136993564" lon="8.745300217203628"><ele>489.0</ele><time>2026-03-29T08:50:58.001Z</time></trkpt><trkpt lat="40.686102690780935" lon="8.745395311802406"><ele>489.0</ele><time>2026-03-29T08:50:59.001Z</time></trkpt><trkpt lat="40.68593685050551" lon="8.74550446897332"><ele>489.0</ele><time>2026-03-29T08:51:00.001Z</time></trkpt><trkpt lat="40.68576494159947" lon="8.745563664887248"><ele>488.0</ele><time>2026-03-29T08:51:01.001Z</time></trkpt><trkpt lat="40.68559994777743" lon="8.745666015216976"><ele>487.0</ele><time>2026-03-29T08:51:02.001Z</time></trkpt><trkpt lat="40.68543040344729" lon="8.745789066683272"><ele>486.0</ele><time>2026-03-29T08:51:03.001Z</time></trkpt><trkpt lat="40.68525203345738" lon="8.745891039843965"><ele>486.66666666666663</ele><time>2026-03-29T08:51:04.001Z</time></trkpt><trkpt lat="40.68507864695092" lon="8.74598700131735"><ele>487.3333333333333</ele><time>2026-03-29T08:51:05.001Z</time></trkpt><trkpt lat="40.68491329670541" lon="8.746077928234369"><ele>488.0</ele><time>2026-03-29T08:51:06.001Z</time></trkpt><trkpt lat="40.68474571475502" lon="8.746170082370133"><ele>488.0</ele><time>2026-03-29T08:51:07.001Z</time></trkpt><trkpt lat="40.68458024997092" lon="8.74626337693079"><ele>488.0</ele><time>2026-03-29T08:51:08.001Z</time></trkpt><trkpt lat="40.68440636232581" lon="8.746362107197452"><ele>488.0</ele><time>2026-03-29T08:51:09.001Z</time></trkpt><trkpt lat="40.68424653064104" lon="8.746452858184115"><ele>484.3333333333333</ele><time>2026-03-29T08:51:10.001Z</time></trkpt><trkpt lat="40.684084770484375" lon="8.74654362078452"><ele>480.66666666666663</ele><time>2026-03-29T08:51:11.001Z</time></trkpt><trkpt lat="40.68393115466583" lon="8.746629943269516"><ele>477.0</ele><time>2026-03-29T08:51:12.001Z</time></trkpt><trkpt lat="40.68376968878351" lon="8.746720678864278"><ele>477.0</ele><time>2026-03-29T08:51:13.001Z</time></trkpt><trkpt lat="40.683627410054314" lon="8.746800630780294"><ele>477.0</ele><time>2026-03-29T08:51:14.001Z</time></trkpt><trkpt lat="40.68347706113107" lon="8.746886873568496"><ele>477.0</ele><time>2026-03-29T08:51:15.001Z</time></trkpt><trkpt lat="40.68335252164784" lon="8.746958434710104"><ele>479.66666666666663</ele><time>2026-03-29T08:51:16.001Z</time></trkpt><trkpt lat="40.68319591354333" lon="8.747049089231005"><ele>482.3333333333333</ele><time>2026-03-29T08:51:17.001Z</time></trkpt><trkpt lat="40.6830324774864" lon="8.7471422765935"><ele>485.0</ele><time>2026-03-29T08:51:18.001Z</time></trkpt><trkpt lat="40.682860996382786" lon="8.747231026189413"><ele>482.3333333333333</ele><time>2026-03-29T08:51:19.001Z</time></trkpt><trkpt lat="40.68271187386662" lon="8.74731708926316"><ele>479.66666666666663</ele><time>2026-03-29T08:51:20.001Z</time></trkpt><trkpt lat="40.68257268175313" lon="8.747407923511433"><ele>477.0</ele><time>2026-03-29T08:51:21.001Z</time></trkpt><trkpt lat="40.68240265873557" lon="8.747540086247781"><ele>477.0</ele><time>2026-03-29T08:51:22.001Z</time></trkpt><trkpt lat="40.68225147985392" lon="8.747658527192904"><ele>477.0</ele><time>2026-03-29T08:51:23.001Z</time></trkpt><trkpt lat="40.68211353989551" lon="8.74779029353274"><ele>477.0</ele><time>2026-03-29T08:51:24.001Z</time></trkpt><trkpt lat="40.68196798825754" lon="8.747884387576006"><ele>478.25</ele><time>2026-03-29T08:51:25.001Z</time></trkpt><trkpt lat="40.68183548457136" lon="8.747997933859443"><ele>479.5</ele><time>2026-03-29T08:51:26.001Z</time></trkpt><trkpt lat="40.68172814561107" lon="8.748080550123161"><ele>480.75</ele><time>2026-03-29T08:51:27.001Z</time></trkpt><trkpt lat="40.68162773162702" lon="8.748126001792956"><ele>482.0</ele><time>2026-03-29T08:51:28.001Z</time></trkpt><trkpt lat="40.68152654304719" lon="8.748138804566578"><ele>482.0</ele><time>2026-03-29T08:51:29.001Z</time></trkpt><trkpt lat="40.68143709458424" lon="8.74812553084545"><ele>482.0</ele><time>2026-03-29T08:51:30.001Z</time></trkpt><trkpt lat="40.6812570628372" lon="8.748079595466075"><ele>482.0</ele><time>2026-03-29T08:51:31.001Z</time></trkpt><trkpt lat="40.68108572510898" lon="8.748031734508821"><ele>482.0</ele><time>2026-03-29T08:51:32.001Z</time></trkpt><trkpt lat="40.680909061991194" lon="8.7479870698994"><ele>482.3333333333333</ele><time>2026-03-29T08:51:33.001Z</time></trkpt><trkpt lat="40.680723857074035" lon="8.747937549274637"><ele>482.66666666666663</ele><time>2026-03-29T08:51:34.001Z</time></trkpt><trkpt lat="40.68054315653274" lon="8.747889955646905"><ele>483.0</ele><time>2026-03-29T08:51:35.001Z</time></trkpt><trkpt lat="40.680377708405345" lon="8.747847021703036"><ele>482.66666666666663</ele><time>2026-03-29T08:51:36.001Z</time></trkpt><trkpt lat="40.68021170556289" lon="8.747803459928988"><ele>482.3333333333333</ele><time>2026-03-29T08:51:37.001Z</time></trkpt><trkpt lat="40.68008033223145" lon="8.747768985519526"><ele>482.0</ele><time>2026-03-29T08:51:38.001Z</time></trkpt><trkpt lat="40.67990721913706" lon="8.747726767192427"><ele>482.0</ele><time>2026-03-29T08:51:39.001Z</time></trkpt><trkpt lat="40.67973734643019" lon="8.747701671367027"><ele>482.0</ele><time>2026-03-29T08:51:40.001Z</time></trkpt><trkpt lat="40.67955356592096" lon="8.747702657813564"><ele>482.0</ele><time>2026-03-29T08:51:41.001Z</time></trkpt><trkpt lat="40.67937334028364" lon="8.747719135817261"><ele>482.0</ele><time>2026-03-29T08:51:42.001Z</time></trkpt><trkpt lat="40.67919636189639" lon="8.747740876779552"><ele>482.0</ele><time>2026-03-29T08:51:43.001Z</time></trkpt><trkpt lat="40.67901112580255" lon="8.747763933954031"><ele>482.0</ele><time>2026-03-29T08:51:44.001Z</time></trkpt><trkpt lat="40.678827428774035" lon="8.74780341620808"><ele>482.0</ele><time>2026-03-29T08:51:45.001Z</time></trkpt><trkpt lat="40.678639302628284" lon="8.747810216469922"><ele>482.0</ele><time>2026-03-29T08:51:46.001Z</time></trkpt><trkpt lat="40.678455638357214" lon="8.747844561938072"><ele>482.0</ele><time>2026-03-29T08:51:47.001Z</time></trkpt><trkpt lat="40.67826925320137" lon="8.747857562647452"><ele>480.66666666666663</ele><time>2026-03-29T08:51:48.001Z</time></trkpt><trkpt lat="40.6780876230807" lon="8.747882252955929"><ele>479.33333333333337</ele><time>2026-03-29T08:51:49.001Z</time></trkpt><trkpt lat="40.67792717529558" lon="8.747904063796911"><ele>478.0</ele><time>2026-03-29T08:51:50.001Z</time></trkpt><trkpt lat="40.67776418686898" lon="8.74792621999925"><ele>476.33333333333337</ele><time>2026-03-29T08:51:51.001Z</time></trkpt><trkpt lat="40.677605630167555" lon="8.747947773772676"><ele>474.66666666666663</ele><time>2026-03-29T08:51:52.001Z</time></trkpt><trkpt lat="40.67743990997086" lon="8.747971340554717"><ele>473.0</ele><time>2026-03-29T08:51:53.001Z</time></trkpt><trkpt lat="40.67730044417676" lon="8.74799755204619"><ele>473.0</ele><time>2026-03-29T08:51:54.001Z</time></trkpt><trkpt lat="40.67717295065145" lon="8.748028486945016"><ele>473.0</ele><time>2026-03-29T08:51:55.001Z</time></trkpt><trkpt lat="40.67703011105486" lon="8.74807185904951"><ele>473.0</ele><time>2026-03-29T08:51:56.001Z</time></trkpt><trkpt lat="40.676883900369255" lon="8.748154343177696"><ele>473.0</ele><time>2026-03-29T08:51:57.001Z</time></trkpt><trkpt lat="40.67677669937224" lon="8.748252386470151"><ele>473.0</ele><time>2026-03-29T08:51:58.001Z</time></trkpt><trkpt lat="40.67665062587364" lon="8.748369750389521"><ele>473.0</ele><time>2026-03-29T08:51:59.001Z</time></trkpt><trkpt lat="40.676536457145644" lon="8.748477007337327"><ele>473.0</ele><time>2026-03-29T08:52:00.001Z</time></trkpt><trkpt lat="40.67641763586332" lon="8.74855771879902"><ele>473.0</ele><time>2026-03-29T08:52:01.001Z</time></trkpt><trkpt lat="40.67629953081111" lon="8.748646499230803"><ele>473.25</ele><time>2026-03-29T08:52:02.001Z</time></trkpt><trkpt lat="40.67618412577892" lon="8.74872476340728"><ele>473.5</ele><time>2026-03-29T08:52:03.001Z</time></trkpt><trkpt lat="40.67605688006244" lon="8.748827599252623"><ele>473.75</ele><time>2026-03-29T08:52:04.001Z</time></trkpt><trkpt lat="40.675944749862595" lon="8.748870571615976"><ele>474.0</ele><time>2026-03-29T08:52:05.001Z</time></trkpt><trkpt lat="40.67581669223035" lon="8.748908856630958"><ele>474.0</ele><time>2026-03-29T08:52:06.001Z</time></trkpt><trkpt lat="40.675676519046064" lon="8.748944105345544"><ele>474.0</ele><time>2026-03-29T08:52:07.001Z</time></trkpt><trkpt lat="40.675504100918836" lon="8.74898176058285"><ele>474.0</ele><time>2026-03-29T08:52:08.001Z</time></trkpt><trkpt lat="40.67534457778928" lon="8.74901253203012"><ele>472.0</ele><time>2026-03-29T08:52:09Z</time></trkpt><trkpt lat="40.67516986542898" lon="8.749034509723668"><ele>470.0</ele><time>2026-03-29T08:52:10Z</time></trkpt><trkpt lat="40.67499822259094" lon="8.749081407733549"><ele>468.0</ele><time>2026-03-29T08:52:11Z</time></trkpt><trkpt lat="40.674841829309685" lon="8.749107610000204"><ele>468.0</ele><time>2026-03-29T08:52:12Z</time></trkpt><trkpt lat="40.67470194948191" lon="8.749130587425935"><ele>468.0</ele><time>2026-03-29T08:52:13Z</time></trkpt><trkpt lat="40.674533333897706" lon="8.749158627605759"><ele>468.0</ele><time>2026-03-29T08:52:14Z</time></trkpt><trkpt lat="40.67438237615655" lon="8.749190023109396"><ele>467.0</ele><time>2026-03-29T08:52:15Z</time></trkpt><trkpt lat="40.67423087265364" lon="8.749249715409034"><ele>466.0</ele><time>2026-03-29T08:52:16Z</time></trkpt><trkpt lat="40.67407785633226" lon="8.749369123561133"><ele>465.0</ele><time>2026-03-29T08:52:17Z</time></trkpt><trkpt lat="40.673917916511236" lon="8.749476983795212"><ele>465.0</ele><time>2026-03-29T08:52:18Z</time></trkpt><trkpt lat="40.673754274135575" lon="8.749587323974325"><ele>465.0</ele><time>2026-03-29T08:52:19Z</time></trkpt><trkpt lat="40.67361313562767" lon="8.749676253561706"><ele>465.0</ele><time>2026-03-29T08:52:20Z</time></trkpt><trkpt lat="40.67347694273872" lon="8.749784981296063"><ele>462.75</ele><time>2026-03-29T08:52:21Z</time></trkpt><trkpt lat="40.67336440389114" lon="8.749857371128636"><ele>460.5</ele><time>2026-03-29T08:52:22Z</time></trkpt><trkpt lat="40.67325438355678" lon="8.749920230801209"><ele>458.25</ele><time>2026-03-29T08:52:23Z</time></trkpt><trkpt lat="40.67314779795556" lon="8.749944574541539"><ele>456.0</ele><time>2026-03-29T08:52:24Z</time></trkpt><trkpt lat="40.67301624085541" lon="8.74996046206621"><ele>456.0</ele><time>2026-03-29T08:52:25Z</time></trkpt><trkpt lat="40.67286842670091" lon="8.749960671652037"><ele>456.0</ele><time>2026-03-29T08:52:26Z</time></trkpt><trkpt lat="40.6727161215547" lon="8.74994390050516"><ele>456.0</ele><time>2026-03-29T08:52:27Z</time></trkpt><trkpt lat="40.67256860970992" lon="8.749941155397643"><ele>456.0</ele><time>2026-03-29T08:52:28Z</time></trkpt><trkpt lat="40.67242994754761" lon="8.749900957765771"><ele>453.5</ele><time>2026-03-29T08:52:29Z</time></trkpt><trkpt lat="40.67229177499803" lon="8.749883478916002"><ele>451.0</ele><time>2026-03-29T08:52:30Z</time></trkpt><trkpt lat="40.67216179542069" lon="8.749871166933247"><ele>448.5</ele><time>2026-03-29T08:52:31Z</time></trkpt><trkpt lat="40.672041498701525" lon="8.749866558343568"><ele>446.0</ele><time>2026-03-29T08:52:32Z</time></trkpt><trkpt lat="40.671923402898045" lon="8.749853953168687"><ele>444.75</ele><time>2026-03-29T08:52:33Z</time></trkpt><trkpt lat="40.6717958150618" lon="8.749831299783436"><ele>443.5</ele><time>2026-03-29T08:52:34Z</time></trkpt><trkpt lat="40.67166444378162" lon="8.749821841048162"><ele>442.25</ele><time>2026-03-29T08:52:35Z</time></trkpt><trkpt lat="40.67154263909396" lon="8.749800263594727"><ele>441.0</ele><time>2026-03-29T08:52:36Z</time></trkpt><trkpt lat="40.67141801116151" lon="8.749795587677536"><ele>441.0</ele><time>2026-03-29T08:52:37Z</time></trkpt><trkpt lat="40.67130283722671" lon="8.749782543208232"><ele>441.0</ele><time>2026-03-29T08:52:38Z</time></trkpt><trkpt lat="40.67118463262343" lon="8.7497894001954"><ele>441.0</ele><time>2026-03-29T08:52:39Z</time></trkpt><trkpt lat="40.6711010074138" lon="8.74977339165543"><ele>441.0</ele><time>2026-03-29T08:52:40Z</time></trkpt><trkpt lat="40.67101379024353" lon="8.749763924581762"><ele>441.0</ele><time>2026-03-29T08:52:41Z</time></trkpt><trkpt lat="40.670940181245456" lon="8.749773354406628"><ele>440.5</ele><time>2026-03-29T08:52:42Z</time></trkpt><trkpt lat="40.67084473114709" lon="8.749745318238693"><ele>440.0</ele><time>2026-03-29T08:52:43Z</time></trkpt><trkpt lat="40.670758377453375" lon="8.749735814304698"><ele>439.5</ele><time>2026-03-29T08:52:44Z</time></trkpt><trkpt lat="40.670679190242105" lon="8.749727099103866"><ele>439.0</ele><time>2026-03-29T08:52:45Z</time></trkpt><trkpt lat="40.670597282574995" lon="8.749718084492054"><ele>438.5</ele><time>2026-03-29T08:52:46Z</time></trkpt><trkpt lat="40.670497720548134" lon="8.749707126867262"><ele>438.0</ele><time>2026-03-29T08:52:47Z</time></trkpt><trkpt lat="40.67041106812068" lon="8.749698197052632"><ele>438.0</ele><time>2026-03-29T08:52:48Z</time></trkpt><trkpt lat="40.67030003730809" lon="8.749686795057192"><ele>437.99999999999994</ele><time>2026-03-29T08:52:49Z</time></trkpt><trkpt lat="40.67023263334493" lon="8.749679873198994"><ele>437.99999999999994</ele><time>2026-03-29T08:52:50Z</time></trkpt><trkpt lat="40.67015469268042" lon="8.749671869301416"><ele>438.0</ele><time>2026-03-29T08:52:51Z</time></trkpt><trkpt lat="40.67003261516232" lon="8.74966017376739"><ele>438.0</ele><time>2026-03-29T08:52:53Z</time></trkpt><trkpt lat="40.66995235407571" lon="8.74965314049658"><ele>437.59999999999997</ele><time>2026-03-29T08:52:55Z</time></trkpt><trkpt lat="40.66983701418321" lon="8.749643033275502"><ele>437.19999999999993</ele><time>2026-03-29T08:52:57Z</time></trkpt><trkpt lat="40.66977191219452" lon="8.749637328388998"><ele>436.8</ele><time>2026-03-29T08:52:58Z</time></trkpt><trkpt lat="40.66970448907375" lon="8.749631420042029"><ele>436.4</ele><time>2026-03-29T08:52:59Z</time></trkpt><trkpt lat="40.66962711425906" lon="8.749625700452478"><ele>436.0</ele><time>2026-03-29T08:53:00Z</time></trkpt><trkpt lat="40.6694908256033" lon="8.749614124626007"><ele>436.1666666666667</ele><time>2026-03-29T08:53:02Z</time></trkpt><trkpt lat="40.66941977038667" lon="8.749607983458574"><ele>436.33333333333337</ele><time>2026-03-29T08:53:03Z</time></trkpt><trkpt lat="40.66934897975601" lon="8.749598911648405"><ele>436.5</ele><time>2026-03-29T08:53:04Z</time></trkpt><trkpt lat="40.66921784534149" lon="8.749584504197232"><ele>436.66666666666663</ele><time>2026-03-29T08:53:06Z</time></trkpt><trkpt lat="40.669123850877206" lon="8.749574788984818"><ele>436.8333333333333</ele><time>2026-03-29T08:53:07Z</time></trkpt><trkpt lat="40.66905458683057" lon="8.749570952146698"><ele>437.0</ele><time>2026-03-29T08:53:08Z</time></trkpt><trkpt lat="40.668934695768485" lon="8.749564661605271"><ele>437.0</ele><time>2026-03-29T08:53:10Z</time></trkpt><trkpt lat="40.668843821311" lon="8.749560053693227"><ele>437.00000000000006</ele><time>2026-03-29T08:53:12Z</time></trkpt><trkpt lat="40.66877885674239" lon="8.749456807414033"><ele>437.00000000000006</ele><time>2026-03-29T08:53:14Z</time></trkpt><trkpt lat="40.66868106242813" lon="8.749464935350519"><ele>437.0</ele><time>2026-03-29T08:53:15Z</time></trkpt><trkpt lat="40.668612838333246" lon="8.749417563594132"><ele>437.0</ele><time>2026-03-29T08:53:16Z</time></trkpt><trkpt lat="40.668530827176625" lon="8.749399694191803"><ele>436.40000000000003</ele><time>2026-03-29T08:53:17Z</time></trkpt><trkpt lat="40.66844560622562" lon="8.74936951943744"><ele>435.80000000000007</ele><time>2026-03-29T08:53:18Z</time></trkpt><trkpt lat="40.668310866422374" lon="8.749307803983415"><ele>435.2</ele><time>2026-03-29T08:53:20Z</time></trkpt><trkpt lat="40.66822587451813" lon="8.749278316252692"><ele>434.6</ele><time>2026-03-29T08:53:21Z</time></trkpt><trkpt lat="40.6681449139672" lon="8.749249757796473"><ele>434.0</ele><time>2026-03-29T08:53:22Z</time></trkpt><trkpt lat="40.66805027887016" lon="8.749215100470556"><ele>434.0</ele><time>2026-03-29T08:53:23Z</time></trkpt><trkpt lat="40.66796072420287" lon="8.749178937166919"><ele>434.0</ele><time>2026-03-29T08:53:24Z</time></trkpt><trkpt lat="40.667879961099125" lon="8.749136002845923"><ele>434.0</ele><time>2026-03-29T08:53:25Z</time></trkpt><trkpt lat="40.66776836825586" lon="8.749066649965243"><ele>434.0</ele><time>2026-03-29T08:53:27Z</time></trkpt><trkpt lat="40.66769218941604" lon="8.749016433274623"><ele>434.0</ele><time>2026-03-29T08:53:28Z</time></trkpt><trkpt lat="40.66761400505815" lon="8.748963098642676"><ele>433.8333333333333</ele><time>2026-03-29T08:53:29Z</time></trkpt><trkpt lat="40.66753483162411" lon="8.748907271213067"><ele>433.66666666666663</ele><time>2026-03-29T08:53:30Z</time></trkpt><trkpt lat="40.66746387144217" lon="8.748856063111708"><ele>433.5</ele><time>2026-03-29T08:53:31Z</time></trkpt><trkpt lat="40.66738823368733" lon="8.748818342174353"><ele>433.33333333333337</ele><time>2026-03-29T08:53:32Z</time></trkpt><trkpt lat="40.66732064796312" lon="8.748749862288081"><ele>433.1666666666667</ele><time>2026-03-29T08:53:33Z</time></trkpt><trkpt lat="40.667246526561144" lon="8.748703412189212"><ele>433.0</ele><time>2026-03-29T08:53:34Z</time></trkpt><trkpt lat="40.66716565582493" lon="8.748654012567206"><ele>433.0</ele><time>2026-03-29T08:53:35Z</time></trkpt><trkpt lat="40.66709239463165" lon="8.74860926111778"><ele>432.99999999999994</ele><time>2026-03-29T08:53:36Z</time></trkpt><trkpt lat="40.667022571141786" lon="8.74856660963363"><ele>432.99999999999994</ele><time>2026-03-29T08:53:37Z</time></trkpt><trkpt lat="40.66694992149946" lon="8.748522231767426"><ele>433.0</ele><time>2026-03-29T08:53:38Z</time></trkpt><trkpt lat="40.666831026493234" lon="8.748440049881427"><ele>433.0</ele><time>2026-03-29T08:53:40Z</time></trkpt><trkpt lat="40.66676254855453" lon="8.748383044534593"><ele>433.0</ele><time>2026-03-29T08:53:42Z</time></trkpt><trkpt lat="40.66669881292297" lon="8.748305100468764"><ele>432.99999999999994</ele><time>2026-03-29T08:53:45Z</time></trkpt><trkpt lat="40.66663337950595" lon="8.748167380147269"><ele>432.99999999999994</ele><time>2026-03-29T08:53:47Z</time></trkpt><trkpt lat="40.66654772016197" lon="8.748042790557404"><ele>433.0</ele><time>2026-03-29T08:53:49Z</time></trkpt><trkpt lat="40.66649191825038" lon="8.747993069036497"><ele>433.0</ele><time>2026-03-29T08:53:50Z</time></trkpt><trkpt lat="40.66645944778772" lon="8.747917606447487"><ele>433.00000000000006</ele><time>2026-03-29T08:53:51Z</time></trkpt><trkpt lat="40.666392378124044" lon="8.74787084987663"><ele>433.0</ele><time>2026-03-29T08:53:52Z</time></trkpt><trkpt lat="40.6663278762607" lon="8.747817397260743"><ele>433.0</ele><time>2026-03-29T08:53:53Z</time></trkpt><trkpt lat="40.66627314417613" lon="8.747764159814235"><ele>433.0</ele><time>2026-03-29T08:53:54Z</time></trkpt><trkpt lat="40.66619708318281" lon="8.7477563392901"><ele>433.00000000000006</ele><time>2026-03-29T08:53:55Z</time></trkpt><trkpt lat="40.666088366944706" lon="8.74768563240069"><ele>433.0</ele><time>2026-03-29T08:53:57Z</time></trkpt><trkpt lat="40.666047194175334" lon="8.747617271506561"><ele>432.59999999999997</ele><time>2026-03-29T08:53:58Z</time></trkpt><trkpt lat="40.66596912519991" lon="8.747487549947717"><ele>432.19999999999993</ele><time>2026-03-29T08:54:00Z</time></trkpt><trkpt lat="40.66592905758504" lon="8.74740598075559"><ele>431.8</ele><time>2026-03-29T08:54:01Z</time></trkpt><trkpt lat="40.66586223388785" lon="8.747319777342188"><ele>431.4</ele><time>2026-03-29T08:54:02Z</time></trkpt><trkpt lat="40.66582428410673" lon="8.747210971638196"><ele>431.0</ele><time>2026-03-29T08:54:03Z</time></trkpt><trkpt lat="40.66576098130163" lon="8.747102379983454"><ele>431.0</ele><time>2026-03-29T08:54:04Z</time></trkpt><trkpt lat="40.665711595173434" lon="8.74701246895941"><ele>431.0</ele><time>2026-03-29T08:54:05Z</time></trkpt><trkpt lat="40.66565890626439" lon="8.746953049793266"><ele>431.0</ele><time>2026-03-29T08:54:06Z</time></trkpt><trkpt lat="40.665548931853124" lon="8.746870802261567"><ele>431.0</ele><time>2026-03-29T08:54:08Z</time></trkpt><trkpt lat="40.66545926903767" lon="8.746753297878056"><ele>431.0</ele><time>2026-03-29T08:54:10Z</time></trkpt><trkpt lat="40.66540533695246" lon="8.746681620951994"><ele>431.4</ele><time>2026-03-29T08:54:11Z</time></trkpt><trkpt lat="40.66533632503413" lon="8.746560363117412"><ele>431.8</ele><time>2026-03-29T08:54:13Z</time></trkpt><trkpt lat="40.66526655722562" lon="8.746413629891927"><ele>432.19999999999993</ele><time>2026-03-29T08:54:15Z</time></trkpt><trkpt lat="40.66524490600223" lon="8.746299371238"><ele>432.59999999999997</ele><time>2026-03-29T08:54:16Z</time></trkpt><trkpt lat="40.66520315523671" lon="8.746207881506932"><ele>433.0</ele><time>2026-03-29T08:54:17Z</time></trkpt><trkpt lat="40.665152300681" lon="8.74609353275711"><ele>433.00000000000006</ele><time>2026-03-29T08:54:18Z</time></trkpt><trkpt lat="40.66507513206094" lon="8.746021270587377"><ele>433.0</ele><time>2026-03-29T08:54:19Z</time></trkpt><trkpt lat="40.66503085088375" lon="8.745957830800755"><ele>433.0</ele><time>2026-03-29T08:54:20Z</time></trkpt><trkpt lat="40.6649793512382" lon="8.745892653424507"><ele>433.0</ele><time>2026-03-29T08:54:21Z</time></trkpt><trkpt lat="40.66492209502733" lon="8.745816958806696"><ele>433.00000000000006</ele><time>2026-03-29T08:54:22Z</time></trkpt><trkpt lat="40.664866079439086" lon="8.745756971666246"><ele>433.0</ele><time>2026-03-29T08:54:23Z</time></trkpt><trkpt lat="40.66481995017942" lon="8.745691094705542"><ele>433.00000000000006</ele><time>2026-03-29T08:54:24Z</time></trkpt><trkpt lat="40.66476220148659" lon="8.745629272884822"><ele>433.0</ele><time>2026-03-29T08:54:25Z</time></trkpt><trkpt lat="40.664701249136066" lon="8.745552585915375"><ele>433.0</ele><time>2026-03-29T08:54:26Z</time></trkpt><trkpt lat="40.66464808482721" lon="8.745473838532616"><ele>433.0</ele><time>2026-03-29T08:54:27Z</time></trkpt><trkpt lat="40.66459172571822" lon="8.745389461522551"><ele>433.00000000000006</ele><time>2026-03-29T08:54:28Z</time></trkpt><trkpt lat="40.66454250865937" lon="8.745301420500375"><ele>433.0</ele><time>2026-03-29T08:54:29Z</time></trkpt><trkpt lat="40.66448866492068" lon="8.745209446062985"><ele>431.83333333333337</ele><time>2026-03-29T08:54:30Z</time></trkpt><trkpt lat="40.66443793839893" lon="8.745113708393284"><ele>430.6666666666667</ele><time>2026-03-29T08:54:31Z</time></trkpt><trkpt lat="40.66439224201565" lon="8.745015262785136"><ele>429.5</ele><time>2026-03-29T08:54:32Z</time></trkpt><trkpt lat="40.66434387176681" lon="8.744924625173416"><ele>428.33333333333337</ele><time>2026-03-29T08:54:33Z</time></trkpt><trkpt lat="40.664298065907325" lon="8.744840946058556"><ele>427.1666666666667</ele><time>2026-03-29T08:54:34Z</time></trkpt><trkpt lat="40.66426233573403" lon="8.744760462374474"><ele>426.0</ele><time>2026-03-29T08:54:35Z</time></trkpt><trkpt lat="40.66420091499854" lon="8.744615634766005"><ele>426.0</ele><time>2026-03-29T08:54:37Z</time></trkpt><trkpt lat="40.66417391822413" lon="8.744538364997831"><ele>426.0</ele><time>2026-03-29T08:54:38Z</time></trkpt><trkpt lat="40.66412751325602" lon="8.744411009649863"><ele>426.0</ele><time>2026-03-29T08:54:40Z</time></trkpt><trkpt lat="40.66407427051412" lon="8.744270475641263"><ele>426.0</ele><time>2026-03-29T08:54:42Z</time></trkpt><trkpt lat="40.66403009253055" lon="8.744132708236268"><ele>426.0</ele><time>2026-03-29T08:54:44Z</time></trkpt><trkpt lat="40.66398583344265" lon="8.7439899145088"><ele>425.8333333333333</ele><time>2026-03-29T08:54:46Z</time></trkpt><trkpt lat="40.663929816016" lon="8.743839723161374"><ele>425.66666666666663</ele><time>2026-03-29T08:54:48Z</time></trkpt><trkpt lat="40.663920183029575" lon="8.743754284434242"><ele>425.5</ele><time>2026-03-29T08:54:49Z</time></trkpt><trkpt lat="40.66390631668333" lon="8.743632410125478"><ele>425.3333333333333</ele><time>2026-03-29T08:54:51Z</time></trkpt><trkpt lat="40.66396738753749" lon="8.743591569662183"><ele>425.16666666666663</ele><time>2026-03-29T08:55:12Z</time></trkpt><trkpt lat="40.664037869011715" lon="8.74356479274112"><ele>425.0</ele><time>2026-03-29T08:55:15Z</time></trkpt><trkpt lat="40.664124019878535" lon="8.743588717498971"><ele>425.0</ele><time>2026-03-29T08:55:28Z</time></trkpt><trkpt lat="40.66407949966564" lon="8.743470575566695"><ele>425.0</ele><time>2026-03-29T08:55:54Z</time></trkpt><trkpt lat="40.664043022377406" lon="8.743549003847955"><ele>425.0</ele><time>2026-03-29T08:56:11Z</time></trkpt><trkpt lat="40.66395780734001" lon="8.743586422142227"><ele>425.0</ele><time>2026-03-29T08:56:14Z</time></trkpt><trkpt lat="40.663899374270464" lon="8.743515169923356"><ele>425.0</ele><time>2026-03-29T08:56:16Z</time></trkpt><trkpt lat="40.663887077697595" lon="8.743364694726589"><ele>424.57142857142856</ele><time>2026-03-29T08:56:18Z</time></trkpt><trkpt lat="40.66387353396186" lon="8.74327267001661"><ele>424.1428571428571</ele><time>2026-03-29T08:56:19Z</time></trkpt><trkpt lat="40.663860445292336" lon="8.743176624709731"><ele>423.7142857142857</ele><time>2026-03-29T08:56:20Z</time></trkpt><trkpt lat="40.66384514725346" lon="8.743081619588748"><ele>423.2857142857143</ele><time>2026-03-29T08:56:21Z</time></trkpt><trkpt lat="40.66382577997018" lon="8.742986896303583"><ele>422.8571428571429</ele><time>2026-03-29T08:56:22Z</time></trkpt><trkpt lat="40.66380847746232" lon="8.742891288127865"><ele>422.42857142857144</ele><time>2026-03-29T08:56:23Z</time></trkpt><trkpt lat="40.663793702713726" lon="8.742797529019413"><ele>422.0</ele><time>2026-03-29T08:56:24Z</time></trkpt><trkpt lat="40.66378717864448" lon="8.742712852603528"><ele>421.25</ele><time>2026-03-29T08:56:25Z</time></trkpt><trkpt lat="40.66378450595286" lon="8.74258392791416"><ele>420.5</ele><time>2026-03-29T08:56:27Z</time></trkpt><trkpt lat="40.66359693283395" lon="8.74251738699453"><ele>419.75</ele><time>2026-03-29T08:56:35Z</time></trkpt><trkpt lat="40.66353196728147" lon="8.742529707892386"><ele>419.0</ele><time>2026-03-29T08:56:38Z</time></trkpt><trkpt lat="40.66348130762376" lon="8.742712075583565"><ele>418.66666666666663</ele><time>2026-03-29T08:56:42Z</time></trkpt><trkpt lat="40.663494264580585" lon="8.742794046546587"><ele>418.3333333333333</ele><time>2026-03-29T08:56:43Z</time></trkpt><trkpt lat="40.66350577167623" lon="8.742879020889761"><ele>418.0</ele><time>2026-03-29T08:56:44Z</time></trkpt><trkpt lat="40.6635092091447" lon="8.742965182767641"><ele>417.66666666666663</ele><time>2026-03-29T08:56:45Z</time></trkpt><trkpt lat="40.66351531034708" lon="8.743133608861601"><ele>417.3333333333333</ele><time>2026-03-29T08:56:47Z</time></trkpt><trkpt lat="40.66351582854701" lon="8.743224020554354"><ele>417.0</ele><time>2026-03-29T08:56:48Z</time></trkpt><trkpt lat="40.663523709799954" lon="8.743316745364817"><ele>417.0</ele><time>2026-03-29T08:56:49Z</time></trkpt><trkpt lat="40.663529033251365" lon="8.743413710459304"><ele>417.0</ele><time>2026-03-29T08:56:50Z</time></trkpt><trkpt lat="40.663526311589216" lon="8.743508695790318"><ele>417.0</ele><time>2026-03-29T08:56:51Z</time></trkpt><trkpt lat="40.66353095125522" lon="8.743605289524913"><ele>417.0</ele><time>2026-03-29T08:56:52Z</time></trkpt><trkpt lat="40.66354321475434" lon="8.743704609835369"><ele>417.0</ele><time>2026-03-29T08:56:53Z</time></trkpt><trkpt lat="40.66355493818318" lon="8.7438062451111"><ele>417.0</ele><time>2026-03-29T08:56:54Z</time></trkpt><trkpt lat="40.66356108735669" lon="8.74390675589909"><ele>417.14285714285717</ele><time>2026-03-29T08:56:55Z</time></trkpt><trkpt lat="40.66356671983652" lon="8.744006691144126"><ele>417.2857142857143</ele><time>2026-03-29T08:56:56Z</time></trkpt><trkpt lat="40.663571505433815" lon="8.744106842535698"><ele>417.42857142857144</ele><time>2026-03-29T08:56:57Z</time></trkpt><trkpt lat="40.66357501461561" lon="8.744205203236417"><ele>417.57142857142856</ele><time>2026-03-29T08:56:58Z</time></trkpt><trkpt lat="40.66358173331251" lon="8.744300835353805"><ele>417.71428571428567</ele><time>2026-03-29T08:56:59Z</time></trkpt><trkpt lat="40.66359411115622" lon="8.744395473433608"><ele>417.85714285714283</ele><time>2026-03-29T08:57:00Z</time></trkpt><trkpt lat="40.6636029155924" lon="8.744488221634194"><ele>418.0</ele><time>2026-03-29T08:57:01Z</time></trkpt><trkpt lat="40.663613504417995" lon="8.744582818222586"><ele>419.33333333333337</ele><time>2026-03-29T08:57:02Z</time></trkpt><trkpt lat="40.66362762180938" lon="8.744678548588745"><ele>420.6666666666667</ele><time>2026-03-29T08:57:03Z</time></trkpt><trkpt lat="40.66363634825357" lon="8.744772522390695"><ele>422.0</ele><time>2026-03-29T08:57:04Z</time></trkpt><trkpt lat="40.66364407630488" lon="8.744863084181429"><ele>423.33333333333337</ele><time>2026-03-29T08:57:05Z</time></trkpt><trkpt lat="40.66364997394091" lon="8.74494947084983"><ele>424.6666666666667</ele><time>2026-03-29T08:57:06Z</time></trkpt><trkpt lat="40.66365577642158" lon="8.745033051511887"><ele>426.0</ele><time>2026-03-29T08:57:07Z</time></trkpt><trkpt lat="40.66367464382087" lon="8.745183722934286"><ele>425.8</ele><time>2026-03-29T08:57:09Z</time></trkpt><trkpt lat="40.663697689450174" lon="8.745289406212951"><ele>425.6</ele><time>2026-03-29T08:57:11Z</time></trkpt><trkpt lat="40.66366570967167" lon="8.745367975906667"><ele>425.4</ele><time>2026-03-29T08:57:15Z</time></trkpt><trkpt lat="40.663533055120986" lon="8.74540174534624"><ele>425.2</ele><time>2026-03-29T08:57:16Z</time></trkpt><trkpt lat="40.66346417187922" lon="8.745430040942551"><ele>425.0</ele><time>2026-03-29T08:57:18Z</time></trkpt><trkpt lat="40.66335568326073" lon="8.745430943508913"><ele>424.16666666666663</ele><time>2026-03-29T08:57:20Z</time></trkpt><trkpt lat="40.66328829525758" lon="8.74541252623023"><ele>423.3333333333333</ele><time>2026-03-29T08:57:21Z</time></trkpt><trkpt lat="40.66321750806328" lon="8.745388990932526"><ele>422.5</ele><time>2026-03-29T08:57:22Z</time></trkpt><trkpt lat="40.663142093073176" lon="8.745354080064333"><ele>421.66666666666663</ele><time>2026-03-29T08:57:23Z</time></trkpt><trkpt lat="40.66305315646816" lon="8.74535048885917"><ele>420.8333333333333</ele><time>2026-03-29T08:57:24Z</time></trkpt><trkpt lat="40.6629647906145" lon="8.745316360573957"><ele>420.0</ele><time>2026-03-29T08:57:25Z</time></trkpt><trkpt lat="40.662869490454526" lon="8.745305045852673"><ele>419.5</ele><time>2026-03-29T08:57:26Z</time></trkpt><trkpt lat="40.66277804194791" lon="8.745282419326486"><ele>419.0</ele><time>2026-03-29T08:57:27Z</time></trkpt><trkpt lat="40.66268746184916" lon="8.745260087103022"><ele>418.5</ele><time>2026-03-29T08:57:28Z</time></trkpt><trkpt lat="40.66259904593867" lon="8.745238277269825"><ele>418.0</ele><time>2026-03-29T08:57:29Z</time></trkpt><trkpt lat="40.662512917264415" lon="8.745217031622053"><ele>417.5</ele><time>2026-03-29T08:57:30Z</time></trkpt><trkpt lat="40.66243006956021" lon="8.745197898047953"><ele>417.0</ele><time>2026-03-29T08:57:31Z</time></trkpt><trkpt lat="40.66234931042253" lon="8.745181337075229"><ele>417.0</ele><time>2026-03-29T08:57:32Z</time></trkpt><trkpt lat="40.66227803678177" lon="8.745166721231426"><ele>417.0</ele><time>2026-03-29T08:57:33Z</time></trkpt><trkpt lat="40.66221423760194" lon="8.745153637885734"><ele>417.0</ele><time>2026-03-29T08:57:34Z</time></trkpt><trkpt lat="40.66214676573661" lon="8.745148496639523"><ele>417.0</ele><time>2026-03-29T08:57:35Z</time></trkpt><trkpt lat="40.66207945142266" lon="8.745063018204414"><ele>417.0</ele><time>2026-03-29T08:57:36Z</time></trkpt><trkpt lat="40.662009793909334" lon="8.745008859876673"><ele>417.0</ele><time>2026-03-29T08:57:37Z</time></trkpt><trkpt lat="40.66194026886431" lon="8.744957145492018"><ele>416.6666666666667</ele><time>2026-03-29T08:57:38Z</time></trkpt><trkpt lat="40.66187458852273" lon="8.744896536518427"><ele>416.33333333333337</ele><time>2026-03-29T08:57:39Z</time></trkpt><trkpt lat="40.66180404147369" lon="8.7448399752347"><ele>416.0</ele><time>2026-03-29T08:57:40Z</time></trkpt><trkpt lat="40.661731103965046" lon="8.744778157881353"><ele>415.6666666666667</ele><time>2026-03-29T08:57:41Z</time></trkpt><trkpt lat="40.66165556642498" lon="8.744710507728943"><ele>415.33333333333337</ele><time>2026-03-29T08:57:42Z</time></trkpt><trkpt lat="40.66157378653709" lon="8.744642893953724"><ele>415.0</ele><time>2026-03-29T08:57:43Z</time></trkpt><trkpt lat="40.661490576903944" lon="8.744571916183544"><ele>415.00000000000006</ele><time>2026-03-29T08:57:44Z</time></trkpt><trkpt lat="40.66141121582018" lon="8.744498992035844"><ele>415.0</ele><time>2026-03-29T08:57:45Z</time></trkpt><trkpt lat="40.66133616718502" lon="8.744433319069541"><ele>415.0</ele><time>2026-03-29T08:57:46Z</time></trkpt><trkpt lat="40.66126665662856" lon="8.744369609273212"><ele>415.0</ele><time>2026-03-29T08:57:47Z</time></trkpt><trkpt lat="40.66119926945763" lon="8.744307079637945"><ele>415.00000000000006</ele><time>2026-03-29T08:57:48Z</time></trkpt><trkpt lat="40.6611330728129" lon="8.744246175957757"><ele>415.0</ele><time>2026-03-29T08:57:49Z</time></trkpt><trkpt lat="40.66107149049125" lon="8.744179788965933"><ele>416.1666666666667</ele><time>2026-03-29T08:57:50Z</time></trkpt><trkpt lat="40.661009240452366" lon="8.7441193952055"><ele>417.33333333333337</ele><time>2026-03-29T08:57:51Z</time></trkpt><trkpt lat="40.66095309063908" lon="8.744067022128986"><ele>418.5</ele><time>2026-03-29T08:57:52Z</time></trkpt><trkpt lat="40.66087396568449" lon="8.743972479159213"><ele>419.66666666666663</ele><time>2026-03-29T08:57:54Z</time></trkpt><trkpt lat="40.660811685121864" lon="8.743921545221825"><ele>420.8333333333333</ele><time>2026-03-29T08:57:56Z</time></trkpt><trkpt lat="40.66075690924747" lon="8.743867056646202"><ele>422.0</ele><time>2026-03-29T08:57:59Z</time></trkpt><trkpt lat="40.66058470951352" lon="8.743984810823378"><ele>422.0</ele><time>2026-03-29T08:58:42Z</time></trkpt><trkpt lat="40.6605361476801" lon="8.744114554525707"><ele>422.0</ele><time>2026-03-29T08:58:45.001Z</time></trkpt><trkpt lat="40.660471546439055" lon="8.74422946905106"><ele>422.0</ele><time>2026-03-29T08:58:47.001Z</time></trkpt><trkpt lat="40.660405998778394" lon="8.744357482525636"><ele>422.0</ele><time>2026-03-29T08:58:49.001Z</time></trkpt><trkpt lat="40.660381079503495" lon="8.744474334296628"><ele>422.0</ele><time>2026-03-29T08:58:51.001Z</time></trkpt><trkpt lat="40.66045701270996" lon="8.744497221643156"><ele>421.20000000000005</ele><time>2026-03-29T08:59:13.001Z</time></trkpt><trkpt lat="40.66053925630376" lon="8.744519209205619"><ele>420.4</ele><time>2026-03-29T08:59:15.001Z</time></trkpt><trkpt lat="40.66059938308334" lon="8.74454523384584"><ele>419.6</ele><time>2026-03-29T08:59:17.001Z</time></trkpt><trkpt lat="40.66067282746761" lon="8.74461124738166"><ele>418.79999999999995</ele><time>2026-03-29T08:59:41.001Z</time></trkpt><trkpt lat="40.66061219206916" lon="8.744573403254899"><ele>418.0</ele><time>2026-03-29T09:00:29.001Z</time></trkpt><trkpt lat="40.66041095821977" lon="8.744541487131652"><ele>418.00000000000006</ele><time>2026-03-29T09:00:30.001Z</time></trkpt><trkpt lat="40.660467872257286" lon="8.744649560683188"><ele>418.0</ele><time>2026-03-29T09:00:31.001Z</time></trkpt><trkpt lat="40.660372870418065" lon="8.74460966132726"><ele>418.0</ele><time>2026-03-29T09:00:33.001Z</time></trkpt><trkpt lat="40.66029864105526" lon="8.744547358030713"><ele>418.0</ele><time>2026-03-29T09:00:35.001Z</time></trkpt><trkpt lat="40.66024381606379" lon="8.744481155585062"><ele>418.00000000000006</ele><time>2026-03-29T09:00:37.001Z</time></trkpt><trkpt lat="40.660216206617456" lon="8.74438386700731"><ele>418.0</ele><time>2026-03-29T09:00:39.001Z</time></trkpt><trkpt lat="40.66026125193267" lon="8.74424918904471"><ele>418.79999999999995</ele><time>2026-03-29T09:00:41.001Z</time></trkpt><trkpt lat="40.660326755690086" lon="8.744118241305516"><ele>419.6</ele><time>2026-03-29T09:00:43.001Z</time></trkpt><trkpt lat="40.66038077241429" lon="8.743994243882291"><ele>420.4</ele><time>2026-03-29T09:00:45.001Z</time></trkpt><trkpt lat="40.66042056350703" lon="8.743895834482528"><ele>421.20000000000005</ele><time>2026-03-29T09:00:47.001Z</time></trkpt><trkpt lat="40.66050418899958" lon="8.743950369359714"><ele>422.0</ele><time>2026-03-29T09:00:49.001Z</time></trkpt><trkpt lat="40.66055322116556" lon="8.744006007996278"><ele>422.0</ele><time>2026-03-29T09:00:50.001Z</time></trkpt><trkpt lat="40.660607362172115" lon="8.744060019455837"><ele>422.0</ele><time>2026-03-29T09:00:51.001Z</time></trkpt><trkpt lat="40.66066878249453" lon="8.74411203833807"><ele>422.0</ele><time>2026-03-29T09:00:52.001Z</time></trkpt><trkpt lat="40.660730325616164" lon="8.744166855285723"><ele>422.0</ele><time>2026-03-29T09:00:53.001Z</time></trkpt><trkpt lat="40.66079386745905" lon="8.74421729943892"><ele>422.0</ele><time>2026-03-29T09:00:54.001Z</time></trkpt><trkpt lat="40.66085709728422" lon="8.744270222820065"><ele>422.0</ele><time>2026-03-29T09:00:55.001Z</time></trkpt><trkpt lat="40.660920083284324" lon="8.744324500971375"><ele>422.0</ele><time>2026-03-29T09:00:56.001Z</time></trkpt><trkpt lat="40.66098771499609" lon="8.744370965842924"><ele>421.3333333333333</ele><time>2026-03-29T09:00:57.001Z</time></trkpt><trkpt lat="40.66105923201448" lon="8.744416146611252"><ele>420.66666666666663</ele><time>2026-03-29T09:00:58.001Z</time></trkpt><trkpt lat="40.661126357499505" lon="8.744471234207657"><ele>420.0</ele><time>2026-03-29T09:00:59.001Z</time></trkpt><trkpt lat="40.66119038800829" lon="8.744530762823931"><ele>419.33333333333337</ele><time>2026-03-29T09:01:00.001Z</time></trkpt><trkpt lat="40.66125504298247" lon="8.74458638805241"><ele>418.6666666666667</ele><time>2026-03-29T09:01:01.001Z</time></trkpt><trkpt lat="40.66131454709385" lon="8.74464291741259"><ele>418.0</ele><time>2026-03-29T09:01:02.001Z</time></trkpt><trkpt lat="40.66142929399469" lon="8.744590839874169"><ele>417.4</ele><time>2026-03-29T09:01:03.001Z</time></trkpt><trkpt lat="40.6614818656635" lon="8.744640946793522"><ele>416.79999999999995</ele><time>2026-03-29T09:01:04.001Z</time></trkpt><trkpt lat="40.661570917093826" lon="8.744725265874932"><ele>416.2</ele><time>2026-03-29T09:01:06.001Z</time></trkpt><trkpt lat="40.661645116172984" lon="8.744791479135575"><ele>415.6</ele><time>2026-03-29T09:01:08.001Z</time></trkpt><trkpt lat="40.66160446664522" lon="8.744956638069233"><ele>415.0</ele><time>2026-03-29T09:01:12.001Z</time></trkpt><trkpt lat="40.661528425231516" lon="8.74494929120959"><ele>415.00000000000006</ele><time>2026-03-29T09:01:14.001Z</time></trkpt><trkpt lat="40.66146716559156" lon="8.745029799891844"><ele>415.0</ele><time>2026-03-29T09:01:16.001Z</time></trkpt><trkpt lat="40.66149216542373" lon="8.74512990869084"><ele>415.0</ele><time>2026-03-29T09:01:18.001Z</time></trkpt><trkpt lat="40.66151743636298" lon="8.745234316969535"><ele>415.0</ele><time>2026-03-29T09:01:22.001Z</time></trkpt><trkpt lat="40.661504060992485" lon="8.745319488954918"><ele>415.00000000000006</ele><time>2026-03-29T09:01:25.001Z</time></trkpt><trkpt lat="40.661503987601854" lon="8.745435868554088"><ele>415.0</ele><time>2026-03-29T09:01:27.001Z</time></trkpt><trkpt lat="40.6615180767355" lon="8.745614069210452"><ele>414.0</ele><time>2026-03-29T09:01:29.001Z</time></trkpt><trkpt lat="40.661512566604" lon="8.74576073462233"><ele>413.0</ele><time>2026-03-29T09:01:30.001Z</time></trkpt><trkpt lat="40.6614833760638" lon="8.745907229890515"><ele>412.0</ele><time>2026-03-29T09:01:31.001Z</time></trkpt><trkpt lat="40.66145028666437" lon="8.746019403536016"><ele>411.0</ele><time>2026-03-29T09:01:32.001Z</time></trkpt><trkpt lat="40.66141028079006" lon="8.746127263579375"><ele>410.0</ele><time>2026-03-29T09:01:33.001Z</time></trkpt><trkpt lat="40.661364309839776" lon="8.746234208675899"><ele>406.8</ele><time>2026-03-29T09:01:34.001Z</time></trkpt><trkpt lat="40.6613172473772" lon="8.74633457684698"><ele>403.6</ele><time>2026-03-29T09:01:35.001Z</time></trkpt><trkpt lat="40.66125182611264" lon="8.746443750123316"><ele>400.4</ele><time>2026-03-29T09:01:36.001Z</time></trkpt><trkpt lat="40.661156986198286" lon="8.746556518972875"><ele>397.2</ele><time>2026-03-29T09:01:37.001Z</time></trkpt><trkpt lat="40.661070964376776" lon="8.746627012064547"><ele>394.0</ele><time>2026-03-29T09:01:38.001Z</time></trkpt><trkpt lat="40.660980566427796" lon="8.746682473164041"><ele>394.00000000000006</ele><time>2026-03-29T09:01:39.001Z</time></trkpt><trkpt lat="40.660895975486014" lon="8.746731753838088"><ele>394.0</ele><time>2026-03-29T09:01:40.001Z</time></trkpt><trkpt lat="40.660810456121816" lon="8.746779076179473"><ele>394.0</ele><time>2026-03-29T09:01:41.001Z</time></trkpt><trkpt lat="40.66072570487167" lon="8.746815738643317"><ele>394.0</ele><time>2026-03-29T09:01:42.001Z</time></trkpt><trkpt lat="40.66064477293081" lon="8.746840170925847"><ele>394.00000000000006</ele><time>2026-03-29T09:01:43.001Z</time></trkpt><trkpt lat="40.66056750444933" lon="8.746853426688407"><ele>394.0</ele><time>2026-03-29T09:01:44.001Z</time></trkpt><trkpt lat="40.66049033616496" lon="8.746829841051543"><ele>394.00000000000006</ele><time>2026-03-29T09:01:45.001Z</time></trkpt><trkpt lat="40.66042164208042" lon="8.746845110119517"><ele>394.0</ele><time>2026-03-29T09:01:46.001Z</time></trkpt><trkpt lat="40.660353706743955" lon="8.746877778517536"><ele>394.0</ele><time>2026-03-29T09:01:47.001Z</time></trkpt><trkpt lat="40.66027686469584" lon="8.746892768649557"><ele>394.0</ele><time>2026-03-29T09:01:48.001Z</time></trkpt><trkpt lat="40.66019842657673" lon="8.746877642360428"><ele>394.00000000000006</ele><time>2026-03-29T09:01:49.001Z</time></trkpt><trkpt lat="40.66011880699035" lon="8.746880073703307"><ele>394.0</ele><time>2026-03-29T09:01:50.001Z</time></trkpt><trkpt lat="40.66003829798888" lon="8.74686984052485"><ele>393.6666666666667</ele><time>2026-03-29T09:01:51.001Z</time></trkpt><trkpt lat="40.659957384939084" lon="8.746869804021664"><ele>393.33333333333337</ele><time>2026-03-29T09:01:52.001Z</time></trkpt><trkpt lat="40.659877161300805" lon="8.746867811886395"><ele>393.0</ele><time>2026-03-29T09:01:53.001Z</time></trkpt><trkpt lat="40.65979619497867" lon="8.746868176551175"><ele>392.66666666666663</ele><time>2026-03-29T09:01:54.001Z</time></trkpt><trkpt lat="40.65972440673465" lon="8.7468951656308"><ele>392.3333333333333</ele><time>2026-03-29T09:01:55.001Z</time></trkpt><trkpt lat="40.65965697286114" lon="8.746929411900496"><ele>392.0</ele><time>2026-03-29T09:01:56.001Z</time></trkpt><trkpt lat="40.65960264911758" lon="8.746981681803028"><ele>387.0</ele><time>2026-03-29T09:01:57.001Z</time></trkpt><trkpt lat="40.65951910269129" lon="8.747100447808322"><ele>382.0</ele><time>2026-03-29T09:01:59.001Z</time></trkpt><trkpt lat="40.659444203363286" lon="8.747194070987462"><ele>377.0</ele><time>2026-03-29T09:02:01.001Z</time></trkpt><trkpt lat="40.65937182068772" lon="8.747172689574143"><ele>372.0</ele><time>2026-03-29T09:02:02.001Z</time></trkpt><trkpt lat="40.65951759390241" lon="8.747353294260822"><ele>372.0</ele><time>2026-03-29T09:02:05.001Z</time></trkpt><trkpt lat="40.65955987373325" lon="8.747506571453048"><ele>372.0</ele><time>2026-03-29T09:02:07.001Z</time></trkpt><trkpt lat="40.65961146287973" lon="8.747638572180376"><ele>372.0</ele><time>2026-03-29T09:02:09.001Z</time></trkpt><trkpt lat="40.659668126737195" lon="8.74770693720859"><ele>372.0</ele><time>2026-03-29T09:02:10.001Z</time></trkpt><trkpt lat="40.65972151867441" lon="8.747776050199901"><ele>372.0</ele><time>2026-03-29T09:02:11.001Z</time></trkpt><trkpt lat="40.65978209230481" lon="8.747856531427255"><ele>370.0</ele><time>2026-03-29T09:02:12.001Z</time></trkpt><trkpt lat="40.65982754984204" lon="8.747976780615069"><ele>368.0</ele><time>2026-03-29T09:02:13.001Z</time></trkpt><trkpt lat="40.65984553082508" lon="8.748072852988763"><ele>366.0</ele><time>2026-03-29T09:02:14.001Z</time></trkpt><trkpt lat="40.6598544950032" lon="8.748181637542213"><ele>364.0</ele><time>2026-03-29T09:02:15.001Z</time></trkpt><trkpt lat="40.659851864349136" lon="8.74829467191685"><ele>362.0</ele><time>2026-03-29T09:02:16.001Z</time></trkpt><trkpt lat="40.65983864150614" lon="8.748387048983576"><ele>360.0</ele><time>2026-03-29T09:02:17.001Z</time></trkpt><trkpt lat="40.659800750394474" lon="8.748493974348836"><ele>357.8333333333333</ele><time>2026-03-29T09:02:18.001Z</time></trkpt><trkpt lat="40.65976205300804" lon="8.748589071983547"><ele>355.6666666666667</ele><time>2026-03-29T09:02:19.001Z</time></trkpt><trkpt lat="40.65971484814383" lon="8.748674651448438"><ele>353.5</ele><time>2026-03-29T09:02:20.001Z</time></trkpt><trkpt lat="40.659700653521554" lon="8.748764033321166"><ele>351.33333333333337</ele><time>2026-03-29T09:02:21.001Z</time></trkpt><trkpt lat="40.659670311518504" lon="8.748908422633274"><ele>349.1666666666667</ele><time>2026-03-29T09:02:23.001Z</time></trkpt><trkpt lat="40.65962287982576" lon="8.748979822328604"><ele>347.0</ele><time>2026-03-29T09:02:25.001Z</time></trkpt><trkpt lat="40.65956088269368" lon="8.749070275071682"><ele>347.0</ele><time>2026-03-29T09:02:28.001Z</time></trkpt><trkpt lat="40.65947662111699" lon="8.74909460381299"><ele>347.0</ele><time>2026-03-29T09:02:31.001Z</time></trkpt><trkpt lat="40.6593913971751" lon="8.74916117879685"><ele>347.0</ele><time>2026-03-29T09:02:33.001Z</time></trkpt><trkpt lat="40.6592601984301" lon="8.749213604874237"><ele>347.0</ele><time>2026-03-29T09:02:35.001Z</time></trkpt><trkpt lat="40.659180139653785" lon="8.749241861872395"><ele>347.0</ele><time>2026-03-29T09:02:36.001Z</time></trkpt><trkpt lat="40.65910278272631" lon="8.749263760221439"><ele>347.40000000000003</ele><time>2026-03-29T09:02:37.001Z</time></trkpt><trkpt lat="40.659024762906476" lon="8.749271531210974"><ele>347.8</ele><time>2026-03-29T09:02:38.001Z</time></trkpt><trkpt lat="40.65894848975286" lon="8.74926789911329"><ele>348.2</ele><time>2026-03-29T09:02:39.001Z</time></trkpt><trkpt lat="40.6588707619865" lon="8.749258608942949"><ele>348.6</ele><time>2026-03-29T09:02:40.001Z</time></trkpt><trkpt lat="40.658741810559874" lon="8.749267563470928"><ele>349.0</ele><time>2026-03-29T09:02:41.001Z</time></trkpt><trkpt lat="40.65864715380755" lon="8.749369050389939"><ele>348.0</ele><time>2026-03-29T09:02:42.001Z</time></trkpt><trkpt lat="40.65859904713691" lon="8.749480384068915"><ele>347.0</ele><time>2026-03-29T09:02:43.001Z</time></trkpt><trkpt lat="40.6585584393517" lon="8.74960426084868"><ele>346.0</ele><time>2026-03-29T09:02:44.001Z</time></trkpt><trkpt lat="40.65852609548804" lon="8.749725773190349"><ele>345.0</ele><time>2026-03-29T09:02:45.001Z</time></trkpt><trkpt lat="40.65849750647124" lon="8.749841873247433"><ele>344.0</ele><time>2026-03-29T09:02:46.001Z</time></trkpt><trkpt lat="40.6584720901371" lon="8.749951969411713"><ele>344.0</ele><time>2026-03-29T09:02:47.001Z</time></trkpt><trkpt lat="40.65844847773959" lon="8.75005904218831"><ele>344.0</ele><time>2026-03-29T09:02:48.001Z</time></trkpt><trkpt lat="40.6584268699947" lon="8.750157024881892"><ele>344.0</ele><time>2026-03-29T09:02:49.001Z</time></trkpt><trkpt lat="40.65841134039144" lon="8.75024849423339"><ele>344.0</ele><time>2026-03-29T09:02:50.001Z</time></trkpt><trkpt lat="40.65841971238511" lon="8.750390353394826"><ele>344.0</ele><time>2026-03-29T09:02:52.001Z</time></trkpt><trkpt lat="40.658491550998406" lon="8.750514061398546"><ele>343.0</ele><time>2026-03-29T09:02:54.001Z</time></trkpt><trkpt lat="40.65854295126286" lon="8.750578544990402"><ele>342.0</ele><time>2026-03-29T09:02:55.001Z</time></trkpt><trkpt lat="40.658587566447" lon="8.750650058822659"><ele>341.0</ele><time>2026-03-29T09:02:56.001Z</time></trkpt><trkpt lat="40.65862334556544" lon="8.750732839467702"><ele>340.0</ele><time>2026-03-29T09:02:57.001Z</time></trkpt><trkpt lat="40.65864860408218" lon="8.750828617696998"><ele>339.0</ele><time>2026-03-29T09:02:58.001Z</time></trkpt><trkpt lat="40.65868665816087" lon="8.750920929573429"><ele>338.0</ele><time>2026-03-29T09:02:59.001Z</time></trkpt><trkpt lat="40.6587045477626" lon="8.751027752588302"><ele>336.6666666666667</ele><time>2026-03-29T09:03:00.001Z</time></trkpt><trkpt lat="40.65873775972266" lon="8.75112054807057"><ele>335.33333333333337</ele><time>2026-03-29T09:03:01.001Z</time></trkpt><trkpt lat="40.658770494854856" lon="8.75121201121295"><ele>334.0</ele><time>2026-03-29T09:03:02.001Z</time></trkpt><trkpt lat="40.65879791364978" lon="8.751298403660954"><ele>332.6666666666667</ele><time>2026-03-29T09:03:03.001Z</time></trkpt><trkpt lat="40.65880927550408" lon="8.751382721531606"><ele>331.3333333333333</ele><time>2026-03-29T09:03:04.001Z</time></trkpt><trkpt lat="40.65881677093426" lon="8.751484716680334"><ele>330.0</ele><time>2026-03-29T09:03:05.001Z</time></trkpt><trkpt lat="40.65878098648172" lon="8.751596082954372"><ele>330.0</ele><time>2026-03-29T09:03:06.001Z</time></trkpt><trkpt lat="40.65874779290204" lon="8.751722915552508"><ele>330.0</ele><time>2026-03-29T09:03:07.001Z</time></trkpt><trkpt lat="40.658708790282056" lon="8.751847104444142"><ele>330.0</ele><time>2026-03-29T09:03:08.001Z</time></trkpt><trkpt lat="40.658656477767984" lon="8.751965490565514"><ele>330.0</ele><time>2026-03-29T09:03:09.001Z</time></trkpt><trkpt lat="40.658608226067045" lon="8.752082634058558"><ele>330.0</ele><time>2026-03-29T09:03:10.001Z</time></trkpt><trkpt lat="40.65854935638821" lon="8.752166410195418"><ele>330.0</ele><time>2026-03-29T09:03:11.001Z</time></trkpt><trkpt lat="40.658504815592636" lon="8.752236985397783"><ele>330.0</ele><time>2026-03-29T09:03:12.001Z</time></trkpt><trkpt lat="40.65844860408465" lon="8.752359837761073"><ele>330.0</ele><time>2026-03-29T09:03:14.001Z</time></trkpt><trkpt lat="40.6584451036064" lon="8.752519681773752"><ele>330.0</ele><time>2026-03-29T09:03:16.001Z</time></trkpt><trkpt lat="40.65845809263535" lon="8.752618928565218"><ele>330.0</ele><time>2026-03-29T09:03:17.001Z</time></trkpt><trkpt lat="40.6584576370961" lon="8.752711648017545"><ele>330.0</ele><time>2026-03-29T09:03:18.001Z</time></trkpt><trkpt lat="40.6584481267259" lon="8.752805492063631"><ele>329.5714285714286</ele><time>2026-03-29T09:03:19.001Z</time></trkpt><trkpt lat="40.65841328552723" lon="8.752896761790169"><ele>329.14285714285717</ele><time>2026-03-29T09:03:20.001Z</time></trkpt><trkpt lat="40.658378540040914" lon="8.752993939130205"><ele>328.7142857142857</ele><time>2026-03-29T09:03:21.001Z</time></trkpt><trkpt lat="40.658356858091885" lon="8.753091285085173"><ele>328.28571428571433</ele><time>2026-03-29T09:03:22.001Z</time></trkpt><trkpt lat="40.65834263525632" lon="8.753192121371534"><ele>327.8571428571429</ele><time>2026-03-29T09:03:23.001Z</time></trkpt><trkpt lat="40.65832907362223" lon="8.753284606435233"><ele>327.42857142857144</ele><time>2026-03-29T09:03:24.001Z</time></trkpt><trkpt lat="40.65831295453983" lon="8.753365414183998"><ele>327.0</ele><time>2026-03-29T09:03:25.001Z</time></trkpt><trkpt lat="40.65824478358683" lon="8.753503627822102"><ele>326.8</ele><time>2026-03-29T09:03:27.001Z</time></trkpt><trkpt lat="40.65820784515784" lon="8.753571652914761"><ele>326.6</ele><time>2026-03-29T09:03:28.001Z</time></trkpt><trkpt lat="40.65808761131427" lon="8.753615128547365"><ele>326.40000000000003</ele><time>2026-03-29T09:03:30.001Z</time></trkpt><trkpt lat="40.658022978382334" lon="8.753605548186776"><ele>326.20000000000005</ele><time>2026-03-29T09:03:31.001Z</time></trkpt><trkpt lat="40.65792086398175" lon="8.753678737275397"><ele>326.0</ele><time>2026-03-29T09:03:33.001Z</time></trkpt><trkpt lat="40.65787506168137" lon="8.753789540490379"><ele>326.0</ele><time>2026-03-29T09:03:35.001Z</time></trkpt><trkpt lat="40.65782409753574" lon="8.75387955111056"><ele>326.0</ele><time>2026-03-29T09:03:37.001Z</time></trkpt><trkpt lat="40.65779905878428" lon="8.75399250350679"><ele>326.0</ele><time>2026-03-29T09:03:39.001Z</time></trkpt><trkpt lat="40.65780659680966" lon="8.75410762026866"><ele>326.0</ele><time>2026-03-29T09:03:41.001Z</time></trkpt><trkpt lat="40.65780021848975" lon="8.754230205005113"><ele>326.0</ele><time>2026-03-29T09:03:43.001Z</time></trkpt><trkpt lat="40.657747550739785" lon="8.754391831508865"><ele>325.5</ele><time>2026-03-29T09:03:45.001Z</time></trkpt><trkpt lat="40.65770222493384" lon="8.75448427452567"><ele>325.0</ele><time>2026-03-29T09:03:46.001Z</time></trkpt><trkpt lat="40.65766925575076" lon="8.754584022435958"><ele>324.5</ele><time>2026-03-29T09:03:47.001Z</time></trkpt><trkpt lat="40.65763327854834" lon="8.75468555675736"><ele>324.0</ele><time>2026-03-29T09:03:48.001Z</time></trkpt><trkpt lat="40.657593607955306" lon="8.754789518943193"><ele>323.5</ele><time>2026-03-29T09:03:49.001Z</time></trkpt><trkpt lat="40.65756254683029" lon="8.754902063595662"><ele>323.0</ele><time>2026-03-29T09:03:50.001Z</time></trkpt><trkpt lat="40.657528134107785" lon="8.75500865488411"><ele>323.0</ele><time>2026-03-29T09:03:51.001Z</time></trkpt><trkpt lat="40.6574920009572" lon="8.755109665469384"><ele>323.0</ele><time>2026-03-29T09:03:52.001Z</time></trkpt><trkpt lat="40.65745590580052" lon="8.755210396889375"><ele>323.0</ele><time>2026-03-29T09:03:53.001Z</time></trkpt><trkpt lat="40.657414950349434" lon="8.755314249073283"><ele>323.0</ele><time>2026-03-29T09:03:54.001Z</time></trkpt><trkpt lat="40.65736913856458" lon="8.755419349883374"><ele>323.0</ele><time>2026-03-29T09:03:55.001Z</time></trkpt><trkpt lat="40.657342786621115" lon="8.755539720018112"><ele>323.0</ele><time>2026-03-29T09:03:56.001Z</time></trkpt><trkpt lat="40.65730692200163" lon="8.75565697936821"><ele>323.1666666666667</ele><time>2026-03-29T09:03:57.001Z</time></trkpt><trkpt lat="40.65728658859686" lon="8.755779311876147"><ele>323.33333333333337</ele><time>2026-03-29T09:03:58.001Z</time></trkpt><trkpt lat="40.65725441885806" lon="8.755890062740205"><ele>323.5</ele><time>2026-03-29T09:03:59.001Z</time></trkpt><trkpt lat="40.65720760540804" lon="8.755995619438782"><ele>323.6666666666667</ele><time>2026-03-29T09:04:00.001Z</time></trkpt><trkpt lat="40.65717794920082" lon="8.756099298472812"><ele>323.8333333333333</ele><time>2026-03-29T09:04:01.001Z</time></trkpt><trkpt lat="40.65714977648291" lon="8.756198725984994"><ele>324.0</ele><time>2026-03-29T09:04:02.001Z</time></trkpt><trkpt lat="40.65713708373262" lon="8.756293976677888"><ele>323.2</ele><time>2026-03-29T09:04:03.001Z</time></trkpt><trkpt lat="40.657078296686194" lon="8.756414840751177"><ele>322.4</ele><time>2026-03-29T09:04:05.001Z</time></trkpt><trkpt lat="40.65706502481133" lon="8.756553638614223"><ele>321.6</ele><time>2026-03-29T09:04:06.001Z</time></trkpt><trkpt lat="40.65713782721951" lon="8.756625088289525"><ele>320.8</ele><time>2026-03-29T09:04:08.001Z</time></trkpt><trkpt lat="40.65723220439957" lon="8.756722098026273"><ele>320.0</ele><time>2026-03-29T09:04:10.001Z</time></trkpt><trkpt lat="40.65731288825119" lon="8.756813425876267"><ele>319.2</ele><time>2026-03-29T09:04:12.001Z</time></trkpt><trkpt lat="40.65739182448583" lon="8.756937798473997"><ele>318.4</ele><time>2026-03-29T09:04:14.001Z</time></trkpt><trkpt lat="40.6574490995792" lon="8.756992056758525"><ele>317.6</ele><time>2026-03-29T09:04:15.001Z</time></trkpt><trkpt lat="40.6575112835655" lon="8.757016812942044"><ele>316.8</ele><time>2026-03-29T09:04:16.001Z</time></trkpt><trkpt lat="40.65763306574577" lon="8.75702665214744"><ele>316.0</ele><time>2026-03-29T09:04:18.001Z</time></trkpt><trkpt lat="40.65770971745664" lon="8.757035265623852"><ele>316.5</ele><time>2026-03-29T09:04:19.001Z</time></trkpt><trkpt lat="40.657788714485086" lon="8.757045778291053"><ele>317.0</ele><time>2026-03-29T09:04:20.001Z</time></trkpt><trkpt lat="40.65786581602478" lon="8.757057071051552"><ele>317.5</ele><time>2026-03-29T09:04:21.001Z</time></trkpt><trkpt lat="40.65794065989474" lon="8.757070298192916"><ele>318.0</ele><time>2026-03-29T09:04:22.001Z</time></trkpt><trkpt lat="40.65801758003327" lon="8.757083174290454"><ele>318.5</ele><time>2026-03-29T09:04:23.001Z</time></trkpt><trkpt lat="40.65809425406033" lon="8.757091296103544"><ele>319.0</ele><time>2026-03-29T09:04:24.001Z</time></trkpt><trkpt lat="40.658173684819744" lon="8.757094964034833"><ele>319.0</ele><time>2026-03-29T09:04:25.001Z</time></trkpt><trkpt lat="40.65824505304657" lon="8.75709404134175"><ele>319.0</ele><time>2026-03-29T09:04:26.001Z</time></trkpt><trkpt lat="40.658332313593604" lon="8.757084677593804"><ele>319.0</ele><time>2026-03-29T09:04:28.001Z</time></trkpt><trkpt lat="40.65839628417637" lon="8.757080017939758"><ele>319.0</ele><time>2026-03-29T09:04:30.001Z</time></trkpt><trkpt lat="40.6583791930987" lon="8.757194146420158"><ele>319.0</ele><time>2026-03-29T09:04:32.001Z</time></trkpt><trkpt lat="40.658338942910824" lon="8.757261844830227"><ele>319.0</ele><time>2026-03-29T09:04:33.001Z</time></trkpt><trkpt lat="40.658319766677984" lon="8.757345838261713"><ele>319.0</ele><time>2026-03-29T09:04:34.001Z</time></trkpt><trkpt lat="40.65828198072288" lon="8.757423512862196"><ele>319.0</ele><time>2026-03-29T09:04:35.001Z</time></trkpt><trkpt lat="40.658290882047936" lon="8.75752062582452"><ele>319.0</ele><time>2026-03-29T09:04:36.001Z</time></trkpt><trkpt lat="40.65831452307492" lon="8.757607509642833"><ele>319.0</ele><time>2026-03-29T09:04:37.001Z</time></trkpt><trkpt lat="40.658336143179994" lon="8.757746041828453"><ele>319.0</ele><time>2026-03-29T09:04:39.001Z</time></trkpt><trkpt lat="40.65831820746852" lon="8.757916191241458"><ele>319.0</ele><time>2026-03-29T09:04:41.001Z</time></trkpt><trkpt lat="40.65829990095006" lon="8.758020533421275"><ele>319.0</ele><time>2026-03-29T09:04:42.001Z</time></trkpt><trkpt lat="40.65828235348331" lon="8.758134460751732"><ele>319.0</ele><time>2026-03-29T09:04:43.001Z</time></trkpt><trkpt lat="40.6582785728895" lon="8.758258836345409"><ele>319.0</ele><time>2026-03-29T09:04:44.001Z</time></trkpt><trkpt lat="40.65826788180183" lon="8.75838185642033"><ele>319.0</ele><time>2026-03-29T09:04:45.001Z</time></trkpt><trkpt lat="40.658274012322124" lon="8.758503430892478"><ele>319.0</ele><time>2026-03-29T09:04:46.001Z</time></trkpt><trkpt lat="40.65827289287826" lon="8.758621898587808"><ele>322.2</ele><time>2026-03-29T09:04:47.001Z</time></trkpt><trkpt lat="40.658253300586686" lon="8.758752958455645"><ele>325.4</ele><time>2026-03-29T09:04:48.001Z</time></trkpt><trkpt lat="40.658198932298404" lon="8.758867015525755"><ele>328.6</ele><time>2026-03-29T09:04:49.001Z</time></trkpt><trkpt lat="40.658134522843305" lon="8.758962187311297"><ele>331.8</ele><time>2026-03-29T09:04:50.001Z</time></trkpt><trkpt lat="40.658061992762256" lon="8.759045634527528"><ele>335.0</ele><time>2026-03-29T09:04:51.001Z</time></trkpt><trkpt lat="40.65798370459209" lon="8.759132431182259"><ele>335.0</ele><time>2026-03-29T09:04:52.001Z</time></trkpt><trkpt lat="40.657899429465985" lon="8.759226461475405"><ele>335.0</ele><time>2026-03-29T09:04:53.001Z</time></trkpt><trkpt lat="40.65780822616239" lon="8.759306330065476"><ele>335.0</ele><time>2026-03-29T09:04:54.001Z</time></trkpt><trkpt lat="40.65772743630593" lon="8.759404008035013"><ele>335.0</ele><time>2026-03-29T09:04:55.001Z</time></trkpt><trkpt lat="40.6576503086996" lon="8.759504215083567"><ele>335.0</ele><time>2026-03-29T09:04:56.001Z</time></trkpt><trkpt lat="40.657581435277535" lon="8.75962215508333"><ele>333.4</ele><time>2026-03-29T09:04:57.001Z</time></trkpt><trkpt lat="40.65750229018689" lon="8.759714832442226"><ele>331.8</ele><time>2026-03-29T09:04:58.001Z</time></trkpt><trkpt lat="40.65742189487735" lon="8.759784840631"><ele>330.20000000000005</ele><time>2026-03-29T09:04:59.001Z</time></trkpt><trkpt lat="40.6573560490902" lon="8.759874125161918"><ele>328.6</ele><time>2026-03-29T09:05:00.001Z</time></trkpt><trkpt lat="40.657287503158486" lon="8.75996451163062"><ele>327.0</ele><time>2026-03-29T09:05:01.001Z</time></trkpt><trkpt lat="40.65721851583476" lon="8.760067476647608"><ele>327.0</ele><time>2026-03-29T09:05:02.001Z</time></trkpt><trkpt lat="40.657157482693925" lon="8.760188967944341"><ele>327.0</ele><time>2026-03-29T09:05:03.001Z</time></trkpt><trkpt lat="40.657119597597664" lon="8.76032707035711"><ele>327.0</ele><time>2026-03-29T09:05:04.001Z</time></trkpt><trkpt lat="40.65707625938358" lon="8.760460564334384"><ele>327.0</ele><time>2026-03-29T09:05:05.001Z</time></trkpt><trkpt lat="40.65703747527911" lon="8.760588171838897"><ele>327.0</ele><time>2026-03-29T09:05:06.001Z</time></trkpt><trkpt lat="40.65700496992782" lon="8.76070912841581"><ele>328.3333333333333</ele><time>2026-03-29T09:05:07.001Z</time></trkpt><trkpt lat="40.656964895584245" lon="8.760808824553921"><ele>329.6666666666667</ele><time>2026-03-29T09:05:08.001Z</time></trkpt><trkpt lat="40.65694496250568" lon="8.760906775881233"><ele>331.0</ele><time>2026-03-29T09:05:09.001Z</time></trkpt><trkpt lat="40.65693454064972" lon="8.76100768363282"><ele>332.33333333333337</ele><time>2026-03-29T09:05:10.001Z</time></trkpt><trkpt lat="40.65688841687667" lon="8.761092901687705"><ele>333.6666666666667</ele><time>2026-03-29T09:05:11.001Z</time></trkpt><trkpt lat="40.65684889670559" lon="8.761179010288838"><ele>335.0</ele><time>2026-03-29T09:05:12.001Z</time></trkpt><trkpt lat="40.65680365349902" lon="8.761258585671975"><ele>331.8</ele><time>2026-03-29T09:05:13.001Z</time></trkpt><trkpt lat="40.65676555584476" lon="8.76133374486428"><ele>328.6</ele><time>2026-03-29T09:05:14.001Z</time></trkpt><trkpt lat="40.65670339833694" lon="8.761471374106476"><ele>325.4</ele><time>2026-03-29T09:05:16.001Z</time></trkpt><trkpt lat="40.65661603569135" lon="8.761591314295394"><ele>322.2</ele><time>2026-03-29T09:05:18.001Z</time></trkpt><trkpt lat="40.65656136087496" lon="8.761648855585825"><ele>319.0</ele><time>2026-03-29T09:05:19.001Z</time></trkpt><trkpt lat="40.656499082694616" lon="8.761688514312333"><ele>319.0</ele><time>2026-03-29T09:05:20.001Z</time></trkpt><trkpt lat="40.6564365567731" lon="8.761725470516927"><ele>319.0</ele><time>2026-03-29T09:05:21.001Z</time></trkpt><trkpt lat="40.656327740784874" lon="8.761789558041995"><ele>319.0</ele><time>2026-03-29T09:05:23.001Z</time></trkpt><trkpt lat="40.656229166872784" lon="8.76187027475351"><ele>319.0</ele><time>2026-03-29T09:05:25.001Z</time></trkpt><trkpt lat="40.65614048991328" lon="8.761968046064489"><ele>319.0</ele><time>2026-03-29T09:05:27.001Z</time></trkpt><trkpt lat="40.656118491961934" lon="8.76205046338264"><ele>317.14285714285717</ele><time>2026-03-29T09:05:28.001Z</time></trkpt><trkpt lat="40.65607915587685" lon="8.762130620055837"><ele>315.2857142857143</ele><time>2026-03-29T09:05:29.001Z</time></trkpt><trkpt lat="40.65606537184428" lon="8.762226666064725"><ele>313.42857142857144</ele><time>2026-03-29T09:05:30.001Z</time></trkpt><trkpt lat="40.65604659968887" lon="8.762321715348481"><ele>311.57142857142856</ele><time>2026-03-29T09:05:31.001Z</time></trkpt><trkpt lat="40.65604443376199" lon="8.76242180533962"><ele>309.7142857142857</ele><time>2026-03-29T09:05:32.001Z</time></trkpt><trkpt lat="40.656049022938554" lon="8.762517589417227"><ele>307.85714285714283</ele><time>2026-03-29T09:05:33.001Z</time></trkpt><trkpt lat="40.65605255611402" lon="8.762607234391988"><ele>306.0</ele><time>2026-03-29T09:05:34.001Z</time></trkpt><trkpt lat="40.656062881925166" lon="8.76276818719012"><ele>305.5</ele><time>2026-03-29T09:05:36.001Z</time></trkpt><trkpt lat="40.655999300288514" lon="8.76288349950014"><ele>305.0</ele><time>2026-03-29T09:05:38.001Z</time></trkpt><trkpt lat="40.6559128702498" lon="8.762994338839313"><ele>304.5</ele><time>2026-03-29T09:05:40.001Z</time></trkpt><trkpt lat="40.6558173193518" lon="8.763084313265512"><ele>304.0</ele><time>2026-03-29T09:05:42.001Z</time></trkpt><trkpt lat="40.65575031603821" lon="8.763217522946256"><ele>304.0</ele><time>2026-03-29T09:05:44.001Z</time></trkpt><trkpt lat="40.655736118558124" lon="8.763301745349871"><ele>304.0</ele><time>2026-03-29T09:05:45.001Z</time></trkpt><trkpt lat="40.6557109553909" lon="8.763382043868113"><ele>304.0</ele><time>2026-03-29T09:05:46.001Z</time></trkpt><trkpt lat="40.65570415998038" lon="8.763544450838463"><ele>304.0</ele><time>2026-03-29T09:05:48.001Z</time></trkpt><trkpt lat="40.655676477483176" lon="8.76362812130909"><ele>304.0</ele><time>2026-03-29T09:05:49.001Z</time></trkpt><trkpt lat="40.655662503172906" lon="8.763719280420204"><ele>304.0</ele><time>2026-03-29T09:05:50.001Z</time></trkpt><trkpt lat="40.65564402446089" lon="8.763809946154202"><ele>303.66666666666663</ele><time>2026-03-29T09:05:51.001Z</time></trkpt><trkpt lat="40.65562196674137" lon="8.763906803471592"><ele>303.3333333333333</ele><time>2026-03-29T09:05:52.001Z</time></trkpt><trkpt lat="40.65562107084593" lon="8.764028144837193"><ele>303.0</ele><time>2026-03-29T09:05:53.001Z</time></trkpt><trkpt lat="40.65562981486364" lon="8.764140991993305"><ele>302.6666666666667</ele><time>2026-03-29T09:05:54.001Z</time></trkpt><trkpt lat="40.65564034313991" lon="8.7642534541926"><ele>302.33333333333337</ele><time>2026-03-29T09:05:55.001Z</time></trkpt><trkpt lat="40.65565430207662" lon="8.764358683229098"><ele>302.0</ele><time>2026-03-29T09:05:56.001Z</time></trkpt><trkpt lat="40.65567051435026" lon="8.764477127475653"><ele>301.6</ele><time>2026-03-29T09:05:57.001Z</time></trkpt><trkpt lat="40.65567931480103" lon="8.764590683686775"><ele>301.2</ele><time>2026-03-29T09:05:58.001Z</time></trkpt><trkpt lat="40.655662043790635" lon="8.7647207594176"><ele>300.8</ele><time>2026-03-29T09:05:59.001Z</time></trkpt><trkpt lat="40.655654915875346" lon="8.764873441521601"><ele>300.4</ele><time>2026-03-29T09:06:00.001Z</time></trkpt><trkpt lat="40.655654865456825" lon="8.765004623002387"><ele>300.0</ele><time>2026-03-29T09:06:01.001Z</time></trkpt><trkpt lat="40.655647083941396" lon="8.765144739750598"><ele>300.25</ele><time>2026-03-29T09:06:02.001Z</time></trkpt><trkpt lat="40.655645047656776" lon="8.765284448974064"><ele>300.5</ele><time>2026-03-29T09:06:03.001Z</time></trkpt><trkpt lat="40.65565002788972" lon="8.765435194257678"><ele>300.75</ele><time>2026-03-29T09:06:04.001Z</time></trkpt><trkpt lat="40.65567280745515" lon="8.765574471609764"><ele>301.0</ele><time>2026-03-29T09:06:05.001Z</time></trkpt><trkpt lat="40.655725380443045" lon="8.76573659943316"><ele>301.0</ele><time>2026-03-29T09:06:06.001Z</time></trkpt><trkpt lat="40.65579505836777" lon="8.765847694811285"><ele>301.0</ele><time>2026-03-29T09:06:07.001Z</time></trkpt><trkpt lat="40.6558706376014" lon="8.765948253194699"><ele>301.0</ele><time>2026-03-29T09:06:08.001Z</time></trkpt><trkpt lat="40.65594142301524" lon="8.766024844626129"><ele>301.0</ele><time>2026-03-29T09:06:09.001Z</time></trkpt><trkpt lat="40.65602233324488" lon="8.766077059982363"><ele>301.0</ele><time>2026-03-29T09:06:10.001Z</time></trkpt><trkpt lat="40.65610031814811" lon="8.766105151790278"><ele>301.8333333333333</ele><time>2026-03-29T09:06:11.001Z</time></trkpt><trkpt lat="40.65618088879016" lon="8.766119864629776"><ele>302.66666666666663</ele><time>2026-03-29T09:06:12.001Z</time></trkpt><trkpt lat="40.65627053330503" lon="8.766133205272563"><ele>303.5</ele><time>2026-03-29T09:06:13.001Z</time></trkpt><trkpt lat="40.65634770877099" lon="8.766140302297"><ele>304.3333333333333</ele><time>2026-03-29T09:06:14.001Z</time></trkpt><trkpt lat="40.6564246039606" lon="8.766176056181289"><ele>305.1666666666667</ele><time>2026-03-29T09:06:15.001Z</time></trkpt><trkpt lat="40.65651416115676" lon="8.766237116718745"><ele>306.0</ele><time>2026-03-29T09:06:16.001Z</time></trkpt><trkpt lat="40.65661226657232" lon="8.766283353115268"><ele>306.0</ele><time>2026-03-29T09:06:17.001Z</time></trkpt><trkpt lat="40.656717292447226" lon="8.7663350787836"><ele>306.0</ele><time>2026-03-29T09:06:18.001Z</time></trkpt><trkpt lat="40.656811971850686" lon="8.766382504982687"><ele>306.0</ele><time>2026-03-29T09:06:19.001Z</time></trkpt><trkpt lat="40.65688752351937" lon="8.766422406085837"><ele>306.0</ele><time>2026-03-29T09:06:20.001Z</time></trkpt><trkpt lat="40.6569535063813" lon="8.766459317802681"><ele>306.0</ele><time>2026-03-29T09:06:21.001Z</time></trkpt><trkpt lat="40.657014536542796" lon="8.76652410410811"><ele>306.0</ele><time>2026-03-29T09:06:22.001Z</time></trkpt><trkpt lat="40.657067626803055" lon="8.76660958405004"><ele>306.40000000000003</ele><time>2026-03-29T09:06:23.001Z</time></trkpt><trkpt lat="40.65712811732291" lon="8.766709257917322"><ele>306.8</ele><time>2026-03-29T09:06:24.001Z</time></trkpt><trkpt lat="40.65720452736999" lon="8.766803845584331"><ele>307.20000000000005</ele><time>2026-03-29T09:06:25.001Z</time></trkpt><trkpt lat="40.65726070441301" lon="8.766912227801683"><ele>307.6</ele><time>2026-03-29T09:06:26.001Z</time></trkpt><trkpt lat="40.65731531512044" lon="8.767026066240332"><ele>308.0</ele><time>2026-03-29T09:06:27.001Z</time></trkpt><trkpt lat="40.6573591623798" lon="8.767142471145352"><ele>308.0</ele><time>2026-03-29T09:06:28.001Z</time></trkpt><trkpt lat="40.657374734608716" lon="8.767246478734357"><ele>308.0</ele><time>2026-03-29T09:06:29.001Z</time></trkpt><trkpt lat="40.65742691818304" lon="8.767383853994156"><ele>308.0</ele><time>2026-03-29T09:06:31.001Z</time></trkpt><trkpt lat="40.657487180853586" lon="8.76747640071968"><ele>308.0</ele><time>2026-03-29T09:06:33.001Z</time></trkpt><trkpt lat="40.65754437532671" lon="8.76754270042589"><ele>308.0</ele><time>2026-03-29T09:06:34Z</time></trkpt><trkpt lat="40.65762152131293" lon="8.767560113739014"><ele>308.0</ele><time>2026-03-29T09:06:35Z</time></trkpt><trkpt lat="40.65771093816019" lon="8.767569959735033"><ele>308.83333333333337</ele><time>2026-03-29T09:06:36Z</time></trkpt><trkpt lat="40.657798491716804" lon="8.767557703726167"><ele>309.6666666666667</ele><time>2026-03-29T09:06:37Z</time></trkpt><trkpt lat="40.65788131675579" lon="8.767547145701524"><ele>310.5</ele><time>2026-03-29T09:06:38Z</time></trkpt><trkpt lat="40.657952452057096" lon="8.767540894465647"><ele>311.3333333333333</ele><time>2026-03-29T09:06:39Z</time></trkpt><trkpt lat="40.65803969910795" lon="8.767556520250903"><ele>312.16666666666663</ele><time>2026-03-29T09:06:41Z</time></trkpt><trkpt lat="40.65804713543257" lon="8.767655484129575"><ele>313.0</ele><time>2026-03-29T09:06:45Z</time></trkpt><trkpt lat="40.6580034464736" lon="8.767735457500768"><ele>313.4</ele><time>2026-03-29T09:06:46Z</time></trkpt><trkpt lat="40.6579561958542" lon="8.767826691626508"><ele>313.8</ele><time>2026-03-29T09:06:47Z</time></trkpt><trkpt lat="40.65790874283294" lon="8.767930425976765"><ele>314.2</ele><time>2026-03-29T09:06:48Z</time></trkpt><trkpt lat="40.65785729094062" lon="8.768039955937633"><ele>314.6</ele><time>2026-03-29T09:06:49Z</time></trkpt><trkpt lat="40.65780258407452" lon="8.768155305980567"><ele>315.0</ele><time>2026-03-29T09:06:50Z</time></trkpt><trkpt lat="40.65774250395591" lon="8.76827623424782"><ele>313.25</ele><time>2026-03-29T09:06:51Z</time></trkpt><trkpt lat="40.65767996135385" lon="8.768402258096318"><ele>311.5</ele><time>2026-03-29T09:06:52Z</time></trkpt><trkpt lat="40.6576148216286" lon="8.76853013941218"><ele>309.75</ele><time>2026-03-29T09:06:53Z</time></trkpt><trkpt lat="40.65754793063124" lon="8.768663331701113"><ele>308.0</ele><time>2026-03-29T09:06:54Z</time></trkpt><trkpt lat="40.65748121936538" lon="8.768795336969347"><ele>308.0</ele><time>2026-03-29T09:06:55Z</time></trkpt><trkpt lat="40.657413375068636" lon="8.768934740798661"><ele>308.0</ele><time>2026-03-29T09:06:56Z</time></trkpt><trkpt lat="40.65734398375516" lon="8.769071357734418"><ele>308.0</ele><time>2026-03-29T09:06:57Z</time></trkpt><trkpt lat="40.657277574569726" lon="8.769219687669638"><ele>308.0</ele><time>2026-03-29T09:06:58Z</time></trkpt><trkpt lat="40.6572121104911" lon="8.769371120172114"><ele>308.0</ele><time>2026-03-29T09:06:59Z</time></trkpt><trkpt lat="40.657148572068515" lon="8.769528941530208"><ele>308.0</ele><time>2026-03-29T09:07:00Z</time></trkpt><trkpt lat="40.65709217112203" lon="8.769695418083035"><ele>308.0</ele><time>2026-03-29T09:07:01Z</time></trkpt><trkpt lat="40.65702650134196" lon="8.769865416564224"><ele>308.0</ele><time>2026-03-29T09:07:02Z</time></trkpt><trkpt lat="40.65696172153127" lon="8.770042365534588"><ele>305.6666666666667</ele><time>2026-03-29T09:07:03Z</time></trkpt><trkpt lat="40.656896638101" lon="8.770220800013538"><ele>303.3333333333333</ele><time>2026-03-29T09:07:04Z</time></trkpt><trkpt lat="40.65683237159355" lon="8.770404138518778"><ele>301.0</ele><time>2026-03-29T09:07:05Z</time></trkpt><trkpt lat="40.65676329212966" lon="8.770596348623686"><ele>301.0</ele><time>2026-03-29T09:07:06Z</time></trkpt><trkpt lat="40.656687224512616" lon="8.770799059667596"><ele>301.0</ele><time>2026-03-29T09:07:07Z</time></trkpt><trkpt lat="40.65660973390198" lon="8.771013567428705"><ele>301.0</ele><time>2026-03-29T09:07:08Z</time></trkpt><trkpt lat="40.65652476109099" lon="8.771228973225316"><ele>302.0</ele><time>2026-03-29T09:07:09Z</time></trkpt><trkpt lat="40.65645692795259" lon="8.771450377529941"><ele>303.0</ele><time>2026-03-29T09:07:10Z</time></trkpt><trkpt lat="40.656393358705266" lon="8.77165569778146"><ele>304.0</ele><time>2026-03-29T09:07:11Z</time></trkpt><trkpt lat="40.65631905871085" lon="8.771839428927004"><ele>304.25</ele><time>2026-03-29T09:07:12Z</time></trkpt><trkpt lat="40.65625045769186" lon="8.77202496588583"><ele>304.5</ele><time>2026-03-29T09:07:13Z</time></trkpt><trkpt lat="40.656185294192" lon="8.772201205882997"><ele>304.75</ele><time>2026-03-29T09:07:14Z</time></trkpt><trkpt lat="40.65613081523103" lon="8.772375762761063"><ele>305.0</ele><time>2026-03-29T09:07:15Z</time></trkpt><trkpt lat="40.656065274158195" lon="8.77255475738728"><ele>305.0</ele><time>2026-03-29T09:07:16Z</time></trkpt><trkpt lat="40.65599674458942" lon="8.772721826783036"><ele>305.0</ele><time>2026-03-29T09:07:17Z</time></trkpt><trkpt lat="40.65591766638969" lon="8.772895298075815"><ele>305.0</ele><time>2026-03-29T09:07:18Z</time></trkpt><trkpt lat="40.655851283949346" lon="8.77306904500514"><ele>305.0</ele><time>2026-03-29T09:07:19Z</time></trkpt><trkpt lat="40.655795329654865" lon="8.773245957891936"><ele>305.0</ele><time>2026-03-29T09:07:20Z</time></trkpt><trkpt lat="40.6557535258673" lon="8.773428292633323"><ele>305.0</ele><time>2026-03-29T09:07:21Z</time></trkpt><trkpt lat="40.65568488054574" lon="8.77361815695878"><ele>305.0</ele><time>2026-03-29T09:07:22Z</time></trkpt><trkpt lat="40.65563659534288" lon="8.773815120947729"><ele>305.33333333333337</ele><time>2026-03-29T09:07:23Z</time></trkpt><trkpt lat="40.65559359915984" lon="8.77401930179491"><ele>305.6666666666667</ele><time>2026-03-29T09:07:24Z</time></trkpt><trkpt lat="40.655551699535685" lon="8.774232761442342"><ele>306.0</ele><time>2026-03-29T09:07:25Z</time></trkpt><trkpt lat="40.65547871507943" lon="8.774432296751538"><ele>306.6666666666667</ele><time>2026-03-29T09:07:26Z</time></trkpt><trkpt lat="40.65544360031747" lon="8.774639775388229"><ele>307.33333333333337</ele><time>2026-03-29T09:07:27Z</time></trkpt><trkpt lat="40.65542319223596" lon="8.774856426421856"><ele>308.0</ele><time>2026-03-29T09:07:28Z</time></trkpt><trkpt lat="40.655360320808946" lon="8.77505806068211"><ele>308.0</ele><time>2026-03-29T09:07:29Z</time></trkpt><trkpt lat="40.65530673302499" lon="8.77526532830304"><ele>308.0</ele><time>2026-03-29T09:07:30Z</time></trkpt><trkpt lat="40.65525532011304" lon="8.775480812615568"><ele>308.0</ele><time>2026-03-29T09:07:31Z</time></trkpt><trkpt lat="40.65520271762713" lon="8.77571173659245"><ele>306.0</ele><time>2026-03-29T09:07:32Z</time></trkpt><trkpt lat="40.65514549525137" lon="8.775956161128493"><ele>304.0</ele><time>2026-03-29T09:07:33Z</time></trkpt><trkpt lat="40.655088244929" lon="8.776186937817254"><ele>302.0</ele><time>2026-03-29T09:07:34Z</time></trkpt><trkpt lat="40.65502962095059" lon="8.776427674018507"><ele>302.0</ele><time>2026-03-29T09:07:35Z</time></trkpt><trkpt lat="40.654973675794125" lon="8.776661194955617"><ele>302.0</ele><time>2026-03-29T09:07:36Z</time></trkpt><trkpt lat="40.654919238891196" lon="8.776886598178134"><ele>302.0</ele><time>2026-03-29T09:07:37Z</time></trkpt><trkpt lat="40.654865527975716" lon="8.777102434551287"><ele>302.0</ele><time>2026-03-29T09:07:38Z</time></trkpt><trkpt lat="40.65481626507828" lon="8.777300395618242"><ele>302.0</ele><time>2026-03-29T09:07:39Z</time></trkpt><trkpt lat="40.65476909202632" lon="8.777491383471931"><ele>302.0</ele><time>2026-03-29T09:07:40Z</time></trkpt><trkpt lat="40.65473095083966" lon="8.777648194778806"><ele>302.0</ele><time>2026-03-29T09:07:41Z</time></trkpt><trkpt lat="40.65468889532227" lon="8.777821102359475"><ele>302.0</ele><time>2026-03-29T09:07:42Z</time></trkpt><trkpt lat="40.65465013833939" lon="8.777997573216238"><ele>302.0</ele><time>2026-03-29T09:07:43Z</time></trkpt><trkpt lat="40.65462179964266" lon="8.7781487783732"><ele>302.0</ele><time>2026-03-29T09:07:44Z</time></trkpt><trkpt lat="40.65460960814262" lon="8.77834134536994"><ele>302.0</ele><time>2026-03-29T09:07:45Z</time></trkpt><trkpt lat="40.65460498997876" lon="8.778537524675096"><ele>301.0</ele><time>2026-03-29T09:07:46Z</time></trkpt><trkpt lat="40.65460363563532" lon="8.77872527443117"><ele>300.0</ele><time>2026-03-29T09:07:47Z</time></trkpt><trkpt lat="40.65460439795858" lon="8.778915212704117"><ele>299.0</ele><time>2026-03-29T09:07:48Z</time></trkpt><trkpt lat="40.65460358136018" lon="8.779119001595491"><ele>298.0</ele><time>2026-03-29T09:07:49Z</time></trkpt><trkpt lat="40.65460062677961" lon="8.779321199164542"><ele>297.0</ele><time>2026-03-29T09:07:50Z</time></trkpt><trkpt lat="40.654597876353634" lon="8.779502923543244"><ele>296.0</ele><time>2026-03-29T09:07:51Z</time></trkpt><trkpt lat="40.654595377282384" lon="8.779681344296385"><ele>295.0</ele><time>2026-03-29T09:07:52Z</time></trkpt><trkpt lat="40.654597424570206" lon="8.779855646489207"><ele>294.0</ele><time>2026-03-29T09:07:53Z</time></trkpt><trkpt lat="40.65460958700267" lon="8.780008970764964"><ele>294.0</ele><time>2026-03-29T09:07:54Z</time></trkpt><trkpt lat="40.65464053899032" lon="8.78013120161171"><ele>294.0</ele><time>2026-03-29T09:07:55Z</time></trkpt><trkpt lat="40.65468286485233" lon="8.780285009974653"><ele>294.0</ele><time>2026-03-29T09:07:56Z</time></trkpt><trkpt lat="40.654744885578864" lon="8.780408906803155"><ele>294.0</ele><time>2026-03-29T09:07:57Z</time></trkpt><trkpt lat="40.65481198226971" lon="8.780544403010449"><ele>293.0</ele><time>2026-03-29T09:07:58Z</time></trkpt><trkpt lat="40.65487473416183" lon="8.780694265829624"><ele>292.0</ele><time>2026-03-29T09:07:59Z</time></trkpt><trkpt lat="40.65495199102568" lon="8.780848601548191"><ele>291.0</ele><time>2026-03-29T09:08:00Z</time></trkpt><trkpt lat="40.65502836825447" lon="8.781004289780373"><ele>290.0</ele><time>2026-03-29T09:08:01Z</time></trkpt><trkpt lat="40.655102143206115" lon="8.781154672699543"><ele>290.0</ele><time>2026-03-29T09:08:02Z</time></trkpt><trkpt lat="40.65517093781657" lon="8.781294904336612"><ele>290.0</ele><time>2026-03-29T09:08:03Z</time></trkpt><trkpt lat="40.65523741174309" lon="8.78142759288067"><ele>290.0</ele><time>2026-03-29T09:08:04Z</time></trkpt><trkpt lat="40.655306169923655" lon="8.781564116464601"><ele>290.0</ele><time>2026-03-29T09:08:05Z</time></trkpt><trkpt lat="40.655368965227886" lon="8.7816888045937"><ele>289.1666666666667</ele><time>2026-03-29T09:08:06Z</time></trkpt><trkpt lat="40.655418073039115" lon="8.781805848848643"><ele>288.33333333333337</ele><time>2026-03-29T09:08:07Z</time></trkpt><trkpt lat="40.65545569869593" lon="8.781911598414204"><ele>287.5</ele><time>2026-03-29T09:08:08Z</time></trkpt><trkpt lat="40.65548204200887" lon="8.782021594359072"><ele>286.6666666666667</ele><time>2026-03-29T09:08:09Z</time></trkpt><trkpt lat="40.655491633563265" lon="8.78212209371089"><ele>285.8333333333333</ele><time>2026-03-29T09:08:10Z</time></trkpt><trkpt lat="40.655498474370255" lon="8.782220061710113"><ele>285.0</ele><time>2026-03-29T09:08:11Z</time></trkpt><trkpt lat="40.65549596809075" lon="8.782340863699464"><ele>284.75</ele><time>2026-03-29T09:08:12Z</time></trkpt><trkpt lat="40.65547364162674" lon="8.78247087277275"><ele>284.5</ele><time>2026-03-29T09:08:13Z</time></trkpt><trkpt lat="40.65542913710825" lon="8.78260983940575"><ele>284.25</ele><time>2026-03-29T09:08:14Z</time></trkpt><trkpt lat="40.655370528417535" lon="8.782769448603007"><ele>284.0</ele><time>2026-03-29T09:08:15Z</time></trkpt><trkpt lat="40.655317089073485" lon="8.78291478777588"><ele>284.0</ele><time>2026-03-29T09:08:16Z</time></trkpt><trkpt lat="40.65525643553104" lon="8.78307786458465"><ele>284.0</ele><time>2026-03-29T09:08:17Z</time></trkpt><trkpt lat="40.65519175312014" lon="8.783241889778335"><ele>284.0</ele><time>2026-03-29T09:08:18Z</time></trkpt><trkpt lat="40.655126566020186" lon="8.783409607429109"><ele>284.0</ele><time>2026-03-29T09:08:19Z</time></trkpt><trkpt lat="40.65506143603425" lon="8.78358194108361"><ele>283.0</ele><time>2026-03-29T09:08:20Z</time></trkpt><trkpt lat="40.65500184605742" lon="8.783746899781443"><ele>282.0</ele><time>2026-03-29T09:08:21Z</time></trkpt><trkpt lat="40.654941652862995" lon="8.7839047975959"><ele>281.0</ele><time>2026-03-29T09:08:22Z</time></trkpt><trkpt lat="40.65488406075906" lon="8.78406168209086"><ele>280.0</ele><time>2026-03-29T09:08:23Z</time></trkpt><trkpt lat="40.65481558111287" lon="8.784219245757935"><ele>281.25</ele><time>2026-03-29T09:08:24Z</time></trkpt><trkpt lat="40.65476185130973" lon="8.784385176424465"><ele>282.5</ele><time>2026-03-29T09:08:25Z</time></trkpt><trkpt lat="40.65468629651931" lon="8.784540796278302"><ele>283.75</ele><time>2026-03-29T09:08:26Z</time></trkpt><trkpt lat="40.65463039696437" lon="8.784681867502874"><ele>285.0</ele><time>2026-03-29T09:08:27Z</time></trkpt><trkpt lat="40.6545732425819" lon="8.784831131342633"><ele>285.0</ele><time>2026-03-29T09:08:28Z</time></trkpt><trkpt lat="40.654520600674275" lon="8.784971147560595"><ele>285.0</ele><time>2026-03-29T09:08:29Z</time></trkpt><trkpt lat="40.65446790734945" lon="8.785115304257705"><ele>285.0</ele><time>2026-03-29T09:08:30Z</time></trkpt><trkpt lat="40.65442121953185" lon="8.785242838467473"><ele>285.0</ele><time>2026-03-29T09:08:31Z</time></trkpt><trkpt lat="40.654368399293745" lon="8.785369804843798"><ele>283.0</ele><time>2026-03-29T09:08:32Z</time></trkpt><trkpt lat="40.65429895292423" lon="8.785512892927207"><ele>281.0</ele><time>2026-03-29T09:08:33Z</time></trkpt><trkpt lat="40.65421801573439" lon="8.785635724404777"><ele>279.0</ele><time>2026-03-29T09:08:34Z</time></trkpt><trkpt lat="40.65410817094659" lon="8.785788444501947"><ele>277.0</ele><time>2026-03-29T09:08:35Z</time></trkpt><trkpt lat="40.654000308534854" lon="8.785929021739104"><ele>276.5</ele><time>2026-03-29T09:08:36Z</time></trkpt><trkpt lat="40.653898292157834" lon="8.78606186171152"><ele>276.0</ele><time>2026-03-29T09:08:37Z</time></trkpt><trkpt lat="40.65379803718014" lon="8.786192407330612"><ele>275.5</ele><time>2026-03-29T09:08:38Z</time></trkpt><trkpt lat="40.65369950083825" lon="8.786322531574799"><ele>275.0</ele><time>2026-03-29T09:08:39Z</time></trkpt><trkpt lat="40.653595298415766" lon="8.786460867653844"><ele>275.0</ele><time>2026-03-29T09:08:40Z</time></trkpt><trkpt lat="40.653497236600515" lon="8.786591050691719"><ele>275.0</ele><time>2026-03-29T09:08:41Z</time></trkpt><trkpt lat="40.653400560088265" lon="8.786717140094275"><ele>275.0</ele><time>2026-03-29T09:08:42Z</time></trkpt><trkpt lat="40.65329289521015" lon="8.786857264811307"><ele>275.0</ele><time>2026-03-29T09:08:43Z</time></trkpt><trkpt lat="40.6531919854279" lon="8.786989999946723"><ele>276.25</ele><time>2026-03-29T09:08:44Z</time></trkpt><trkpt lat="40.653103086078815" lon="8.787108059116493"><ele>277.5</ele><time>2026-03-29T09:08:45Z</time></trkpt><trkpt lat="40.65301087194066" lon="8.787230520355399"><ele>278.75</ele><time>2026-03-29T09:08:46Z</time></trkpt><trkpt lat="40.65291779735796" lon="8.787353148193384"><ele>280.0</ele><time>2026-03-29T09:08:47Z</time></trkpt><trkpt lat="40.65281876733143" lon="8.787482945833412"><ele>279.25</ele><time>2026-03-29T09:08:48Z</time></trkpt><trkpt lat="40.6527293418536" lon="8.787600155024977"><ele>278.5</ele><time>2026-03-29T09:08:49Z</time></trkpt><trkpt lat="40.65263553807008" lon="8.787723102563314"><ele>277.75</ele><time>2026-03-29T09:08:50Z</time></trkpt><trkpt lat="40.6525505208161" lon="8.787833346438678"><ele>277.0</ele><time>2026-03-29T09:08:51Z</time></trkpt><trkpt lat="40.65246024136924" lon="8.787949930643906"><ele>277.0</ele><time>2026-03-29T09:08:52Z</time></trkpt><trkpt lat="40.65237512872691" lon="8.788058602052072"><ele>277.0</ele><time>2026-03-29T09:08:53Z</time></trkpt><trkpt lat="40.652283887830514" lon="8.788175116707023"><ele>277.0</ele><time>2026-03-29T09:08:54Z</time></trkpt><trkpt lat="40.65218225196486" lon="8.78830490575112"><ele>277.0</ele><time>2026-03-29T09:08:55Z</time></trkpt><trkpt lat="40.652080910562745" lon="8.78843431878484"><ele>276.0</ele><time>2026-03-29T09:08:56Z</time></trkpt><trkpt lat="40.65199032471482" lon="8.788548531401306"><ele>275.0</ele><time>2026-03-29T09:08:57Z</time></trkpt><trkpt lat="40.65190428682504" lon="8.788657269922028"><ele>274.0</ele><time>2026-03-29T09:08:58Z</time></trkpt><trkpt lat="40.6518370559828" lon="8.788750890072283"><ele>273.0</ele><time>2026-03-29T09:08:59Z</time></trkpt><trkpt lat="40.65176718911754" lon="8.78887463014876"><ele>273.0</ele><time>2026-03-29T09:09:00Z</time></trkpt><trkpt lat="40.65170825988577" lon="8.7890248430219"><ele>273.0</ele><time>2026-03-29T09:09:01Z</time></trkpt><trkpt lat="40.651660252249926" lon="8.789168899480188"><ele>273.0</ele><time>2026-03-29T09:09:02Z</time></trkpt><trkpt lat="40.65162410276284" lon="8.789323834430737"><ele>273.0</ele><time>2026-03-29T09:09:03Z</time></trkpt><trkpt lat="40.65159551258751" lon="8.789484479491007"><ele>273.0</ele><time>2026-03-29T09:09:04Z</time></trkpt><trkpt lat="40.65155321759651" lon="8.789660754971676"><ele>273.0</ele><time>2026-03-29T09:09:05Z</time></trkpt><trkpt lat="40.6515190812878" lon="8.789823613507279"><ele>273.0</ele><time>2026-03-29T09:09:06Z</time></trkpt><trkpt lat="40.651483812568316" lon="8.789994483290913"><ele>273.0</ele><time>2026-03-29T09:09:07Z</time></trkpt><trkpt lat="40.65144291313757" lon="8.790192632374152"><ele>273.0</ele><time>2026-03-29T09:09:08Z</time></trkpt><trkpt lat="40.65140603140761" lon="8.790373747811046"><ele>273.0</ele><time>2026-03-29T09:09:09Z</time></trkpt><trkpt lat="40.65136937431106" lon="8.790565886584178"><ele>273.0</ele><time>2026-03-29T09:09:10Z</time></trkpt><trkpt lat="40.65133809076726" lon="8.790734944930653"><ele>273.0</ele><time>2026-03-29T09:09:11Z</time></trkpt><trkpt lat="40.65130621005" lon="8.790890927424803"><ele>274.25</ele><time>2026-03-29T09:09:12Z</time></trkpt><trkpt lat="40.65128521212279" lon="8.791030249304283"><ele>275.5</ele><time>2026-03-29T09:09:13Z</time></trkpt><trkpt lat="40.6512560634752" lon="8.791188421186217"><ele>276.75</ele><time>2026-03-29T09:09:14Z</time></trkpt><trkpt lat="40.651213870068176" lon="8.791339278330097"><ele>278.0</ele><time>2026-03-29T09:09:15Z</time></trkpt><trkpt lat="40.65117879807121" lon="8.791509569263889"><ele>278.0</ele><time>2026-03-29T09:09:16Z</time></trkpt><trkpt lat="40.65114037605641" lon="8.791685618714457"><ele>278.0</ele><time>2026-03-29T09:09:17Z</time></trkpt><trkpt lat="40.651096478911086" lon="8.791890192151687"><ele>278.0</ele><time>2026-03-29T09:09:18Z</time></trkpt><trkpt lat="40.65105702363973" lon="8.792084759229015"><ele>277.0</ele><time>2026-03-29T09:09:19Z</time></trkpt><trkpt lat="40.65102418763499" lon="8.792262574638826"><ele>276.0</ele><time>2026-03-29T09:09:20Z</time></trkpt><trkpt lat="40.65099996183573" lon="8.792404268688609"><ele>275.0</ele><time>2026-03-29T09:09:21Z</time></trkpt><trkpt lat="40.650973295406196" lon="8.792543501211952"><ele>274.0</ele><time>2026-03-29T09:09:22Z</time></trkpt><trkpt lat="40.650947512350335" lon="8.792694914888898"><ele>274.0</ele><time>2026-03-29T09:09:23Z</time></trkpt><trkpt lat="40.65092993905662" lon="8.792845466676303"><ele>274.0</ele><time>2026-03-29T09:09:24Z</time></trkpt><trkpt lat="40.65091714807187" lon="8.79300263867838"><ele>274.0</ele><time>2026-03-29T09:09:25Z</time></trkpt><trkpt lat="40.650906144730754" lon="8.793160791518122"><ele>274.0</ele><time>2026-03-29T09:09:26Z</time></trkpt><trkpt lat="40.65090864348581" lon="8.793324535591639"><ele>274.0</ele><time>2026-03-29T09:09:27Z</time></trkpt><trkpt lat="40.65089117596957" lon="8.793489364347966"><ele>274.0</ele><time>2026-03-29T09:09:28Z</time></trkpt><trkpt lat="40.6508863677634" lon="8.793666055854986"><ele>274.0</ele><time>2026-03-29T09:09:29Z</time></trkpt><trkpt lat="40.65086952865182" lon="8.793861908219398"><ele>274.0</ele><time>2026-03-29T09:09:30Z</time></trkpt><trkpt lat="40.65088693209849" lon="8.794050499394785"><ele>274.25</ele><time>2026-03-29T09:09:31Z</time></trkpt><trkpt lat="40.65087922323603" lon="8.794224445830542"><ele>274.5</ele><time>2026-03-29T09:09:32Z</time></trkpt><trkpt lat="40.65089866012571" lon="8.794395896011666"><ele>274.75</ele><time>2026-03-29T09:09:33Z</time></trkpt><trkpt lat="40.65096171527386" lon="8.794585119586758"><ele>275.0</ele><time>2026-03-29T09:09:34Z</time></trkpt><trkpt lat="40.65097946261684" lon="8.794747515263708"><ele>273.75</ele><time>2026-03-29T09:09:35Z</time></trkpt><trkpt lat="40.65100316473879" lon="8.79491803756974"><ele>272.5</ele><time>2026-03-29T09:09:36Z</time></trkpt><trkpt lat="40.651027534333764" lon="8.795075128297906"><ele>271.25</ele><time>2026-03-29T09:09:37Z</time></trkpt><trkpt lat="40.65105804911709" lon="8.795250964092848"><ele>270.0</ele><time>2026-03-29T09:09:38Z</time></trkpt><trkpt lat="40.65109066296469" lon="8.795437688908722"><ele>269.5</ele><time>2026-03-29T09:09:39Z</time></trkpt><trkpt lat="40.651120056896005" lon="8.7956258684211"><ele>269.0</ele><time>2026-03-29T09:09:40Z</time></trkpt><trkpt lat="40.6511479829134" lon="8.795807280927129"><ele>268.5</ele><time>2026-03-29T09:09:41Z</time></trkpt><trkpt lat="40.65117683165931" lon="8.795979785504116"><ele>268.0</ele><time>2026-03-29T09:09:42Z</time></trkpt><trkpt lat="40.651218963328546" lon="8.796173547281343"><ele>270.0</ele><time>2026-03-29T09:09:43Z</time></trkpt><trkpt lat="40.651230635863406" lon="8.79634891946727"><ele>272.0</ele><time>2026-03-29T09:09:44Z</time></trkpt><trkpt lat="40.6512389583382" lon="8.796528864965296"><ele>274.0</ele><time>2026-03-29T09:09:45Z</time></trkpt><trkpt lat="40.65126248694601" lon="8.796687514319952"><ele>276.0</ele><time>2026-03-29T09:09:46Z</time></trkpt><trkpt lat="40.65127015733251" lon="8.79682035404515"><ele>275.6666666666667</ele><time>2026-03-29T09:09:47Z</time></trkpt><trkpt lat="40.651263634034244" lon="8.796947364247337"><ele>275.3333333333333</ele><time>2026-03-29T09:09:48Z</time></trkpt><trkpt lat="40.65127017630749" lon="8.797062463773582"><ele>275.0</ele><time>2026-03-29T09:09:49Z</time></trkpt><trkpt lat="40.65127805586467" lon="8.797179969565727"><ele>274.66666666666663</ele><time>2026-03-29T09:09:50Z</time></trkpt><trkpt lat="40.65128604775356" lon="8.797270433539543"><ele>274.3333333333333</ele><time>2026-03-29T09:09:51Z</time></trkpt><trkpt lat="40.65129483162966" lon="8.797353584981453"><ele>274.0</ele><time>2026-03-29T09:09:52Z</time></trkpt><trkpt lat="40.651307106763134" lon="8.797451342600233"><ele>274.0</ele><time>2026-03-29T09:09:53Z</time></trkpt><trkpt lat="40.651321740550436" lon="8.797568401017353"><ele>274.0</ele><time>2026-03-29T09:09:54Z</time></trkpt><trkpt lat="40.65133617176754" lon="8.797686285190286"><ele>274.0</ele><time>2026-03-29T09:09:55Z</time></trkpt><trkpt lat="40.65135996484533" lon="8.797870103632132"><ele>274.0</ele><time>2026-03-29T09:09:57Z</time></trkpt><trkpt lat="40.651373790843486" lon="8.797955803286927"><ele>274.0</ele><time>2026-03-29T09:09:58Z</time></trkpt><trkpt lat="40.65139325987109" lon="8.798056368265874"><ele>273.8</ele><time>2026-03-29T09:09:59Z</time></trkpt><trkpt lat="40.65142161360645" lon="8.798202428582265"><ele>273.59999999999997</ele><time>2026-03-29T09:10:00Z</time></trkpt><trkpt lat="40.65144918681498" lon="8.798333436576986"><ele>273.4</ele><time>2026-03-29T09:10:01Z</time></trkpt><trkpt lat="40.65148210695692" lon="8.798466802262729"><ele>273.2</ele><time>2026-03-29T09:10:02Z</time></trkpt><trkpt lat="40.65150265052773" lon="8.798595709456755"><ele>273.0</ele><time>2026-03-29T09:10:03Z</time></trkpt><trkpt lat="40.65153184524372" lon="8.798731834048748"><ele>272.0</ele><time>2026-03-29T09:10:04Z</time></trkpt><trkpt lat="40.651538392894885" lon="8.79885769644515"><ele>271.0</ele><time>2026-03-29T09:10:05Z</time></trkpt><trkpt lat="40.651555046589635" lon="8.798967271628543"><ele>270.0</ele><time>2026-03-29T09:10:06Z</time></trkpt><trkpt lat="40.65158316536977" lon="8.799069629665695"><ele>269.0</ele><time>2026-03-29T09:10:07Z</time></trkpt><trkpt lat="40.65160801955501" lon="8.799189221171055"><ele>268.0</ele><time>2026-03-29T09:10:08Z</time></trkpt><trkpt lat="40.651637775182515" lon="8.799356695219327"><ele>267.4</ele><time>2026-03-29T09:10:09Z</time></trkpt><trkpt lat="40.651717913716155" lon="8.79951043646966"><ele>266.8</ele><time>2026-03-29T09:10:10Z</time></trkpt><trkpt lat="40.65178179874793" lon="8.799648096320464"><ele>266.2</ele><time>2026-03-29T09:10:11Z</time></trkpt><trkpt lat="40.6518215559115" lon="8.799755372432676"><ele>265.6</ele><time>2026-03-29T09:10:12Z</time></trkpt><trkpt lat="40.65186920312066" lon="8.799844942671497"><ele>265.0</ele><time>2026-03-29T09:10:13Z</time></trkpt><trkpt lat="40.65191075127022" lon="8.799955666962022"><ele>265.0</ele><time>2026-03-29T09:10:14Z</time></trkpt><trkpt lat="40.6519489052691" lon="8.800057273513678"><ele>265.0</ele><time>2026-03-29T09:10:15Z</time></trkpt><trkpt lat="40.65198264600061" lon="8.80015423111658"><ele>265.0</ele><time>2026-03-29T09:10:16Z</time></trkpt><trkpt lat="40.6519910298914" lon="8.800246721566227"><ele>265.0</ele><time>2026-03-29T09:10:17Z</time></trkpt><trkpt lat="40.65201953148031" lon="8.800323052727101"><ele>265.0</ele><time>2026-03-29T09:10:18Z</time></trkpt><trkpt lat="40.65205860602552" lon="8.800438909236052"><ele>265.0</ele><time>2026-03-29T09:10:19Z</time></trkpt><trkpt lat="40.65208926521614" lon="8.800557486821715"><ele>265.8</ele><time>2026-03-29T09:10:20Z</time></trkpt><trkpt lat="40.65212368801124" lon="8.800675680307528"><ele>266.6</ele><time>2026-03-29T09:10:21Z</time></trkpt><trkpt lat="40.65216276936621" lon="8.800797831986513"><ele>267.4</ele><time>2026-03-29T09:10:22Z</time></trkpt><trkpt lat="40.65222132325501" lon="8.80092336850737"><ele>268.2</ele><time>2026-03-29T09:10:23Z</time></trkpt><trkpt lat="40.65226528505564" lon="8.80102640404208"><ele>269.0</ele><time>2026-03-29T09:10:24Z</time></trkpt><trkpt lat="40.65231934241966" lon="8.801150544267768"><ele>269.0</ele><time>2026-03-29T09:10:25Z</time></trkpt><trkpt lat="40.65239770389101" lon="8.801282400292408"><ele>269.0</ele><time>2026-03-29T09:10:26Z</time></trkpt><trkpt lat="40.65248190483923" lon="8.801414839770146"><ele>269.0</ele><time>2026-03-29T09:10:27Z</time></trkpt><trkpt lat="40.652542630592954" lon="8.801515692349971"><ele>269.0</ele><time>2026-03-29T09:10:28Z</time></trkpt><trkpt lat="40.65260494423084" lon="8.801624997827258"><ele>269.0</ele><time>2026-03-29T09:10:29Z</time></trkpt><trkpt lat="40.652675134564404" lon="8.801759802413384"><ele>269.0</ele><time>2026-03-29T09:10:30Z</time></trkpt><trkpt lat="40.65273415480197" lon="8.801866104631928"><ele>269.0</ele><time>2026-03-29T09:10:31Z</time></trkpt><trkpt lat="40.65279972892227" lon="8.80198220908771"><ele>269.0</ele><time>2026-03-29T09:10:32Z</time></trkpt><trkpt lat="40.652862953439545" lon="8.80209369904744"><ele>269.0</ele><time>2026-03-29T09:10:33Z</time></trkpt><trkpt lat="40.65292661147885" lon="8.80220344837784"><ele>269.59999999999997</ele><time>2026-03-29T09:10:34Z</time></trkpt><trkpt lat="40.65298861800804" lon="8.80230562264906"><ele>270.2</ele><time>2026-03-29T09:10:35Z</time></trkpt><trkpt lat="40.653049417430516" lon="8.802405838961816"><ele>270.79999999999995</ele><time>2026-03-29T09:10:36Z</time></trkpt><trkpt lat="40.653110717620386" lon="8.802511499111205"><ele>271.4</ele><time>2026-03-29T09:10:37Z</time></trkpt><trkpt lat="40.65315657687951" lon="8.802605322153438"><ele>272.0</ele><time>2026-03-29T09:10:38Z</time></trkpt><trkpt lat="40.6531906851147" lon="8.802712455977169"><ele>272.0</ele><time>2026-03-29T09:10:39Z</time></trkpt><trkpt lat="40.65321088182604" lon="8.802796494997844"><ele>272.0</ele><time>2026-03-29T09:10:40Z</time></trkpt><trkpt lat="40.653243281456795" lon="8.802936822257356"><ele>272.0</ele><time>2026-03-29T09:10:41Z</time></trkpt><trkpt lat="40.65328010376864" lon="8.803056378377736"><ele>272.0</ele><time>2026-03-29T09:10:42Z</time></trkpt><trkpt lat="40.65331658158255" lon="8.803179039793708"><ele>272.0</ele><time>2026-03-29T09:10:43Z</time></trkpt><trkpt lat="40.653314515534" lon="8.803293337459653"><ele>272.0</ele><time>2026-03-29T09:10:44Z</time></trkpt><trkpt lat="40.653324740510236" lon="8.803401159497621"><ele>272.0</ele><time>2026-03-29T09:10:45Z</time></trkpt><trkpt lat="40.65328853625052" lon="8.803511531426196"><ele>272.0</ele><time>2026-03-29T09:10:47Z</time></trkpt><trkpt lat="40.65327666865267" lon="8.803597202843209"><ele>272.0</ele><time>2026-03-29T09:10:48Z</time></trkpt><trkpt lat="40.6532760592319" lon="8.803697672825844"><ele>272.0</ele><time>2026-03-29T09:10:49Z</time></trkpt><trkpt lat="40.65325628270812" lon="8.803825065423993"><ele>272.0</ele><time>2026-03-29T09:10:50Z</time></trkpt><trkpt lat="40.65323844946921" lon="8.803965319144657"><ele>271.2</ele><time>2026-03-29T09:10:51Z</time></trkpt><trkpt lat="40.653217342418024" lon="8.804108887058744"><ele>270.4</ele><time>2026-03-29T09:10:52Z</time></trkpt><trkpt lat="40.653204442791136" lon="8.804238204531783"><ele>269.6</ele><time>2026-03-29T09:10:53Z</time></trkpt><trkpt lat="40.65320189151549" lon="8.804376446846971"><ele>268.8</ele><time>2026-03-29T09:10:54Z</time></trkpt><trkpt lat="40.65319035156795" lon="8.804487356976626"><ele>268.0</ele><time>2026-03-29T09:10:55Z</time></trkpt><trkpt lat="40.65321505543845" lon="8.80461253816462"><ele>267.2</ele><time>2026-03-29T09:10:56Z</time></trkpt><trkpt lat="40.65323780694871" lon="8.804722697975404"><ele>266.4</ele><time>2026-03-29T09:10:57Z</time></trkpt><trkpt lat="40.6532656468855" lon="8.804858521792568"><ele>265.59999999999997</ele><time>2026-03-29T09:10:58Z</time></trkpt><trkpt lat="40.653303072795985" lon="8.804983793730877"><ele>264.8</ele><time>2026-03-29T09:10:59Z</time></trkpt><trkpt lat="40.653331613827376" lon="8.805093903190453"><ele>264.0</ele><time>2026-03-29T09:11:00Z</time></trkpt><trkpt lat="40.653360629636296" lon="8.805210235698796"><ele>263.6666666666667</ele><time>2026-03-29T09:11:01Z</time></trkpt><trkpt lat="40.653402190252564" lon="8.805319966757946"><ele>263.3333333333333</ele><time>2026-03-29T09:11:02Z</time></trkpt><trkpt lat="40.65342602906525" lon="8.80543180334202"><ele>263.0</ele><time>2026-03-29T09:11:03Z</time></trkpt><trkpt lat="40.65344038397602" lon="8.80556442594715"><ele>262.66666666666663</ele><time>2026-03-29T09:11:04Z</time></trkpt><trkpt lat="40.653449674174794" lon="8.805681597374527"><ele>262.3333333333333</ele><time>2026-03-29T09:11:05Z</time></trkpt><trkpt lat="40.65344410541244" lon="8.805770117342576"><ele>262.0</ele><time>2026-03-29T09:11:06Z</time></trkpt><trkpt lat="40.65343323815873" lon="8.805862436140988"><ele>262.0</ele><time>2026-03-29T09:11:07Z</time></trkpt><trkpt lat="40.65340100246457" lon="8.806014309505706"><ele>262.0</ele><time>2026-03-29T09:11:09Z</time></trkpt><trkpt lat="40.65337482408752" lon="8.806107961254718"><ele>262.0</ele><time>2026-03-29T09:11:10Z</time></trkpt><trkpt lat="40.65333369800487" lon="8.806234446519591"><ele>262.0</ele><time>2026-03-29T09:11:11Z</time></trkpt><trkpt lat="40.6532795661735" lon="8.806351252012593"><ele>262.0</ele><time>2026-03-29T09:11:12Z</time></trkpt><trkpt lat="40.65322954068607" lon="8.806466983850544"><ele>262.0</ele><time>2026-03-29T09:11:13Z</time></trkpt><trkpt lat="40.653192969143326" lon="8.806603413507794"><ele>262.0</ele><time>2026-03-29T09:11:14Z</time></trkpt><trkpt lat="40.65317689762053" lon="8.806755865764162"><ele>262.0</ele><time>2026-03-29T09:11:15Z</time></trkpt><trkpt lat="40.653182287912394" lon="8.806904764925681"><ele>262.0</ele><time>2026-03-29T09:11:16Z</time></trkpt><trkpt lat="40.65319430735386" lon="8.807046947511587"><ele>262.0</ele><time>2026-03-29T09:11:17Z</time></trkpt><trkpt lat="40.65321144993654" lon="8.807180319402525"><ele>262.0</ele><time>2026-03-29T09:11:18Z</time></trkpt><trkpt lat="40.65322861222071" lon="8.807296203846143"><ele>262.0</ele><time>2026-03-29T09:11:19Z</time></trkpt><trkpt lat="40.65324886646805" lon="8.807408857902981"><ele>262.0</ele><time>2026-03-29T09:11:20Z</time></trkpt><trkpt lat="40.65327125393948" lon="8.807520513967058"><ele>262.0</ele><time>2026-03-29T09:11:21Z</time></trkpt><trkpt lat="40.65329566865518" lon="8.80763185144804"><ele>262.0</ele><time>2026-03-29T09:11:22Z</time></trkpt><trkpt lat="40.653322037320116" lon="8.80774659005879"><ele>262.0</ele><time>2026-03-29T09:11:23Z</time></trkpt><trkpt lat="40.653351231587706" lon="8.80787362411431"><ele>262.0</ele><time>2026-03-29T09:11:24Z</time></trkpt><trkpt lat="40.65337866274178" lon="8.807994023215143"><ele>262.0</ele><time>2026-03-29T09:11:25Z</time></trkpt><trkpt lat="40.65340395137801" lon="8.808105827873566"><ele>262.0</ele><time>2026-03-29T09:11:26Z</time></trkpt><trkpt lat="40.653427729873" lon="8.808219868130566"><ele>262.0</ele><time>2026-03-29T09:11:27Z</time></trkpt><trkpt lat="40.653450873765564" lon="8.808335791087389"><ele>262.0</ele><time>2026-03-29T09:11:28Z</time></trkpt><trkpt lat="40.65346951104342" lon="8.808439794844015"><ele>262.0</ele><time>2026-03-29T09:11:29Z</time></trkpt><trkpt lat="40.65347574509354" lon="8.808531492196385"><ele>261.8333333333333</ele><time>2026-03-29T09:11:30Z</time></trkpt><trkpt lat="40.653475890647115" lon="8.808622698020892"><ele>261.66666666666663</ele><time>2026-03-29T09:11:31Z</time></trkpt><trkpt lat="40.653481941634226" lon="8.808722596968366"><ele>261.5</ele><time>2026-03-29T09:11:32Z</time></trkpt><trkpt lat="40.65347232527794" lon="8.808829534722696"><ele>261.3333333333333</ele><time>2026-03-29T09:11:33Z</time></trkpt><trkpt lat="40.653455164375515" lon="8.808936947762907"><ele>261.1666666666667</ele><time>2026-03-29T09:11:34Z</time></trkpt><trkpt lat="40.653435442113214" lon="8.809051554301096"><ele>261.0</ele><time>2026-03-29T09:11:35Z</time></trkpt><trkpt lat="40.653409107620185" lon="8.809176680960443"><ele>261.0</ele><time>2026-03-29T09:11:36Z</time></trkpt><trkpt lat="40.65338017416383" lon="8.809309316601931"><ele>261.0</ele><time>2026-03-29T09:11:37Z</time></trkpt><trkpt lat="40.65334943015807" lon="8.809444016371362"><ele>261.0</ele><time>2026-03-29T09:11:38Z</time></trkpt><trkpt lat="40.65331236651381" lon="8.809573010842318"><ele>261.0</ele><time>2026-03-29T09:11:39Z</time></trkpt><trkpt lat="40.65327415210444" lon="8.80970178591927"><ele>261.0</ele><time>2026-03-29T09:11:40Z</time></trkpt><trkpt lat="40.653235528904034" lon="8.809851334112029"><ele>263.0</ele><time>2026-03-29T09:11:41Z</time></trkpt><trkpt lat="40.65318616278155" lon="8.810030806116362"><ele>265.0</ele><time>2026-03-29T09:11:42Z</time></trkpt><trkpt lat="40.653132447152835" lon="8.810226999118065"><ele>267.0</ele><time>2026-03-29T09:11:43Z</time></trkpt><trkpt lat="40.65307300002359" lon="8.810422625525272"><ele>269.0</ele><time>2026-03-29T09:11:44Z</time></trkpt><trkpt lat="40.65299692165944" lon="8.810624512176206"><ele>271.0</ele><time>2026-03-29T09:11:45Z</time></trkpt><trkpt lat="40.652933031835495" lon="8.810842438192655"><ele>273.0</ele><time>2026-03-29T09:11:46Z</time></trkpt><trkpt lat="40.65286718893612" lon="8.811067008475193"><ele>275.25</ele><time>2026-03-29T09:11:47Z</time></trkpt><trkpt lat="40.65280312803149" lon="8.811285421989973"><ele>277.5</ele><time>2026-03-29T09:11:48Z</time></trkpt><trkpt lat="40.652755375051676" lon="8.811463243458608"><ele>279.75</ele><time>2026-03-29T09:11:49Z</time></trkpt><trkpt lat="40.65271564344374" lon="8.81162388282957"><ele>282.0</ele><time>2026-03-29T09:11:50Z</time></trkpt><trkpt lat="40.652685362239765" lon="8.81175479992021"><ele>277.0</ele><time>2026-03-29T09:11:51Z</time></trkpt><trkpt lat="40.65265661157899" lon="8.811906098794218"><ele>272.0</ele><time>2026-03-29T09:11:52Z</time></trkpt><trkpt lat="40.652633263194346" lon="8.812062668622595"><ele>267.0</ele><time>2026-03-29T09:11:53Z</time></trkpt><trkpt lat="40.65261422056747" lon="8.812225825289628"><ele>262.0</ele><time>2026-03-29T09:11:54Z</time></trkpt><trkpt lat="40.65259943715216" lon="8.812386736208683"><ele>262.0</ele><time>2026-03-29T09:11:55Z</time></trkpt><trkpt lat="40.65260089785774" lon="8.81255987889406"><ele>262.0</ele><time>2026-03-29T09:11:56Z</time></trkpt><trkpt lat="40.6525773844675" lon="8.812739269454386"><ele>262.0</ele><time>2026-03-29T09:11:57Z</time></trkpt><trkpt lat="40.652575895842396" lon="8.81290987397424"><ele>262.0</ele><time>2026-03-29T09:11:58Z</time></trkpt><trkpt lat="40.65258432657722" lon="8.813088174909245"><ele>261.5</ele><time>2026-03-29T09:11:59Z</time></trkpt><trkpt lat="40.65259515604921" lon="8.813260092646049"><ele>261.0</ele><time>2026-03-29T09:12:00Z</time></trkpt><trkpt lat="40.652603502664356" lon="8.813437720759811"><ele>260.5</ele><time>2026-03-29T09:12:01Z</time></trkpt><trkpt lat="40.652603086582445" lon="8.813584603826914"><ele>260.0</ele><time>2026-03-29T09:12:02Z</time></trkpt><trkpt lat="40.652594310168574" lon="8.813723565225466"><ele>260.0</ele><time>2026-03-29T09:12:03Z</time></trkpt><trkpt lat="40.65258021168013" lon="8.813847959939105"><ele>260.0</ele><time>2026-03-29T09:12:04Z</time></trkpt><trkpt lat="40.65255858329726" lon="8.81396119855125"><ele>260.0</ele><time>2026-03-29T09:12:05Z</time></trkpt><trkpt lat="40.65253514524868" lon="8.814099028495855"><ele>260.0</ele><time>2026-03-29T09:12:06Z</time></trkpt><trkpt lat="40.65252052705626" lon="8.814226239558534"><ele>260.0</ele><time>2026-03-29T09:12:07Z</time></trkpt><trkpt lat="40.65250955783884" lon="8.814340761132827"><ele>260.0</ele><time>2026-03-29T09:12:08Z</time></trkpt><trkpt lat="40.65250041242904" lon="8.814451931528126"><ele>260.0</ele><time>2026-03-29T09:12:09Z</time></trkpt><trkpt lat="40.652505257314786" lon="8.814553519249191"><ele>260.0</ele><time>2026-03-29T09:12:10Z</time></trkpt><trkpt lat="40.65248768940809" lon="8.814666414338262"><ele>260.0</ele><time>2026-03-29T09:12:11Z</time></trkpt><trkpt lat="40.65249142561116" lon="8.814788746460971"><ele>260.0</ele><time>2026-03-29T09:12:12Z</time></trkpt><trkpt lat="40.65251799355551" lon="8.814900004971578"><ele>260.0</ele><time>2026-03-29T09:12:13Z</time></trkpt><trkpt lat="40.65253525956176" lon="8.815025964475673"><ele>260.0</ele><time>2026-03-29T09:12:14Z</time></trkpt><trkpt lat="40.65252795239657" lon="8.815129057886269"><ele>260.0</ele><time>2026-03-29T09:12:15Z</time></trkpt><trkpt lat="40.652514699686236" lon="8.815245277921514"><ele>260.0</ele><time>2026-03-29T09:12:16Z</time></trkpt><trkpt lat="40.6525056705793" lon="8.815358738557391"><ele>260.0</ele><time>2026-03-29T09:12:17Z</time></trkpt><trkpt lat="40.65249118427894" lon="8.815515213123613"><ele>260.0</ele><time>2026-03-29T09:12:18Z</time></trkpt><trkpt lat="40.652473768408605" lon="8.815675691067405"><ele>260.5</ele><time>2026-03-29T09:12:19Z</time></trkpt><trkpt lat="40.652452738770805" lon="8.815837899900743"><ele>261.0</ele><time>2026-03-29T09:12:20Z</time></trkpt><trkpt lat="40.652418113381096" lon="8.81599046082155"><ele>261.5</ele><time>2026-03-29T09:12:21Z</time></trkpt><trkpt lat="40.652388095074066" lon="8.816149696319822"><ele>262.0</ele><time>2026-03-29T09:12:22Z</time></trkpt><trkpt lat="40.65233747320318" lon="8.816294824717495"><ele>263.0</ele><time>2026-03-29T09:12:23Z</time></trkpt><trkpt lat="40.652273689252084" lon="8.816452791855365"><ele>264.0</ele><time>2026-03-29T09:12:24Z</time></trkpt><trkpt lat="40.65222693536286" lon="8.816636938471468"><ele>265.0</ele><time>2026-03-29T09:12:25Z</time></trkpt><trkpt lat="40.652156205739914" lon="8.816796662891669"><ele>266.0</ele><time>2026-03-29T09:12:26Z</time></trkpt><trkpt lat="40.652101147914586" lon="8.81695741491186"><ele>266.5</ele><time>2026-03-29T09:12:27Z</time></trkpt><trkpt lat="40.65205035608957" lon="8.817124771249807"><ele>267.0</ele><time>2026-03-29T09:12:28Z</time></trkpt><trkpt lat="40.65201684609727" lon="8.817289758489927"><ele>267.5</ele><time>2026-03-29T09:12:29Z</time></trkpt><trkpt lat="40.65198944412903" lon="8.817438358204672"><ele>268.0</ele><time>2026-03-29T09:12:30Z</time></trkpt><trkpt lat="40.65196526743741" lon="8.81756579800381"><ele>265.8</ele><time>2026-03-29T09:12:31Z</time></trkpt><trkpt lat="40.65190686965656" lon="8.817655795421969"><ele>263.6</ele><time>2026-03-29T09:12:32Z</time></trkpt><trkpt lat="40.65185051703904" lon="8.81776330540035"><ele>261.4</ele><time>2026-03-29T09:12:33Z</time></trkpt><trkpt lat="40.651779196173344" lon="8.817884974751284"><ele>259.2</ele><time>2026-03-29T09:12:34Z</time></trkpt><trkpt lat="40.65170673911899" lon="8.817990777931353"><ele>257.0</ele><time>2026-03-29T09:12:35Z</time></trkpt><trkpt lat="40.651622073574735" lon="8.818097673852064"><ele>257.0</ele><time>2026-03-29T09:12:36Z</time></trkpt><trkpt lat="40.651542482225665" lon="8.81820883596597"><ele>257.0</ele><time>2026-03-29T09:12:37Z</time></trkpt><trkpt lat="40.65142623176022" lon="8.81832539919349"><ele>257.0</ele><time>2026-03-29T09:12:38Z</time></trkpt><trkpt lat="40.65130145636711" lon="8.81843822411382"><ele>257.0</ele><time>2026-03-29T09:12:39Z</time></trkpt><trkpt lat="40.65118073036221" lon="8.818561789265312"><ele>256.75</ele><time>2026-03-29T09:12:40Z</time></trkpt><trkpt lat="40.651059081028805" lon="8.818701138338804"><ele>256.5</ele><time>2026-03-29T09:12:41Z</time></trkpt><trkpt lat="40.65096443168603" lon="8.818828766680298"><ele>256.25</ele><time>2026-03-29T09:12:42Z</time></trkpt><trkpt lat="40.65088639361995" lon="8.818955477287613"><ele>256.0</ele><time>2026-03-29T09:12:43Z</time></trkpt><trkpt lat="40.650831545960855" lon="8.819066643919852"><ele>256.0</ele><time>2026-03-29T09:12:44Z</time></trkpt><trkpt lat="40.650775287705244" lon="8.81919189336105"><ele>256.0</ele><time>2026-03-29T09:12:45Z</time></trkpt><trkpt lat="40.65073441921535" lon="8.819282668875786"><ele>256.0</ele><time>2026-03-29T09:12:46Z</time></trkpt><trkpt lat="40.65068300361156" lon="8.819388054083507"><ele>256.0</ele><time>2026-03-29T09:12:48Z</time></trkpt><trkpt lat="40.65070449101658" lon="8.819545783797127"><ele>256.0</ele><time>2026-03-29T09:12:49Z</time></trkpt><trkpt lat="40.6507231656912" lon="8.819640888698517"><ele>256.40000000000003</ele><time>2026-03-29T09:12:50Z</time></trkpt><trkpt lat="40.650746172375996" lon="8.819759313322805"><ele>256.8</ele><time>2026-03-29T09:12:51Z</time></trkpt><trkpt lat="40.65078399924162" lon="8.819900546773534"><ele>257.20000000000005</ele><time>2026-03-29T09:12:52Z</time></trkpt><trkpt lat="40.65083679498154" lon="8.820038136892684"><ele>257.6</ele><time>2026-03-29T09:12:53Z</time></trkpt><trkpt lat="40.650898017716784" lon="8.820163370406423"><ele>258.0</ele><time>2026-03-29T09:12:54Z</time></trkpt><trkpt lat="40.65098138357207" lon="8.82028271782067"><ele>258.0</ele><time>2026-03-29T09:12:55Z</time></trkpt><trkpt lat="40.6510475205886" lon="8.820420380924348"><ele>258.0</ele><time>2026-03-29T09:12:56Z</time></trkpt><trkpt lat="40.65112978924836" lon="8.820537411247704"><ele>258.0</ele><time>2026-03-29T09:12:57Z</time></trkpt><trkpt lat="40.65121167569776" lon="8.820628053709244"><ele>258.0</ele><time>2026-03-29T09:12:58Z</time></trkpt><trkpt lat="40.65126706401866" lon="8.820747440597206"><ele>259.0</ele><time>2026-03-29T09:12:59Z</time></trkpt><trkpt lat="40.65130963378807" lon="8.820849962438185"><ele>260.0</ele><time>2026-03-29T09:13:00Z</time></trkpt><trkpt lat="40.651338112362005" lon="8.820957636167634"><ele>261.0</ele><time>2026-03-29T09:13:01Z</time></trkpt><trkpt lat="40.651350575750456" lon="8.82104127597355"><ele>262.0</ele><time>2026-03-29T09:13:02Z</time></trkpt><trkpt lat="40.651357939442086" lon="8.821204809339255"><ele>263.0</ele><time>2026-03-29T09:13:04Z</time></trkpt><trkpt lat="40.65134840068607" lon="8.821304440406191"><ele>264.0</ele><time>2026-03-29T09:13:05Z</time></trkpt><trkpt lat="40.65132852800347" lon="8.821387008920999"><ele>264.0</ele><time>2026-03-29T09:13:06Z</time></trkpt><trkpt lat="40.651282631760644" lon="8.821484661685215"><ele>264.0</ele><time>2026-03-29T09:13:07Z</time></trkpt><trkpt lat="40.6512293655125" lon="8.821588077247696"><ele>264.0</ele><time>2026-03-29T09:13:08Z</time></trkpt><trkpt lat="40.65116730537319" lon="8.82171077693309"><ele>264.0</ele><time>2026-03-29T09:13:09Z</time></trkpt><trkpt lat="40.65111309992216" lon="8.821814743794238"><ele>264.0</ele><time>2026-03-29T09:13:10Z</time></trkpt><trkpt lat="40.651068502595926" lon="8.821919384159726"><ele>262.8</ele><time>2026-03-29T09:13:11Z</time></trkpt><trkpt lat="40.651003397452406" lon="8.822008708879363"><ele>261.59999999999997</ele><time>2026-03-29T09:13:12Z</time></trkpt><trkpt lat="40.650960450469874" lon="8.82212437198816"><ele>260.4</ele><time>2026-03-29T09:13:13Z</time></trkpt><trkpt lat="40.65091085064219" lon="8.822225523015671"><ele>259.2</ele><time>2026-03-29T09:13:14.001Z</time></trkpt><trkpt lat="40.65088758868928" lon="8.82235006602563"><ele>258.0</ele><time>2026-03-29T09:13:15.001Z</time></trkpt><trkpt lat="40.650890434472124" lon="8.82250394437462"><ele>258.2</ele><time>2026-03-29T09:13:16.001Z</time></trkpt><trkpt lat="40.650933385498114" lon="8.822653592677858"><ele>258.4</ele><time>2026-03-29T09:13:17.001Z</time></trkpt><trkpt lat="40.65095826715948" lon="8.822787914890174"><ele>258.59999999999997</ele><time>2026-03-29T09:13:18.001Z</time></trkpt><trkpt lat="40.65094776781173" lon="8.822921856288094"><ele>258.8</ele><time>2026-03-29T09:13:19.001Z</time></trkpt><trkpt lat="40.65094963901839" lon="8.823047655859519"><ele>259.0</ele><time>2026-03-29T09:13:20.001Z</time></trkpt><trkpt lat="40.65095167715191" lon="8.82318467782502"><ele>259.0</ele><time>2026-03-29T09:13:21.001Z</time></trkpt><trkpt lat="40.65095204536703" lon="8.823339731239725"><ele>259.0</ele><time>2026-03-29T09:13:22.001Z</time></trkpt><trkpt lat="40.65095156138422" lon="8.823521172500463"><ele>259.0</ele><time>2026-03-29T09:13:23.001Z</time></trkpt><trkpt lat="40.65095469268052" lon="8.82370389367548"><ele>259.0</ele><time>2026-03-29T09:13:24.001Z</time></trkpt><trkpt lat="40.65095963777555" lon="8.823900570780498"><ele>259.3333333333333</ele><time>2026-03-29T09:13:25.001Z</time></trkpt><trkpt lat="40.65096840369587" lon="8.824101068151752"><ele>259.6666666666667</ele><time>2026-03-29T09:13:26.001Z</time></trkpt><trkpt lat="40.650980740276424" lon="8.824304956822887"><ele>260.0</ele><time>2026-03-29T09:13:27.001Z</time></trkpt><trkpt lat="40.650991477488624" lon="8.824491711718375"><ele>260.0</ele><time>2026-03-29T09:13:28.001Z</time></trkpt><trkpt lat="40.65101119594599" lon="8.824714757146255"><ele>260.0</ele><time>2026-03-29T09:13:29.001Z</time></trkpt><trkpt lat="40.6510329709998" lon="8.824935996052176"><ele>260.0</ele><time>2026-03-29T09:13:30.001Z</time></trkpt><trkpt lat="40.65105147863741" lon="8.825169675009807"><ele>260.0</ele><time>2026-03-29T09:13:31.001Z</time></trkpt><trkpt lat="40.651067384288005" lon="8.825369553515308"><ele>260.0</ele><time>2026-03-29T09:13:32.001Z</time></trkpt><trkpt lat="40.65107867201331" lon="8.825534692821615"><ele>260.0</ele><time>2026-03-29T09:13:33.001Z</time></trkpt><trkpt lat="40.65108595621088" lon="8.825663736732068"><ele>260.0</ele><time>2026-03-29T09:13:34.001Z</time></trkpt><trkpt lat="40.65108868941705" lon="8.825750498527137"><ele>260.0</ele><time>2026-03-29T09:13:35.001Z</time></trkpt><trkpt lat="40.65108430634009" lon="8.825856860681395"><ele>260.0</ele><time>2026-03-29T09:13:36.001Z</time></trkpt><trkpt lat="40.65109293803933" lon="8.825952333085777"><ele>260.0</ele><time>2026-03-29T09:13:37.001Z</time></trkpt><trkpt lat="40.65111515257153" lon="8.826053497536115"><ele>260.0</ele><time>2026-03-29T09:13:38.001Z</time></trkpt><trkpt lat="40.651146704444656" lon="8.826180922571716"><ele>260.0</ele><time>2026-03-29T09:13:39.001Z</time></trkpt><trkpt lat="40.65117057223146" lon="8.82630375753759"><ele>260.0</ele><time>2026-03-29T09:13:40.001Z</time></trkpt><trkpt lat="40.65117801032817" lon="8.82640720775508"><ele>260.0</ele><time>2026-03-29T09:13:41.001Z</time></trkpt><trkpt lat="40.651177955192416" lon="8.826532812810386"><ele>261.4</ele><time>2026-03-29T09:13:42.001Z</time></trkpt><trkpt lat="40.651172017507875" lon="8.826665425829896"><ele>262.8</ele><time>2026-03-29T09:13:43.001Z</time></trkpt><trkpt lat="40.65115725899256" lon="8.826802523575585"><ele>264.2</ele><time>2026-03-29T09:13:44.001Z</time></trkpt><trkpt lat="40.65114546927424" lon="8.826905710334106"><ele>265.6</ele><time>2026-03-29T09:13:45.001Z</time></trkpt><trkpt lat="40.651119932264834" lon="8.827018011990747"><ele>267.0</ele><time>2026-03-29T09:13:46.001Z</time></trkpt><trkpt lat="40.65113946205" lon="8.82715437313782"><ele>267.0</ele><time>2026-03-29T09:13:47.001Z</time></trkpt><trkpt lat="40.6511490205102" lon="8.827295085181085"><ele>267.0</ele><time>2026-03-29T09:13:48.001Z</time></trkpt><trkpt lat="40.65115916158314" lon="8.827398025250234"><ele>267.0</ele><time>2026-03-29T09:13:49.001Z</time></trkpt><trkpt lat="40.651140197211326" lon="8.827484812818026"><ele>267.0</ele><time>2026-03-29T09:13:50.001Z</time></trkpt><trkpt lat="40.6511105119785" lon="8.827587060792535"><ele>267.0</ele><time>2026-03-29T09:13:51.001Z</time></trkpt><trkpt lat="40.65107174650632" lon="8.8277089592263"><ele>267.0</ele><time>2026-03-29T09:13:52.001Z</time></trkpt><trkpt lat="40.65102455133807" lon="8.82784717924277"><ele>266.75</ele><time>2026-03-29T09:13:53.001Z</time></trkpt><trkpt lat="40.65097778490838" lon="8.827981918624992"><ele>266.5</ele><time>2026-03-29T09:13:54.001Z</time></trkpt><trkpt lat="40.650924739892055" lon="8.828137890908156"><ele>266.25</ele><time>2026-03-29T09:13:55.001Z</time></trkpt><trkpt lat="40.65087639831881" lon="8.828301583228662"><ele>266.0</ele><time>2026-03-29T09:13:56.001Z</time></trkpt><trkpt lat="40.650832181971175" lon="8.82846720209567"><ele>264.75</ele><time>2026-03-29T09:13:57.001Z</time></trkpt><trkpt lat="40.65079115928318" lon="8.828627971183051"><ele>263.5</ele><time>2026-03-29T09:13:58.001Z</time></trkpt><trkpt lat="40.65074830099485" lon="8.828792714466216"><ele>262.25</ele><time>2026-03-29T09:13:59.001Z</time></trkpt><trkpt lat="40.65070711018894" lon="8.828935816854738"><ele>261.0</ele><time>2026-03-29T09:14:00.001Z</time></trkpt><trkpt lat="40.65066552008341" lon="8.82908066578045"><ele>261.0</ele><time>2026-03-29T09:14:01.001Z</time></trkpt><trkpt lat="40.650628344614404" lon="8.829207970197453"><ele>261.0</ele><time>2026-03-29T09:14:02.001Z</time></trkpt><trkpt lat="40.65057954581004" lon="8.829340311951288"><ele>261.0</ele><time>2026-03-29T09:14:03.001Z</time></trkpt><trkpt lat="40.65053845850313" lon="8.82944830913651"><ele>261.0</ele><time>2026-03-29T09:14:04.001Z</time></trkpt><trkpt lat="40.650479152945124" lon="8.829527116082408"><ele>261.0</ele><time>2026-03-29T09:14:05.001Z</time></trkpt><trkpt lat="40.65041250543906" lon="8.829630828388247"><ele>260.25</ele><time>2026-03-29T09:14:06.001Z</time></trkpt><trkpt lat="40.6503248330465" lon="8.829764582514974"><ele>259.5</ele><time>2026-03-29T09:14:07.001Z</time></trkpt><trkpt lat="40.650234959694636" lon="8.82991615970808"><ele>258.75</ele><time>2026-03-29T09:14:08.001Z</time></trkpt><trkpt lat="40.650155099812295" lon="8.830059040227853"><ele>258.0</ele><time>2026-03-29T09:14:09.001Z</time></trkpt><trkpt lat="40.65008020630835" lon="8.83019553656372"><ele>257.0</ele><time>2026-03-29T09:14:10.001Z</time></trkpt><trkpt lat="40.650004426008586" lon="8.83033757015618"><ele>256.0</ele><time>2026-03-29T09:14:11.001Z</time></trkpt><trkpt lat="40.64993619825714" lon="8.830468523013392"><ele>255.0</ele><time>2026-03-29T09:14:12.001Z</time></trkpt><trkpt lat="40.64986801560269" lon="8.830602462768312"><ele>254.0</ele><time>2026-03-29T09:14:13.001Z</time></trkpt><trkpt lat="40.649812881208256" lon="8.830750345113527"><ele>254.0</ele><time>2026-03-29T09:14:14.001Z</time></trkpt><trkpt lat="40.64974578649509" lon="8.830861235713762"><ele>253.99999999999997</ele><time>2026-03-29T09:14:15.001Z</time></trkpt><trkpt lat="40.64968206112994" lon="8.830966696577269"><ele>253.99999999999997</ele><time>2026-03-29T09:14:16.001Z</time></trkpt><trkpt lat="40.649641834293895" lon="8.831034233270106"><ele>254.0</ele><time>2026-03-29T09:14:17.001Z</time></trkpt><trkpt lat="40.6495669193275" lon="8.83112772586498"><ele>254.0</ele><time>2026-03-29T09:14:19.001Z</time></trkpt><trkpt lat="40.64948530874476" lon="8.831199476674698"><ele>254.16666666666669</ele><time>2026-03-29T09:14:21Z</time></trkpt><trkpt lat="40.649374877305064" lon="8.83122311000309"><ele>254.33333333333334</ele><time>2026-03-29T09:14:23Z</time></trkpt><trkpt lat="40.64930182859528" lon="8.831177515599038"><ele>254.5</ele><time>2026-03-29T09:14:25Z</time></trkpt><trkpt lat="40.64926809424695" lon="8.83110095045667"><ele>254.66666666666669</ele><time>2026-03-29T09:14:26Z</time></trkpt><trkpt lat="40.64924189340234" lon="8.831020748912364"><ele>254.83333333333334</ele><time>2026-03-29T09:14:27Z</time></trkpt><trkpt lat="40.64921504845153" lon="8.830942968671467"><ele>255.0</ele><time>2026-03-29T09:14:28Z</time></trkpt><trkpt lat="40.64911404495257" lon="8.830864018367834"><ele>255.0</ele><time>2026-03-29T09:14:30Z</time></trkpt><trkpt lat="40.64905819628846" lon="8.830910008189468"><ele>255.0</ele><time>2026-03-29T09:14:31Z</time></trkpt><trkpt lat="40.649060324854126" lon="8.83107229326982"><ele>255.0</ele><time>2026-03-29T09:14:33Z</time></trkpt><trkpt lat="40.6490630673699" lon="8.831170807069123"><ele>255.0</ele><time>2026-03-29T09:14:34Z</time></trkpt><trkpt lat="40.64908698331912" lon="8.831270990086292"><ele>255.0</ele><time>2026-03-29T09:14:35Z</time></trkpt><trkpt lat="40.64910192029834" lon="8.831372855607954"><ele>255.0</ele><time>2026-03-29T09:14:36Z</time></trkpt><trkpt lat="40.64910191433836" lon="8.83148112763155"><ele>257.0</ele><time>2026-03-29T09:14:37Z</time></trkpt><trkpt lat="40.64910369473867" lon="8.831601081626408"><ele>259.0</ele><time>2026-03-29T09:14:38Z</time></trkpt><trkpt lat="40.64908223777932" lon="8.831716477287067"><ele>261.0</ele><time>2026-03-29T09:14:39Z</time></trkpt><trkpt lat="40.64906263085991" lon="8.831825027620818"><ele>263.0</ele><time>2026-03-29T09:14:40Z</time></trkpt><trkpt lat="40.64904743568151" lon="8.831937033145703"><ele>265.0</ele><time>2026-03-29T09:14:41Z</time></trkpt><trkpt lat="40.64903118201881" lon="8.832069425466093"><ele>266.4</ele><time>2026-03-29T09:14:42Z</time></trkpt><trkpt lat="40.64903159703627" lon="8.832205376267172"><ele>267.8</ele><time>2026-03-29T09:14:43Z</time></trkpt><trkpt lat="40.64900883183981" lon="8.832331500049381"><ele>269.2</ele><time>2026-03-29T09:14:44Z</time></trkpt><trkpt lat="40.64900056179074" lon="8.832455607755149"><ele>270.6</ele><time>2026-03-29T09:14:45Z</time></trkpt><trkpt lat="40.64899030276399" lon="8.832574796023243"><ele>272.0</ele><time>2026-03-29T09:14:46Z</time></trkpt><trkpt lat="40.64900216818089" lon="8.832691907925716"><ele>273.6</ele><time>2026-03-29T09:14:47Z</time></trkpt><trkpt lat="40.64900029279351" lon="8.83281323977002"><ele>275.2</ele><time>2026-03-29T09:14:48Z</time></trkpt><trkpt lat="40.64899288033673" lon="8.83293777028236"><ele>276.8</ele><time>2026-03-29T09:14:49Z</time></trkpt><trkpt lat="40.64902602197811" lon="8.833056572358053"><ele>278.4</ele><time>2026-03-29T09:14:50Z</time></trkpt><trkpt lat="40.64903140895382" lon="8.833170354422995"><ele>280.0</ele><time>2026-03-29T09:14:51Z</time></trkpt><trkpt lat="40.64904546575403" lon="8.833300151264567"><ele>280.0</ele><time>2026-03-29T09:14:52Z</time></trkpt><trkpt lat="40.64902468358754" lon="8.83343066728236"><ele>280.0</ele><time>2026-03-29T09:14:53Z</time></trkpt><trkpt lat="40.649012318270486" lon="8.83355544522575"><ele>280.0</ele><time>2026-03-29T09:14:54Z</time></trkpt><trkpt lat="40.64899756923972" lon="8.833695198071704"><ele>280.0</ele><time>2026-03-29T09:14:55Z</time></trkpt><trkpt lat="40.648986173016546" lon="8.833821675077788"><ele>280.0</ele><time>2026-03-29T09:14:56Z</time></trkpt><trkpt lat="40.648980743200234" lon="8.833954907444165"><ele>281.8</ele><time>2026-03-29T09:14:57Z</time></trkpt><trkpt lat="40.64897659268714" lon="8.83409004466339"><ele>283.6</ele><time>2026-03-29T09:14:58Z</time></trkpt><trkpt lat="40.64897303752177" lon="8.834231538165248"><ele>285.4</ele><time>2026-03-29T09:14:59Z</time></trkpt><trkpt lat="40.648974235387804" lon="8.834365755007193"><ele>287.2</ele><time>2026-03-29T09:15:00Z</time></trkpt><trkpt lat="40.64898032585314" lon="8.834494696799105"><ele>289.0</ele><time>2026-03-29T09:15:01Z</time></trkpt><trkpt lat="40.649004541360405" lon="8.834639062294345"><ele>290.4</ele><time>2026-03-29T09:15:02Z</time></trkpt><trkpt lat="40.64902077571212" lon="8.834776283328251"><ele>291.79999999999995</ele><time>2026-03-29T09:15:03Z</time></trkpt><trkpt lat="40.64903307516257" lon="8.834901592491377"><ele>293.20000000000005</ele><time>2026-03-29T09:15:04Z</time></trkpt><trkpt lat="40.6490776043791" lon="8.835019494965964"><ele>294.6</ele><time>2026-03-29T09:15:05Z</time></trkpt><trkpt lat="40.64909242717669" lon="8.835128975918023"><ele>296.0</ele><time>2026-03-29T09:15:06Z</time></trkpt><trkpt lat="40.64907970371007" lon="8.83524252128578"><ele>296.8</ele><time>2026-03-29T09:15:07Z</time></trkpt><trkpt lat="40.64907629710726" lon="8.835356641139631"><ele>297.6</ele><time>2026-03-29T09:15:08Z</time></trkpt><trkpt lat="40.64906643865235" lon="8.835491812907698"><ele>298.4</ele><time>2026-03-29T09:15:09Z</time></trkpt><trkpt lat="40.64905602840344" lon="8.835620129626843"><ele>299.2</ele><time>2026-03-29T09:15:10Z</time></trkpt><trkpt lat="40.64904632021936" lon="8.83579826383586"><ele>300.0</ele><time>2026-03-29T09:15:11Z</time></trkpt><trkpt lat="40.64904077642048" lon="8.835976902915013"><ele>302.0</ele><time>2026-03-29T09:15:12Z</time></trkpt><trkpt lat="40.649041531133285" lon="8.836159952172792"><ele>304.0</ele><time>2026-03-29T09:15:13Z</time></trkpt><trkpt lat="40.649051336077534" lon="8.836342309646584"><ele>306.0</ele><time>2026-03-29T09:15:14Z</time></trkpt><trkpt lat="40.64907095658997" lon="8.836514597326705"><ele>308.0</ele><time>2026-03-29T09:15:15Z</time></trkpt><trkpt lat="40.649089930239526" lon="8.836667587854485"><ele>309.0</ele><time>2026-03-29T09:15:16Z</time></trkpt><trkpt lat="40.649100519096166" lon="8.836814477799047"><ele>310.0</ele><time>2026-03-29T09:15:17Z</time></trkpt><trkpt lat="40.64910412126112" lon="8.836967261839392"><ele>311.0</ele><time>2026-03-29T09:15:18Z</time></trkpt><trkpt lat="40.649101037300404" lon="8.837109387921174"><ele>312.0</ele><time>2026-03-29T09:15:19Z</time></trkpt><trkpt lat="40.64909345282102" lon="8.837268175920034"><ele>312.0</ele><time>2026-03-29T09:15:20Z</time></trkpt><trkpt lat="40.649086141183055" lon="8.837394598000104"><ele>312.0</ele><time>2026-03-29T09:15:21Z</time></trkpt><trkpt lat="40.649076944736024" lon="8.83753197165596"><ele>312.0</ele><time>2026-03-29T09:15:22Z</time></trkpt><trkpt lat="40.649081630885014" lon="8.837682829110415"><ele>312.0</ele><time>2026-03-29T09:15:23Z</time></trkpt><trkpt lat="40.649045896848634" lon="8.837823265850867"><ele>312.0</ele><time>2026-03-29T09:15:24Z</time></trkpt><trkpt lat="40.64900373460426" lon="8.837962050922615"><ele>313.75</ele><time>2026-03-29T09:15:25Z</time></trkpt><trkpt lat="40.64900616889227" lon="8.838139519819295"><ele>315.5</ele><time>2026-03-29T09:15:26Z</time></trkpt><trkpt lat="40.648978003992184" lon="8.838316221913402"><ele>317.25</ele><time>2026-03-29T09:15:27Z</time></trkpt><trkpt lat="40.64895994605328" lon="8.838454014167183"><ele>319.0</ele><time>2026-03-29T09:15:28Z</time></trkpt><trkpt lat="40.64894151121367" lon="8.83862168333025"><ele>320.0</ele><time>2026-03-29T09:15:29Z</time></trkpt><trkpt lat="40.64891423742412" lon="8.838793987649163"><ele>321.0</ele><time>2026-03-29T09:15:30Z</time></trkpt><trkpt lat="40.64883999779291" lon="8.838968390124776"><ele>322.0</ele><time>2026-03-29T09:15:31Z</time></trkpt><trkpt lat="40.64878960096699" lon="8.839170938339782"><ele>323.0</ele><time>2026-03-29T09:15:32Z</time></trkpt><trkpt lat="40.64874097340002" lon="8.839384599223862"><ele>321.33333333333337</ele><time>2026-03-29T09:15:33Z</time></trkpt><trkpt lat="40.64865812828472" lon="8.839601105178566"><ele>319.6666666666667</ele><time>2026-03-29T09:15:34Z</time></trkpt><trkpt lat="40.64859484214405" lon="8.83979644895097"><ele>318.0</ele><time>2026-03-29T09:15:35Z</time></trkpt><trkpt lat="40.64853201295318" lon="8.839987247347466"><ele>318.0</ele><time>2026-03-29T09:15:36Z</time></trkpt><trkpt lat="40.64847181388614" lon="8.840122636971003"><ele>318.0</ele><time>2026-03-29T09:15:37Z</time></trkpt><trkpt lat="40.64839960739496" lon="8.84026472052049"><ele>318.0</ele><time>2026-03-29T09:15:38Z</time></trkpt><trkpt lat="40.64832333888366" lon="8.84041831031388"><ele>318.0</ele><time>2026-03-29T09:15:39Z</time></trkpt><trkpt lat="40.648224163716" lon="8.840608180356597"><ele>319.3333333333333</ele><time>2026-03-29T09:15:40Z</time></trkpt><trkpt lat="40.648129160223434" lon="8.840801750606785"><ele>320.66666666666663</ele><time>2026-03-29T09:15:41Z</time></trkpt><trkpt lat="40.64802560199882" lon="8.840986819597026"><ele>322.0</ele><time>2026-03-29T09:15:42Z</time></trkpt><trkpt lat="40.6479331151171" lon="8.841161396516515"><ele>323.25</ele><time>2026-03-29T09:15:43Z</time></trkpt><trkpt lat="40.64785384846828" lon="8.841305562921475"><ele>324.5</ele><time>2026-03-29T09:15:44Z</time></trkpt><trkpt lat="40.64777384918505" lon="8.841442482493063"><ele>325.75</ele><time>2026-03-29T09:15:45Z</time></trkpt><trkpt lat="40.64769908179514" lon="8.84157336098522"><ele>327.0</ele><time>2026-03-29T09:15:46Z</time></trkpt><trkpt lat="40.6476467637245" lon="8.841695204744024"><ele>327.0</ele><time>2026-03-29T09:15:47Z</time></trkpt><trkpt lat="40.64757282005846" lon="8.841796048093897"><ele>327.0</ele><time>2026-03-29T09:15:48Z</time></trkpt><trkpt lat="40.64749136473814" lon="8.841860049484225"><ele>327.0</ele><time>2026-03-29T09:15:49Z</time></trkpt><trkpt lat="40.64738950661264" lon="8.841945003009277"><ele>327.0</ele><time>2026-03-29T09:15:50Z</time></trkpt><trkpt lat="40.64726947540705" lon="8.842046663577982"><ele>327.0</ele><time>2026-03-29T09:15:51Z</time></trkpt><trkpt lat="40.6471503057212" lon="8.842148245841486"><ele>327.0</ele><time>2026-03-29T09:15:52Z</time></trkpt><trkpt lat="40.64704082655653" lon="8.8422286630975"><ele>327.0</ele><time>2026-03-29T09:15:53Z</time></trkpt><trkpt lat="40.646935969664156" lon="8.842289807033135"><ele>327.0</ele><time>2026-03-29T09:15:54Z</time></trkpt><trkpt lat="40.646847754511136" lon="8.842330323463289"><ele>325.8333333333333</ele><time>2026-03-29T09:15:55Z</time></trkpt><trkpt lat="40.64675593745072" lon="8.842383014410055"><ele>324.6666666666667</ele><time>2026-03-29T09:15:56Z</time></trkpt><trkpt lat="40.64669077773055" lon="8.84243764298714"><ele>323.5</ele><time>2026-03-29T09:15:57Z</time></trkpt><trkpt lat="40.64663143570362" lon="8.842503151327163"><ele>322.33333333333337</ele><time>2026-03-29T09:15:58Z</time></trkpt><trkpt lat="40.646571370993954" lon="8.84257766553979"><ele>321.1666666666667</ele><time>2026-03-29T09:15:59Z</time></trkpt><trkpt lat="40.64654021910653" lon="8.842692261517431"><ele>320.0</ele><time>2026-03-29T09:16:00Z</time></trkpt><trkpt lat="40.64652545488501" lon="8.842807741033761"><ele>320.0</ele><time>2026-03-29T09:16:01Z</time></trkpt><trkpt lat="40.646491377841485" lon="8.842907875229745"><ele>320.0</ele><time>2026-03-29T09:16:02Z</time></trkpt><trkpt lat="40.64648356115918" lon="8.843018909798381"><ele>320.0</ele><time>2026-03-29T09:16:03Z</time></trkpt><trkpt lat="40.64650666432299" lon="8.843136564689784"><ele>320.0</ele><time>2026-03-29T09:16:04Z</time></trkpt><trkpt lat="40.646505218063865" lon="8.843257028924532"><ele>320.0</ele><time>2026-03-29T09:16:05Z</time></trkpt><trkpt lat="40.64654160221823" lon="8.843392313685234"><ele>319.8</ele><time>2026-03-29T09:16:06Z</time></trkpt><trkpt lat="40.64659570390167" lon="8.843520337106572"><ele>319.6</ele><time>2026-03-29T09:16:07Z</time></trkpt><trkpt lat="40.64665693035012" lon="8.843631032878363"><ele>319.4</ele><time>2026-03-29T09:16:08Z</time></trkpt><trkpt lat="40.646700945361914" lon="8.843732695035179"><ele>319.2</ele><time>2026-03-29T09:16:09Z</time></trkpt><trkpt lat="40.646709628258726" lon="8.843845128720046"><ele>319.0</ele><time>2026-03-29T09:16:10Z</time></trkpt><trkpt lat="40.64672650966852" lon="8.843966893025776"><ele>319.0</ele><time>2026-03-29T09:16:11Z</time></trkpt><trkpt lat="40.64674145243243" lon="8.84409355405347"><ele>319.0</ele><time>2026-03-29T09:16:12Z</time></trkpt><trkpt lat="40.64675478455927" lon="8.844223412119588"><ele>319.0</ele><time>2026-03-29T09:16:13Z</time></trkpt><trkpt lat="40.64676817901649" lon="8.844356549365868"><ele>319.0</ele><time>2026-03-29T09:16:14Z</time></trkpt><trkpt lat="40.646784204048906" lon="8.844486316717816"><ele>319.0</ele><time>2026-03-29T09:16:15Z</time></trkpt><trkpt lat="40.64679757477795" lon="8.844622926348302"><ele>319.0</ele><time>2026-03-29T09:16:16Z</time></trkpt><trkpt lat="40.64679104247397" lon="8.844733836747716"><ele>319.0</ele><time>2026-03-29T09:16:17Z</time></trkpt><trkpt lat="40.64677042740135" lon="8.844821227205488"><ele>319.0</ele><time>2026-03-29T09:16:18Z</time></trkpt><trkpt lat="40.64673845327221" lon="8.844909846031898"><ele>319.0</ele><time>2026-03-29T09:16:19Z</time></trkpt><trkpt lat="40.646692617182644" lon="8.84503209297709"><ele>319.0</ele><time>2026-03-29T09:16:20Z</time></trkpt><trkpt lat="40.64663366544041" lon="8.8451896196543"><ele>318.66666666666663</ele><time>2026-03-29T09:16:21Z</time></trkpt><trkpt lat="40.6465675045984" lon="8.845364767638804"><ele>318.3333333333333</ele><time>2026-03-29T09:16:22Z</time></trkpt><trkpt lat="40.64650041862469" lon="8.845552020245433"><ele>318.0</ele><time>2026-03-29T09:16:23Z</time></trkpt><trkpt lat="40.64643459527197" lon="8.845737539066585"><ele>318.0</ele><time>2026-03-29T09:16:24Z</time></trkpt><trkpt lat="40.64636741281367" lon="8.845924390534552"><ele>318.0</ele><time>2026-03-29T09:16:25Z</time></trkpt><trkpt lat="40.64629483259425" lon="8.84612616818762"><ele>318.0</ele><time>2026-03-29T09:16:26Z</time></trkpt><trkpt lat="40.646224799965815" lon="8.84634957229373"><ele>318.0</ele><time>2026-03-29T09:16:27Z</time></trkpt><trkpt lat="40.64617695382563" lon="8.846553557531466"><ele>318.0</ele><time>2026-03-29T09:16:28Z</time></trkpt><trkpt lat="40.64612295955861" lon="8.846742511515497"><ele>318.0</ele><time>2026-03-29T09:16:29Z</time></trkpt><trkpt lat="40.64606222908341" lon="8.846910402172934"><ele>318.0</ele><time>2026-03-29T09:16:30Z</time></trkpt><trkpt lat="40.64602503696822" lon="8.847049866487769"><ele>318.0</ele><time>2026-03-29T09:16:31Z</time></trkpt><trkpt lat="40.646003027534135" lon="8.847185076293737"><ele>318.0</ele><time>2026-03-29T09:16:32Z</time></trkpt><trkpt lat="40.64596204431508" lon="8.847310032359312"><ele>318.0</ele><time>2026-03-29T09:16:33Z</time></trkpt><trkpt lat="40.64592762593361" lon="8.84745067706495"><ele>318.0</ele><time>2026-03-29T09:16:34Z</time></trkpt><trkpt lat="40.64589785319405" lon="8.847587701666283"><ele>318.4</ele><time>2026-03-29T09:16:35Z</time></trkpt><trkpt lat="40.6458699915565" lon="8.847747981205202"><ele>318.8</ele><time>2026-03-29T09:16:36Z</time></trkpt><trkpt lat="40.64586230238247" lon="8.847899934566628"><ele>319.2</ele><time>2026-03-29T09:16:37Z</time></trkpt><trkpt lat="40.645859291307275" lon="8.848038126186369"><ele>319.6</ele><time>2026-03-29T09:16:38Z</time></trkpt><trkpt lat="40.64585294981036" lon="8.848151551866072"><ele>320.0</ele><time>2026-03-29T09:16:39Z</time></trkpt><trkpt lat="40.64583158096621" lon="8.848335182420401"><ele>320.5</ele><time>2026-03-29T09:16:41Z</time></trkpt><trkpt lat="40.645802628303684" lon="8.848472681786966"><ele>321.0</ele><time>2026-03-29T09:16:42Z</time></trkpt><trkpt lat="40.64575917033689" lon="8.848626739184178"><ele>321.5</ele><time>2026-03-29T09:16:43Z</time></trkpt><trkpt lat="40.645714530619514" lon="8.84878438802612"><ele>322.0</ele><time>2026-03-29T09:16:44Z</time></trkpt><trkpt lat="40.64568445830261" lon="8.848935740139723"><ele>322.0</ele><time>2026-03-29T09:16:45Z</time></trkpt><trkpt lat="40.645678299200945" lon="8.849071138076075"><ele>322.0</ele><time>2026-03-29T09:16:46Z</time></trkpt><trkpt lat="40.64566201978721" lon="8.849187990466802"><ele>322.0</ele><time>2026-03-29T09:16:47Z</time></trkpt><trkpt lat="40.64565486296245" lon="8.84931736674003"><ele>322.0</ele><time>2026-03-29T09:16:48Z</time></trkpt><trkpt lat="40.645659421509365" lon="8.849447451573235"><ele>322.0</ele><time>2026-03-29T09:16:49Z</time></trkpt><trkpt lat="40.64573136736643" lon="8.849580077511563"><ele>321.75</ele><time>2026-03-29T09:16:50Z</time></trkpt><trkpt lat="40.645799399116555" lon="8.849729627428587"><ele>321.5</ele><time>2026-03-29T09:16:51Z</time></trkpt><trkpt lat="40.64585291972877" lon="8.849911193075531"><ele>321.25</ele><time>2026-03-29T09:16:52Z</time></trkpt><trkpt lat="40.64590634146432" lon="8.850107132051518"><ele>321.0</ele><time>2026-03-29T09:16:53Z</time></trkpt><trkpt lat="40.645962593028905" lon="8.850276754884629"><ele>320.40000000000003</ele><time>2026-03-29T09:16:54Z</time></trkpt><trkpt lat="40.64601997334921" lon="8.850412240743083"><ele>319.8</ele><time>2026-03-29T09:16:55Z</time></trkpt><trkpt lat="40.646024352671745" lon="8.850547789558984"><ele>319.20000000000005</ele><time>2026-03-29T09:16:56Z</time></trkpt><trkpt lat="40.6460337696439" lon="8.850676891333604"><ele>318.6</ele><time>2026-03-29T09:16:57Z</time></trkpt><trkpt lat="40.646044106604684" lon="8.850808546127887"><ele>318.0</ele><time>2026-03-29T09:16:58Z</time></trkpt><trkpt lat="40.6460611390598" lon="8.850964544965105"><ele>317.8</ele><time>2026-03-29T09:16:59Z</time></trkpt><trkpt lat="40.646079836413264" lon="8.851124955786519"><ele>317.6</ele><time>2026-03-29T09:17:00Z</time></trkpt><trkpt lat="40.64609884316961" lon="8.851273527384262"><ele>317.4</ele><time>2026-03-29T09:17:01Z</time></trkpt><trkpt lat="40.64611214846119" lon="8.851411116876902"><ele>317.2</ele><time>2026-03-29T09:17:02Z</time></trkpt><trkpt lat="40.64611695646242" lon="8.851546180214699"><ele>317.0</ele><time>2026-03-29T09:17:03Z</time></trkpt><trkpt lat="40.646109138439655" lon="8.85169895105734"><ele>317.25</ele><time>2026-03-29T09:17:04Z</time></trkpt><trkpt lat="40.64609380536383" lon="8.851859180808118"><ele>317.5</ele><time>2026-03-29T09:17:05Z</time></trkpt><trkpt lat="40.646071222099074" lon="8.8520499610707"><ele>317.75</ele><time>2026-03-29T09:17:06Z</time></trkpt><trkpt lat="40.64606471001575" lon="8.852227437087528"><ele>318.0</ele><time>2026-03-29T09:17:07Z</time></trkpt><trkpt lat="40.646031929681904" lon="8.852386311397103"><ele>318.0</ele><time>2026-03-29T09:17:08Z</time></trkpt><trkpt lat="40.64601261387154" lon="8.852519418002586"><ele>318.0</ele><time>2026-03-29T09:17:09Z</time></trkpt><trkpt lat="40.64602549965576" lon="8.852631833772818"><ele>318.0</ele><time>2026-03-29T09:17:10Z</time></trkpt><trkpt lat="40.64606630093504" lon="8.852717403571498"><ele>318.0</ele><time>2026-03-29T09:17:11Z</time></trkpt><trkpt lat="40.64612478456677" lon="8.852789684791905"><ele>318.0</ele><time>2026-03-29T09:17:12Z</time></trkpt><trkpt lat="40.64619325350361" lon="8.852870020710146"><ele>318.0</ele><time>2026-03-29T09:17:13Z</time></trkpt><trkpt lat="40.64626080140831" lon="8.852975039305804"><ele>318.0</ele><time>2026-03-29T09:17:14Z</time></trkpt><trkpt lat="40.646326822988264" lon="8.853075459559616"><ele>318.0</ele><time>2026-03-29T09:17:15Z</time></trkpt><trkpt lat="40.646388059042934" lon="8.85318822994968"><ele>318.0</ele><time>2026-03-29T09:17:16Z</time></trkpt><trkpt lat="40.6464658575695" lon="8.853276229207113"><ele>318.0</ele><time>2026-03-29T09:17:17Z</time></trkpt><trkpt lat="40.646556111919026" lon="8.85336870979992"><ele>318.0</ele><time>2026-03-29T09:17:18Z</time></trkpt><trkpt lat="40.64662763802041" lon="8.853479386170886"><ele>318.25</ele><time>2026-03-29T09:17:19Z</time></trkpt><trkpt lat="40.646726334564384" lon="8.853569066462658"><ele>318.5</ele><time>2026-03-29T09:17:20Z</time></trkpt><trkpt lat="40.64680779894727" lon="8.85368972222176"><ele>318.75</ele><time>2026-03-29T09:17:21Z</time></trkpt><trkpt lat="40.64690662862255" lon="8.853787995651592"><ele>319.0</ele><time>2026-03-29T09:17:22Z</time></trkpt><trkpt lat="40.647007241413746" lon="8.853868324774027"><ele>317.75</ele><time>2026-03-29T09:17:23Z</time></trkpt><trkpt lat="40.64709181923129" lon="8.85394311812315"><ele>316.5</ele><time>2026-03-29T09:17:24Z</time></trkpt><trkpt lat="40.64718898678924" lon="8.854020194662356"><ele>315.25</ele><time>2026-03-29T09:17:25Z</time></trkpt><trkpt lat="40.647288537410226" lon="8.854102080495394"><ele>314.0</ele><time>2026-03-29T09:17:26Z</time></trkpt><trkpt lat="40.64740377886287" lon="8.854185624924593"><ele>314.0</ele><time>2026-03-29T09:17:27Z</time></trkpt><trkpt lat="40.647527550041744" lon="8.854284950640338"><ele>314.0</ele><time>2026-03-29T09:17:28Z</time></trkpt><trkpt lat="40.64763941477439" lon="8.854370860675187"><ele>314.0</ele><time>2026-03-29T09:17:29Z</time></trkpt><trkpt lat="40.64774337839774" lon="8.854459632152576"><ele>314.0</ele><time>2026-03-29T09:17:30Z</time></trkpt><trkpt lat="40.64784862718812" lon="8.854542100544675"><ele>313.59999999999997</ele><time>2026-03-29T09:17:31Z</time></trkpt><trkpt lat="40.64793906652029" lon="8.854631106076205"><ele>313.2</ele><time>2026-03-29T09:17:32Z</time></trkpt><trkpt lat="40.64802314500974" lon="8.854704346730871"><ele>312.79999999999995</ele><time>2026-03-29T09:17:33Z</time></trkpt><trkpt lat="40.64811759999609" lon="8.85479656251612"><ele>312.4</ele><time>2026-03-29T09:17:34Z</time></trkpt><trkpt lat="40.64820843462903" lon="8.854884010642273"><ele>312.0</ele><time>2026-03-29T09:17:35Z</time></trkpt><trkpt lat="40.64830610607076" lon="8.85500584142178"><ele>312.0</ele><time>2026-03-29T09:17:36Z</time></trkpt><trkpt lat="40.648430747367556" lon="8.855104730981914"><ele>312.0</ele><time>2026-03-29T09:17:37Z</time></trkpt><trkpt lat="40.64855922676172" lon="8.855210191823222"><ele>312.0</ele><time>2026-03-29T09:17:38Z</time></trkpt><trkpt lat="40.648693149657845" lon="8.855297842022406"><ele>312.0</ele><time>2026-03-29T09:17:39Z</time></trkpt><trkpt lat="40.64881767438118" lon="8.855379073738497"><ele>313.0</ele><time>2026-03-29T09:17:40Z</time></trkpt><trkpt lat="40.64891823285255" lon="8.855485343917703"><ele>314.0</ele><time>2026-03-29T09:17:41Z</time></trkpt><trkpt lat="40.649049572077814" lon="8.855555544063012"><ele>315.0</ele><time>2026-03-29T09:17:42Z</time></trkpt><trkpt lat="40.64917812360352" lon="8.855628529912089"><ele>316.0</ele><time>2026-03-29T09:17:43Z</time></trkpt><trkpt lat="40.64929965228062" lon="8.855721059900723"><ele>316.0</ele><time>2026-03-29T09:17:44Z</time></trkpt><trkpt lat="40.64942268150586" lon="8.855829464129283"><ele>316.0</ele><time>2026-03-29T09:17:45Z</time></trkpt><trkpt lat="40.649516991051875" lon="8.855904822231603"><ele>316.0</ele><time>2026-03-29T09:17:46Z</time></trkpt><trkpt lat="40.649591644642264" lon="8.855960446513697"><ele>316.0</ele><time>2026-03-29T09:17:47Z</time></trkpt><trkpt lat="40.649658296370774" lon="8.85603235726139"><ele>316.0</ele><time>2026-03-29T09:17:48Z</time></trkpt><trkpt lat="40.64971399604474" lon="8.856118600125127"><ele>317.25</ele><time>2026-03-29T09:17:49Z</time></trkpt><trkpt lat="40.649802635109054" lon="8.856224721975726"><ele>318.5</ele><time>2026-03-29T09:17:50Z</time></trkpt><trkpt lat="40.64990374081031" lon="8.856308552559325"><ele>319.75</ele><time>2026-03-29T09:17:51Z</time></trkpt><trkpt lat="40.65001209589677" lon="8.85644806367513"><ele>321.0</ele><time>2026-03-29T09:17:52Z</time></trkpt><trkpt lat="40.65012113562103" lon="8.856556060863767"><ele>321.0</ele><time>2026-03-29T09:17:53Z</time></trkpt><trkpt lat="40.65021463323035" lon="8.856656064665161"><ele>321.0</ele><time>2026-03-29T09:17:54Z</time></trkpt><trkpt lat="40.650320166878345" lon="8.856771949855256"><ele>321.0</ele><time>2026-03-29T09:17:55Z</time></trkpt><trkpt lat="40.65041843209562" lon="8.856869196338714"><ele>321.0</ele><time>2026-03-29T09:17:56Z</time></trkpt><trkpt lat="40.650505712702994" lon="8.856962614890834"><ele>318.75</ele><time>2026-03-29T09:17:57Z</time></trkpt><trkpt lat="40.650604522905674" lon="8.85704301231412"><ele>316.5</ele><time>2026-03-29T09:17:58Z</time></trkpt><trkpt lat="40.65070518865544" lon="8.857110531031251"><ele>314.25</ele><time>2026-03-29T09:17:59Z</time></trkpt><trkpt lat="40.65081242322521" lon="8.857147839936406"><ele>312.0</ele><time>2026-03-29T09:18:00Z</time></trkpt><trkpt lat="40.65092043077286" lon="8.857192949517714"><ele>312.0</ele><time>2026-03-29T09:18:01Z</time></trkpt><trkpt lat="40.65101584689286" lon="8.85725341147891"><ele>312.0</ele><time>2026-03-29T09:18:02Z</time></trkpt><trkpt lat="40.651117324303" lon="8.857325277888947"><ele>312.0</ele><time>2026-03-29T09:18:03Z</time></trkpt><trkpt lat="40.65121855151152" lon="8.857399016750353"><ele>312.0</ele><time>2026-03-29T09:18:04Z</time></trkpt><trkpt lat="40.65129897970403" lon="8.857491373208546"><ele>312.0</ele><time>2026-03-29T09:18:05Z</time></trkpt><trkpt lat="40.65139408669068" lon="8.857553650746834"><ele>311.0</ele><time>2026-03-29T09:18:06Z</time></trkpt><trkpt lat="40.6514697411525" lon="8.857642113007683"><ele>310.0</ele><time>2026-03-29T09:18:07Z</time></trkpt><trkpt lat="40.65154894983697" lon="8.857725251120849"><ele>309.0</ele><time>2026-03-29T09:18:08Z</time></trkpt><trkpt lat="40.65164070049956" lon="8.857830403384876"><ele>308.0</ele><time>2026-03-29T09:18:09Z</time></trkpt><trkpt lat="40.65172565578193" lon="8.857924861800218"><ele>307.0</ele><time>2026-03-29T09:18:10Z</time></trkpt><trkpt lat="40.65181606512161" lon="8.858013400916454"><ele>307.0</ele><time>2026-03-29T09:18:11Z</time></trkpt><trkpt lat="40.6518980230305" lon="8.858093736544296"><ele>307.0</ele><time>2026-03-29T09:18:12Z</time></trkpt><trkpt lat="40.651980918378925" lon="8.858169843512023"><ele>307.0</ele><time>2026-03-29T09:18:13Z</time></trkpt><trkpt lat="40.65206754115954" lon="8.858219320988212"><ele>307.0</ele><time>2026-03-29T09:18:14Z</time></trkpt><trkpt lat="40.65214666210264" lon="8.858267870179176"><ele>307.0</ele><time>2026-03-29T09:18:15Z</time></trkpt><trkpt lat="40.65222127260411" lon="8.858317453730931"><ele>306.5</ele><time>2026-03-29T09:18:16Z</time></trkpt><trkpt lat="40.65234908720733" lon="8.858432025473908"><ele>306.0</ele><time>2026-03-29T09:18:18Z</time></trkpt><trkpt lat="40.65245991967071" lon="8.858454758605859"><ele>305.5</ele><time>2026-03-29T09:18:19Z</time></trkpt><trkpt lat="40.65257063993702" lon="8.858496936472752"><ele>305.0</ele><time>2026-03-29T09:18:20Z</time></trkpt><trkpt lat="40.65267326166513" lon="8.85850958915301"><ele>305.0</ele><time>2026-03-29T09:18:21Z</time></trkpt><trkpt lat="40.652773301712045" lon="8.858536534598974"><ele>305.0</ele><time>2026-03-29T09:18:22Z</time></trkpt><trkpt lat="40.652841371434114" lon="8.858567519771624"><ele>305.0</ele><time>2026-03-29T09:18:23Z</time></trkpt><trkpt lat="40.65289939473941" lon="8.858602651109969"><ele>305.0</ele><time>2026-03-29T09:18:24Z</time></trkpt><trkpt lat="40.65297945585697" lon="8.858665822214142"><ele>305.0</ele><time>2026-03-29T09:18:25Z</time></trkpt><trkpt lat="40.65305881326892" lon="8.858738261096944"><ele>305.0</ele><time>2026-03-29T09:18:26Z</time></trkpt><trkpt lat="40.65313383443277" lon="8.858806141921841"><ele>305.0</ele><time>2026-03-29T09:18:27Z</time></trkpt><trkpt lat="40.65318700325841" lon="8.858884650854574"><ele>305.0</ele><time>2026-03-29T09:18:28Z</time></trkpt><trkpt lat="40.65323242287408" lon="8.858964845539326"><ele>305.0</ele><time>2026-03-29T09:18:29Z</time></trkpt><trkpt lat="40.65325278138418" lon="8.859054847835178"><ele>305.0</ele><time>2026-03-29T09:18:30Z</time></trkpt><trkpt lat="40.653276894472285" lon="8.859172564014633"><ele>305.0</ele><time>2026-03-29T09:18:31Z</time></trkpt><trkpt lat="40.65330191996312" lon="8.85931140227591"><ele>305.0</ele><time>2026-03-29T09:18:32Z</time></trkpt><trkpt lat="40.65332507537301" lon="8.859446218817602"><ele>303.8</ele><time>2026-03-29T09:18:33Z</time></trkpt><trkpt lat="40.65335590944182" lon="8.85957481707985"><ele>302.6</ele><time>2026-03-29T09:18:34Z</time></trkpt><trkpt lat="40.653387331019935" lon="8.859705867503544"><ele>301.4</ele><time>2026-03-29T09:18:35Z</time></trkpt><trkpt lat="40.653414862218476" lon="8.85983211796554"><ele>300.2</ele><time>2026-03-29T09:18:36Z</time></trkpt><trkpt lat="40.6534403023483" lon="8.85996659941324"><ele>299.0</ele><time>2026-03-29T09:18:37Z</time></trkpt><trkpt lat="40.653462877954084" lon="8.860104497082757"><ele>298.5</ele><time>2026-03-29T09:18:38Z</time></trkpt><trkpt lat="40.65348191026723" lon="8.86024487862746"><ele>298.0</ele><time>2026-03-29T09:18:39Z</time></trkpt><trkpt lat="40.65349361476361" lon="8.860389710094049"><ele>297.5</ele><time>2026-03-29T09:18:40Z</time></trkpt><trkpt lat="40.65349357407065" lon="8.860539305698705"><ele>297.0</ele><time>2026-03-29T09:18:41Z</time></trkpt><trkpt lat="40.65348466040415" lon="8.860702800815043"><ele>297.0</ele><time>2026-03-29T09:18:42Z</time></trkpt><trkpt lat="40.6534665697274" lon="8.860868566218125"><ele>297.0</ele><time>2026-03-29T09:18:43Z</time></trkpt><trkpt lat="40.653445935290286" lon="8.861026494275517"><ele>297.0</ele><time>2026-03-29T09:18:44Z</time></trkpt><trkpt lat="40.653423025004535" lon="8.86117978190731"><ele>297.0</ele><time>2026-03-29T09:18:45Z</time></trkpt><trkpt lat="40.6533994910663" lon="8.861334135286462"><ele>296.75</ele><time>2026-03-29T09:18:46Z</time></trkpt><trkpt lat="40.65337435989314" lon="8.861492601141128"><ele>296.5</ele><time>2026-03-29T09:18:47Z</time></trkpt><trkpt lat="40.65334967030992" lon="8.861659790515795"><ele>296.25</ele><time>2026-03-29T09:18:48Z</time></trkpt><trkpt lat="40.65334563962649" lon="8.861840617511563"><ele>296.0</ele><time>2026-03-29T09:18:49Z</time></trkpt><trkpt lat="40.65332819811911" lon="8.862025306927727"><ele>295.75</ele><time>2026-03-29T09:18:50Z</time></trkpt><trkpt lat="40.653314938613484" lon="8.862213385680176"><ele>295.5</ele><time>2026-03-29T09:18:51Z</time></trkpt><trkpt lat="40.65329703281902" lon="8.862406590183799"><ele>295.25</ele><time>2026-03-29T09:18:52Z</time></trkpt><trkpt lat="40.65327600384056" lon="8.862599303981433"><ele>295.0</ele><time>2026-03-29T09:18:53Z</time></trkpt><trkpt lat="40.65324925605877" lon="8.862788164027917"><ele>294.75</ele><time>2026-03-29T09:18:54Z</time></trkpt><trkpt lat="40.65322512959539" lon="8.862970110117782"><ele>294.5</ele><time>2026-03-29T09:18:55Z</time></trkpt><trkpt lat="40.65320231466957" lon="8.863146373697989"><ele>294.25</ele><time>2026-03-29T09:18:56Z</time></trkpt><trkpt lat="40.65317669372497" lon="8.863321803858312"><ele>294.0</ele><time>2026-03-29T09:18:57Z</time></trkpt><trkpt lat="40.65314772315031" lon="8.863493220427108"><ele>293.5</ele><time>2026-03-29T09:18:58Z</time></trkpt><trkpt lat="40.65311792119118" lon="8.863652296693981"><ele>293.0</ele><time>2026-03-29T09:18:59Z</time></trkpt><trkpt lat="40.653086566900896" lon="8.863798166166097"><ele>292.5</ele><time>2026-03-29T09:19:00Z</time></trkpt><trkpt lat="40.65305211669344" lon="8.863938202586823"><ele>292.0</ele><time>2026-03-29T09:19:01Z</time></trkpt><trkpt lat="40.653032167385675" lon="8.864082572173379"><ele>292.0</ele><time>2026-03-29T09:19:02Z</time></trkpt><trkpt lat="40.65302092228198" lon="8.864236346925306"><ele>292.0</ele><time>2026-03-29T09:19:03Z</time></trkpt><trkpt lat="40.65302083110958" lon="8.864401793513249"><ele>292.0</ele><time>2026-03-29T09:19:04Z</time></trkpt><trkpt lat="40.65302901797129" lon="8.864578820930602"><ele>292.0</ele><time>2026-03-29T09:19:05Z</time></trkpt><trkpt lat="40.65304706870241" lon="8.86476839005051"><ele>292.0</ele><time>2026-03-29T09:19:06Z</time></trkpt><trkpt lat="40.653055503536805" lon="8.864964123510578"><ele>292.0</ele><time>2026-03-29T09:19:07Z</time></trkpt><trkpt lat="40.653072930594426" lon="8.865159981972825"><ele>292.0</ele><time>2026-03-29T09:19:08Z</time></trkpt><trkpt lat="40.65308785471168" lon="8.86534338746992"><ele>292.0</ele><time>2026-03-29T09:19:09Z</time></trkpt><trkpt lat="40.65309982459805" lon="8.865517279990653"><ele>292.5</ele><time>2026-03-29T09:19:10Z</time></trkpt><trkpt lat="40.653114429750566" lon="8.865686583650882"><ele>293.0</ele><time>2026-03-29T09:19:11Z</time></trkpt><trkpt lat="40.65311806136178" lon="8.86585648273634"><ele>293.5</ele><time>2026-03-29T09:19:12Z</time></trkpt><trkpt lat="40.65309719418273" lon="8.866027490511893"><ele>294.0</ele><time>2026-03-29T09:19:13Z</time></trkpt><trkpt lat="40.65307384607479" lon="8.866202854726785"><ele>294.0</ele><time>2026-03-29T09:19:14Z</time></trkpt><trkpt lat="40.65305077032255" lon="8.866384681961277"><ele>294.0</ele><time>2026-03-29T09:19:15Z</time></trkpt><trkpt lat="40.65306502131118" lon="8.866572852343404"><ele>294.0</ele><time>2026-03-29T09:19:16Z</time></trkpt><trkpt lat="40.653054872380515" lon="8.866766388413218"><ele>294.0</ele><time>2026-03-29T09:19:17Z</time></trkpt><trkpt lat="40.653076314337" lon="8.866956920035523"><ele>294.0</ele><time>2026-03-29T09:19:18Z</time></trkpt><trkpt lat="40.653083235803884" lon="8.867143889449824"><ele>294.0</ele><time>2026-03-29T09:19:19Z</time></trkpt><trkpt lat="40.65310021855391" lon="8.8673247910831"><ele>294.0</ele><time>2026-03-29T09:19:20Z</time></trkpt><trkpt lat="40.65311675472713" lon="8.867501891883647"><ele>294.0</ele><time>2026-03-29T09:19:21Z</time></trkpt><trkpt lat="40.653131012653304" lon="8.867674729324984"><ele>293.8</ele><time>2026-03-29T09:19:22Z</time></trkpt><trkpt lat="40.65314095920423" lon="8.867838818442674"><ele>293.59999999999997</ele><time>2026-03-29T09:19:23Z</time></trkpt><trkpt lat="40.65312261692057" lon="8.867998883932989"><ele>293.4</ele><time>2026-03-29T09:19:24Z</time></trkpt><trkpt lat="40.65313790710657" lon="8.868136138099596"><ele>293.2</ele><time>2026-03-29T09:19:25Z</time></trkpt><trkpt lat="40.653163434974815" lon="8.868258720510653"><ele>293.0</ele><time>2026-03-29T09:19:26Z</time></trkpt><trkpt lat="40.65316119123787" lon="8.868383767361822"><ele>293.33333333333337</ele><time>2026-03-29T09:19:27Z</time></trkpt><trkpt lat="40.653159053146766" lon="8.86850100714597"><ele>293.6666666666667</ele><time>2026-03-29T09:19:28Z</time></trkpt><trkpt lat="40.653152127055364" lon="8.86860723833849"><ele>294.0</ele><time>2026-03-29T09:19:29Z</time></trkpt><trkpt lat="40.65313777516552" lon="8.868703892591133"><ele>294.3333333333333</ele><time>2026-03-29T09:19:30Z</time></trkpt><trkpt lat="40.653120149313196" lon="8.868817057077106"><ele>294.66666666666663</ele><time>2026-03-29T09:19:31Z</time></trkpt><trkpt lat="40.65309399843942" lon="8.868945602583157"><ele>295.0</ele><time>2026-03-29T09:19:32Z</time></trkpt><trkpt lat="40.65306127342892" lon="8.86908075805961"><ele>295.0</ele><time>2026-03-29T09:19:33Z</time></trkpt><trkpt lat="40.653045253966035" lon="8.869226191876024"><ele>295.0</ele><time>2026-03-29T09:19:34Z</time></trkpt><trkpt lat="40.65300420867116" lon="8.869370628137276"><ele>295.0</ele><time>2026-03-29T09:19:35Z</time></trkpt><trkpt lat="40.65297707457906" lon="8.869531235711905"><ele>295.0</ele><time>2026-03-29T09:19:36Z</time></trkpt><trkpt lat="40.65293661153826" lon="8.869692073831676"><ele>295.25</ele><time>2026-03-29T09:19:37Z</time></trkpt><trkpt lat="40.652908796110744" lon="8.869872990295933"><ele>295.5</ele><time>2026-03-29T09:19:38Z</time></trkpt><trkpt lat="40.65288850065565" lon="8.870068398689073"><ele>295.75</ele><time>2026-03-29T09:19:39Z</time></trkpt><trkpt lat="40.65287953942996" lon="8.870265055358782"><ele>296.0</ele><time>2026-03-29T09:19:40Z</time></trkpt><trkpt lat="40.65287631993355" lon="8.870450819105029"><ele>296.5</ele><time>2026-03-29T09:19:41Z</time></trkpt><trkpt lat="40.65283219241292" lon="8.870624378047804"><ele>297.0</ele><time>2026-03-29T09:19:42Z</time></trkpt><trkpt lat="40.65277719356948" lon="8.870802276545797"><ele>297.5</ele><time>2026-03-29T09:19:43Z</time></trkpt><trkpt lat="40.65272455014504" lon="8.870985793004607"><ele>298.0</ele><time>2026-03-29T09:19:44Z</time></trkpt><trkpt lat="40.652676469762156" lon="8.871158867192365"><ele>298.5</ele><time>2026-03-29T09:19:45Z</time></trkpt><trkpt lat="40.65263523528266" lon="8.871318450076906"><ele>299.0</ele><time>2026-03-29T09:19:46Z</time></trkpt><trkpt lat="40.65261101229572" lon="8.871480052015148"><ele>299.5</ele><time>2026-03-29T09:19:47Z</time></trkpt><trkpt lat="40.65254182720662" lon="8.87160228203696"><ele>300.0</ele><time>2026-03-29T09:19:48Z</time></trkpt><trkpt lat="40.65246790860784" lon="8.87171486811707"><ele>300.25</ele><time>2026-03-29T09:19:49Z</time></trkpt><trkpt lat="40.65238029732914" lon="8.87184603602552"><ele>300.5</ele><time>2026-03-29T09:19:50Z</time></trkpt><trkpt lat="40.65229737517215" lon="8.872001530150712"><ele>300.75</ele><time>2026-03-29T09:19:51Z</time></trkpt><trkpt lat="40.652229752799634" lon="8.872180141290777"><ele>301.0</ele><time>2026-03-29T09:19:52Z</time></trkpt><trkpt lat="40.65216271884128" lon="8.872352956091369"><ele>301.0</ele><time>2026-03-29T09:19:53Z</time></trkpt><trkpt lat="40.652088776380516" lon="8.87251674589298"><ele>301.0</ele><time>2026-03-29T09:19:54Z</time></trkpt><trkpt lat="40.65201048242452" lon="8.872681230657955"><ele>301.0</ele><time>2026-03-29T09:19:55Z</time></trkpt><trkpt lat="40.65194218022293" lon="8.872844295146432"><ele>301.0</ele><time>2026-03-29T09:19:56Z</time></trkpt><trkpt lat="40.651856460153056" lon="8.873000139794962"><ele>299.3333333333333</ele><time>2026-03-29T09:19:57Z</time></trkpt><trkpt lat="40.65175504210672" lon="8.873165315066846"><ele>297.6666666666667</ele><time>2026-03-29T09:19:58Z</time></trkpt><trkpt lat="40.65166248054683" lon="8.873335299726063"><ele>296.0</ele><time>2026-03-29T09:19:59Z</time></trkpt><trkpt lat="40.651589081812354" lon="8.873518825548118"><ele>296.0</ele><time>2026-03-29T09:20:00Z</time></trkpt><trkpt lat="40.65149911758016" lon="8.873678953775451"><ele>296.0</ele><time>2026-03-29T09:20:01Z</time></trkpt><trkpt lat="40.651408637993505" lon="8.873824090118767"><ele>296.0</ele><time>2026-03-29T09:20:02Z</time></trkpt><trkpt lat="40.651319549503484" lon="8.87394065139534"><ele>296.0</ele><time>2026-03-29T09:20:03Z</time></trkpt><trkpt lat="40.65123855617823" lon="8.874057822245327"><ele>296.0</ele><time>2026-03-29T09:20:04Z</time></trkpt><trkpt lat="40.65115006839887" lon="8.874160196840986"><ele>296.0</ele><time>2026-03-29T09:20:05Z</time></trkpt><trkpt lat="40.65105063816878" lon="8.874270936995567"><ele>296.0</ele><time>2026-03-29T09:20:06Z</time></trkpt><trkpt lat="40.65093766190231" lon="8.874379458813534"><ele>296.0</ele><time>2026-03-29T09:20:07Z</time></trkpt><trkpt lat="40.6508220844144" lon="8.874487147347784"><ele>294.5</ele><time>2026-03-29T09:20:08Z</time></trkpt><trkpt lat="40.65070638370927" lon="8.87457803652156"><ele>293.0</ele><time>2026-03-29T09:20:09Z</time></trkpt><trkpt lat="40.65060603036376" lon="8.87469694291573"><ele>291.5</ele><time>2026-03-29T09:20:10Z</time></trkpt><trkpt lat="40.65052842476325" lon="8.874821991990972"><ele>290.0</ele><time>2026-03-29T09:20:11Z</time></trkpt><trkpt lat="40.65044923673009" lon="8.874961899407149"><ele>290.75</ele><time>2026-03-29T09:20:12Z</time></trkpt><trkpt lat="40.65036802101514" lon="8.875110581031608"><ele>291.5</ele><time>2026-03-29T09:20:13Z</time></trkpt><trkpt lat="40.650281349949736" lon="8.875222093667798"><ele>292.25</ele><time>2026-03-29T09:20:14Z</time></trkpt><trkpt lat="40.65019897293275" lon="8.87529205738453"><ele>293.0</ele><time>2026-03-29T09:20:15Z</time></trkpt><trkpt lat="40.65012773736297" lon="8.875384474432693"><ele>292.0</ele><time>2026-03-29T09:20:16Z</time></trkpt><trkpt lat="40.65006288422669" lon="8.875497971930534"><ele>291.0</ele><time>2026-03-29T09:20:17Z</time></trkpt><trkpt lat="40.65002207544379" lon="8.875682070054754"><ele>290.0</ele><time>2026-03-29T09:20:18Z</time></trkpt><trkpt lat="40.64997092247918" lon="8.875827570240503"><ele>289.0</ele><time>2026-03-29T09:20:19Z</time></trkpt><trkpt lat="40.64990364226446" lon="8.876004719901193"><ele>289.0</ele><time>2026-03-29T09:20:20Z</time></trkpt><trkpt lat="40.64983996130081" lon="8.876177769314827"><ele>289.0</ele><time>2026-03-29T09:20:21Z</time></trkpt><trkpt lat="40.64979189896576" lon="8.876356305565803"><ele>289.0</ele><time>2026-03-29T09:20:22Z</time></trkpt><trkpt lat="40.64976625779889" lon="8.876499361105846"><ele>289.0</ele><time>2026-03-29T09:20:23Z</time></trkpt><trkpt lat="40.64972437500524" lon="8.876654498723735"><ele>290.25</ele><time>2026-03-29T09:20:24Z</time></trkpt><trkpt lat="40.64965381402942" lon="8.876785510219596"><ele>291.5</ele><time>2026-03-29T09:20:25Z</time></trkpt><trkpt lat="40.64957622590975" lon="8.876903845337562"><ele>292.75</ele><time>2026-03-29T09:20:26Z</time></trkpt><trkpt lat="40.64951352055686" lon="8.87702512437891"><ele>294.0</ele><time>2026-03-29T09:20:27Z</time></trkpt><trkpt lat="40.649444456351404" lon="8.877154615344823"><ele>291.5</ele><time>2026-03-29T09:20:28Z</time></trkpt><trkpt lat="40.64936642337518" lon="8.877289008880053"><ele>289.0</ele><time>2026-03-29T09:20:29Z</time></trkpt><trkpt lat="40.649289990255845" lon="8.877405044346208"><ele>286.5</ele><time>2026-03-29T09:20:30Z</time></trkpt><trkpt lat="40.649194711239" lon="8.877530586861875"><ele>284.0</ele><time>2026-03-29T09:20:31Z</time></trkpt><trkpt lat="40.649103163073526" lon="8.877647146304701"><ele>284.0</ele><time>2026-03-29T09:20:32Z</time></trkpt><trkpt lat="40.64902049483241" lon="8.877745470185795"><ele>284.0</ele><time>2026-03-29T09:20:33Z</time></trkpt><trkpt lat="40.64893194294019" lon="8.877903217057131"><ele>284.0</ele><time>2026-03-29T09:20:34Z</time></trkpt><trkpt lat="40.64883833401448" lon="8.877997226406915"><ele>284.0</ele><time>2026-03-29T09:20:35Z</time></trkpt><trkpt lat="40.6487386838855" lon="8.878088449495051"><ele>284.0</ele><time>2026-03-29T09:20:36Z</time></trkpt><trkpt lat="40.648635697750706" lon="8.878208377909917"><ele>284.0</ele><time>2026-03-29T09:20:37Z</time></trkpt><trkpt lat="40.64856351285246" lon="8.878335266539995"><ele>284.0</ele><time>2026-03-29T09:20:38Z</time></trkpt><trkpt lat="40.648480782431776" lon="8.87847120520566"><ele>284.0</ele><time>2026-03-29T09:20:39Z</time></trkpt><trkpt lat="40.648399403468545" lon="8.878618893427427"><ele>281.75</ele><time>2026-03-29T09:20:40Z</time></trkpt><trkpt lat="40.64830220845175" lon="8.878750602072053"><ele>279.5</ele><time>2026-03-29T09:20:41Z</time></trkpt><trkpt lat="40.64822670678851" lon="8.878913230344903"><ele>277.25</ele><time>2026-03-29T09:20:42Z</time></trkpt><trkpt lat="40.64818294533604" lon="8.87906984173197"><ele>275.0</ele><time>2026-03-29T09:20:43Z</time></trkpt><trkpt lat="40.648146451299944" lon="8.879251361077715"><ele>275.6666666666667</ele><time>2026-03-29T09:20:44Z</time></trkpt><trkpt lat="40.6480888144796" lon="8.879424565647689"><ele>276.3333333333333</ele><time>2026-03-29T09:20:45Z</time></trkpt><trkpt lat="40.64802417982233" lon="8.879610075244567"><ele>277.0</ele><time>2026-03-29T09:20:46Z</time></trkpt><trkpt lat="40.64794804768074" lon="8.879794252300503"><ele>277.0</ele><time>2026-03-29T09:20:47Z</time></trkpt><trkpt lat="40.64786955297525" lon="8.879930937478257"><ele>277.0</ele><time>2026-03-29T09:20:48Z</time></trkpt><trkpt lat="40.6478113946205" lon="8.880111139656098"><ele>277.0</ele><time>2026-03-29T09:20:49Z</time></trkpt><trkpt lat="40.64773875541142" lon="8.880274745640275"><ele>277.0</ele><time>2026-03-29T09:20:50Z</time></trkpt><trkpt lat="40.647680393828296" lon="8.880417765631044"><ele>275.25</ele><time>2026-03-29T09:20:51Z</time></trkpt><trkpt lat="40.64762535442985" lon="8.880562377253307"><ele>273.5</ele><time>2026-03-29T09:20:52Z</time></trkpt><trkpt lat="40.647563243076114" lon="8.88070587332849"><ele>271.75</ele><time>2026-03-29T09:20:53Z</time></trkpt><trkpt lat="40.64749432982497" lon="8.880831121023904"><ele>270.0</ele><time>2026-03-29T09:20:54Z</time></trkpt><trkpt lat="40.647427101645846" lon="8.880974427427372"><ele>270.0</ele><time>2026-03-29T09:20:55Z</time></trkpt><trkpt lat="40.647391828930566" lon="8.881093078252295"><ele>270.0</ele><time>2026-03-29T09:20:56Z</time></trkpt><trkpt lat="40.64733880075051" lon="8.88120902687885"><ele>270.0</ele><time>2026-03-29T09:20:57Z</time></trkpt><trkpt lat="40.64728329527513" lon="8.881322637387067"><ele>270.0</ele><time>2026-03-29T09:20:58Z</time></trkpt><trkpt lat="40.6472431902059" lon="8.88142931012848"><ele>270.0</ele><time>2026-03-29T09:20:59Z</time></trkpt><trkpt lat="40.647182791073696" lon="8.881561052072929"><ele>270.0</ele><time>2026-03-29T09:21:00Z</time></trkpt><trkpt lat="40.647134493386524" lon="8.881664697545201"><ele>270.0</ele><time>2026-03-29T09:21:01Z</time></trkpt><trkpt lat="40.647098673514925" lon="8.88177577338389"><ele>270.0</ele><time>2026-03-29T09:21:02Z</time></trkpt><trkpt lat="40.6470320714637" lon="8.881916732679704"><ele>270.0</ele><time>2026-03-29T09:21:03Z</time></trkpt><trkpt lat="40.6469736207902" lon="8.882055645831928"><ele>270.0</ele><time>2026-03-29T09:21:04Z</time></trkpt><trkpt lat="40.64692233064959" lon="8.882188286795573"><ele>269.2</ele><time>2026-03-29T09:21:05Z</time></trkpt><trkpt lat="40.64686954936187" lon="8.882312293905809"><ele>268.4</ele><time>2026-03-29T09:21:06Z</time></trkpt><trkpt lat="40.64680917845352" lon="8.882437068243858"><ele>267.6</ele><time>2026-03-29T09:21:07Z</time></trkpt><trkpt lat="40.646744976292844" lon="8.882557806616731"><ele>266.8</ele><time>2026-03-29T09:21:08Z</time></trkpt><trkpt lat="40.64668924534523" lon="8.882668300018024"><ele>266.0</ele><time>2026-03-29T09:21:09Z</time></trkpt><trkpt lat="40.64664541335752" lon="8.8827921778827"><ele>265.75</ele><time>2026-03-29T09:21:10Z</time></trkpt><trkpt lat="40.646613323447774" lon="8.882921671357202"><ele>265.5</ele><time>2026-03-29T09:21:11Z</time></trkpt><trkpt lat="40.64657744569045" lon="8.88308801131463"><ele>265.25</ele><time>2026-03-29T09:21:12Z</time></trkpt><trkpt lat="40.646559380900946" lon="8.883262356679186"><ele>265.0</ele><time>2026-03-29T09:21:13Z</time></trkpt><trkpt lat="40.64653068440468" lon="8.883446273572877"><ele>264.25</ele><time>2026-03-29T09:21:14Z</time></trkpt><trkpt lat="40.6465255989067" lon="8.883625282752273"><ele>263.5</ele><time>2026-03-29T09:21:15Z</time></trkpt><trkpt lat="40.6465324039263" lon="8.883786924796796"><ele>262.75</ele><time>2026-03-29T09:21:16Z</time></trkpt><trkpt lat="40.6465206983303" lon="8.883966077850905"><ele>262.0</ele><time>2026-03-29T09:21:17Z</time></trkpt><trkpt lat="40.646515532340224" lon="8.884125872834835"><ele>261.75</ele><time>2026-03-29T09:21:18Z</time></trkpt><trkpt lat="40.646495449028926" lon="8.884265649840364"><ele>261.5</ele><time>2026-03-29T09:21:19Z</time></trkpt><trkpt lat="40.64646139016263" lon="8.884435885449944"><ele>261.25</ele><time>2026-03-29T09:21:20Z</time></trkpt><trkpt lat="40.646427920846236" lon="8.884647442518677"><ele>261.0</ele><time>2026-03-29T09:21:21Z</time></trkpt><trkpt lat="40.646390196946456" lon="8.884886709671088"><ele>260.3333333333333</ele><time>2026-03-29T09:21:22Z</time></trkpt><trkpt lat="40.64635052474916" lon="8.885114950173607"><ele>259.66666666666663</ele><time>2026-03-29T09:21:23Z</time></trkpt><trkpt lat="40.646314766382375" lon="8.885302738939487"><ele>259.0</ele><time>2026-03-29T09:21:24Z</time></trkpt><trkpt lat="40.64628674693584" lon="8.885499613272481"><ele>259.0</ele><time>2026-03-29T09:21:25Z</time></trkpt><trkpt lat="40.64626376976891" lon="8.885691466270186"><ele>259.0</ele><time>2026-03-29T09:21:26Z</time></trkpt><trkpt lat="40.646240054213926" lon="8.885879352239273"><ele>259.0</ele><time>2026-03-29T09:21:27Z</time></trkpt><trkpt lat="40.64620848831822" lon="8.886069577582026"><ele>259.0</ele><time>2026-03-29T09:21:28Z</time></trkpt><trkpt lat="40.646165658824096" lon="8.886245368378086"><ele>259.0</ele><time>2026-03-29T09:21:29Z</time></trkpt><trkpt lat="40.646128732918775" lon="8.886404927420887"><ele>259.0</ele><time>2026-03-29T09:21:30Z</time></trkpt><trkpt lat="40.64609342399766" lon="8.886572889479746"><ele>259.0</ele><time>2026-03-29T09:21:31Z</time></trkpt><trkpt lat="40.6460742801078" lon="8.886748981498872"><ele>259.0</ele><time>2026-03-29T09:21:32Z</time></trkpt><trkpt lat="40.6460811418505" lon="8.886915390191426"><ele>259.0</ele><time>2026-03-29T09:21:33Z</time></trkpt><trkpt lat="40.6460766933893" lon="8.887104839578138"><ele>259.0</ele><time>2026-03-29T09:21:34Z</time></trkpt><trkpt lat="40.64606817269026" lon="8.887288637662962"><ele>259.0</ele><time>2026-03-29T09:21:35Z</time></trkpt><trkpt lat="40.64605915068465" lon="8.887447560409116"><ele>259.0</ele><time>2026-03-29T09:21:36Z</time></trkpt><trkpt lat="40.64604223784362" lon="8.887625384711953"><ele>259.0</ele><time>2026-03-29T09:21:37Z</time></trkpt><trkpt lat="40.64601574919181" lon="8.887815521506353"><ele>259.0</ele><time>2026-03-29T09:21:38Z</time></trkpt><trkpt lat="40.645986975242316" lon="8.888038401952901"><ele>259.0</ele><time>2026-03-29T09:21:39Z</time></trkpt><trkpt lat="40.64596060239556" lon="8.8882398689131"><ele>259.0</ele><time>2026-03-29T09:21:40Z</time></trkpt><trkpt lat="40.64593325214091" lon="8.888420852433272"><ele>259.0</ele><time>2026-03-29T09:21:41Z</time></trkpt><trkpt lat="40.645903923824676" lon="8.888583605682454"><ele>259.0</ele><time>2026-03-29T09:21:42Z</time></trkpt><trkpt lat="40.64587543630527" lon="8.888709221691181"><ele>259.0</ele><time>2026-03-29T09:21:43Z</time></trkpt><trkpt lat="40.645851859485305" lon="8.888795914266895"><ele>259.0</ele><time>2026-03-29T09:21:44Z</time></trkpt><trkpt lat="40.645815768081725" lon="8.888928271135743"><ele>258.4</ele><time>2026-03-29T09:21:46Z</time></trkpt><trkpt lat="40.64578874218934" lon="8.88908153343357"><ele>257.79999999999995</ele><time>2026-03-29T09:25:28.999Z</time></trkpt><trkpt lat="40.645713945205856" lon="8.889227149093395"><ele>257.20000000000005</ele><time>2026-03-29T09:25:30.999Z</time></trkpt><trkpt lat="40.645665978943775" lon="8.889306238464286"><ele>256.6</ele><time>2026-03-29T09:25:31.999Z</time></trkpt><trkpt lat="40.64561838364205" lon="8.889383218854205"><ele>256.0</ele><time>2026-03-29T09:25:32.999Z</time></trkpt><trkpt lat="40.64556684630841" lon="8.88945705580037"><ele>255.66666666666666</ele><time>2026-03-29T09:25:33.999Z</time></trkpt><trkpt lat="40.64552165888614" lon="8.889521856197645"><ele>255.33333333333331</ele><time>2026-03-29T09:25:34.999Z</time></trkpt><trkpt lat="40.64547460593848" lon="8.889585517832167"><ele>255.0</ele><time>2026-03-29T09:25:35.999Z</time></trkpt><trkpt lat="40.64542848974676" lon="8.889656503937154"><ele>254.66666666666669</ele><time>2026-03-29T09:25:36.999Z</time></trkpt><trkpt lat="40.64538077395862" lon="8.889741449533272"><ele>254.33333333333334</ele><time>2026-03-29T09:25:37.999Z</time></trkpt><trkpt lat="40.64534507438026" lon="8.889853389909351"><ele>254.0</ele><time>2026-03-29T09:25:38.999Z</time></trkpt><trkpt lat="40.64530676697629" lon="8.889964910828692"><ele>254.00000000000003</ele><time>2026-03-29T09:25:39.999Z</time></trkpt><trkpt lat="40.64526978720668" lon="8.890061690813114"><ele>254.0</ele><time>2026-03-29T09:25:40.999Z</time></trkpt><trkpt lat="40.645235047544624" lon="8.890161881143015"><ele>254.0</ele><time>2026-03-29T09:25:41.999Z</time></trkpt><trkpt lat="40.645201123655916" lon="8.890270586413639"><ele>254.0</ele><time>2026-03-29T09:25:42.999Z</time></trkpt><trkpt lat="40.6451715767443" lon="8.890368372897582"><ele>254.00000000000003</ele><time>2026-03-29T09:25:43.999Z</time></trkpt><trkpt lat="40.64514689302873" lon="8.890464630777391"><ele>254.0</ele><time>2026-03-29T09:25:44.999Z</time></trkpt><trkpt lat="40.64512227988198" lon="8.890552556594828"><ele>254.00000000000003</ele><time>2026-03-29T09:25:45.999Z</time></trkpt><trkpt lat="40.64511326454838" lon="8.890657291608859"><ele>254.0</ele><time>2026-03-29T09:25:46.999Z</time></trkpt><trkpt lat="40.64511840076718" lon="8.890760004842168"><ele>254.0</ele><time>2026-03-29T09:25:47.999Z</time></trkpt><trkpt lat="40.645139071480955" lon="8.890878064880734"><ele>254.0</ele><time>2026-03-29T09:25:48.999Z</time></trkpt><trkpt lat="40.645155808124215" lon="8.890998251572142"><ele>254.00000000000003</ele><time>2026-03-29T09:25:49.999Z</time></trkpt><trkpt lat="40.64517149278472" lon="8.891118091762191"><ele>254.0</ele><time>2026-03-29T09:25:50.999Z</time></trkpt><trkpt lat="40.645179049630826" lon="8.891246649495892"><ele>253.50000000000003</ele><time>2026-03-29T09:25:51.999Z</time></trkpt><trkpt lat="40.645161679814684" lon="8.89136395683499"><ele>253.0</ele><time>2026-03-29T09:25:52.999Z</time></trkpt><trkpt lat="40.64514215319115" lon="8.89148628882584"><ele>252.5</ele><time>2026-03-29T09:25:53.999Z</time></trkpt><trkpt lat="40.64513444087855" lon="8.891613306425524"><ele>252.0</ele><time>2026-03-29T09:25:54.999Z</time></trkpt><trkpt lat="40.64513857660867" lon="8.891722721410675"><ele>251.50000000000003</ele><time>2026-03-29T09:25:55.999Z</time></trkpt><trkpt lat="40.64514376786512" lon="8.891812507234329"><ele>251.0</ele><time>2026-03-29T09:25:56.999Z</time></trkpt><trkpt lat="40.645172436989064" lon="8.891928226478703"><ele>250.66666666666669</ele><time>2026-03-29T09:25:58.999Z</time></trkpt><trkpt lat="40.64516256678234" lon="8.892011827919221"><ele>250.33333333333334</ele><time>2026-03-29T09:26:00.999Z</time></trkpt><trkpt lat="40.645230291549524" lon="8.892042663993765"><ele>250.0</ele><time>2026-03-29T09:26:20.999Z</time></trkpt><trkpt lat="40.64529969055143" lon="8.892150929257042"><ele>249.66666666666669</ele><time>2026-03-29T09:26:23.999Z</time></trkpt><trkpt lat="40.64531773162654" lon="8.89224516769381"><ele>249.33333333333334</ele><time>2026-03-29T09:26:24.999Z</time></trkpt><trkpt lat="40.645322713544154" lon="8.892340067733876"><ele>249.0</ele><time>2026-03-29T09:26:25.999Z</time></trkpt><trkpt lat="40.645367542661056" lon="8.892440555452453"><ele>248.79999999999998</ele><time>2026-03-29T09:26:26.999Z</time></trkpt><trkpt lat="40.645411273014986" lon="8.892545029188007"><ele>248.59999999999997</ele><time>2026-03-29T09:26:27.999Z</time></trkpt><trkpt lat="40.645463859996404" lon="8.892643809903808"><ele>248.4</ele><time>2026-03-29T09:26:28.999Z</time></trkpt><trkpt lat="40.64552553406183" lon="8.892742576006395"><ele>248.2</ele><time>2026-03-29T09:26:29.999Z</time></trkpt><trkpt lat="40.6455875963942" lon="8.892839010700389"><ele>248.0</ele><time>2026-03-29T09:26:30.999Z</time></trkpt><trkpt lat="40.645649192197205" lon="8.892930828697926"><ele>247.50000000000003</ele><time>2026-03-29T09:26:31.999Z</time></trkpt><trkpt lat="40.64569894360634" lon="8.892997662478137"><ele>247.0</ele><time>2026-03-29T09:26:32.999Z</time></trkpt><trkpt lat="40.64575559818153" lon="8.893063936323758"><ele>246.5</ele><time>2026-03-29T09:26:33.999Z</time></trkpt><trkpt lat="40.645819180608946" lon="8.893121679098634"><ele>246.0</ele><time>2026-03-29T09:26:34.999Z</time></trkpt><trkpt lat="40.64589362026092" lon="8.89317900534964"><ele>245.50000000000003</ele><time>2026-03-29T09:26:35.999Z</time></trkpt><trkpt lat="40.64596882011164" lon="8.89322258443202"><ele>245.0</ele><time>2026-03-29T09:26:36.999Z</time></trkpt><trkpt lat="40.646041665111255" lon="8.893255287386722"><ele>245.0</ele><time>2026-03-29T09:26:37.999Z</time></trkpt><trkpt lat="40.64611952632004" lon="8.893262000483075"><ele>245.0</ele><time>2026-03-29T09:26:38.999Z</time></trkpt><trkpt lat="40.64618880957505" lon="8.893252972701875"><ele>245.0</ele><time>2026-03-29T09:26:39.999Z</time></trkpt><trkpt lat="40.64630023798591" lon="8.893274422968963"><ele>245.0</ele><time>2026-03-29T09:26:41.999Z</time></trkpt><trkpt lat="40.646367974545356" lon="8.893380337883702"><ele>245.0</ele><time>2026-03-29T09:26:43.999Z</time></trkpt><trkpt lat="40.646304941454055" lon="8.893516925182237"><ele>245.00000000000003</ele><time>2026-03-29T09:26:44.999Z</time></trkpt><trkpt lat="40.64626195546934" lon="8.89359403516655"><ele>245.0</ele><time>2026-03-29T09:26:45.999Z</time></trkpt><trkpt lat="40.64620130530426" lon="8.8936623415963"><ele>245.0</ele><time>2026-03-29T09:26:46.999Z</time></trkpt><trkpt lat="40.646147370513816" lon="8.893762276110781"><ele>245.0</ele><time>2026-03-29T09:26:47.999Z</time></trkpt><trkpt lat="40.64610997324951" lon="8.893873455954823"><ele>245.00000000000003</ele><time>2026-03-29T09:26:48.999Z</time></trkpt><trkpt lat="40.64609303167374" lon="8.893998305125736"><ele>245.0</ele><time>2026-03-29T09:26:49.999Z</time></trkpt><trkpt lat="40.646065320038616" lon="8.894128647860938"><ele>243.5</ele><time>2026-03-29T09:26:50.999Z</time></trkpt><trkpt lat="40.646033313413675" lon="8.894271486177026"><ele>242.0</ele><time>2026-03-29T09:26:51.999Z</time></trkpt><trkpt lat="40.64599382747063" lon="8.894419543393001"><ele>240.5</ele><time>2026-03-29T09:26:52.999Z</time></trkpt><trkpt lat="40.64595173272136" lon="8.89456866645934"><ele>239.0</ele><time>2026-03-29T09:26:53.999Z</time></trkpt><trkpt lat="40.64590093504532" lon="8.89470757205713"><ele>239.0</ele><time>2026-03-29T09:26:54.999Z</time></trkpt><trkpt lat="40.645859145776676" lon="8.894838975908977"><ele>238.99999999999997</ele><time>2026-03-29T09:26:55.999Z</time></trkpt><trkpt lat="40.64581031012946" lon="8.89495288819518"><ele>238.99999999999997</ele><time>2026-03-29T09:26:56.999Z</time></trkpt><trkpt lat="40.64580900284356" lon="8.89507347277339"><ele>239.0</ele><time>2026-03-29T09:26:57.999Z</time></trkpt><trkpt lat="40.645831116063896" lon="8.895181335583226"><ele>239.0</ele><time>2026-03-29T09:26:58.999Z</time></trkpt><trkpt lat="40.64586949684213" lon="8.895282255790823"><ele>239.0</ele><time>2026-03-29T09:26:59.999Z</time></trkpt><trkpt lat="40.64592514407617" lon="8.895387864198256"><ele>238.99999999999997</ele><time>2026-03-29T09:27:00.999Z</time></trkpt><trkpt lat="40.64599224506113" lon="8.895494922763302"><ele>238.99999999999997</ele><time>2026-03-29T09:27:01.999Z</time></trkpt><trkpt lat="40.64605900552956" lon="8.895589967412919"><ele>239.0</ele><time>2026-03-29T09:27:02.999Z</time></trkpt><trkpt lat="40.64611841974302" lon="8.895681614756237"><ele>239.0</ele><time>2026-03-29T09:27:03.999Z</time></trkpt><trkpt lat="40.646164115021584" lon="8.895779593378041"><ele>239.0</ele><time>2026-03-29T09:27:04.999Z</time></trkpt><trkpt lat="40.64617985970123" lon="8.895896914754841"><ele>238.99999999999997</ele><time>2026-03-29T09:27:05.999Z</time></trkpt><trkpt lat="40.64615191709898" lon="8.896015962050436"><ele>238.99999999999997</ele><time>2026-03-29T09:27:06.999Z</time></trkpt><trkpt lat="40.64612763498801" lon="8.8961427239888"><ele>239.0</ele><time>2026-03-29T09:27:07.999Z</time></trkpt><trkpt lat="40.64609074205526" lon="8.896265164994974"><ele>239.0</ele><time>2026-03-29T09:27:08.999Z</time></trkpt><trkpt lat="40.64604309921769" lon="8.896381985979437"><ele>239.0</ele><time>2026-03-29T09:27:09.999Z</time></trkpt><trkpt lat="40.645990885229885" lon="8.896494843879873"><ele>238.99999999999997</ele><time>2026-03-29T09:27:10.999Z</time></trkpt><trkpt lat="40.64594257369661" lon="8.896604272818546"><ele>238.99999999999997</ele><time>2026-03-29T09:27:11.999Z</time></trkpt><trkpt lat="40.64589675958779" lon="8.896708752782065"><ele>239.0</ele><time>2026-03-29T09:27:12.999Z</time></trkpt><trkpt lat="40.64585061774017" lon="8.896809378917382"><ele>239.0</ele><time>2026-03-29T09:27:13.999Z</time></trkpt><trkpt lat="40.64580612651799" lon="8.89690563298231"><ele>239.00000000000003</ele><time>2026-03-29T09:27:14.999Z</time></trkpt><trkpt lat="40.64576240736456" lon="8.896983834198657"><ele>239.0</ele><time>2026-03-29T09:27:15.999Z</time></trkpt><trkpt lat="40.64570236081568" lon="8.897088105732134"><ele>239.0</ele><time>2026-03-29T09:27:17.999Z</time></trkpt><trkpt lat="40.64561661212754" lon="8.897060469579728"><ele>239.0</ele><time>2026-03-29T09:27:41.999Z</time></trkpt><trkpt lat="40.645573169094135" lon="8.896967877060659"><ele>239.00000000000003</ele><time>2026-03-29T09:27:42.999Z</time></trkpt><trkpt lat="40.645537574199416" lon="8.896852220365053"><ele>239.0</ele><time>2026-03-29T09:27:43.999Z</time></trkpt><trkpt lat="40.64549888824399" lon="8.896733179659075"><ele>239.0</ele><time>2026-03-29T09:27:45Z</time></trkpt><trkpt lat="40.64545237031647" lon="8.89660228421077"><ele>239.0</ele><time>2026-03-29T09:27:46Z</time></trkpt><trkpt lat="40.645400872638035" lon="8.896449645250032"><ele>239.0</ele><time>2026-03-29T09:27:47Z</time></trkpt><trkpt lat="40.64534587182438" lon="8.896292812043875"><ele>239.0</ele><time>2026-03-29T09:27:48Z</time></trkpt><trkpt lat="40.64529081532511" lon="8.896127890112858"><ele>238.25</ele><time>2026-03-29T09:27:49Z</time></trkpt><trkpt lat="40.645232836214475" lon="8.895963119652322"><ele>237.5</ele><time>2026-03-29T09:27:50Z</time></trkpt><trkpt lat="40.645177397977925" lon="8.895806552315422"><ele>236.75</ele><time>2026-03-29T09:27:51Z</time></trkpt><trkpt lat="40.6451191794282" lon="8.895662069834128"><ele>236.0</ele><time>2026-03-29T09:27:52Z</time></trkpt><trkpt lat="40.64505165196404" lon="8.895531916165437"><ele>236.0</ele><time>2026-03-29T09:27:53Z</time></trkpt><trkpt lat="40.64498729822424" lon="8.895393749132369"><ele>236.0</ele><time>2026-03-29T09:27:54Z</time></trkpt><trkpt lat="40.644885779433935" lon="8.895283007939495"><ele>236.0</ele><time>2026-03-29T09:27:55Z</time></trkpt><trkpt lat="40.64476867201355" lon="8.895198844941577"><ele>236.0</ele><time>2026-03-29T09:27:56Z</time></trkpt><trkpt lat="40.644637391649745" lon="8.895151587473036"><ele>236.25</ele><time>2026-03-29T09:27:57Z</time></trkpt><trkpt lat="40.64451293193851" lon="8.895081824432507"><ele>236.5</ele><time>2026-03-29T09:27:58Z</time></trkpt><trkpt lat="40.644387917959165" lon="8.895016174912396"><ele>236.75</ele><time>2026-03-29T09:27:59Z</time></trkpt><trkpt lat="40.64426789109674" lon="8.894960019120427"><ele>237.0</ele><time>2026-03-29T09:28:00Z</time></trkpt><trkpt lat="40.64415773999259" lon="8.894896366959761"><ele>237.0</ele><time>2026-03-29T09:28:01Z</time></trkpt><trkpt lat="40.644043265016435" lon="8.89487510213906"><ele>237.0</ele><time>2026-03-29T09:28:02Z</time></trkpt><trkpt lat="40.64392890438611" lon="8.894867308071294"><ele>237.0</ele><time>2026-03-29T09:28:03Z</time></trkpt><trkpt lat="40.643816937455775" lon="8.89488417481752"><ele>237.0</ele><time>2026-03-29T09:28:04Z</time></trkpt><trkpt lat="40.64369959995191" lon="8.894919124282044"><ele>237.0</ele><time>2026-03-29T09:28:05Z</time></trkpt><trkpt lat="40.64358851661669" lon="8.894984442114339"><ele>237.0</ele><time>2026-03-29T09:28:06Z</time></trkpt><trkpt lat="40.643474823178344" lon="8.895062665867584"><ele>237.0</ele><time>2026-03-29T09:28:07Z</time></trkpt><trkpt lat="40.64335614872756" lon="8.895145790415203"><ele>237.0</ele><time>2026-03-29T09:28:08Z</time></trkpt><trkpt lat="40.643232203214595" lon="8.89523078605727"><ele>236.33333333333331</ele><time>2026-03-29T09:28:09Z</time></trkpt><trkpt lat="40.643101123461065" lon="8.895320249963248"><ele>235.66666666666666</ele><time>2026-03-29T09:28:10Z</time></trkpt><trkpt lat="40.64296432274266" lon="8.895413618544575"><ele>235.0</ele><time>2026-03-29T09:28:11Z</time></trkpt><trkpt lat="40.642824651875436" lon="8.895508946082831"><ele>234.33333333333331</ele><time>2026-03-29T09:28:12Z</time></trkpt><trkpt lat="40.642679997648614" lon="8.895607674820516"><ele>233.66666666666669</ele><time>2026-03-29T09:28:13Z</time></trkpt><trkpt lat="40.64252572259417" lon="8.895713233516206"><ele>233.0</ele><time>2026-03-29T09:28:14Z</time></trkpt><trkpt lat="40.64236434900396" lon="8.89582480772568"><ele>232.33333333333334</ele><time>2026-03-29T09:28:15Z</time></trkpt><trkpt lat="40.64220714821188" lon="8.895933496898826"><ele>231.66666666666669</ele><time>2026-03-29T09:28:16Z</time></trkpt><trkpt lat="40.64204375603512" lon="8.89604394531316"><ele>231.0</ele><time>2026-03-29T09:28:17Z</time></trkpt><trkpt lat="40.64188989637484" lon="8.896146385812298"><ele>230.33333333333331</ele><time>2026-03-29T09:28:18Z</time></trkpt><trkpt lat="40.64173980511339" lon="8.896246732188137"><ele>229.66666666666666</ele><time>2026-03-29T09:28:19Z</time></trkpt><trkpt lat="40.6415998206549" lon="8.896344945389286"><ele>229.0</ele><time>2026-03-29T09:28:20Z</time></trkpt><trkpt lat="40.64145353025211" lon="8.896447404691225"><ele>229.0</ele><time>2026-03-29T09:28:21Z</time></trkpt><trkpt lat="40.64130559007174" lon="8.896549421663533"><ele>229.0</ele><time>2026-03-29T09:28:22Z</time></trkpt><trkpt lat="40.641153919358196" lon="8.89665228930348"><ele>229.0</ele><time>2026-03-29T09:28:23Z</time></trkpt><trkpt lat="40.64102415579389" lon="8.896759587411314"><ele>229.33333333333331</ele><time>2026-03-29T09:28:24Z</time></trkpt><trkpt lat="40.640860697739264" lon="8.896851725803895"><ele>229.66666666666669</ele><time>2026-03-29T09:28:25Z</time></trkpt><trkpt lat="40.6407284404897" lon="8.89694264226225"><ele>230.0</ele><time>2026-03-29T09:28:26Z</time></trkpt><trkpt lat="40.64060227767603" lon="8.897046877606424"><ele>230.0</ele><time>2026-03-29T09:28:27Z</time></trkpt><trkpt lat="40.64045085571601" lon="8.897144520748368"><ele>230.0</ele><time>2026-03-29T09:28:28Z</time></trkpt><trkpt lat="40.64029974752129" lon="8.897251368919322"><ele>230.0</ele><time>2026-03-29T09:28:29Z</time></trkpt><trkpt lat="40.6401497602016" lon="8.897353366771648"><ele>230.0</ele><time>2026-03-29T09:28:30Z</time></trkpt><trkpt lat="40.64001165668333" lon="8.897441569381726"><ele>230.0</ele><time>2026-03-29T09:28:31Z</time></trkpt><trkpt lat="40.639881631789294" lon="8.897533014357581"><ele>230.0</ele><time>2026-03-29T09:28:32Z</time></trkpt><trkpt lat="40.63973598150667" lon="8.89760793294676"><ele>230.0</ele><time>2026-03-29T09:28:33Z</time></trkpt><trkpt lat="40.639580921144116" lon="8.897716363884449"><ele>230.0</ele><time>2026-03-29T09:28:34Z</time></trkpt><trkpt lat="40.639450010136386" lon="8.897810887571985"><ele>230.0</ele><time>2026-03-29T09:28:35Z</time></trkpt><trkpt lat="40.639313238932964" lon="8.89790957122388"><ele>230.33333333333334</ele><time>2026-03-29T09:28:36Z</time></trkpt><trkpt lat="40.63917074943926" lon="8.898023818612021"><ele>230.66666666666669</ele><time>2026-03-29T09:28:37Z</time></trkpt><trkpt lat="40.639026257448535" lon="8.89809659831353"><ele>231.0</ele><time>2026-03-29T09:28:38Z</time></trkpt><trkpt lat="40.638874830196706" lon="8.898164365132168"><ele>231.0</ele><time>2026-03-29T09:28:39Z</time></trkpt><trkpt lat="40.638723855306864" lon="8.898250774884195"><ele>231.0</ele><time>2026-03-29T09:28:40Z</time></trkpt><trkpt lat="40.63857652842668" lon="8.898315737202868"><ele>231.0</ele><time>2026-03-29T09:28:41Z</time></trkpt><trkpt lat="40.638428974090736" lon="8.898381649950856"><ele>231.66666666666669</ele><time>2026-03-29T09:28:42Z</time></trkpt><trkpt lat="40.63828081356009" lon="8.898462572986867"><ele>232.33333333333334</ele><time>2026-03-29T09:28:43Z</time></trkpt><trkpt lat="40.63813397951506" lon="8.89852731756015"><ele>233.0</ele><time>2026-03-29T09:28:44Z</time></trkpt><trkpt lat="40.63798257353532" lon="8.898582406547405"><ele>233.0</ele><time>2026-03-29T09:28:45Z</time></trkpt><trkpt lat="40.63783118165965" lon="8.898651874778475"><ele>233.0</ele><time>2026-03-29T09:28:46Z</time></trkpt><trkpt lat="40.637701007576254" lon="8.898720259582033"><ele>233.0</ele><time>2026-03-29T09:28:47Z</time></trkpt><trkpt lat="40.63755662051804" lon="8.898775802692585"><ele>232.75</ele><time>2026-03-29T09:28:48Z</time></trkpt><trkpt lat="40.63742447167649" lon="8.898840950472025"><ele>232.5</ele><time>2026-03-29T09:28:49Z</time></trkpt><trkpt lat="40.637297232630196" lon="8.898899602901361"><ele>232.25</ele><time>2026-03-29T09:28:50Z</time></trkpt><trkpt lat="40.63716593027896" lon="8.898941443610516"><ele>232.0</ele><time>2026-03-29T09:28:51Z</time></trkpt><trkpt lat="40.637035700200784" lon="8.89902986181841"><ele>232.0</ele><time>2026-03-29T09:28:52Z</time></trkpt><trkpt lat="40.63691981165382" lon="8.899071069560701"><ele>232.0</ele><time>2026-03-29T09:28:53Z</time></trkpt><trkpt lat="40.636800158763414" lon="8.899144025697847"><ele>232.0</ele><time>2026-03-29T09:28:54Z</time></trkpt><trkpt lat="40.63668029814686" lon="8.899206734248711"><ele>232.0</ele><time>2026-03-29T09:28:55Z</time></trkpt><trkpt lat="40.636570377460416" lon="8.899264242993981"><ele>232.0</ele><time>2026-03-29T09:28:56Z</time></trkpt><trkpt lat="40.636489747101386" lon="8.89933104870301"><ele>232.0</ele><time>2026-03-29T09:28:57Z</time></trkpt><trkpt lat="40.636427760913435" lon="8.899376057934703"><ele>232.0</ele><time>2026-03-29T09:28:58Z</time></trkpt><trkpt lat="40.63633957260266" lon="8.899440191697524"><ele>232.0</ele><time>2026-03-29T09:28:59Z</time></trkpt><trkpt lat="40.636246621023716" lon="8.899508138191816"><ele>232.0</ele><time>2026-03-29T09:29:00Z</time></trkpt><trkpt lat="40.63613583663165" lon="8.899589224076326"><ele>231.66666666666666</ele><time>2026-03-29T09:29:01Z</time></trkpt><trkpt lat="40.63604595573348" lon="8.899678343643227"><ele>231.33333333333331</ele><time>2026-03-29T09:29:02Z</time></trkpt><trkpt lat="40.6359525116627" lon="8.899732009574205"><ele>231.0</ele><time>2026-03-29T09:29:03Z</time></trkpt><trkpt lat="40.635882189886786" lon="8.89975625796197"><ele>230.66666666666669</ele><time>2026-03-29T09:29:04Z</time></trkpt><trkpt lat="40.63580268427081" lon="8.899802291558135"><ele>230.33333333333334</ele><time>2026-03-29T09:29:05Z</time></trkpt><trkpt lat="40.63573392894721" lon="8.89983659123866"><ele>230.0</ele><time>2026-03-29T09:29:06Z</time></trkpt><trkpt lat="40.635653742955796" lon="8.899723636130357"><ele>230.0</ele><time>2026-03-29T09:29:07Z</time></trkpt><trkpt lat="40.635537772733606" lon="8.899571882212271"><ele>230.0</ele><time>2026-03-29T09:29:09Z</time></trkpt><trkpt lat="40.63554165113729" lon="8.899407152321011"><ele>230.0</ele><time>2026-03-29T09:29:10Z</time></trkpt><trkpt lat="40.63553673750224" lon="8.899288363599501"><ele>230.0</ele><time>2026-03-29T09:29:11Z</time></trkpt><trkpt lat="40.635537212217066" lon="8.899134892989942"><ele>230.0</ele><time>2026-03-29T09:29:12Z</time></trkpt><trkpt lat="40.635539716619206" lon="8.898945132173447"><ele>230.0</ele><time>2026-03-29T09:29:13Z</time></trkpt><trkpt lat="40.63553951379936" lon="8.898745191994484"><ele>230.0</ele><time>2026-03-29T09:29:14Z</time></trkpt><trkpt lat="40.635535785466196" lon="8.898529644210138"><ele>230.0</ele><time>2026-03-29T09:29:15Z</time></trkpt></trkseg></trk></gpx>